<?xml version="1.0" encoding="UTF-8" standalone="no" ?>
<gpx xmlns="http://www.topografix.com/GPX/1/1" xmlns:xsi="http://www.w3.org/2001/XMLSchema-instance" xsi:schemaLocation="http://www.topografix.com/GPX/1/1 http://www.topografix.com/GPX/1/1/gpx.xsd" version="1.1" creator="VisuGPX - https://www.visugpx.com">
  <metadata>
    <name>Champtoceaux 2014</name>
    <desc><![CDATA[Randonnée VTT de Champtoceaux 2014
(attention la plupart des vignes sont privées)]]></desc>
  </metadata>
  <trk>
    <name><![CDATA[Champtoceaux 2014_1]]></name>
    <trkseg>
      <trkpt lat="47.33585" lon="-1.26819">
        <ele>66.6</ele>
        <time>2014-06-08T06:01:29Z</time>
      </trkpt>
      <trkpt lat="47.33585" lon="-1.26819">
        <ele>64.5</ele>
        <time>2014-06-08T06:01:37Z</time>
      </trkpt>
      <trkpt lat="47.3359" lon="-1.26807">
        <ele>70.5</ele>
        <time>2014-06-08T06:03:06Z</time>
      </trkpt>
      <trkpt lat="47.3359" lon="-1.26781">
        <ele>71.5</ele>
        <time>2014-06-08T06:12:29Z</time>
      </trkpt>
      <trkpt lat="47.33581" lon="-1.26793">
        <ele>70.5</ele>
        <time>2014-06-08T06:12:38Z</time>
      </trkpt>
      <trkpt lat="47.33582" lon="-1.26817">
        <ele>68.5</ele>
        <time>2014-06-08T06:12:42Z</time>
      </trkpt>
      <trkpt lat="47.33581" lon="-1.26849">
        <ele>67.5</ele>
        <time>2014-06-08T06:12:46Z</time>
      </trkpt>
      <trkpt lat="47.33584" lon="-1.26884">
        <ele>66.5</ele>
        <time>2014-06-08T06:12:50Z</time>
      </trkpt>
      <trkpt lat="47.33587" lon="-1.2692">
        <ele>63.5</ele>
        <time>2014-06-08T06:12:54Z</time>
      </trkpt>
      <trkpt lat="47.33586" lon="-1.26954">
        <ele>62.5</ele>
        <time>2014-06-08T06:12:58Z</time>
      </trkpt>
      <trkpt lat="47.33573" lon="-1.26982">
        <ele>62.5</ele>
        <time>2014-06-08T06:13:02Z</time>
      </trkpt>
      <trkpt lat="47.33554" lon="-1.27004">
        <ele>63.5</ele>
        <time>2014-06-08T06:13:06Z</time>
      </trkpt>
      <trkpt lat="47.33544" lon="-1.27019">
        <ele>64.5</ele>
        <time>2014-06-08T06:13:09Z</time>
      </trkpt>
      <trkpt lat="47.33527" lon="-1.27037">
        <ele>61.5</ele>
        <time>2014-06-08T06:13:13Z</time>
      </trkpt>
      <trkpt lat="47.33506" lon="-1.27056">
        <ele>57.5</ele>
        <time>2014-06-08T06:13:17Z</time>
      </trkpt>
      <trkpt lat="47.33486" lon="-1.27086">
        <ele>56.5</ele>
        <time>2014-06-08T06:13:21Z</time>
      </trkpt>
      <trkpt lat="47.33461" lon="-1.27112">
        <ele>55.5</ele>
        <time>2014-06-08T06:13:25Z</time>
      </trkpt>
      <trkpt lat="47.3344" lon="-1.27126">
        <ele>55.5</ele>
        <time>2014-06-08T06:13:29Z</time>
      </trkpt>
      <trkpt lat="47.33428" lon="-1.27126">
        <ele>53.5</ele>
        <time>2014-06-08T06:13:33Z</time>
      </trkpt>
      <trkpt lat="47.33412" lon="-1.27125">
        <ele>53.5</ele>
        <time>2014-06-08T06:13:38Z</time>
      </trkpt>
      <trkpt lat="47.33394" lon="-1.27125">
        <ele>52.5</ele>
        <time>2014-06-08T06:13:42Z</time>
      </trkpt>
      <trkpt lat="47.3337" lon="-1.27125">
        <ele>54.5</ele>
        <time>2014-06-08T06:13:46Z</time>
      </trkpt>
      <trkpt lat="47.33346" lon="-1.27121">
        <ele>54.5</ele>
        <time>2014-06-08T06:13:50Z</time>
      </trkpt>
      <trkpt lat="47.33325" lon="-1.27119">
        <ele>55.5</ele>
        <time>2014-06-08T06:13:54Z</time>
      </trkpt>
      <trkpt lat="47.3331" lon="-1.2713">
        <ele>56.5</ele>
        <time>2014-06-08T06:13:58Z</time>
      </trkpt>
      <trkpt lat="47.33291" lon="-1.27128">
        <ele>54.5</ele>
        <time>2014-06-08T06:14:02Z</time>
      </trkpt>
      <trkpt lat="47.33279" lon="-1.27131">
        <ele>54.5</ele>
        <time>2014-06-08T06:14:05Z</time>
      </trkpt>
      <trkpt lat="47.33256" lon="-1.27139">
        <ele>52.5</ele>
        <time>2014-06-08T06:14:09Z</time>
      </trkpt>
      <trkpt lat="47.33244" lon="-1.27146">
        <ele>53.5</ele>
        <time>2014-06-08T06:14:13Z</time>
      </trkpt>
      <trkpt lat="47.33233" lon="-1.27154">
        <ele>53.5</ele>
        <time>2014-06-08T06:14:17Z</time>
      </trkpt>
      <trkpt lat="47.33226" lon="-1.27162">
        <ele>48.5</ele>
        <time>2014-06-08T06:14:21Z</time>
      </trkpt>
      <trkpt lat="47.33223" lon="-1.2721">
        <ele>51.5</ele>
        <time>2014-06-08T06:14:25Z</time>
      </trkpt>
      <trkpt lat="47.33214" lon="-1.27221">
        <ele>48.5</ele>
        <time>2014-06-08T06:14:42Z</time>
      </trkpt>
      <trkpt lat="47.33208" lon="-1.27231">
        <ele>50.5</ele>
        <time>2014-06-08T06:14:50Z</time>
      </trkpt>
      <trkpt lat="47.33201" lon="-1.27247">
        <ele>48.5</ele>
        <time>2014-06-08T06:14:57Z</time>
      </trkpt>
      <trkpt lat="47.3319" lon="-1.27262">
        <ele>48.5</ele>
        <time>2014-06-08T06:15:05Z</time>
      </trkpt>
      <trkpt lat="47.33182" lon="-1.2728">
        <ele>51.5</ele>
        <time>2014-06-08T06:15:13Z</time>
      </trkpt>
      <trkpt lat="47.33175" lon="-1.27297">
        <ele>56.5</ele>
        <time>2014-06-08T06:15:22Z</time>
      </trkpt>
      <trkpt lat="47.33171" lon="-1.2731">
        <ele>55.5</ele>
        <time>2014-06-08T06:15:26Z</time>
      </trkpt>
      <trkpt lat="47.33164" lon="-1.27332">
        <ele>56.5</ele>
        <time>2014-06-08T06:15:34Z</time>
      </trkpt>
      <trkpt lat="47.33153" lon="-1.27347">
        <ele>56.5</ele>
        <time>2014-06-08T06:15:42Z</time>
      </trkpt>
      <trkpt lat="47.33142" lon="-1.27365">
        <ele>55.5</ele>
        <time>2014-06-08T06:15:49Z</time>
      </trkpt>
      <trkpt lat="47.33136" lon="-1.27377">
        <ele>57.5</ele>
        <time>2014-06-08T06:15:53Z</time>
      </trkpt>
      <trkpt lat="47.33126" lon="-1.27396">
        <ele>62.5</ele>
        <time>2014-06-08T06:16:01Z</time>
      </trkpt>
      <trkpt lat="47.33121" lon="-1.27407">
        <ele>64.5</ele>
        <time>2014-06-08T06:16:05Z</time>
      </trkpt>
      <trkpt lat="47.33111" lon="-1.2742">
        <ele>66.5</ele>
        <time>2014-06-08T06:16:14Z</time>
      </trkpt>
      <trkpt lat="47.33101" lon="-1.27432">
        <ele>69.5</ele>
        <time>2014-06-08T06:16:22Z</time>
      </trkpt>
      <trkpt lat="47.33091" lon="-1.27444">
        <ele>68.5</ele>
        <time>2014-06-08T06:16:30Z</time>
      </trkpt>
      <trkpt lat="47.33078" lon="-1.27461">
        <ele>63.5</ele>
        <time>2014-06-08T06:16:37Z</time>
      </trkpt>
      <trkpt lat="47.33073" lon="-1.27479">
        <ele>72.5</ele>
        <time>2014-06-08T06:16:45Z</time>
      </trkpt>
      <trkpt lat="47.33063" lon="-1.27494">
        <ele>71.5</ele>
        <time>2014-06-08T06:16:53Z</time>
      </trkpt>
      <trkpt lat="47.33043" lon="-1.275">
        <ele>66.5</ele>
        <time>2014-06-08T06:17:02Z</time>
      </trkpt>
      <trkpt lat="47.33032" lon="-1.27502">
        <ele>65.5</ele>
        <time>2014-06-08T06:17:06Z</time>
      </trkpt>
      <trkpt lat="47.33022" lon="-1.27504">
        <ele>65.5</ele>
        <time>2014-06-08T06:17:10Z</time>
      </trkpt>
      <trkpt lat="47.33008" lon="-1.27507">
        <ele>66.5</ele>
        <time>2014-06-08T06:17:18Z</time>
      </trkpt>
      <trkpt lat="47.33002" lon="-1.27496">
        <ele>65.5</ele>
        <time>2014-06-08T06:17:26Z</time>
      </trkpt>
      <trkpt lat="47.32996" lon="-1.27483">
        <ele>65.5</ele>
        <time>2014-06-08T06:17:41Z</time>
      </trkpt>
      <trkpt lat="47.32992" lon="-1.27471">
        <ele>67.5</ele>
        <time>2014-06-08T06:17:53Z</time>
      </trkpt>
      <trkpt lat="47.32982" lon="-1.27454">
        <ele>68.5</ele>
        <time>2014-06-08T06:18:06Z</time>
      </trkpt>
      <trkpt lat="47.32968" lon="-1.27436">
        <ele>68.5</ele>
        <time>2014-06-08T06:18:14Z</time>
      </trkpt>
      <trkpt lat="47.32961" lon="-1.27424">
        <ele>69.5</ele>
        <time>2014-06-08T06:18:18Z</time>
      </trkpt>
      <trkpt lat="47.32953" lon="-1.27409">
        <ele>69.5</ele>
        <time>2014-06-08T06:18:22Z</time>
      </trkpt>
      <trkpt lat="47.32944" lon="-1.27395">
        <ele>69.5</ele>
        <time>2014-06-08T06:18:26Z</time>
      </trkpt>
      <trkpt lat="47.32938" lon="-1.27384">
        <ele>69.5</ele>
        <time>2014-06-08T06:18:29Z</time>
      </trkpt>
      <trkpt lat="47.32929" lon="-1.2737">
        <ele>69.5</ele>
        <time>2014-06-08T06:18:33Z</time>
      </trkpt>
      <trkpt lat="47.3292" lon="-1.27357">
        <ele>70.5</ele>
        <time>2014-06-08T06:18:37Z</time>
      </trkpt>
      <trkpt lat="47.3291" lon="-1.27343">
        <ele>70.5</ele>
        <time>2014-06-08T06:18:41Z</time>
      </trkpt>
      <trkpt lat="47.32901" lon="-1.27328">
        <ele>70.5</ele>
        <time>2014-06-08T06:18:45Z</time>
      </trkpt>
      <trkpt lat="47.32891" lon="-1.27313">
        <ele>70.5</ele>
        <time>2014-06-08T06:18:49Z</time>
      </trkpt>
      <trkpt lat="47.32881" lon="-1.27296">
        <ele>70.5</ele>
        <time>2014-06-08T06:18:54Z</time>
      </trkpt>
      <trkpt lat="47.32868" lon="-1.27304">
        <ele>72.5</ele>
        <time>2014-06-08T06:18:58Z</time>
      </trkpt>
      <trkpt lat="47.32862" lon="-1.27325">
        <ele>73.5</ele>
        <time>2014-06-08T06:19:02Z</time>
      </trkpt>
      <trkpt lat="47.3285" lon="-1.27333">
        <ele>74.5</ele>
        <time>2014-06-08T06:19:06Z</time>
      </trkpt>
      <trkpt lat="47.32837" lon="-1.2732">
        <ele>74.5</ele>
        <time>2014-06-08T06:19:10Z</time>
      </trkpt>
      <trkpt lat="47.32823" lon="-1.27307">
        <ele>74.5</ele>
        <time>2014-06-08T06:19:14Z</time>
      </trkpt>
      <trkpt lat="47.32808" lon="-1.27294">
        <ele>74.5</ele>
        <time>2014-06-08T06:19:18Z</time>
      </trkpt>
      <trkpt lat="47.32793" lon="-1.27279">
        <ele>75.5</ele>
        <time>2014-06-08T06:19:22Z</time>
      </trkpt>
      <trkpt lat="47.32779" lon="-1.27265">
        <ele>74.5</ele>
        <time>2014-06-08T06:19:26Z</time>
      </trkpt>
      <trkpt lat="47.32763" lon="-1.27255">
        <ele>75.5</ele>
        <time>2014-06-08T06:19:30Z</time>
      </trkpt>
      <trkpt lat="47.32751" lon="-1.27253">
        <ele>76.5</ele>
        <time>2014-06-08T06:19:33Z</time>
      </trkpt>
      <trkpt lat="47.32727" lon="-1.27282">
        <ele>77.5</ele>
        <time>2014-06-08T06:19:41Z</time>
      </trkpt>
      <trkpt lat="47.3272" lon="-1.27305">
        <ele>78.5</ele>
        <time>2014-06-08T06:19:45Z</time>
      </trkpt>
      <trkpt lat="47.32706" lon="-1.27316">
        <ele>79.5</ele>
        <time>2014-06-08T06:19:49Z</time>
      </trkpt>
      <trkpt lat="47.32685" lon="-1.27321">
        <ele>80.5</ele>
        <time>2014-06-08T06:19:53Z</time>
      </trkpt>
      <trkpt lat="47.32669" lon="-1.27325">
        <ele>80.5</ele>
        <time>2014-06-08T06:19:58Z</time>
      </trkpt>
      <trkpt lat="47.32654" lon="-1.27333">
        <ele>81.5</ele>
        <time>2014-06-08T06:20:02Z</time>
      </trkpt>
      <trkpt lat="47.3264" lon="-1.27343">
        <ele>81.5</ele>
        <time>2014-06-08T06:20:06Z</time>
      </trkpt>
      <trkpt lat="47.32631" lon="-1.27327">
        <ele>81.5</ele>
        <time>2014-06-08T06:20:10Z</time>
      </trkpt>
      <trkpt lat="47.32632" lon="-1.27291">
        <ele>81.5</ele>
        <time>2014-06-08T06:20:14Z</time>
      </trkpt>
      <trkpt lat="47.32632" lon="-1.27266">
        <ele>80.5</ele>
        <time>2014-06-08T06:20:17Z</time>
      </trkpt>
      <trkpt lat="47.32635" lon="-1.27232">
        <ele>80.5</ele>
        <time>2014-06-08T06:20:21Z</time>
      </trkpt>
      <trkpt lat="47.32639" lon="-1.27198">
        <ele>80.5</ele>
        <time>2014-06-08T06:20:25Z</time>
      </trkpt>
      <trkpt lat="47.32644" lon="-1.27166">
        <ele>80.5</ele>
        <time>2014-06-08T06:20:29Z</time>
      </trkpt>
      <trkpt lat="47.3265" lon="-1.27137">
        <ele>81.5</ele>
        <time>2014-06-08T06:20:33Z</time>
      </trkpt>
      <trkpt lat="47.3266" lon="-1.27108">
        <ele>81.5</ele>
        <time>2014-06-08T06:20:37Z</time>
      </trkpt>
      <trkpt lat="47.32675" lon="-1.27083">
        <ele>80.5</ele>
        <time>2014-06-08T06:20:41Z</time>
      </trkpt>
      <trkpt lat="47.32694" lon="-1.27048">
        <ele>80.5</ele>
        <time>2014-06-08T06:20:46Z</time>
      </trkpt>
      <trkpt lat="47.32708" lon="-1.27016">
        <ele>79.5</ele>
        <time>2014-06-08T06:20:50Z</time>
      </trkpt>
      <trkpt lat="47.32723" lon="-1.26984">
        <ele>79.5</ele>
        <time>2014-06-08T06:20:54Z</time>
      </trkpt>
      <trkpt lat="47.32739" lon="-1.26951">
        <ele>77.5</ele>
        <time>2014-06-08T06:20:58Z</time>
      </trkpt>
      <trkpt lat="47.32748" lon="-1.26922">
        <ele>77.5</ele>
        <time>2014-06-08T06:21:02Z</time>
      </trkpt>
      <trkpt lat="47.32737" lon="-1.26899">
        <ele>76.5</ele>
        <time>2014-06-08T06:21:06Z</time>
      </trkpt>
      <trkpt lat="47.32725" lon="-1.26875">
        <ele>76.5</ele>
        <time>2014-06-08T06:21:10Z</time>
      </trkpt>
      <trkpt lat="47.32713" lon="-1.26852">
        <ele>76.5</ele>
        <time>2014-06-08T06:21:14Z</time>
      </trkpt>
      <trkpt lat="47.32701" lon="-1.26827">
        <ele>76.5</ele>
        <time>2014-06-08T06:21:18Z</time>
      </trkpt>
      <trkpt lat="47.32696" lon="-1.26806">
        <ele>76.5</ele>
        <time>2014-06-08T06:21:21Z</time>
      </trkpt>
      <trkpt lat="47.3269" lon="-1.26776">
        <ele>76.5</ele>
        <time>2014-06-08T06:21:25Z</time>
      </trkpt>
      <trkpt lat="47.32684" lon="-1.26746">
        <ele>76.5</ele>
        <time>2014-06-08T06:21:29Z</time>
      </trkpt>
      <trkpt lat="47.32677" lon="-1.26717">
        <ele>76.5</ele>
        <time>2014-06-08T06:21:33Z</time>
      </trkpt>
      <trkpt lat="47.32668" lon="-1.26689">
        <ele>76.5</ele>
        <time>2014-06-08T06:21:37Z</time>
      </trkpt>
      <trkpt lat="47.3265" lon="-1.26661">
        <ele>76.5</ele>
        <time>2014-06-08T06:21:41Z</time>
      </trkpt>
      <trkpt lat="47.32636" lon="-1.26651">
        <ele>75.5</ele>
        <time>2014-06-08T06:21:46Z</time>
      </trkpt>
      <trkpt lat="47.32616" lon="-1.2665">
        <ele>76.5</ele>
        <time>2014-06-08T06:21:50Z</time>
      </trkpt>
      <trkpt lat="47.32592" lon="-1.26663">
        <ele>76.5</ele>
        <time>2014-06-08T06:21:54Z</time>
      </trkpt>
      <trkpt lat="47.32574" lon="-1.26675">
        <ele>78.5</ele>
        <time>2014-06-08T06:21:58Z</time>
      </trkpt>
      <trkpt lat="47.32556" lon="-1.26687">
        <ele>79.5</ele>
        <time>2014-06-08T06:22:02Z</time>
      </trkpt>
      <trkpt lat="47.32544" lon="-1.26676">
        <ele>81.5</ele>
        <time>2014-06-08T06:22:06Z</time>
      </trkpt>
      <trkpt lat="47.32541" lon="-1.26654">
        <ele>81.5</ele>
        <time>2014-06-08T06:22:10Z</time>
      </trkpt>
      <trkpt lat="47.32537" lon="-1.26616">
        <ele>81.5</ele>
        <time>2014-06-08T06:22:14Z</time>
      </trkpt>
      <trkpt lat="47.32535" lon="-1.26591">
        <ele>82.5</ele>
        <time>2014-06-08T06:22:17Z</time>
      </trkpt>
      <trkpt lat="47.3253" lon="-1.26559">
        <ele>82.5</ele>
        <time>2014-06-08T06:22:21Z</time>
      </trkpt>
      <trkpt lat="47.32525" lon="-1.26526">
        <ele>81.5</ele>
        <time>2014-06-08T06:22:25Z</time>
      </trkpt>
      <trkpt lat="47.32533" lon="-1.265">
        <ele>81.5</ele>
        <time>2014-06-08T06:22:29Z</time>
      </trkpt>
      <trkpt lat="47.32555" lon="-1.26499">
        <ele>82.5</ele>
        <time>2014-06-08T06:22:33Z</time>
      </trkpt>
      <trkpt lat="47.32579" lon="-1.26498">
        <ele>81.5</ele>
        <time>2014-06-08T06:22:37Z</time>
      </trkpt>
      <trkpt lat="47.32603" lon="-1.26496">
        <ele>81.5</ele>
        <time>2014-06-08T06:22:41Z</time>
      </trkpt>
      <trkpt lat="47.32628" lon="-1.26492">
        <ele>81.5</ele>
        <time>2014-06-08T06:22:45Z</time>
      </trkpt>
      <trkpt lat="47.32652" lon="-1.26491">
        <ele>81.5</ele>
        <time>2014-06-08T06:22:49Z</time>
      </trkpt>
      <trkpt lat="47.32682" lon="-1.26487">
        <ele>80.5</ele>
        <time>2014-06-08T06:22:53Z</time>
      </trkpt>
      <trkpt lat="47.32701" lon="-1.26489">
        <ele>79.5</ele>
        <time>2014-06-08T06:22:58Z</time>
      </trkpt>
      <trkpt lat="47.32719" lon="-1.26487">
        <ele>79.5</ele>
        <time>2014-06-08T06:23:02Z</time>
      </trkpt>
      <trkpt lat="47.32735" lon="-1.26482">
        <ele>79.5</ele>
        <time>2014-06-08T06:23:06Z</time>
      </trkpt>
      <trkpt lat="47.32757" lon="-1.26477">
        <ele>79.5</ele>
        <time>2014-06-08T06:23:10Z</time>
      </trkpt>
      <trkpt lat="47.32779" lon="-1.26477">
        <ele>80.5</ele>
        <time>2014-06-08T06:23:14Z</time>
      </trkpt>
      <trkpt lat="47.32801" lon="-1.26476">
        <ele>80.5</ele>
        <time>2014-06-08T06:23:18Z</time>
      </trkpt>
      <trkpt lat="47.32823" lon="-1.26473">
        <ele>79.5</ele>
        <time>2014-06-08T06:23:22Z</time>
      </trkpt>
      <trkpt lat="47.32842" lon="-1.26473">
        <ele>77.5</ele>
        <time>2014-06-08T06:23:25Z</time>
      </trkpt>
      <trkpt lat="47.32861" lon="-1.26475">
        <ele>77.5</ele>
        <time>2014-06-08T06:23:29Z</time>
      </trkpt>
      <trkpt lat="47.32876" lon="-1.26476">
        <ele>75.5</ele>
        <time>2014-06-08T06:23:33Z</time>
      </trkpt>
      <trkpt lat="47.32894" lon="-1.26483">
        <ele>73.5</ele>
        <time>2014-06-08T06:23:37Z</time>
      </trkpt>
      <trkpt lat="47.32913" lon="-1.2649">
        <ele>72.5</ele>
        <time>2014-06-08T06:23:41Z</time>
      </trkpt>
      <trkpt lat="47.32931" lon="-1.26497">
        <ele>71.5</ele>
        <time>2014-06-08T06:23:45Z</time>
      </trkpt>
      <trkpt lat="47.32955" lon="-1.26503">
        <ele>70.5</ele>
        <time>2014-06-08T06:23:49Z</time>
      </trkpt>
      <trkpt lat="47.32972" lon="-1.26515">
        <ele>69.5</ele>
        <time>2014-06-08T06:23:54Z</time>
      </trkpt>
      <trkpt lat="47.32993" lon="-1.26515">
        <ele>69.5</ele>
        <time>2014-06-08T06:23:58Z</time>
      </trkpt>
      <trkpt lat="47.33013" lon="-1.265">
        <ele>68.5</ele>
        <time>2014-06-08T06:24:02Z</time>
      </trkpt>
      <trkpt lat="47.33032" lon="-1.2648">
        <ele>68.5</ele>
        <time>2014-06-08T06:24:10Z</time>
      </trkpt>
      <trkpt lat="47.33048" lon="-1.26474">
        <ele>69.5</ele>
        <time>2014-06-08T06:24:25Z</time>
      </trkpt>
      <trkpt lat="47.33058" lon="-1.26471">
        <ele>67.5</ele>
        <time>2014-06-08T06:24:29Z</time>
      </trkpt>
      <trkpt lat="47.33074" lon="-1.26466">
        <ele>67.5</ele>
        <time>2014-06-08T06:24:33Z</time>
      </trkpt>
      <trkpt lat="47.33087" lon="-1.26461">
        <ele>69.5</ele>
        <time>2014-06-08T06:24:37Z</time>
      </trkpt>
      <trkpt lat="47.33103" lon="-1.26462">
        <ele>68.5</ele>
        <time>2014-06-08T06:24:46Z</time>
      </trkpt>
      <trkpt lat="47.33114" lon="-1.26464">
        <ele>75.5</ele>
        <time>2014-06-08T06:24:54Z</time>
      </trkpt>
      <trkpt lat="47.3313" lon="-1.26461">
        <ele>75.5</ele>
        <time>2014-06-08T06:25:02Z</time>
      </trkpt>
      <trkpt lat="47.3314" lon="-1.26459">
        <ele>76.5</ele>
        <time>2014-06-08T06:25:06Z</time>
      </trkpt>
      <trkpt lat="47.33149" lon="-1.26458">
        <ele>77.5</ele>
        <time>2014-06-08T06:25:13Z</time>
      </trkpt>
      <trkpt lat="47.3317" lon="-1.2646">
        <ele>76.5</ele>
        <time>2014-06-08T06:25:25Z</time>
      </trkpt>
      <trkpt lat="47.33186" lon="-1.26462">
        <ele>74.5</ele>
        <time>2014-06-08T06:25:29Z</time>
      </trkpt>
      <trkpt lat="47.33203" lon="-1.26449">
        <ele>74.5</ele>
        <time>2014-06-08T06:25:33Z</time>
      </trkpt>
      <trkpt lat="47.33209" lon="-1.26436">
        <ele>75.5</ele>
        <time>2014-06-08T06:25:38Z</time>
      </trkpt>
      <trkpt lat="47.33217" lon="-1.26416">
        <ele>76.5</ele>
        <time>2014-06-08T06:25:42Z</time>
      </trkpt>
      <trkpt lat="47.33221" lon="-1.26403">
        <ele>78.5</ele>
        <time>2014-06-08T06:25:46Z</time>
      </trkpt>
      <trkpt lat="47.33228" lon="-1.26389">
        <ele>77.5</ele>
        <time>2014-06-08T06:25:50Z</time>
      </trkpt>
      <trkpt lat="47.33236" lon="-1.26374">
        <ele>79.5</ele>
        <time>2014-06-08T06:25:54Z</time>
      </trkpt>
      <trkpt lat="47.33245" lon="-1.26355">
        <ele>80.5</ele>
        <time>2014-06-08T06:25:58Z</time>
      </trkpt>
      <trkpt lat="47.33254" lon="-1.26337">
        <ele>82.5</ele>
        <time>2014-06-08T06:26:02Z</time>
      </trkpt>
      <trkpt lat="47.33262" lon="-1.26325">
        <ele>82.5</ele>
        <time>2014-06-08T06:26:05Z</time>
      </trkpt>
      <trkpt lat="47.33273" lon="-1.26309">
        <ele>81.5</ele>
        <time>2014-06-08T06:26:09Z</time>
      </trkpt>
      <trkpt lat="47.33277" lon="-1.26291">
        <ele>80.5</ele>
        <time>2014-06-08T06:26:13Z</time>
      </trkpt>
      <trkpt lat="47.33259" lon="-1.26273">
        <ele>79.5</ele>
        <time>2014-06-08T06:26:17Z</time>
      </trkpt>
      <trkpt lat="47.33244" lon="-1.26257">
        <ele>77.5</ele>
        <time>2014-06-08T06:26:21Z</time>
      </trkpt>
      <trkpt lat="47.33225" lon="-1.26238">
        <ele>75.5</ele>
        <time>2014-06-08T06:26:25Z</time>
      </trkpt>
      <trkpt lat="47.33211" lon="-1.26222">
        <ele>74.5</ele>
        <time>2014-06-08T06:26:29Z</time>
      </trkpt>
      <trkpt lat="47.33195" lon="-1.26206">
        <ele>73.5</ele>
        <time>2014-06-08T06:26:34Z</time>
      </trkpt>
      <trkpt lat="47.33178" lon="-1.26189">
        <ele>73.5</ele>
        <time>2014-06-08T06:26:38Z</time>
      </trkpt>
      <trkpt lat="47.33157" lon="-1.26173">
        <ele>72.5</ele>
        <time>2014-06-08T06:26:42Z</time>
      </trkpt>
      <trkpt lat="47.33141" lon="-1.26161">
        <ele>73.5</ele>
        <time>2014-06-08T06:26:46Z</time>
      </trkpt>
      <trkpt lat="47.33115" lon="-1.26144">
        <ele>73.5</ele>
        <time>2014-06-08T06:26:50Z</time>
      </trkpt>
      <trkpt lat="47.33098" lon="-1.26134">
        <ele>72.5</ele>
        <time>2014-06-08T06:26:54Z</time>
      </trkpt>
      <trkpt lat="47.33082" lon="-1.26124">
        <ele>72.5</ele>
        <time>2014-06-08T06:26:58Z</time>
      </trkpt>
      <trkpt lat="47.33069" lon="-1.26116">
        <ele>71.5</ele>
        <time>2014-06-08T06:27:01Z</time>
      </trkpt>
      <trkpt lat="47.3305" lon="-1.26104">
        <ele>71.5</ele>
        <time>2014-06-08T06:27:05Z</time>
      </trkpt>
      <trkpt lat="47.33033" lon="-1.26094">
        <ele>71.5</ele>
        <time>2014-06-08T06:27:09Z</time>
      </trkpt>
      <trkpt lat="47.33017" lon="-1.26086">
        <ele>72.5</ele>
        <time>2014-06-08T06:27:13Z</time>
      </trkpt>
      <trkpt lat="47.33" lon="-1.2608">
        <ele>72.5</ele>
        <time>2014-06-08T06:27:17Z</time>
      </trkpt>
      <trkpt lat="47.32979" lon="-1.2608">
        <ele>70.5</ele>
        <time>2014-06-08T06:27:21Z</time>
      </trkpt>
      <trkpt lat="47.32972" lon="-1.26069">
        <ele>70.5</ele>
        <time>2014-06-08T06:27:25Z</time>
      </trkpt>
      <trkpt lat="47.32979" lon="-1.26052">
        <ele>70.5</ele>
        <time>2014-06-08T06:27:30Z</time>
      </trkpt>
      <trkpt lat="47.3299" lon="-1.26035">
        <ele>71.5</ele>
        <time>2014-06-08T06:27:34Z</time>
      </trkpt>
      <trkpt lat="47.33" lon="-1.26017">
        <ele>72.5</ele>
        <time>2014-06-08T06:27:38Z</time>
      </trkpt>
      <trkpt lat="47.33012" lon="-1.25999">
        <ele>72.5</ele>
        <time>2014-06-08T06:27:42Z</time>
      </trkpt>
      <trkpt lat="47.33023" lon="-1.25979">
        <ele>73.5</ele>
        <time>2014-06-08T06:27:46Z</time>
      </trkpt>
      <trkpt lat="47.33037" lon="-1.25959">
        <ele>74.5</ele>
        <time>2014-06-08T06:27:50Z</time>
      </trkpt>
      <trkpt lat="47.33048" lon="-1.25945">
        <ele>75.5</ele>
        <time>2014-06-08T06:27:53Z</time>
      </trkpt>
      <trkpt lat="47.3306" lon="-1.25926">
        <ele>75.5</ele>
        <time>2014-06-08T06:27:57Z</time>
      </trkpt>
      <trkpt lat="47.33073" lon="-1.25908">
        <ele>77.5</ele>
        <time>2014-06-08T06:28:01Z</time>
      </trkpt>
      <trkpt lat="47.33084" lon="-1.2589">
        <ele>77.5</ele>
        <time>2014-06-08T06:28:05Z</time>
      </trkpt>
      <trkpt lat="47.33095" lon="-1.25873">
        <ele>79.5</ele>
        <time>2014-06-08T06:28:09Z</time>
      </trkpt>
      <trkpt lat="47.33102" lon="-1.25859">
        <ele>80.5</ele>
        <time>2014-06-08T06:28:13Z</time>
      </trkpt>
      <trkpt lat="47.33111" lon="-1.25849">
        <ele>80.5</ele>
        <time>2014-06-08T06:28:18Z</time>
      </trkpt>
      <trkpt lat="47.33121" lon="-1.25834">
        <ele>81.5</ele>
        <time>2014-06-08T06:28:22Z</time>
      </trkpt>
      <trkpt lat="47.33134" lon="-1.25819">
        <ele>81.5</ele>
        <time>2014-06-08T06:28:26Z</time>
      </trkpt>
      <trkpt lat="47.33148" lon="-1.25807">
        <ele>81.5</ele>
        <time>2014-06-08T06:28:30Z</time>
      </trkpt>
      <trkpt lat="47.33163" lon="-1.25796">
        <ele>81.5</ele>
        <time>2014-06-08T06:28:34Z</time>
      </trkpt>
      <trkpt lat="47.33178" lon="-1.25791">
        <ele>81.5</ele>
        <time>2014-06-08T06:28:38Z</time>
      </trkpt>
      <trkpt lat="47.33192" lon="-1.2579">
        <ele>82.5</ele>
        <time>2014-06-08T06:28:42Z</time>
      </trkpt>
      <trkpt lat="47.33202" lon="-1.2579">
        <ele>81.5</ele>
        <time>2014-06-08T06:28:45Z</time>
      </trkpt>
      <trkpt lat="47.33217" lon="-1.25788">
        <ele>81.5</ele>
        <time>2014-06-08T06:28:49Z</time>
      </trkpt>
      <trkpt lat="47.33232" lon="-1.25781">
        <ele>81.5</ele>
        <time>2014-06-08T06:28:53Z</time>
      </trkpt>
      <trkpt lat="47.33247" lon="-1.25776">
        <ele>81.5</ele>
        <time>2014-06-08T06:28:57Z</time>
      </trkpt>
      <trkpt lat="47.33267" lon="-1.25769">
        <ele>81.5</ele>
        <time>2014-06-08T06:29:01Z</time>
      </trkpt>
      <trkpt lat="47.33286" lon="-1.25764">
        <ele>81.5</ele>
        <time>2014-06-08T06:29:05Z</time>
      </trkpt>
      <trkpt lat="47.33306" lon="-1.25758">
        <ele>80.5</ele>
        <time>2014-06-08T06:29:10Z</time>
      </trkpt>
      <trkpt lat="47.33326" lon="-1.25751">
        <ele>81.5</ele>
        <time>2014-06-08T06:29:14Z</time>
      </trkpt>
      <trkpt lat="47.33345" lon="-1.25746">
        <ele>81.5</ele>
        <time>2014-06-08T06:29:18Z</time>
      </trkpt>
      <trkpt lat="47.33362" lon="-1.25738">
        <ele>81.5</ele>
        <time>2014-06-08T06:29:22Z</time>
      </trkpt>
      <trkpt lat="47.33373" lon="-1.25729">
        <ele>81.5</ele>
        <time>2014-06-08T06:29:26Z</time>
      </trkpt>
      <trkpt lat="47.33374" lon="-1.25714">
        <ele>80.5</ele>
        <time>2014-06-08T06:29:30Z</time>
      </trkpt>
      <trkpt lat="47.33374" lon="-1.25694">
        <ele>80.5</ele>
        <time>2014-06-08T06:29:34Z</time>
      </trkpt>
      <trkpt lat="47.3337" lon="-1.25651">
        <ele>79.5</ele>
        <time>2014-06-08T06:29:41Z</time>
      </trkpt>
      <trkpt lat="47.33367" lon="-1.25621">
        <ele>78.5</ele>
        <time>2014-06-08T06:29:45Z</time>
      </trkpt>
      <trkpt lat="47.33362" lon="-1.25591">
        <ele>78.5</ele>
        <time>2014-06-08T06:29:49Z</time>
      </trkpt>
      <trkpt lat="47.33357" lon="-1.25561">
        <ele>78.5</ele>
        <time>2014-06-08T06:29:53Z</time>
      </trkpt>
      <trkpt lat="47.33351" lon="-1.25532">
        <ele>78.5</ele>
        <time>2014-06-08T06:29:57Z</time>
      </trkpt>
      <trkpt lat="47.33343" lon="-1.25505">
        <ele>78.5</ele>
        <time>2014-06-08T06:30:01Z</time>
      </trkpt>
      <trkpt lat="47.33334" lon="-1.2547">
        <ele>78.5</ele>
        <time>2014-06-08T06:30:05Z</time>
      </trkpt>
      <trkpt lat="47.33325" lon="-1.25444">
        <ele>78.5</ele>
        <time>2014-06-08T06:30:09Z</time>
      </trkpt>
      <trkpt lat="47.33316" lon="-1.25416">
        <ele>77.5</ele>
        <time>2014-06-08T06:30:14Z</time>
      </trkpt>
      <trkpt lat="47.33307" lon="-1.25389">
        <ele>78.5</ele>
        <time>2014-06-08T06:30:18Z</time>
      </trkpt>
      <trkpt lat="47.333" lon="-1.25374">
        <ele>78.5</ele>
        <time>2014-06-08T06:30:22Z</time>
      </trkpt>
      <trkpt lat="47.33291" lon="-1.25375">
        <ele>78.5</ele>
        <time>2014-06-08T06:30:26Z</time>
      </trkpt>
      <trkpt lat="47.33277" lon="-1.25381">
        <ele>77.5</ele>
        <time>2014-06-08T06:30:30Z</time>
      </trkpt>
      <trkpt lat="47.33262" lon="-1.25389">
        <ele>78.5</ele>
        <time>2014-06-08T06:30:34Z</time>
      </trkpt>
      <trkpt lat="47.33239" lon="-1.25387">
        <ele>79.5</ele>
        <time>2014-06-08T06:30:41Z</time>
      </trkpt>
      <trkpt lat="47.33235" lon="-1.25361">
        <ele>78.5</ele>
        <time>2014-06-08T06:30:45Z</time>
      </trkpt>
      <trkpt lat="47.33228" lon="-1.25332">
        <ele>79.5</ele>
        <time>2014-06-08T06:30:49Z</time>
      </trkpt>
      <trkpt lat="47.33218" lon="-1.25294">
        <ele>79.5</ele>
        <time>2014-06-08T06:30:53Z</time>
      </trkpt>
      <trkpt lat="47.3321" lon="-1.25264">
        <ele>78.5</ele>
        <time>2014-06-08T06:30:57Z</time>
      </trkpt>
      <trkpt lat="47.33204" lon="-1.25234">
        <ele>76.5</ele>
        <time>2014-06-08T06:31:02Z</time>
      </trkpt>
      <trkpt lat="47.33197" lon="-1.25204">
        <ele>74.5</ele>
        <time>2014-06-08T06:31:06Z</time>
      </trkpt>
      <trkpt lat="47.33189" lon="-1.25177">
        <ele>77.5</ele>
        <time>2014-06-08T06:31:10Z</time>
      </trkpt>
      <trkpt lat="47.3318" lon="-1.25146">
        <ele>77.5</ele>
        <time>2014-06-08T06:31:14Z</time>
      </trkpt>
      <trkpt lat="47.33173" lon="-1.25114">
        <ele>77.5</ele>
        <time>2014-06-08T06:31:18Z</time>
      </trkpt>
      <trkpt lat="47.33164" lon="-1.25077">
        <ele>75.5</ele>
        <time>2014-06-08T06:31:22Z</time>
      </trkpt>
      <trkpt lat="47.33154" lon="-1.25041">
        <ele>75.5</ele>
        <time>2014-06-08T06:31:26Z</time>
      </trkpt>
      <trkpt lat="47.3315" lon="-1.25024">
        <ele>74.5</ele>
        <time>2014-06-08T06:31:29Z</time>
      </trkpt>
      <trkpt lat="47.3314" lon="-1.2499">
        <ele>73.5</ele>
        <time>2014-06-08T06:31:33Z</time>
      </trkpt>
      <trkpt lat="47.3313" lon="-1.24994">
        <ele>73.5</ele>
        <time>2014-06-08T06:31:37Z</time>
      </trkpt>
      <trkpt lat="47.33118" lon="-1.25016">
        <ele>75.5</ele>
        <time>2014-06-08T06:31:41Z</time>
      </trkpt>
      <trkpt lat="47.33097" lon="-1.25043">
        <ele>76.5</ele>
        <time>2014-06-08T06:31:45Z</time>
      </trkpt>
      <trkpt lat="47.3308" lon="-1.25063">
        <ele>78.5</ele>
        <time>2014-06-08T06:31:49Z</time>
      </trkpt>
      <trkpt lat="47.33063" lon="-1.25082">
        <ele>78.5</ele>
        <time>2014-06-08T06:31:54Z</time>
      </trkpt>
      <trkpt lat="47.33044" lon="-1.251">
        <ele>80.5</ele>
        <time>2014-06-08T06:31:58Z</time>
      </trkpt>
      <trkpt lat="47.33024" lon="-1.25113">
        <ele>82.5</ele>
        <time>2014-06-08T06:32:02Z</time>
      </trkpt>
      <trkpt lat="47.33003" lon="-1.25119">
        <ele>82.5</ele>
        <time>2014-06-08T06:32:06Z</time>
      </trkpt>
      <trkpt lat="47.32982" lon="-1.25126">
        <ele>83.5</ele>
        <time>2014-06-08T06:32:10Z</time>
      </trkpt>
      <trkpt lat="47.32963" lon="-1.25134">
        <ele>82.5</ele>
        <time>2014-06-08T06:32:14Z</time>
      </trkpt>
      <trkpt lat="47.3295" lon="-1.25139">
        <ele>83.5</ele>
        <time>2014-06-08T06:32:17Z</time>
      </trkpt>
      <trkpt lat="47.32933" lon="-1.25147">
        <ele>83.5</ele>
        <time>2014-06-08T06:32:21Z</time>
      </trkpt>
      <trkpt lat="47.32918" lon="-1.25144">
        <ele>84.5</ele>
        <time>2014-06-08T06:32:25Z</time>
      </trkpt>
      <trkpt lat="47.32905" lon="-1.25121">
        <ele>84.5</ele>
        <time>2014-06-08T06:32:29Z</time>
      </trkpt>
      <trkpt lat="47.32894" lon="-1.25088">
        <ele>84.5</ele>
        <time>2014-06-08T06:32:33Z</time>
      </trkpt>
      <trkpt lat="47.32887" lon="-1.25059">
        <ele>83.5</ele>
        <time>2014-06-08T06:32:37Z</time>
      </trkpt>
      <trkpt lat="47.3288" lon="-1.25029">
        <ele>81.5</ele>
        <time>2014-06-08T06:32:42Z</time>
      </trkpt>
      <trkpt lat="47.32873" lon="-1.25">
        <ele>82.5</ele>
        <time>2014-06-08T06:32:46Z</time>
      </trkpt>
      <trkpt lat="47.32867" lon="-1.24978">
        <ele>82.5</ele>
        <time>2014-06-08T06:32:50Z</time>
      </trkpt>
      <trkpt lat="47.32853" lon="-1.24944">
        <ele>81.5</ele>
        <time>2014-06-08T06:32:54Z</time>
      </trkpt>
      <trkpt lat="47.32845" lon="-1.24924">
        <ele>81.5</ele>
        <time>2014-06-08T06:32:57Z</time>
      </trkpt>
      <trkpt lat="47.32831" lon="-1.24898">
        <ele>80.5</ele>
        <time>2014-06-08T06:33:01Z</time>
      </trkpt>
      <trkpt lat="47.32816" lon="-1.24873">
        <ele>80.5</ele>
        <time>2014-06-08T06:33:05Z</time>
      </trkpt>
      <trkpt lat="47.32801" lon="-1.24849">
        <ele>79.5</ele>
        <time>2014-06-08T06:33:09Z</time>
      </trkpt>
      <trkpt lat="47.32784" lon="-1.24824">
        <ele>79.5</ele>
        <time>2014-06-08T06:33:13Z</time>
      </trkpt>
      <trkpt lat="47.32759" lon="-1.24793">
        <ele>78.5</ele>
        <time>2014-06-08T06:33:17Z</time>
      </trkpt>
      <trkpt lat="47.32739" lon="-1.24768">
        <ele>79.5</ele>
        <time>2014-06-08T06:33:21Z</time>
      </trkpt>
      <trkpt lat="47.32722" lon="-1.24745">
        <ele>78.5</ele>
        <time>2014-06-08T06:33:26Z</time>
      </trkpt>
      <trkpt lat="47.32717" lon="-1.2472">
        <ele>78.5</ele>
        <time>2014-06-08T06:33:30Z</time>
      </trkpt>
      <trkpt lat="47.32732" lon="-1.247">
        <ele>77.5</ele>
        <time>2014-06-08T06:33:34Z</time>
      </trkpt>
      <trkpt lat="47.32747" lon="-1.24679">
        <ele>78.5</ele>
        <time>2014-06-08T06:33:38Z</time>
      </trkpt>
      <trkpt lat="47.32762" lon="-1.24657">
        <ele>78.5</ele>
        <time>2014-06-08T06:33:42Z</time>
      </trkpt>
      <trkpt lat="47.32775" lon="-1.24633">
        <ele>79.5</ele>
        <time>2014-06-08T06:33:46Z</time>
      </trkpt>
      <trkpt lat="47.32789" lon="-1.24609">
        <ele>81.5</ele>
        <time>2014-06-08T06:33:50Z</time>
      </trkpt>
      <trkpt lat="47.32804" lon="-1.2459">
        <ele>81.5</ele>
        <time>2014-06-08T06:33:54Z</time>
      </trkpt>
      <trkpt lat="47.32821" lon="-1.246">
        <ele>83.5</ele>
        <time>2014-06-08T06:33:58Z</time>
      </trkpt>
      <trkpt lat="47.32834" lon="-1.24611">
        <ele>84.5</ele>
        <time>2014-06-08T06:34:01Z</time>
      </trkpt>
      <trkpt lat="47.32853" lon="-1.24625">
        <ele>84.5</ele>
        <time>2014-06-08T06:34:05Z</time>
      </trkpt>
      <trkpt lat="47.32872" lon="-1.24636">
        <ele>84.5</ele>
        <time>2014-06-08T06:34:09Z</time>
      </trkpt>
      <trkpt lat="47.32892" lon="-1.24646">
        <ele>84.5</ele>
        <time>2014-06-08T06:34:13Z</time>
      </trkpt>
      <trkpt lat="47.32914" lon="-1.24654">
        <ele>84.5</ele>
        <time>2014-06-08T06:34:17Z</time>
      </trkpt>
      <trkpt lat="47.32942" lon="-1.24664">
        <ele>84.5</ele>
        <time>2014-06-08T06:34:21Z</time>
      </trkpt>
      <trkpt lat="47.32959" lon="-1.2467">
        <ele>84.5</ele>
        <time>2014-06-08T06:34:25Z</time>
      </trkpt>
      <trkpt lat="47.32983" lon="-1.2467">
        <ele>84.5</ele>
        <time>2014-06-08T06:34:30Z</time>
      </trkpt>
      <trkpt lat="47.33014" lon="-1.24664">
        <ele>83.5</ele>
        <time>2014-06-08T06:34:34Z</time>
      </trkpt>
      <trkpt lat="47.3304" lon="-1.24663">
        <ele>82.5</ele>
        <time>2014-06-08T06:34:38Z</time>
      </trkpt>
      <trkpt lat="47.33065" lon="-1.24675">
        <ele>81.5</ele>
        <time>2014-06-08T06:34:42Z</time>
      </trkpt>
      <trkpt lat="47.33088" lon="-1.24694">
        <ele>81.5</ele>
        <time>2014-06-08T06:34:46Z</time>
      </trkpt>
      <trkpt lat="47.33112" lon="-1.24712">
        <ele>80.5</ele>
        <time>2014-06-08T06:34:50Z</time>
      </trkpt>
      <trkpt lat="47.33138" lon="-1.24723">
        <ele>79.5</ele>
        <time>2014-06-08T06:34:54Z</time>
      </trkpt>
      <trkpt lat="47.33157" lon="-1.24727">
        <ele>79.5</ele>
        <time>2014-06-08T06:34:57Z</time>
      </trkpt>
      <trkpt lat="47.33182" lon="-1.24739">
        <ele>79.5</ele>
        <time>2014-06-08T06:35:01Z</time>
      </trkpt>
      <trkpt lat="47.33201" lon="-1.24753">
        <ele>79.5</ele>
        <time>2014-06-08T06:35:05Z</time>
      </trkpt>
      <trkpt lat="47.3321" lon="-1.24746">
        <ele>79.5</ele>
        <time>2014-06-08T06:35:09Z</time>
      </trkpt>
      <trkpt lat="47.3321" lon="-1.24727">
        <ele>77.5</ele>
        <time>2014-06-08T06:35:13Z</time>
      </trkpt>
      <trkpt lat="47.33209" lon="-1.24697">
        <ele>77.5</ele>
        <time>2014-06-08T06:35:17Z</time>
      </trkpt>
      <trkpt lat="47.33208" lon="-1.24672">
        <ele>76.5</ele>
        <time>2014-06-08T06:35:21Z</time>
      </trkpt>
      <trkpt lat="47.3321" lon="-1.24646">
        <ele>77.5</ele>
        <time>2014-06-08T06:35:26Z</time>
      </trkpt>
      <trkpt lat="47.33219" lon="-1.24621">
        <ele>77.5</ele>
        <time>2014-06-08T06:35:30Z</time>
      </trkpt>
      <trkpt lat="47.33222" lon="-1.24591">
        <ele>76.5</ele>
        <time>2014-06-08T06:35:34Z</time>
      </trkpt>
      <trkpt lat="47.33217" lon="-1.24559">
        <ele>75.5</ele>
        <time>2014-06-08T06:35:38Z</time>
      </trkpt>
      <trkpt lat="47.33212" lon="-1.24526">
        <ele>75.5</ele>
        <time>2014-06-08T06:35:42Z</time>
      </trkpt>
      <trkpt lat="47.33209" lon="-1.24499">
        <ele>75.5</ele>
        <time>2014-06-08T06:35:45Z</time>
      </trkpt>
      <trkpt lat="47.3321" lon="-1.24464">
        <ele>74.5</ele>
        <time>2014-06-08T06:35:49Z</time>
      </trkpt>
      <trkpt lat="47.33214" lon="-1.2443">
        <ele>73.5</ele>
        <time>2014-06-08T06:35:53Z</time>
      </trkpt>
      <trkpt lat="47.3322" lon="-1.24405">
        <ele>72.5</ele>
        <time>2014-06-08T06:35:57Z</time>
      </trkpt>
      <trkpt lat="47.33206" lon="-1.24383">
        <ele>71.5</ele>
        <time>2014-06-08T06:36:01Z</time>
      </trkpt>
      <trkpt lat="47.33187" lon="-1.24375">
        <ele>71.5</ele>
        <time>2014-06-08T06:36:05Z</time>
      </trkpt>
      <trkpt lat="47.33171" lon="-1.24358">
        <ele>72.5</ele>
        <time>2014-06-08T06:36:10Z</time>
      </trkpt>
      <trkpt lat="47.3316" lon="-1.24344">
        <ele>72.5</ele>
        <time>2014-06-08T06:36:14Z</time>
      </trkpt>
      <trkpt lat="47.33138" lon="-1.24324">
        <ele>71.5</ele>
        <time>2014-06-08T06:36:18Z</time>
      </trkpt>
      <trkpt lat="47.33122" lon="-1.24308">
        <ele>71.5</ele>
        <time>2014-06-08T06:36:22Z</time>
      </trkpt>
      <trkpt lat="47.33108" lon="-1.24294">
        <ele>72.5</ele>
        <time>2014-06-08T06:36:26Z</time>
      </trkpt>
      <trkpt lat="47.33092" lon="-1.24281">
        <ele>73.5</ele>
        <time>2014-06-08T06:36:30Z</time>
      </trkpt>
      <trkpt lat="47.33076" lon="-1.24265">
        <ele>74.5</ele>
        <time>2014-06-08T06:36:34Z</time>
      </trkpt>
      <trkpt lat="47.33061" lon="-1.24248">
        <ele>75.5</ele>
        <time>2014-06-08T06:36:38Z</time>
      </trkpt>
      <trkpt lat="47.3305" lon="-1.24235">
        <ele>75.5</ele>
        <time>2014-06-08T06:36:41Z</time>
      </trkpt>
      <trkpt lat="47.33036" lon="-1.24214">
        <ele>75.5</ele>
        <time>2014-06-08T06:36:45Z</time>
      </trkpt>
      <trkpt lat="47.33025" lon="-1.2419">
        <ele>75.5</ele>
        <time>2014-06-08T06:36:49Z</time>
      </trkpt>
      <trkpt lat="47.33017" lon="-1.24162">
        <ele>75.5</ele>
        <time>2014-06-08T06:36:53Z</time>
      </trkpt>
      <trkpt lat="47.3301" lon="-1.24127">
        <ele>74.5</ele>
        <time>2014-06-08T06:36:57Z</time>
      </trkpt>
      <trkpt lat="47.33002" lon="-1.24097">
        <ele>74.5</ele>
        <time>2014-06-08T06:37:01Z</time>
      </trkpt>
      <trkpt lat="47.32999" lon="-1.24066">
        <ele>73.5</ele>
        <time>2014-06-08T06:37:06Z</time>
      </trkpt>
      <trkpt lat="47.32996" lon="-1.24037">
        <ele>71.5</ele>
        <time>2014-06-08T06:37:10Z</time>
      </trkpt>
      <trkpt lat="47.33004" lon="-1.24022">
        <ele>71.5</ele>
        <time>2014-06-08T06:37:14Z</time>
      </trkpt>
      <trkpt lat="47.33021" lon="-1.24026">
        <ele>71.5</ele>
        <time>2014-06-08T06:37:18Z</time>
      </trkpt>
      <trkpt lat="47.33039" lon="-1.24036">
        <ele>73.5</ele>
        <time>2014-06-08T06:37:22Z</time>
      </trkpt>
      <trkpt lat="47.33055" lon="-1.24051">
        <ele>74.5</ele>
        <time>2014-06-08T06:37:26Z</time>
      </trkpt>
      <trkpt lat="47.33067" lon="-1.24064">
        <ele>76.5</ele>
        <time>2014-06-08T06:37:30Z</time>
      </trkpt>
      <trkpt lat="47.33083" lon="-1.24082">
        <ele>76.5</ele>
        <time>2014-06-08T06:37:33Z</time>
      </trkpt>
      <trkpt lat="47.331" lon="-1.24095">
        <ele>77.5</ele>
        <time>2014-06-08T06:37:37Z</time>
      </trkpt>
      <trkpt lat="47.33119" lon="-1.24105">
        <ele>78.5</ele>
        <time>2014-06-08T06:37:41Z</time>
      </trkpt>
      <trkpt lat="47.33139" lon="-1.24111">
        <ele>78.5</ele>
        <time>2014-06-08T06:37:45Z</time>
      </trkpt>
      <trkpt lat="47.33162" lon="-1.24116">
        <ele>77.5</ele>
        <time>2014-06-08T06:37:49Z</time>
      </trkpt>
      <trkpt lat="47.33171" lon="-1.24103">
        <ele>76.5</ele>
        <time>2014-06-08T06:37:53Z</time>
      </trkpt>
      <trkpt lat="47.33172" lon="-1.24076">
        <ele>75.5</ele>
        <time>2014-06-08T06:37:57Z</time>
      </trkpt>
      <trkpt lat="47.33171" lon="-1.24046">
        <ele>75.5</ele>
        <time>2014-06-08T06:38:02Z</time>
      </trkpt>
      <trkpt lat="47.33172" lon="-1.24013">
        <ele>74.5</ele>
        <time>2014-06-08T06:38:06Z</time>
      </trkpt>
      <trkpt lat="47.33171" lon="-1.23976">
        <ele>73.5</ele>
        <time>2014-06-08T06:38:10Z</time>
      </trkpt>
      <trkpt lat="47.33174" lon="-1.23935">
        <ele>70.5</ele>
        <time>2014-06-08T06:38:14Z</time>
      </trkpt>
      <trkpt lat="47.33179" lon="-1.23901">
        <ele>69.5</ele>
        <time>2014-06-08T06:38:18Z</time>
      </trkpt>
      <trkpt lat="47.33198" lon="-1.23816">
        <ele>68.5</ele>
        <time>2014-06-08T06:38:25Z</time>
      </trkpt>
      <trkpt lat="47.33208" lon="-1.23784">
        <ele>66.5</ele>
        <time>2014-06-08T06:38:29Z</time>
      </trkpt>
      <trkpt lat="47.33231" lon="-1.23738">
        <ele>66.5</ele>
        <time>2014-06-08T06:38:33Z</time>
      </trkpt>
      <trkpt lat="47.33249" lon="-1.23702">
        <ele>63.5</ele>
        <time>2014-06-08T06:38:37Z</time>
      </trkpt>
      <trkpt lat="47.33269" lon="-1.23667">
        <ele>62.5</ele>
        <time>2014-06-08T06:38:41Z</time>
      </trkpt>
      <trkpt lat="47.33293" lon="-1.23624">
        <ele>60.5</ele>
        <time>2014-06-08T06:38:45Z</time>
      </trkpt>
      <trkpt lat="47.33315" lon="-1.23595">
        <ele>59.5</ele>
        <time>2014-06-08T06:38:49Z</time>
      </trkpt>
      <trkpt lat="47.33338" lon="-1.23568">
        <ele>56.5</ele>
        <time>2014-06-08T06:38:53Z</time>
      </trkpt>
      <trkpt lat="47.33361" lon="-1.23541">
        <ele>54.5</ele>
        <time>2014-06-08T06:38:58Z</time>
      </trkpt>
      <trkpt lat="47.33383" lon="-1.23519">
        <ele>53.5</ele>
        <time>2014-06-08T06:39:02Z</time>
      </trkpt>
      <trkpt lat="47.33393" lon="-1.23529">
        <ele>57.5</ele>
        <time>2014-06-08T06:39:18Z</time>
      </trkpt>
      <trkpt lat="47.334" lon="-1.2352">
        <ele>56.5</ele>
        <time>2014-06-08T06:39:25Z</time>
      </trkpt>
      <trkpt lat="47.33421" lon="-1.23506">
        <ele>54.5</ele>
        <time>2014-06-08T06:39:29Z</time>
      </trkpt>
      <trkpt lat="47.33441" lon="-1.235">
        <ele>54.5</ele>
        <time>2014-06-08T06:39:33Z</time>
      </trkpt>
      <trkpt lat="47.33463" lon="-1.23492">
        <ele>52.5</ele>
        <time>2014-06-08T06:39:37Z</time>
      </trkpt>
      <trkpt lat="47.33491" lon="-1.23483">
        <ele>50.5</ele>
        <time>2014-06-08T06:39:41Z</time>
      </trkpt>
      <trkpt lat="47.33514" lon="-1.23475">
        <ele>48.5</ele>
        <time>2014-06-08T06:39:45Z</time>
      </trkpt>
      <trkpt lat="47.33537" lon="-1.23475">
        <ele>48.5</ele>
        <time>2014-06-08T06:39:49Z</time>
      </trkpt>
      <trkpt lat="47.33558" lon="-1.23471">
        <ele>46.5</ele>
        <time>2014-06-08T06:39:54Z</time>
      </trkpt>
      <trkpt lat="47.33582" lon="-1.23464">
        <ele>45.5</ele>
        <time>2014-06-08T06:39:58Z</time>
      </trkpt>
      <trkpt lat="47.33606" lon="-1.23456">
        <ele>44.5</ele>
        <time>2014-06-08T06:40:02Z</time>
      </trkpt>
      <trkpt lat="47.33627" lon="-1.23446">
        <ele>42.5</ele>
        <time>2014-06-08T06:40:06Z</time>
      </trkpt>
      <trkpt lat="47.33645" lon="-1.23442">
        <ele>39.5</ele>
        <time>2014-06-08T06:40:10Z</time>
      </trkpt>
      <trkpt lat="47.33651" lon="-1.23466">
        <ele>40.5</ele>
        <time>2014-06-08T06:40:14Z</time>
      </trkpt>
      <trkpt lat="47.33652" lon="-1.23491">
        <ele>40.5</ele>
        <time>2014-06-08T06:40:17Z</time>
      </trkpt>
      <trkpt lat="47.33654" lon="-1.23526">
        <ele>41.5</ele>
        <time>2014-06-08T06:40:21Z</time>
      </trkpt>
      <trkpt lat="47.33654" lon="-1.23562">
        <ele>42.5</ele>
        <time>2014-06-08T06:40:25Z</time>
      </trkpt>
      <trkpt lat="47.33664" lon="-1.23594">
        <ele>43.5</ele>
        <time>2014-06-08T06:40:29Z</time>
      </trkpt>
      <trkpt lat="47.33673" lon="-1.23644">
        <ele>42.5</ele>
        <time>2014-06-08T06:40:33Z</time>
      </trkpt>
      <trkpt lat="47.33679" lon="-1.23687">
        <ele>40.5</ele>
        <time>2014-06-08T06:40:37Z</time>
      </trkpt>
      <trkpt lat="47.33685" lon="-1.23726">
        <ele>37.5</ele>
        <time>2014-06-08T06:40:42Z</time>
      </trkpt>
      <trkpt lat="47.3369" lon="-1.23762">
        <ele>32.5</ele>
        <time>2014-06-08T06:40:46Z</time>
      </trkpt>
      <trkpt lat="47.33678" lon="-1.23772">
        <ele>33.5</ele>
        <time>2014-06-08T06:40:54Z</time>
      </trkpt>
      <trkpt lat="47.33665" lon="-1.23774">
        <ele>33.5</ele>
        <time>2014-06-08T06:40:58Z</time>
      </trkpt>
      <trkpt lat="47.33646" lon="-1.23769">
        <ele>34.5</ele>
        <time>2014-06-08T06:41:05Z</time>
      </trkpt>
      <trkpt lat="47.33635" lon="-1.23761">
        <ele>37.5</ele>
        <time>2014-06-08T06:41:09Z</time>
      </trkpt>
      <trkpt lat="47.33623" lon="-1.2376">
        <ele>37.5</ele>
        <time>2014-06-08T06:41:13Z</time>
      </trkpt>
      <trkpt lat="47.33608" lon="-1.23762">
        <ele>35.5</ele>
        <time>2014-06-08T06:41:17Z</time>
      </trkpt>
      <trkpt lat="47.33599" lon="-1.23766">
        <ele>39.5</ele>
        <time>2014-06-08T06:41:21Z</time>
      </trkpt>
      <trkpt lat="47.33581" lon="-1.23768">
        <ele>36.5</ele>
        <time>2014-06-08T06:41:30Z</time>
      </trkpt>
      <trkpt lat="47.33572" lon="-1.23772">
        <ele>33.5</ele>
        <time>2014-06-08T06:41:34Z</time>
      </trkpt>
      <trkpt lat="47.33562" lon="-1.2377">
        <ele>34.5</ele>
        <time>2014-06-08T06:41:38Z</time>
      </trkpt>
      <trkpt lat="47.33552" lon="-1.23769">
        <ele>35.5</ele>
        <time>2014-06-08T06:41:42Z</time>
      </trkpt>
      <trkpt lat="47.33543" lon="-1.2377">
        <ele>39.5</ele>
        <time>2014-06-08T06:41:46Z</time>
      </trkpt>
      <trkpt lat="47.33526" lon="-1.23772">
        <ele>40.5</ele>
        <time>2014-06-08T06:41:54Z</time>
      </trkpt>
      <trkpt lat="47.33516" lon="-1.23772">
        <ele>36.5</ele>
        <time>2014-06-08T06:41:57Z</time>
      </trkpt>
      <trkpt lat="47.33495" lon="-1.23774">
        <ele>38.5</ele>
        <time>2014-06-08T06:42:05Z</time>
      </trkpt>
      <trkpt lat="47.33482" lon="-1.23774">
        <ele>38.5</ele>
        <time>2014-06-08T06:42:09Z</time>
      </trkpt>
      <trkpt lat="47.3347" lon="-1.23774">
        <ele>39.5</ele>
        <time>2014-06-08T06:42:13Z</time>
      </trkpt>
      <trkpt lat="47.3346" lon="-1.23775">
        <ele>40.5</ele>
        <time>2014-06-08T06:42:17Z</time>
      </trkpt>
      <trkpt lat="47.3345" lon="-1.23784">
        <ele>44.5</ele>
        <time>2014-06-08T06:42:26Z</time>
      </trkpt>
      <trkpt lat="47.33451" lon="-1.23805">
        <ele>45.5</ele>
        <time>2014-06-08T06:42:34Z</time>
      </trkpt>
      <trkpt lat="47.3345" lon="-1.23825">
        <ele>50.5</ele>
        <time>2014-06-08T06:42:42Z</time>
      </trkpt>
      <trkpt lat="47.33452" lon="-1.23842">
        <ele>53.5</ele>
        <time>2014-06-08T06:42:49Z</time>
      </trkpt>
      <trkpt lat="47.33455" lon="-1.23857">
        <ele>54.5</ele>
        <time>2014-06-08T06:42:53Z</time>
      </trkpt>
      <trkpt lat="47.33457" lon="-1.23875">
        <ele>55.5</ele>
        <time>2014-06-08T06:42:57Z</time>
      </trkpt>
      <trkpt lat="47.33461" lon="-1.23895">
        <ele>55.5</ele>
        <time>2014-06-08T06:43:01Z</time>
      </trkpt>
      <trkpt lat="47.33468" lon="-1.2392">
        <ele>57.5</ele>
        <time>2014-06-08T06:43:05Z</time>
      </trkpt>
      <trkpt lat="47.33472" lon="-1.23945">
        <ele>57.5</ele>
        <time>2014-06-08T06:43:09Z</time>
      </trkpt>
      <trkpt lat="47.33478" lon="-1.23968">
        <ele>55.5</ele>
        <time>2014-06-08T06:43:14Z</time>
      </trkpt>
      <trkpt lat="47.33462" lon="-1.24004">
        <ele>56.5</ele>
        <time>2014-06-08T06:43:22Z</time>
      </trkpt>
      <trkpt lat="47.33451" lon="-1.24018">
        <ele>57.5</ele>
        <time>2014-06-08T06:43:26Z</time>
      </trkpt>
      <trkpt lat="47.3344" lon="-1.24028">
        <ele>58.5</ele>
        <time>2014-06-08T06:43:30Z</time>
      </trkpt>
      <trkpt lat="47.3343" lon="-1.24042">
        <ele>57.5</ele>
        <time>2014-06-08T06:43:34Z</time>
      </trkpt>
      <trkpt lat="47.33423" lon="-1.24051">
        <ele>58.5</ele>
        <time>2014-06-08T06:43:37Z</time>
      </trkpt>
      <trkpt lat="47.33413" lon="-1.2406">
        <ele>59.5</ele>
        <time>2014-06-08T06:43:41Z</time>
      </trkpt>
      <trkpt lat="47.33407" lon="-1.24068">
        <ele>63.5</ele>
        <time>2014-06-08T06:43:45Z</time>
      </trkpt>
      <trkpt lat="47.33399" lon="-1.24077">
        <ele>64.5</ele>
        <time>2014-06-08T06:43:49Z</time>
      </trkpt>
      <trkpt lat="47.33388" lon="-1.24085">
        <ele>65.5</ele>
        <time>2014-06-08T06:43:53Z</time>
      </trkpt>
      <trkpt lat="47.33367" lon="-1.24097">
        <ele>68.5</ele>
        <time>2014-06-08T06:44:02Z</time>
      </trkpt>
      <trkpt lat="47.33356" lon="-1.24103">
        <ele>69.5</ele>
        <time>2014-06-08T06:44:06Z</time>
      </trkpt>
      <trkpt lat="47.33347" lon="-1.24113">
        <ele>70.5</ele>
        <time>2014-06-08T06:44:10Z</time>
      </trkpt>
      <trkpt lat="47.33338" lon="-1.24123">
        <ele>73.5</ele>
        <time>2014-06-08T06:44:14Z</time>
      </trkpt>
      <trkpt lat="47.33329" lon="-1.24135">
        <ele>74.5</ele>
        <time>2014-06-08T06:44:18Z</time>
      </trkpt>
      <trkpt lat="47.33321" lon="-1.24146">
        <ele>75.5</ele>
        <time>2014-06-08T06:44:22Z</time>
      </trkpt>
      <trkpt lat="47.33319" lon="-1.24161">
        <ele>67.5</ele>
        <time>2014-06-08T06:44:26Z</time>
      </trkpt>
      <trkpt lat="47.33329" lon="-1.24168">
        <ele>67.5</ele>
        <time>2014-06-08T06:44:30Z</time>
      </trkpt>
      <trkpt lat="47.33339" lon="-1.24169">
        <ele>67.5</ele>
        <time>2014-06-08T06:44:33Z</time>
      </trkpt>
      <trkpt lat="47.33355" lon="-1.24167">
        <ele>69.5</ele>
        <time>2014-06-08T06:44:37Z</time>
      </trkpt>
      <trkpt lat="47.33366" lon="-1.24165">
        <ele>69.5</ele>
        <time>2014-06-08T06:44:41Z</time>
      </trkpt>
      <trkpt lat="47.3339" lon="-1.24174">
        <ele>67.5</ele>
        <time>2014-06-08T06:44:45Z</time>
      </trkpt>
      <trkpt lat="47.33417" lon="-1.24171">
        <ele>64.5</ele>
        <time>2014-06-08T06:44:49Z</time>
      </trkpt>
      <trkpt lat="47.33443" lon="-1.24158">
        <ele>61.5</ele>
        <time>2014-06-08T06:44:53Z</time>
      </trkpt>
      <trkpt lat="47.33471" lon="-1.24141">
        <ele>57.5</ele>
        <time>2014-06-08T06:44:57Z</time>
      </trkpt>
      <trkpt lat="47.33502" lon="-1.2412">
        <ele>55.5</ele>
        <time>2014-06-08T06:45:02Z</time>
      </trkpt>
      <trkpt lat="47.33526" lon="-1.24113">
        <ele>54.5</ele>
        <time>2014-06-08T06:45:06Z</time>
      </trkpt>
      <trkpt lat="47.33562" lon="-1.24109">
        <ele>51.5</ele>
        <time>2014-06-08T06:45:10Z</time>
      </trkpt>
      <trkpt lat="47.33581" lon="-1.24119">
        <ele>50.5</ele>
        <time>2014-06-08T06:45:14Z</time>
      </trkpt>
      <trkpt lat="47.33591" lon="-1.24164">
        <ele>49.5</ele>
        <time>2014-06-08T06:45:21Z</time>
      </trkpt>
      <trkpt lat="47.33608" lon="-1.24157">
        <ele>49.5</ele>
        <time>2014-06-08T06:45:25Z</time>
      </trkpt>
      <trkpt lat="47.33625" lon="-1.24138">
        <ele>47.5</ele>
        <time>2014-06-08T06:45:29Z</time>
      </trkpt>
      <trkpt lat="47.33646" lon="-1.24117">
        <ele>43.5</ele>
        <time>2014-06-08T06:45:33Z</time>
      </trkpt>
      <trkpt lat="47.33667" lon="-1.24106">
        <ele>41.5</ele>
        <time>2014-06-08T06:45:37Z</time>
      </trkpt>
      <trkpt lat="47.33699" lon="-1.24098">
        <ele>39.5</ele>
        <time>2014-06-08T06:45:41Z</time>
      </trkpt>
      <trkpt lat="47.33723" lon="-1.24094">
        <ele>35.5</ele>
        <time>2014-06-08T06:45:45Z</time>
      </trkpt>
      <trkpt lat="47.33727" lon="-1.24081">
        <ele>36.5</ele>
        <time>2014-06-08T06:45:49Z</time>
      </trkpt>
      <trkpt lat="47.33724" lon="-1.24065">
        <ele>36.5</ele>
        <time>2014-06-08T06:45:53Z</time>
      </trkpt>
      <trkpt lat="47.33723" lon="-1.24044">
        <ele>36.5</ele>
        <time>2014-06-08T06:45:58Z</time>
      </trkpt>
      <trkpt lat="47.33733" lon="-1.24029">
        <ele>34.5</ele>
        <time>2014-06-08T06:46:02Z</time>
      </trkpt>
      <trkpt lat="47.33757" lon="-1.24026">
        <ele>28.5</ele>
        <time>2014-06-08T06:46:06Z</time>
      </trkpt>
      <trkpt lat="47.33764" lon="-1.24036">
        <ele>28.5</ele>
        <time>2014-06-08T06:46:10Z</time>
      </trkpt>
      <trkpt lat="47.33765" lon="-1.24068">
        <ele>25.5</ele>
        <time>2014-06-08T06:46:17Z</time>
      </trkpt>
      <trkpt lat="47.33786" lon="-1.24067">
        <ele>24.5</ele>
        <time>2014-06-08T06:46:21Z</time>
      </trkpt>
      <trkpt lat="47.33806" lon="-1.24063">
        <ele>22.5</ele>
        <time>2014-06-08T06:46:25Z</time>
      </trkpt>
      <trkpt lat="47.33814" lon="-1.24051">
        <ele>25.5</ele>
        <time>2014-06-08T06:46:29Z</time>
      </trkpt>
      <trkpt lat="47.33815" lon="-1.24025">
        <ele>27.5</ele>
        <time>2014-06-08T06:46:33Z</time>
      </trkpt>
      <trkpt lat="47.33815" lon="-1.24002">
        <ele>23.5</ele>
        <time>2014-06-08T06:46:37Z</time>
      </trkpt>
      <trkpt lat="47.33818" lon="-1.23973">
        <ele>23.5</ele>
        <time>2014-06-08T06:46:41Z</time>
      </trkpt>
      <trkpt lat="47.33823" lon="-1.23944">
        <ele>23.5</ele>
        <time>2014-06-08T06:46:46Z</time>
      </trkpt>
      <trkpt lat="47.33826" lon="-1.23916">
        <ele>22.5</ele>
        <time>2014-06-08T06:46:50Z</time>
      </trkpt>
      <trkpt lat="47.3383" lon="-1.23894">
        <ele>22.5</ele>
        <time>2014-06-08T06:46:54Z</time>
      </trkpt>
      <trkpt lat="47.33823" lon="-1.23883">
        <ele>25.5</ele>
        <time>2014-06-08T06:47:02Z</time>
      </trkpt>
      <trkpt lat="47.33809" lon="-1.23883">
        <ele>25.5</ele>
        <time>2014-06-08T06:47:06Z</time>
      </trkpt>
      <trkpt lat="47.33791" lon="-1.23882">
        <ele>26.5</ele>
        <time>2014-06-08T06:47:13Z</time>
      </trkpt>
      <trkpt lat="47.33772" lon="-1.23882">
        <ele>29.5</ele>
        <time>2014-06-08T06:47:21Z</time>
      </trkpt>
      <trkpt lat="47.33755" lon="-1.23884">
        <ele>32.5</ele>
        <time>2014-06-08T06:47:29Z</time>
      </trkpt>
      <trkpt lat="47.33746" lon="-1.23887">
        <ele>33.5</ele>
        <time>2014-06-08T06:47:34Z</time>
      </trkpt>
      <trkpt lat="47.33736" lon="-1.2389">
        <ele>34.5</ele>
        <time>2014-06-08T06:47:38Z</time>
      </trkpt>
      <trkpt lat="47.33726" lon="-1.23892">
        <ele>35.5</ele>
        <time>2014-06-08T06:47:42Z</time>
      </trkpt>
      <trkpt lat="47.33717" lon="-1.23896">
        <ele>37.5</ele>
        <time>2014-06-08T06:47:46Z</time>
      </trkpt>
      <trkpt lat="47.33704" lon="-1.239">
        <ele>42.5</ele>
        <time>2014-06-08T06:47:54Z</time>
      </trkpt>
      <trkpt lat="47.33688" lon="-1.23902">
        <ele>40.5</ele>
        <time>2014-06-08T06:48:01Z</time>
      </trkpt>
      <trkpt lat="47.33682" lon="-1.23891">
        <ele>32.5</ele>
        <time>2014-06-08T06:48:09Z</time>
      </trkpt>
      <trkpt lat="47.33697" lon="-1.23876">
        <ele>29.5</ele>
        <time>2014-06-08T06:48:13Z</time>
      </trkpt>
      <trkpt lat="47.33727" lon="-1.23847">
        <ele>25.5</ele>
        <time>2014-06-08T06:48:17Z</time>
      </trkpt>
      <trkpt lat="47.33753" lon="-1.23818">
        <ele>22.5</ele>
        <time>2014-06-08T06:48:21Z</time>
      </trkpt>
      <trkpt lat="47.33777" lon="-1.23811">
        <ele>20.5</ele>
        <time>2014-06-08T06:48:26Z</time>
      </trkpt>
      <trkpt lat="47.3382" lon="-1.23819">
        <ele>17.5</ele>
        <time>2014-06-08T06:48:30Z</time>
      </trkpt>
      <trkpt lat="47.33853" lon="-1.2383">
        <ele>16.5</ele>
        <time>2014-06-08T06:48:34Z</time>
      </trkpt>
      <trkpt lat="47.33873" lon="-1.23827">
        <ele>15.5</ele>
        <time>2014-06-08T06:48:38Z</time>
      </trkpt>
      <trkpt lat="47.33883" lon="-1.23804">
        <ele>15.5</ele>
        <time>2014-06-08T06:48:42Z</time>
      </trkpt>
      <trkpt lat="47.3389" lon="-1.23782">
        <ele>14.5</ele>
        <time>2014-06-08T06:48:45Z</time>
      </trkpt>
      <trkpt lat="47.339" lon="-1.23752">
        <ele>15.5</ele>
        <time>2014-06-08T06:48:49Z</time>
      </trkpt>
      <trkpt lat="47.33911" lon="-1.2372">
        <ele>15.5</ele>
        <time>2014-06-08T06:48:53Z</time>
      </trkpt>
      <trkpt lat="47.33927" lon="-1.23691">
        <ele>17.5</ele>
        <time>2014-06-08T06:48:57Z</time>
      </trkpt>
      <trkpt lat="47.33942" lon="-1.23651">
        <ele>18.5</ele>
        <time>2014-06-08T06:49:01Z</time>
      </trkpt>
      <trkpt lat="47.33949" lon="-1.23619">
        <ele>17.5</ele>
        <time>2014-06-08T06:49:05Z</time>
      </trkpt>
      <trkpt lat="47.33957" lon="-1.23585">
        <ele>17.5</ele>
        <time>2014-06-08T06:49:10Z</time>
      </trkpt>
      <trkpt lat="47.33959" lon="-1.2355">
        <ele>17.5</ele>
        <time>2014-06-08T06:49:14Z</time>
      </trkpt>
      <trkpt lat="47.33962" lon="-1.23515">
        <ele>14.5</ele>
        <time>2014-06-08T06:49:18Z</time>
      </trkpt>
      <trkpt lat="47.33968" lon="-1.23484">
        <ele>16.5</ele>
        <time>2014-06-08T06:49:22Z</time>
      </trkpt>
      <trkpt lat="47.33975" lon="-1.23454">
        <ele>17.5</ele>
        <time>2014-06-08T06:49:26Z</time>
      </trkpt>
      <trkpt lat="47.33985" lon="-1.23439">
        <ele>14.5</ele>
        <time>2014-06-08T06:49:29Z</time>
      </trkpt>
      <trkpt lat="47.34009" lon="-1.23446">
        <ele>12.5</ele>
        <time>2014-06-08T06:49:33Z</time>
      </trkpt>
      <trkpt lat="47.34042" lon="-1.23446">
        <ele>11.5</ele>
        <time>2014-06-08T06:49:37Z</time>
      </trkpt>
      <trkpt lat="47.34072" lon="-1.23455">
        <ele>12.5</ele>
        <time>2014-06-08T06:49:41Z</time>
      </trkpt>
      <trkpt lat="47.3411" lon="-1.23465">
        <ele>12.5</ele>
        <time>2014-06-08T06:49:45Z</time>
      </trkpt>
      <trkpt lat="47.34138" lon="-1.23473">
        <ele>13.5</ele>
        <time>2014-06-08T06:49:49Z</time>
      </trkpt>
      <trkpt lat="47.34167" lon="-1.23482">
        <ele>15.5</ele>
        <time>2014-06-08T06:49:54Z</time>
      </trkpt>
      <trkpt lat="47.34195" lon="-1.23491">
        <ele>15.5</ele>
        <time>2014-06-08T06:49:58Z</time>
      </trkpt>
      <trkpt lat="47.34223" lon="-1.235">
        <ele>14.5</ele>
        <time>2014-06-08T06:50:02Z</time>
      </trkpt>
      <trkpt lat="47.34249" lon="-1.23506">
        <ele>14.5</ele>
        <time>2014-06-08T06:50:06Z</time>
      </trkpt>
      <trkpt lat="47.3427" lon="-1.23486">
        <ele>14.5</ele>
        <time>2014-06-08T06:50:10Z</time>
      </trkpt>
      <trkpt lat="47.3429" lon="-1.23465">
        <ele>14.5</ele>
        <time>2014-06-08T06:50:14Z</time>
      </trkpt>
      <trkpt lat="47.34289" lon="-1.23442">
        <ele>15.5</ele>
        <time>2014-06-08T06:50:17Z</time>
      </trkpt>
      <trkpt lat="47.34288" lon="-1.23412">
        <ele>14.5</ele>
        <time>2014-06-08T06:50:21Z</time>
      </trkpt>
      <trkpt lat="47.34283" lon="-1.23379">
        <ele>11.5</ele>
        <time>2014-06-08T06:50:25Z</time>
      </trkpt>
      <trkpt lat="47.34281" lon="-1.23335">
        <ele>10.5</ele>
        <time>2014-06-08T06:50:29Z</time>
      </trkpt>
      <trkpt lat="47.34276" lon="-1.23302">
        <ele>10.5</ele>
        <time>2014-06-08T06:50:33Z</time>
      </trkpt>
      <trkpt lat="47.34272" lon="-1.23269">
        <ele>9.5</ele>
        <time>2014-06-08T06:50:37Z</time>
      </trkpt>
      <trkpt lat="47.34267" lon="-1.23233">
        <ele>9.5</ele>
        <time>2014-06-08T06:50:41Z</time>
      </trkpt>
      <trkpt lat="47.34258" lon="-1.23196">
        <ele>8.5</ele>
        <time>2014-06-08T06:50:46Z</time>
      </trkpt>
      <trkpt lat="47.34254" lon="-1.2316">
        <ele>8.5</ele>
        <time>2014-06-08T06:50:50Z</time>
      </trkpt>
      <trkpt lat="47.34248" lon="-1.23125">
        <ele>9.5</ele>
        <time>2014-06-08T06:50:54Z</time>
      </trkpt>
      <trkpt lat="47.34241" lon="-1.23091">
        <ele>9.5</ele>
        <time>2014-06-08T06:50:58Z</time>
      </trkpt>
      <trkpt lat="47.34234" lon="-1.23056">
        <ele>9.5</ele>
        <time>2014-06-08T06:51:02Z</time>
      </trkpt>
      <trkpt lat="47.34227" lon="-1.23018">
        <ele>8.5</ele>
        <time>2014-06-08T06:51:06Z</time>
      </trkpt>
      <trkpt lat="47.34225" lon="-1.22991">
        <ele>9.5</ele>
        <time>2014-06-08T06:51:09Z</time>
      </trkpt>
      <trkpt lat="47.34224" lon="-1.22961">
        <ele>8.5</ele>
        <time>2014-06-08T06:51:13Z</time>
      </trkpt>
      <trkpt lat="47.34217" lon="-1.22917">
        <ele>11.5</ele>
        <time>2014-06-08T06:51:17Z</time>
      </trkpt>
      <trkpt lat="47.34216" lon="-1.22885">
        <ele>10.5</ele>
        <time>2014-06-08T06:51:21Z</time>
      </trkpt>
      <trkpt lat="47.34221" lon="-1.22835">
        <ele>10.5</ele>
        <time>2014-06-08T06:51:25Z</time>
      </trkpt>
      <trkpt lat="47.34222" lon="-1.22798">
        <ele>10.5</ele>
        <time>2014-06-08T06:51:29Z</time>
      </trkpt>
      <trkpt lat="47.34223" lon="-1.22767">
        <ele>10.5</ele>
        <time>2014-06-08T06:51:33Z</time>
      </trkpt>
      <trkpt lat="47.34225" lon="-1.22736">
        <ele>12.5</ele>
        <time>2014-06-08T06:51:38Z</time>
      </trkpt>
      <trkpt lat="47.34227" lon="-1.22705">
        <ele>14.5</ele>
        <time>2014-06-08T06:51:42Z</time>
      </trkpt>
      <trkpt lat="47.34223" lon="-1.22691">
        <ele>7.5</ele>
        <time>2014-06-08T06:52:01Z</time>
      </trkpt>
      <trkpt lat="47.34223" lon="-1.22677">
        <ele>13.5</ele>
        <time>2014-06-08T06:55:22Z</time>
      </trkpt>
      <trkpt lat="47.34223" lon="-1.22692">
        <ele>10.5</ele>
        <time>2014-06-08T06:55:58Z</time>
      </trkpt>
      <trkpt lat="47.34211" lon="-1.22695">
        <ele>8.5</ele>
        <time>2014-06-08T06:56:18Z</time>
      </trkpt>
      <trkpt lat="47.34199" lon="-1.22705">
        <ele>14.5</ele>
        <time>2014-06-08T06:56:25Z</time>
      </trkpt>
      <trkpt lat="47.34189" lon="-1.22716">
        <ele>16.5</ele>
        <time>2014-06-08T06:56:29Z</time>
      </trkpt>
      <trkpt lat="47.34175" lon="-1.22729">
        <ele>16.5</ele>
        <time>2014-06-08T06:56:33Z</time>
      </trkpt>
      <trkpt lat="47.34153" lon="-1.22743">
        <ele>16.5</ele>
        <time>2014-06-08T06:56:37Z</time>
      </trkpt>
      <trkpt lat="47.34137" lon="-1.22747">
        <ele>17.5</ele>
        <time>2014-06-08T06:56:41Z</time>
      </trkpt>
      <trkpt lat="47.34121" lon="-1.22739">
        <ele>16.5</ele>
        <time>2014-06-08T06:56:45Z</time>
      </trkpt>
      <trkpt lat="47.34105" lon="-1.22727">
        <ele>13.5</ele>
        <time>2014-06-08T06:56:50Z</time>
      </trkpt>
      <trkpt lat="47.34095" lon="-1.22721">
        <ele>12.5</ele>
        <time>2014-06-08T06:56:54Z</time>
      </trkpt>
      <trkpt lat="47.34081" lon="-1.22711">
        <ele>11.5</ele>
        <time>2014-06-08T06:57:02Z</time>
      </trkpt>
      <trkpt lat="47.34071" lon="-1.2271">
        <ele>15.5</ele>
        <time>2014-06-08T06:57:06Z</time>
      </trkpt>
      <trkpt lat="47.3405" lon="-1.22698">
        <ele>13.5</ele>
        <time>2014-06-08T06:57:13Z</time>
      </trkpt>
      <trkpt lat="47.34041" lon="-1.22691">
        <ele>12.5</ele>
        <time>2014-06-08T06:57:17Z</time>
      </trkpt>
      <trkpt lat="47.34029" lon="-1.22678">
        <ele>15.5</ele>
        <time>2014-06-08T06:57:25Z</time>
      </trkpt>
      <trkpt lat="47.34021" lon="-1.22672">
        <ele>20.5</ele>
        <time>2014-06-08T06:57:33Z</time>
      </trkpt>
      <trkpt lat="47.34011" lon="-1.22662">
        <ele>22.5</ele>
        <time>2014-06-08T06:57:42Z</time>
      </trkpt>
      <trkpt lat="47.34" lon="-1.22657">
        <ele>25.5</ele>
        <time>2014-06-08T06:57:50Z</time>
      </trkpt>
      <trkpt lat="47.33988" lon="-1.2265">
        <ele>27.5</ele>
        <time>2014-06-08T06:57:58Z</time>
      </trkpt>
      <trkpt lat="47.33974" lon="-1.22641">
        <ele>30.5</ele>
        <time>2014-06-08T06:58:09Z</time>
      </trkpt>
      <trkpt lat="47.33959" lon="-1.22635">
        <ele>32.5</ele>
        <time>2014-06-08T06:58:17Z</time>
      </trkpt>
      <trkpt lat="47.33945" lon="-1.22631">
        <ele>34.5</ele>
        <time>2014-06-08T06:58:25Z</time>
      </trkpt>
      <trkpt lat="47.33934" lon="-1.22628">
        <ele>38.5</ele>
        <time>2014-06-08T06:58:33Z</time>
      </trkpt>
      <trkpt lat="47.33921" lon="-1.22625">
        <ele>40.5</ele>
        <time>2014-06-08T06:58:42Z</time>
      </trkpt>
      <trkpt lat="47.33923" lon="-1.22653">
        <ele>38.5</ele>
        <time>2014-06-08T06:58:54Z</time>
      </trkpt>
      <trkpt lat="47.33919" lon="-1.22671">
        <ele>37.5</ele>
        <time>2014-06-08T06:58:57Z</time>
      </trkpt>
      <trkpt lat="47.33913" lon="-1.22699">
        <ele>36.5</ele>
        <time>2014-06-08T06:59:01Z</time>
      </trkpt>
      <trkpt lat="47.33906" lon="-1.22707">
        <ele>36.5</ele>
        <time>2014-06-08T06:59:05Z</time>
      </trkpt>
      <trkpt lat="47.33897" lon="-1.22708">
        <ele>37.5</ele>
        <time>2014-06-08T06:59:09Z</time>
      </trkpt>
      <trkpt lat="47.33892" lon="-1.22748">
        <ele>36.5</ele>
        <time>2014-06-08T06:59:17Z</time>
      </trkpt>
      <trkpt lat="47.33886" lon="-1.22769">
        <ele>35.5</ele>
        <time>2014-06-08T06:59:22Z</time>
      </trkpt>
      <trkpt lat="47.33883" lon="-1.2279">
        <ele>35.5</ele>
        <time>2014-06-08T06:59:26Z</time>
      </trkpt>
      <trkpt lat="47.33879" lon="-1.22812">
        <ele>35.5</ele>
        <time>2014-06-08T06:59:30Z</time>
      </trkpt>
      <trkpt lat="47.33878" lon="-1.2283">
        <ele>35.5</ele>
        <time>2014-06-08T06:59:34Z</time>
      </trkpt>
      <trkpt lat="47.33866" lon="-1.2283">
        <ele>37.5</ele>
        <time>2014-06-08T06:59:42Z</time>
      </trkpt>
      <trkpt lat="47.33855" lon="-1.22825">
        <ele>39.5</ele>
        <time>2014-06-08T06:59:49Z</time>
      </trkpt>
      <trkpt lat="47.33846" lon="-1.22822">
        <ele>40.5</ele>
        <time>2014-06-08T06:59:53Z</time>
      </trkpt>
      <trkpt lat="47.33827" lon="-1.22815">
        <ele>41.5</ele>
        <time>2014-06-08T07:00:01Z</time>
      </trkpt>
      <trkpt lat="47.33815" lon="-1.22813">
        <ele>46.5</ele>
        <time>2014-06-08T07:00:09Z</time>
      </trkpt>
      <trkpt lat="47.33803" lon="-1.22808">
        <ele>50.5</ele>
        <time>2014-06-08T07:00:18Z</time>
      </trkpt>
      <trkpt lat="47.33791" lon="-1.22801">
        <ele>53.5</ele>
        <time>2014-06-08T07:00:26Z</time>
      </trkpt>
      <trkpt lat="47.33775" lon="-1.22795">
        <ele>54.5</ele>
        <time>2014-06-08T07:00:34Z</time>
      </trkpt>
      <trkpt lat="47.33761" lon="-1.2279">
        <ele>57.5</ele>
        <time>2014-06-08T07:00:41Z</time>
      </trkpt>
      <trkpt lat="47.33742" lon="-1.22785">
        <ele>57.5</ele>
        <time>2014-06-08T07:00:49Z</time>
      </trkpt>
      <trkpt lat="47.33732" lon="-1.22781">
        <ele>55.5</ele>
        <time>2014-06-08T07:00:53Z</time>
      </trkpt>
      <trkpt lat="47.33729" lon="-1.22766">
        <ele>54.5</ele>
        <time>2014-06-08T07:00:57Z</time>
      </trkpt>
      <trkpt lat="47.33727" lon="-1.22747">
        <ele>54.5</ele>
        <time>2014-06-08T07:01:02Z</time>
      </trkpt>
      <trkpt lat="47.33725" lon="-1.22727">
        <ele>55.5</ele>
        <time>2014-06-08T07:01:06Z</time>
      </trkpt>
      <trkpt lat="47.33722" lon="-1.22709">
        <ele>56.5</ele>
        <time>2014-06-08T07:01:10Z</time>
      </trkpt>
      <trkpt lat="47.33719" lon="-1.22692">
        <ele>57.5</ele>
        <time>2014-06-08T07:01:14Z</time>
      </trkpt>
      <trkpt lat="47.33712" lon="-1.22641">
        <ele>56.5</ele>
        <time>2014-06-08T07:01:25Z</time>
      </trkpt>
      <trkpt lat="47.33712" lon="-1.22616">
        <ele>55.5</ele>
        <time>2014-06-08T07:01:29Z</time>
      </trkpt>
      <trkpt lat="47.33714" lon="-1.22599">
        <ele>58.5</ele>
        <time>2014-06-08T07:01:33Z</time>
      </trkpt>
      <trkpt lat="47.33719" lon="-1.22572">
        <ele>58.5</ele>
        <time>2014-06-08T07:01:37Z</time>
      </trkpt>
      <trkpt lat="47.33723" lon="-1.2255">
        <ele>59.5</ele>
        <time>2014-06-08T07:01:41Z</time>
      </trkpt>
      <trkpt lat="47.3373" lon="-1.2253">
        <ele>62.5</ele>
        <time>2014-06-08T07:01:45Z</time>
      </trkpt>
      <trkpt lat="47.33732" lon="-1.22516">
        <ele>63.5</ele>
        <time>2014-06-08T07:01:49Z</time>
      </trkpt>
      <trkpt lat="47.33735" lon="-1.22489">
        <ele>63.5</ele>
        <time>2014-06-08T07:01:54Z</time>
      </trkpt>
      <trkpt lat="47.33737" lon="-1.22467">
        <ele>63.5</ele>
        <time>2014-06-08T07:01:58Z</time>
      </trkpt>
      <trkpt lat="47.33746" lon="-1.22451">
        <ele>65.5</ele>
        <time>2014-06-08T07:02:02Z</time>
      </trkpt>
      <trkpt lat="47.33756" lon="-1.22439">
        <ele>63.5</ele>
        <time>2014-06-08T07:02:06Z</time>
      </trkpt>
      <trkpt lat="47.33752" lon="-1.22422">
        <ele>65.5</ele>
        <time>2014-06-08T07:02:10Z</time>
      </trkpt>
      <trkpt lat="47.33741" lon="-1.22391">
        <ele>65.5</ele>
        <time>2014-06-08T07:02:17Z</time>
      </trkpt>
      <trkpt lat="47.33737" lon="-1.2237">
        <ele>66.5</ele>
        <time>2014-06-08T07:02:21Z</time>
      </trkpt>
      <trkpt lat="47.33736" lon="-1.22345">
        <ele>65.5</ele>
        <time>2014-06-08T07:02:25Z</time>
      </trkpt>
      <trkpt lat="47.33738" lon="-1.22305">
        <ele>60.5</ele>
        <time>2014-06-08T07:02:29Z</time>
      </trkpt>
      <trkpt lat="47.33737" lon="-1.22274">
        <ele>59.5</ele>
        <time>2014-06-08T07:02:33Z</time>
      </trkpt>
      <trkpt lat="47.33736" lon="-1.22241">
        <ele>58.5</ele>
        <time>2014-06-08T07:02:37Z</time>
      </trkpt>
      <trkpt lat="47.33734" lon="-1.22209">
        <ele>59.5</ele>
        <time>2014-06-08T07:02:41Z</time>
      </trkpt>
      <trkpt lat="47.33733" lon="-1.22176">
        <ele>57.5</ele>
        <time>2014-06-08T07:02:45Z</time>
      </trkpt>
      <trkpt lat="47.33733" lon="-1.22148">
        <ele>56.5</ele>
        <time>2014-06-08T07:02:49Z</time>
      </trkpt>
      <trkpt lat="47.33733" lon="-1.22123">
        <ele>56.5</ele>
        <time>2014-06-08T07:02:53Z</time>
      </trkpt>
      <trkpt lat="47.3373" lon="-1.22097">
        <ele>57.5</ele>
        <time>2014-06-08T07:02:58Z</time>
      </trkpt>
      <trkpt lat="47.33722" lon="-1.22078">
        <ele>57.5</ele>
        <time>2014-06-08T07:03:02Z</time>
      </trkpt>
      <trkpt lat="47.33706" lon="-1.22068">
        <ele>57.5</ele>
        <time>2014-06-08T07:03:06Z</time>
      </trkpt>
      <trkpt lat="47.33694" lon="-1.22051">
        <ele>57.5</ele>
        <time>2014-06-08T07:03:10Z</time>
      </trkpt>
      <trkpt lat="47.33686" lon="-1.22029">
        <ele>57.5</ele>
        <time>2014-06-08T07:03:14Z</time>
      </trkpt>
      <trkpt lat="47.33681" lon="-1.22012">
        <ele>56.5</ele>
        <time>2014-06-08T07:03:17Z</time>
      </trkpt>
      <trkpt lat="47.33669" lon="-1.21995">
        <ele>57.5</ele>
        <time>2014-06-08T07:03:21Z</time>
      </trkpt>
      <trkpt lat="47.33643" lon="-1.21982">
        <ele>56.5</ele>
        <time>2014-06-08T07:03:25Z</time>
      </trkpt>
      <trkpt lat="47.33619" lon="-1.21971">
        <ele>56.5</ele>
        <time>2014-06-08T07:03:29Z</time>
      </trkpt>
      <trkpt lat="47.33608" lon="-1.21955">
        <ele>56.5</ele>
        <time>2014-06-08T07:03:33Z</time>
      </trkpt>
      <trkpt lat="47.33585" lon="-1.2193">
        <ele>56.5</ele>
        <time>2014-06-08T07:03:38Z</time>
      </trkpt>
      <trkpt lat="47.33561" lon="-1.219">
        <ele>53.5</ele>
        <time>2014-06-08T07:03:42Z</time>
      </trkpt>
      <trkpt lat="47.33533" lon="-1.21893">
        <ele>54.5</ele>
        <time>2014-06-08T07:03:46Z</time>
      </trkpt>
      <trkpt lat="47.33516" lon="-1.21893">
        <ele>57.5</ele>
        <time>2014-06-08T07:03:50Z</time>
      </trkpt>
      <trkpt lat="47.33512" lon="-1.21917">
        <ele>55.5</ele>
        <time>2014-06-08T07:03:54Z</time>
      </trkpt>
      <trkpt lat="47.33505" lon="-1.21946">
        <ele>54.5</ele>
        <time>2014-06-08T07:03:58Z</time>
      </trkpt>
      <trkpt lat="47.33495" lon="-1.21972">
        <ele>54.5</ele>
        <time>2014-06-08T07:04:02Z</time>
      </trkpt>
      <trkpt lat="47.33487" lon="-1.21994">
        <ele>53.5</ele>
        <time>2014-06-08T07:04:05Z</time>
      </trkpt>
      <trkpt lat="47.33474" lon="-1.2202">
        <ele>52.5</ele>
        <time>2014-06-08T07:04:09Z</time>
      </trkpt>
      <trkpt lat="47.33464" lon="-1.22058">
        <ele>54.5</ele>
        <time>2014-06-08T07:04:13Z</time>
      </trkpt>
      <trkpt lat="47.33456" lon="-1.22087">
        <ele>56.5</ele>
        <time>2014-06-08T07:04:17Z</time>
      </trkpt>
      <trkpt lat="47.33448" lon="-1.22117">
        <ele>57.5</ele>
        <time>2014-06-08T07:04:21Z</time>
      </trkpt>
      <trkpt lat="47.33433" lon="-1.22147">
        <ele>52.5</ele>
        <time>2014-06-08T07:04:25Z</time>
      </trkpt>
      <trkpt lat="47.33424" lon="-1.22179">
        <ele>53.5</ele>
        <time>2014-06-08T07:04:30Z</time>
      </trkpt>
      <trkpt lat="47.33413" lon="-1.22214">
        <ele>55.5</ele>
        <time>2014-06-08T07:04:34Z</time>
      </trkpt>
      <trkpt lat="47.33402" lon="-1.22251">
        <ele>58.5</ele>
        <time>2014-06-08T07:04:38Z</time>
      </trkpt>
      <trkpt lat="47.33391" lon="-1.22288">
        <ele>58.5</ele>
        <time>2014-06-08T07:04:42Z</time>
      </trkpt>
      <trkpt lat="47.33379" lon="-1.22325">
        <ele>58.5</ele>
        <time>2014-06-08T07:04:46Z</time>
      </trkpt>
      <trkpt lat="47.33369" lon="-1.22361">
        <ele>59.5</ele>
        <time>2014-06-08T07:04:50Z</time>
      </trkpt>
      <trkpt lat="47.33363" lon="-1.22397">
        <ele>58.5</ele>
        <time>2014-06-08T07:04:54Z</time>
      </trkpt>
      <trkpt lat="47.33363" lon="-1.22418">
        <ele>59.5</ele>
        <time>2014-06-08T07:04:57Z</time>
      </trkpt>
      <trkpt lat="47.33359" lon="-1.22443">
        <ele>60.5</ele>
        <time>2014-06-08T07:05:01Z</time>
      </trkpt>
      <trkpt lat="47.33362" lon="-1.22472">
        <ele>60.5</ele>
        <time>2014-06-08T07:05:05Z</time>
      </trkpt>
      <trkpt lat="47.33364" lon="-1.22502">
        <ele>60.5</ele>
        <time>2014-06-08T07:05:09Z</time>
      </trkpt>
      <trkpt lat="47.33368" lon="-1.22544">
        <ele>58.5</ele>
        <time>2014-06-08T07:05:13Z</time>
      </trkpt>
      <trkpt lat="47.33369" lon="-1.2257">
        <ele>56.5</ele>
        <time>2014-06-08T07:05:17Z</time>
      </trkpt>
      <trkpt lat="47.33367" lon="-1.22613">
        <ele>54.5</ele>
        <time>2014-06-08T07:05:21Z</time>
      </trkpt>
      <trkpt lat="47.33371" lon="-1.22637">
        <ele>53.5</ele>
        <time>2014-06-08T07:05:26Z</time>
      </trkpt>
      <trkpt lat="47.33368" lon="-1.22667">
        <ele>56.5</ele>
        <time>2014-06-08T07:05:30Z</time>
      </trkpt>
      <trkpt lat="47.33365" lon="-1.22703">
        <ele>54.5</ele>
        <time>2014-06-08T07:05:34Z</time>
      </trkpt>
      <trkpt lat="47.33361" lon="-1.22738">
        <ele>53.5</ele>
        <time>2014-06-08T07:05:38Z</time>
      </trkpt>
      <trkpt lat="47.3336" lon="-1.2276">
        <ele>51.5</ele>
        <time>2014-06-08T07:05:42Z</time>
      </trkpt>
      <trkpt lat="47.33344" lon="-1.22756">
        <ele>50.5</ele>
        <time>2014-06-08T07:05:49Z</time>
      </trkpt>
      <trkpt lat="47.33333" lon="-1.2275">
        <ele>51.5</ele>
        <time>2014-06-08T07:05:53Z</time>
      </trkpt>
      <trkpt lat="47.33319" lon="-1.22741">
        <ele>50.5</ele>
        <time>2014-06-08T07:05:57Z</time>
      </trkpt>
      <trkpt lat="47.33304" lon="-1.2273">
        <ele>52.5</ele>
        <time>2014-06-08T07:06:05Z</time>
      </trkpt>
      <trkpt lat="47.33295" lon="-1.22722">
        <ele>54.5</ele>
        <time>2014-06-08T07:06:14Z</time>
      </trkpt>
      <trkpt lat="47.33284" lon="-1.22712">
        <ele>54.5</ele>
        <time>2014-06-08T07:06:18Z</time>
      </trkpt>
      <trkpt lat="47.33273" lon="-1.227">
        <ele>54.5</ele>
        <time>2014-06-08T07:06:26Z</time>
      </trkpt>
      <trkpt lat="47.33262" lon="-1.22686">
        <ele>57.5</ele>
        <time>2014-06-08T07:06:33Z</time>
      </trkpt>
      <trkpt lat="47.33259" lon="-1.2266">
        <ele>59.5</ele>
        <time>2014-06-08T07:06:41Z</time>
      </trkpt>
      <trkpt lat="47.33261" lon="-1.22636">
        <ele>60.5</ele>
        <time>2014-06-08T07:06:49Z</time>
      </trkpt>
      <trkpt lat="47.33252" lon="-1.2262">
        <ele>63.5</ele>
        <time>2014-06-08T07:06:57Z</time>
      </trkpt>
      <trkpt lat="47.33238" lon="-1.22616">
        <ele>66.5</ele>
        <time>2014-06-08T07:07:06Z</time>
      </trkpt>
      <trkpt lat="47.33222" lon="-1.22609">
        <ele>69.5</ele>
        <time>2014-06-08T07:07:14Z</time>
      </trkpt>
      <trkpt lat="47.3321" lon="-1.22596">
        <ele>69.5</ele>
        <time>2014-06-08T07:07:21Z</time>
      </trkpt>
      <trkpt lat="47.33203" lon="-1.22585">
        <ele>72.5</ele>
        <time>2014-06-08T07:07:25Z</time>
      </trkpt>
      <trkpt lat="47.33188" lon="-1.22563">
        <ele>74.5</ele>
        <time>2014-06-08T07:07:33Z</time>
      </trkpt>
      <trkpt lat="47.33182" lon="-1.22551">
        <ele>73.5</ele>
        <time>2014-06-08T07:07:37Z</time>
      </trkpt>
      <trkpt lat="47.33174" lon="-1.22539">
        <ele>76.5</ele>
        <time>2014-06-08T07:07:41Z</time>
      </trkpt>
      <trkpt lat="47.33161" lon="-1.22519">
        <ele>76.5</ele>
        <time>2014-06-08T07:07:50Z</time>
      </trkpt>
      <trkpt lat="47.33158" lon="-1.22505">
        <ele>75.5</ele>
        <time>2014-06-08T07:07:54Z</time>
      </trkpt>
      <trkpt lat="47.33155" lon="-1.2249">
        <ele>73.5</ele>
        <time>2014-06-08T07:07:58Z</time>
      </trkpt>
      <trkpt lat="47.33153" lon="-1.22475">
        <ele>76.5</ele>
        <time>2014-06-08T07:08:02Z</time>
      </trkpt>
      <trkpt lat="47.3315" lon="-1.2246">
        <ele>77.5</ele>
        <time>2014-06-08T07:08:06Z</time>
      </trkpt>
      <trkpt lat="47.33149" lon="-1.22446">
        <ele>76.5</ele>
        <time>2014-06-08T07:08:09Z</time>
      </trkpt>
      <trkpt lat="47.33147" lon="-1.22424">
        <ele>76.5</ele>
        <time>2014-06-08T07:08:13Z</time>
      </trkpt>
      <trkpt lat="47.33146" lon="-1.22394">
        <ele>76.5</ele>
        <time>2014-06-08T07:08:17Z</time>
      </trkpt>
      <trkpt lat="47.33146" lon="-1.22371">
        <ele>77.5</ele>
        <time>2014-06-08T07:08:21Z</time>
      </trkpt>
      <trkpt lat="47.33146" lon="-1.2235">
        <ele>79.5</ele>
        <time>2014-06-08T07:08:25Z</time>
      </trkpt>
      <trkpt lat="47.33147" lon="-1.22329">
        <ele>80.5</ele>
        <time>2014-06-08T07:08:29Z</time>
      </trkpt>
      <trkpt lat="47.33148" lon="-1.22306">
        <ele>77.5</ele>
        <time>2014-06-08T07:08:34Z</time>
      </trkpt>
      <trkpt lat="47.33146" lon="-1.22269">
        <ele>77.5</ele>
        <time>2014-06-08T07:08:42Z</time>
      </trkpt>
      <trkpt lat="47.3316" lon="-1.22254">
        <ele>78.5</ele>
        <time>2014-06-08T07:08:50Z</time>
      </trkpt>
      <trkpt lat="47.33181" lon="-1.22232">
        <ele>76.5</ele>
        <time>2014-06-08T07:08:57Z</time>
      </trkpt>
      <trkpt lat="47.33193" lon="-1.22215">
        <ele>75.5</ele>
        <time>2014-06-08T07:09:01Z</time>
      </trkpt>
      <trkpt lat="47.33207" lon="-1.22193">
        <ele>74.5</ele>
        <time>2014-06-08T07:09:05Z</time>
      </trkpt>
      <trkpt lat="47.33228" lon="-1.22174">
        <ele>72.5</ele>
        <time>2014-06-08T07:09:09Z</time>
      </trkpt>
      <trkpt lat="47.33246" lon="-1.22149">
        <ele>72.5</ele>
        <time>2014-06-08T07:09:13Z</time>
      </trkpt>
      <trkpt lat="47.33267" lon="-1.2212">
        <ele>66.5</ele>
        <time>2014-06-08T07:09:17Z</time>
      </trkpt>
      <trkpt lat="47.33285" lon="-1.22094">
        <ele>65.5</ele>
        <time>2014-06-08T07:09:21Z</time>
      </trkpt>
      <trkpt lat="47.33301" lon="-1.22066">
        <ele>65.5</ele>
        <time>2014-06-08T07:09:25Z</time>
      </trkpt>
      <trkpt lat="47.33319" lon="-1.2204">
        <ele>64.5</ele>
        <time>2014-06-08T07:09:30Z</time>
      </trkpt>
      <trkpt lat="47.3333" lon="-1.22014">
        <ele>65.5</ele>
        <time>2014-06-08T07:09:34Z</time>
      </trkpt>
      <trkpt lat="47.33342" lon="-1.21983">
        <ele>65.5</ele>
        <time>2014-06-08T07:09:38Z</time>
      </trkpt>
      <trkpt lat="47.33352" lon="-1.21951">
        <ele>66.5</ele>
        <time>2014-06-08T07:09:42Z</time>
      </trkpt>
      <trkpt lat="47.33362" lon="-1.21924">
        <ele>65.5</ele>
        <time>2014-06-08T07:09:46Z</time>
      </trkpt>
      <trkpt lat="47.33376" lon="-1.21909">
        <ele>65.5</ele>
        <time>2014-06-08T07:09:49Z</time>
      </trkpt>
      <trkpt lat="47.33395" lon="-1.21886">
        <ele>66.5</ele>
        <time>2014-06-08T07:09:53Z</time>
      </trkpt>
      <trkpt lat="47.33418" lon="-1.21863">
        <ele>62.5</ele>
        <time>2014-06-08T07:09:57Z</time>
      </trkpt>
      <trkpt lat="47.33429" lon="-1.21832">
        <ele>61.5</ele>
        <time>2014-06-08T07:10:01Z</time>
      </trkpt>
      <trkpt lat="47.33436" lon="-1.21797">
        <ele>60.5</ele>
        <time>2014-06-08T07:10:05Z</time>
      </trkpt>
      <trkpt lat="47.33444" lon="-1.21766">
        <ele>60.5</ele>
        <time>2014-06-08T07:10:09Z</time>
      </trkpt>
      <trkpt lat="47.33438" lon="-1.21739">
        <ele>57.5</ele>
        <time>2014-06-08T07:10:14Z</time>
      </trkpt>
      <trkpt lat="47.33421" lon="-1.21721">
        <ele>59.5</ele>
        <time>2014-06-08T07:10:18Z</time>
      </trkpt>
      <trkpt lat="47.33407" lon="-1.21699">
        <ele>58.5</ele>
        <time>2014-06-08T07:10:22Z</time>
      </trkpt>
      <trkpt lat="47.33396" lon="-1.21674">
        <ele>58.5</ele>
        <time>2014-06-08T07:10:26Z</time>
      </trkpt>
      <trkpt lat="47.3339" lon="-1.21648">
        <ele>60.5</ele>
        <time>2014-06-08T07:10:30Z</time>
      </trkpt>
      <trkpt lat="47.33378" lon="-1.21625">
        <ele>60.5</ele>
        <time>2014-06-08T07:10:34Z</time>
      </trkpt>
      <trkpt lat="47.33369" lon="-1.21609">
        <ele>61.5</ele>
        <time>2014-06-08T07:10:38Z</time>
      </trkpt>
      <trkpt lat="47.33362" lon="-1.21588">
        <ele>61.5</ele>
        <time>2014-06-08T07:10:42Z</time>
      </trkpt>
      <trkpt lat="47.33357" lon="-1.21573">
        <ele>62.5</ele>
        <time>2014-06-08T07:10:45Z</time>
      </trkpt>
      <trkpt lat="47.33351" lon="-1.21554">
        <ele>62.5</ele>
        <time>2014-06-08T07:10:49Z</time>
      </trkpt>
      <trkpt lat="47.33341" lon="-1.21537">
        <ele>65.5</ele>
        <time>2014-06-08T07:10:53Z</time>
      </trkpt>
      <trkpt lat="47.33329" lon="-1.21518">
        <ele>64.5</ele>
        <time>2014-06-08T07:10:57Z</time>
      </trkpt>
      <trkpt lat="47.33325" lon="-1.215">
        <ele>62.5</ele>
        <time>2014-06-08T07:11:01Z</time>
      </trkpt>
      <trkpt lat="47.33313" lon="-1.21479">
        <ele>64.5</ele>
        <time>2014-06-08T07:11:05Z</time>
      </trkpt>
      <trkpt lat="47.33301" lon="-1.21466">
        <ele>68.5</ele>
        <time>2014-06-08T07:11:10Z</time>
      </trkpt>
      <trkpt lat="47.33287" lon="-1.21457">
        <ele>70.5</ele>
        <time>2014-06-08T07:11:14Z</time>
      </trkpt>
      <trkpt lat="47.33274" lon="-1.21448">
        <ele>70.5</ele>
        <time>2014-06-08T07:11:18Z</time>
      </trkpt>
      <trkpt lat="47.3326" lon="-1.21444">
        <ele>72.5</ele>
        <time>2014-06-08T07:11:22Z</time>
      </trkpt>
      <trkpt lat="47.33247" lon="-1.21444">
        <ele>75.5</ele>
        <time>2014-06-08T07:11:26Z</time>
      </trkpt>
      <trkpt lat="47.33232" lon="-1.21442">
        <ele>74.5</ele>
        <time>2014-06-08T07:11:30Z</time>
      </trkpt>
      <trkpt lat="47.33217" lon="-1.2144">
        <ele>76.5</ele>
        <time>2014-06-08T07:11:34Z</time>
      </trkpt>
      <trkpt lat="47.33192" lon="-1.21432">
        <ele>77.5</ele>
        <time>2014-06-08T07:11:41Z</time>
      </trkpt>
      <trkpt lat="47.33177" lon="-1.21427">
        <ele>77.5</ele>
        <time>2014-06-08T07:11:45Z</time>
      </trkpt>
      <trkpt lat="47.3316" lon="-1.21419">
        <ele>78.5</ele>
        <time>2014-06-08T07:11:49Z</time>
      </trkpt>
      <trkpt lat="47.33146" lon="-1.21414">
        <ele>79.5</ele>
        <time>2014-06-08T07:11:53Z</time>
      </trkpt>
      <trkpt lat="47.33132" lon="-1.2141">
        <ele>79.5</ele>
        <time>2014-06-08T07:11:57Z</time>
      </trkpt>
      <trkpt lat="47.33119" lon="-1.214">
        <ele>79.5</ele>
        <time>2014-06-08T07:12:01Z</time>
      </trkpt>
      <trkpt lat="47.33109" lon="-1.21385">
        <ele>82.5</ele>
        <time>2014-06-08T07:12:05Z</time>
      </trkpt>
      <trkpt lat="47.33102" lon="-1.21369">
        <ele>82.5</ele>
        <time>2014-06-08T07:12:10Z</time>
      </trkpt>
      <trkpt lat="47.33098" lon="-1.21354">
        <ele>84.5</ele>
        <time>2014-06-08T07:12:14Z</time>
      </trkpt>
      <trkpt lat="47.33091" lon="-1.21328">
        <ele>82.5</ele>
        <time>2014-06-08T07:12:18Z</time>
      </trkpt>
      <trkpt lat="47.33085" lon="-1.21307">
        <ele>83.5</ele>
        <time>2014-06-08T07:12:22Z</time>
      </trkpt>
      <trkpt lat="47.33079" lon="-1.21286">
        <ele>83.5</ele>
        <time>2014-06-08T07:12:26Z</time>
      </trkpt>
      <trkpt lat="47.33072" lon="-1.21266">
        <ele>83.5</ele>
        <time>2014-06-08T07:12:30Z</time>
      </trkpt>
      <trkpt lat="47.33064" lon="-1.21253">
        <ele>83.5</ele>
        <time>2014-06-08T07:12:33Z</time>
      </trkpt>
      <trkpt lat="47.33054" lon="-1.21237">
        <ele>84.5</ele>
        <time>2014-06-08T07:12:37Z</time>
      </trkpt>
      <trkpt lat="47.3304" lon="-1.21217">
        <ele>84.5</ele>
        <time>2014-06-08T07:12:41Z</time>
      </trkpt>
      <trkpt lat="47.33029" lon="-1.21201">
        <ele>84.5</ele>
        <time>2014-06-08T07:12:45Z</time>
      </trkpt>
      <trkpt lat="47.33019" lon="-1.21185">
        <ele>85.5</ele>
        <time>2014-06-08T07:12:49Z</time>
      </trkpt>
      <trkpt lat="47.33008" lon="-1.21168">
        <ele>85.5</ele>
        <time>2014-06-08T07:12:53Z</time>
      </trkpt>
      <trkpt lat="47.32997" lon="-1.21152">
        <ele>86.5</ele>
        <time>2014-06-08T07:12:58Z</time>
      </trkpt>
      <trkpt lat="47.32986" lon="-1.21136">
        <ele>86.5</ele>
        <time>2014-06-08T07:13:02Z</time>
      </trkpt>
      <trkpt lat="47.32976" lon="-1.21119">
        <ele>87.5</ele>
        <time>2014-06-08T07:13:06Z</time>
      </trkpt>
      <trkpt lat="47.32965" lon="-1.21104">
        <ele>87.5</ele>
        <time>2014-06-08T07:13:10Z</time>
      </trkpt>
      <trkpt lat="47.32955" lon="-1.21089">
        <ele>88.5</ele>
        <time>2014-06-08T07:13:14Z</time>
      </trkpt>
      <trkpt lat="47.32969" lon="-1.2108">
        <ele>92.5</ele>
        <time>2014-06-08T07:13:21Z</time>
      </trkpt>
      <trkpt lat="47.32998" lon="-1.21074">
        <ele>95.5</ele>
        <time>2014-06-08T07:13:25Z</time>
      </trkpt>
      <trkpt lat="47.33027" lon="-1.21067">
        <ele>91.5</ele>
        <time>2014-06-08T07:13:29Z</time>
      </trkpt>
      <trkpt lat="47.33057" lon="-1.21059">
        <ele>90.5</ele>
        <time>2014-06-08T07:13:33Z</time>
      </trkpt>
      <trkpt lat="47.33093" lon="-1.2105">
        <ele>88.5</ele>
        <time>2014-06-08T07:13:37Z</time>
      </trkpt>
      <trkpt lat="47.33129" lon="-1.21047">
        <ele>88.5</ele>
        <time>2014-06-08T07:13:41Z</time>
      </trkpt>
      <trkpt lat="47.33164" lon="-1.21047">
        <ele>86.5</ele>
        <time>2014-06-08T07:13:46Z</time>
      </trkpt>
      <trkpt lat="47.33197" lon="-1.21047">
        <ele>86.5</ele>
        <time>2014-06-08T07:13:50Z</time>
      </trkpt>
      <trkpt lat="47.33227" lon="-1.21043">
        <ele>84.5</ele>
        <time>2014-06-08T07:13:54Z</time>
      </trkpt>
      <trkpt lat="47.33253" lon="-1.21039">
        <ele>83.5</ele>
        <time>2014-06-08T07:13:58Z</time>
      </trkpt>
      <trkpt lat="47.33259" lon="-1.21015">
        <ele>82.5</ele>
        <time>2014-06-08T07:14:02Z</time>
      </trkpt>
      <trkpt lat="47.33258" lon="-1.20987">
        <ele>81.5</ele>
        <time>2014-06-08T07:14:06Z</time>
      </trkpt>
      <trkpt lat="47.33257" lon="-1.20961">
        <ele>79.5</ele>
        <time>2014-06-08T07:14:09Z</time>
      </trkpt>
      <trkpt lat="47.33256" lon="-1.20925">
        <ele>80.5</ele>
        <time>2014-06-08T07:14:13Z</time>
      </trkpt>
      <trkpt lat="47.33251" lon="-1.2088">
        <ele>79.5</ele>
        <time>2014-06-08T07:14:17Z</time>
      </trkpt>
      <trkpt lat="47.3325" lon="-1.20841">
        <ele>80.5</ele>
        <time>2014-06-08T07:14:21Z</time>
      </trkpt>
      <trkpt lat="47.3325" lon="-1.20804">
        <ele>80.5</ele>
        <time>2014-06-08T07:14:25Z</time>
      </trkpt>
      <trkpt lat="47.33248" lon="-1.20785">
        <ele>77.5</ele>
        <time>2014-06-08T07:14:29Z</time>
      </trkpt>
      <trkpt lat="47.33237" lon="-1.20729">
        <ele>76.5</ele>
        <time>2014-06-08T07:14:33Z</time>
      </trkpt>
      <trkpt lat="47.33232" lon="-1.20694">
        <ele>75.5</ele>
        <time>2014-06-08T07:14:38Z</time>
      </trkpt>
      <trkpt lat="47.33233" lon="-1.2067">
        <ele>76.5</ele>
        <time>2014-06-08T07:14:42Z</time>
      </trkpt>
      <trkpt lat="47.33244" lon="-1.20651">
        <ele>76.5</ele>
        <time>2014-06-08T07:14:46Z</time>
      </trkpt>
      <trkpt lat="47.33257" lon="-1.20628">
        <ele>75.5</ele>
        <time>2014-06-08T07:14:50Z</time>
      </trkpt>
      <trkpt lat="47.3327" lon="-1.20603">
        <ele>76.5</ele>
        <time>2014-06-08T07:14:54Z</time>
      </trkpt>
      <trkpt lat="47.3328" lon="-1.20587">
        <ele>76.5</ele>
        <time>2014-06-08T07:14:57Z</time>
      </trkpt>
      <trkpt lat="47.33291" lon="-1.20574">
        <ele>76.5</ele>
        <time>2014-06-08T07:15:01Z</time>
      </trkpt>
      <trkpt lat="47.33316" lon="-1.20572">
        <ele>77.5</ele>
        <time>2014-06-08T07:15:05Z</time>
      </trkpt>
      <trkpt lat="47.3334" lon="-1.20569">
        <ele>74.5</ele>
        <time>2014-06-08T07:15:09Z</time>
      </trkpt>
      <trkpt lat="47.33369" lon="-1.20558">
        <ele>73.5</ele>
        <time>2014-06-08T07:15:13Z</time>
      </trkpt>
      <trkpt lat="47.33397" lon="-1.20546">
        <ele>73.5</ele>
        <time>2014-06-08T07:15:17Z</time>
      </trkpt>
      <trkpt lat="47.33421" lon="-1.20534">
        <ele>73.5</ele>
        <time>2014-06-08T07:15:22Z</time>
      </trkpt>
      <trkpt lat="47.3344" lon="-1.20523">
        <ele>74.5</ele>
        <time>2014-06-08T07:15:26Z</time>
      </trkpt>
      <trkpt lat="47.33457" lon="-1.2051">
        <ele>76.5</ele>
        <time>2014-06-08T07:15:30Z</time>
      </trkpt>
      <trkpt lat="47.33472" lon="-1.20497">
        <ele>77.5</ele>
        <time>2014-06-08T07:15:34Z</time>
      </trkpt>
      <trkpt lat="47.33486" lon="-1.20481">
        <ele>79.5</ele>
        <time>2014-06-08T07:15:38Z</time>
      </trkpt>
      <trkpt lat="47.33497" lon="-1.2047">
        <ele>81.5</ele>
        <time>2014-06-08T07:15:42Z</time>
      </trkpt>
      <trkpt lat="47.33517" lon="-1.20457">
        <ele>80.5</ele>
        <time>2014-06-08T07:15:46Z</time>
      </trkpt>
      <trkpt lat="47.33531" lon="-1.20452">
        <ele>81.5</ele>
        <time>2014-06-08T07:15:49Z</time>
      </trkpt>
      <trkpt lat="47.33552" lon="-1.20446">
        <ele>82.5</ele>
        <time>2014-06-08T07:15:53Z</time>
      </trkpt>
      <trkpt lat="47.33558" lon="-1.20428">
        <ele>82.5</ele>
        <time>2014-06-08T07:15:57Z</time>
      </trkpt>
      <trkpt lat="47.33554" lon="-1.20405">
        <ele>81.5</ele>
        <time>2014-06-08T07:16:01Z</time>
      </trkpt>
      <trkpt lat="47.33551" lon="-1.20378">
        <ele>80.5</ele>
        <time>2014-06-08T07:16:05Z</time>
      </trkpt>
      <trkpt lat="47.33546" lon="-1.20351">
        <ele>80.5</ele>
        <time>2014-06-08T07:16:09Z</time>
      </trkpt>
      <trkpt lat="47.3354" lon="-1.20323">
        <ele>79.5</ele>
        <time>2014-06-08T07:16:13Z</time>
      </trkpt>
      <trkpt lat="47.33536" lon="-1.20295">
        <ele>78.5</ele>
        <time>2014-06-08T07:16:17Z</time>
      </trkpt>
      <trkpt lat="47.33529" lon="-1.20263">
        <ele>75.5</ele>
        <time>2014-06-08T07:16:21Z</time>
      </trkpt>
      <trkpt lat="47.33525" lon="-1.20231">
        <ele>76.5</ele>
        <time>2014-06-08T07:16:25Z</time>
      </trkpt>
      <trkpt lat="47.33523" lon="-1.20215">
        <ele>76.5</ele>
        <time>2014-06-08T07:16:29Z</time>
      </trkpt>
      <trkpt lat="47.33519" lon="-1.20159">
        <ele>75.5</ele>
        <time>2014-06-08T07:16:34Z</time>
      </trkpt>
      <trkpt lat="47.33517" lon="-1.20121">
        <ele>75.5</ele>
        <time>2014-06-08T07:16:38Z</time>
      </trkpt>
      <trkpt lat="47.33514" lon="-1.20082">
        <ele>75.5</ele>
        <time>2014-06-08T07:16:42Z</time>
      </trkpt>
      <trkpt lat="47.33511" lon="-1.20042">
        <ele>74.5</ele>
        <time>2014-06-08T07:16:46Z</time>
      </trkpt>
      <trkpt lat="47.33509" lon="-1.20005">
        <ele>73.5</ele>
        <time>2014-06-08T07:16:50Z</time>
      </trkpt>
      <trkpt lat="47.33507" lon="-1.19964">
        <ele>70.5</ele>
        <time>2014-06-08T07:16:54Z</time>
      </trkpt>
      <trkpt lat="47.33506" lon="-1.19933">
        <ele>67.5</ele>
        <time>2014-06-08T07:16:57Z</time>
      </trkpt>
      <trkpt lat="47.33518" lon="-1.19902">
        <ele>66.5</ele>
        <time>2014-06-08T07:17:01Z</time>
      </trkpt>
      <trkpt lat="47.33544" lon="-1.19832">
        <ele>62.5</ele>
        <time>2014-06-08T07:17:05Z</time>
      </trkpt>
      <trkpt lat="47.33556" lon="-1.19789">
        <ele>61.5</ele>
        <time>2014-06-08T07:17:09Z</time>
      </trkpt>
      <trkpt lat="47.33557" lon="-1.1976">
        <ele>60.5</ele>
        <time>2014-06-08T07:17:13Z</time>
      </trkpt>
      <trkpt lat="47.33552" lon="-1.19723">
        <ele>55.5</ele>
        <time>2014-06-08T07:17:17Z</time>
      </trkpt>
      <trkpt lat="47.3355" lon="-1.19692">
        <ele>53.5</ele>
        <time>2014-06-08T07:17:21Z</time>
      </trkpt>
      <trkpt lat="47.33543" lon="-1.19672">
        <ele>50.5</ele>
        <time>2014-06-08T07:17:26Z</time>
      </trkpt>
      <trkpt lat="47.33538" lon="-1.19643">
        <ele>46.5</ele>
        <time>2014-06-08T07:17:30Z</time>
      </trkpt>
      <trkpt lat="47.33529" lon="-1.19608">
        <ele>45.5</ele>
        <time>2014-06-08T07:17:38Z</time>
      </trkpt>
      <trkpt lat="47.33523" lon="-1.19587">
        <ele>41.5</ele>
        <time>2014-06-08T07:17:42Z</time>
      </trkpt>
      <trkpt lat="47.33514" lon="-1.1957">
        <ele>34.5</ele>
        <time>2014-06-08T07:17:50Z</time>
      </trkpt>
      <trkpt lat="47.33501" lon="-1.19564">
        <ele>30.5</ele>
        <time>2014-06-08T07:17:57Z</time>
      </trkpt>
      <trkpt lat="47.33483" lon="-1.19564">
        <ele>29.5</ele>
        <time>2014-06-08T07:18:01Z</time>
      </trkpt>
      <trkpt lat="47.3347" lon="-1.19558">
        <ele>28.5</ele>
        <time>2014-06-08T07:18:05Z</time>
      </trkpt>
      <trkpt lat="47.33461" lon="-1.19561">
        <ele>29.5</ele>
        <time>2014-06-08T07:18:38Z</time>
      </trkpt>
      <trkpt lat="47.33451" lon="-1.19551">
        <ele>32.5</ele>
        <time>2014-06-08T07:18:49Z</time>
      </trkpt>
      <trkpt lat="47.33446" lon="-1.1954">
        <ele>35.5</ele>
        <time>2014-06-08T07:19:09Z</time>
      </trkpt>
      <trkpt lat="47.33434" lon="-1.19532">
        <ele>38.5</ele>
        <time>2014-06-08T07:19:26Z</time>
      </trkpt>
      <trkpt lat="47.33428" lon="-1.19522">
        <ele>41.5</ele>
        <time>2014-06-08T07:19:41Z</time>
      </trkpt>
      <trkpt lat="47.33421" lon="-1.19513">
        <ele>42.5</ele>
        <time>2014-06-08T07:19:53Z</time>
      </trkpt>
      <trkpt lat="47.33414" lon="-1.19501">
        <ele>45.5</ele>
        <time>2014-06-08T07:20:06Z</time>
      </trkpt>
      <trkpt lat="47.33402" lon="-1.19503">
        <ele>51.5</ele>
        <time>2014-06-08T07:20:22Z</time>
      </trkpt>
      <trkpt lat="47.33394" lon="-1.19513">
        <ele>50.5</ele>
        <time>2014-06-08T07:20:45Z</time>
      </trkpt>
      <trkpt lat="47.33385" lon="-1.19521">
        <ele>53.5</ele>
        <time>2014-06-08T07:20:54Z</time>
      </trkpt>
      <trkpt lat="47.33375" lon="-1.19516">
        <ele>53.5</ele>
        <time>2014-06-08T07:21:10Z</time>
      </trkpt>
      <trkpt lat="47.33366" lon="-1.19515">
        <ele>55.5</ele>
        <time>2014-06-08T07:21:33Z</time>
      </trkpt>
      <trkpt lat="47.33357" lon="-1.19514">
        <ele>56.5</ele>
        <time>2014-06-08T07:21:46Z</time>
      </trkpt>
      <trkpt lat="47.33346" lon="-1.19511">
        <ele>58.5</ele>
        <time>2014-06-08T07:21:54Z</time>
      </trkpt>
      <trkpt lat="47.33331" lon="-1.19507">
        <ele>59.5</ele>
        <time>2014-06-08T07:22:02Z</time>
      </trkpt>
      <trkpt lat="47.33317" lon="-1.195">
        <ele>60.5</ele>
        <time>2014-06-08T07:22:09Z</time>
      </trkpt>
      <trkpt lat="47.333" lon="-1.19489">
        <ele>60.5</ele>
        <time>2014-06-08T07:22:17Z</time>
      </trkpt>
      <trkpt lat="47.33282" lon="-1.19473">
        <ele>61.5</ele>
        <time>2014-06-08T07:22:25Z</time>
      </trkpt>
      <trkpt lat="47.33273" lon="-1.19464">
        <ele>62.5</ele>
        <time>2014-06-08T07:22:29Z</time>
      </trkpt>
      <trkpt lat="47.33261" lon="-1.19457">
        <ele>62.5</ele>
        <time>2014-06-08T07:22:33Z</time>
      </trkpt>
      <trkpt lat="47.3325" lon="-1.19451">
        <ele>62.5</ele>
        <time>2014-06-08T07:22:37Z</time>
      </trkpt>
      <trkpt lat="47.33239" lon="-1.19448">
        <ele>63.5</ele>
        <time>2014-06-08T07:22:42Z</time>
      </trkpt>
      <trkpt lat="47.33228" lon="-1.19452">
        <ele>63.5</ele>
        <time>2014-06-08T07:22:46Z</time>
      </trkpt>
      <trkpt lat="47.33217" lon="-1.19455">
        <ele>64.5</ele>
        <time>2014-06-08T07:22:50Z</time>
      </trkpt>
      <trkpt lat="47.33206" lon="-1.19457">
        <ele>64.5</ele>
        <time>2014-06-08T07:22:54Z</time>
      </trkpt>
      <trkpt lat="47.33195" lon="-1.19459">
        <ele>64.5</ele>
        <time>2014-06-08T07:22:58Z</time>
      </trkpt>
      <trkpt lat="47.33183" lon="-1.19464">
        <ele>66.5</ele>
        <time>2014-06-08T07:23:02Z</time>
      </trkpt>
      <trkpt lat="47.33176" lon="-1.19474">
        <ele>67.5</ele>
        <time>2014-06-08T07:23:05Z</time>
      </trkpt>
      <trkpt lat="47.33176" lon="-1.19493">
        <ele>68.5</ele>
        <time>2014-06-08T07:23:21Z</time>
      </trkpt>
      <trkpt lat="47.33173" lon="-1.19511">
        <ele>69.5</ele>
        <time>2014-06-08T07:23:25Z</time>
      </trkpt>
      <trkpt lat="47.3317" lon="-1.19527">
        <ele>68.5</ele>
        <time>2014-06-08T07:23:29Z</time>
      </trkpt>
      <trkpt lat="47.33166" lon="-1.19543">
        <ele>68.5</ele>
        <time>2014-06-08T07:23:34Z</time>
      </trkpt>
      <trkpt lat="47.33164" lon="-1.19562">
        <ele>69.5</ele>
        <time>2014-06-08T07:23:38Z</time>
      </trkpt>
      <trkpt lat="47.33161" lon="-1.19579">
        <ele>69.5</ele>
        <time>2014-06-08T07:23:42Z</time>
      </trkpt>
      <trkpt lat="47.33156" lon="-1.1961">
        <ele>69.5</ele>
        <time>2014-06-08T07:23:46Z</time>
      </trkpt>
      <trkpt lat="47.33152" lon="-1.19636">
        <ele>69.5</ele>
        <time>2014-06-08T07:23:50Z</time>
      </trkpt>
      <trkpt lat="47.33149" lon="-1.19661">
        <ele>70.5</ele>
        <time>2014-06-08T07:23:54Z</time>
      </trkpt>
      <trkpt lat="47.33144" lon="-1.19681">
        <ele>68.5</ele>
        <time>2014-06-08T07:23:57Z</time>
      </trkpt>
      <trkpt lat="47.3314" lon="-1.19713">
        <ele>68.5</ele>
        <time>2014-06-08T07:24:01Z</time>
      </trkpt>
      <trkpt lat="47.33137" lon="-1.1974">
        <ele>67.5</ele>
        <time>2014-06-08T07:24:05Z</time>
      </trkpt>
      <trkpt lat="47.33133" lon="-1.19771">
        <ele>66.5</ele>
        <time>2014-06-08T07:24:09Z</time>
      </trkpt>
      <trkpt lat="47.3313" lon="-1.19805">
        <ele>66.5</ele>
        <time>2014-06-08T07:24:13Z</time>
      </trkpt>
      <trkpt lat="47.33129" lon="-1.19841">
        <ele>66.5</ele>
        <time>2014-06-08T07:24:17Z</time>
      </trkpt>
      <trkpt lat="47.3313" lon="-1.19876">
        <ele>66.5</ele>
        <time>2014-06-08T07:24:21Z</time>
      </trkpt>
      <trkpt lat="47.33131" lon="-1.19911">
        <ele>67.5</ele>
        <time>2014-06-08T07:24:25Z</time>
      </trkpt>
      <trkpt lat="47.3313" lon="-1.19945">
        <ele>68.5</ele>
        <time>2014-06-08T07:24:30Z</time>
      </trkpt>
      <trkpt lat="47.33128" lon="-1.19976">
        <ele>68.5</ele>
        <time>2014-06-08T07:24:34Z</time>
      </trkpt>
      <trkpt lat="47.33127" lon="-1.20007">
        <ele>68.5</ele>
        <time>2014-06-08T07:24:38Z</time>
      </trkpt>
      <trkpt lat="47.33123" lon="-1.20039">
        <ele>70.5</ele>
        <time>2014-06-08T07:24:42Z</time>
      </trkpt>
      <trkpt lat="47.33122" lon="-1.20069">
        <ele>70.5</ele>
        <time>2014-06-08T07:24:46Z</time>
      </trkpt>
      <trkpt lat="47.3312" lon="-1.20101">
        <ele>73.5</ele>
        <time>2014-06-08T07:24:50Z</time>
      </trkpt>
      <trkpt lat="47.33118" lon="-1.20124">
        <ele>73.5</ele>
        <time>2014-06-08T07:24:53Z</time>
      </trkpt>
      <trkpt lat="47.33121" lon="-1.20164">
        <ele>72.5</ele>
        <time>2014-06-08T07:24:57Z</time>
      </trkpt>
      <trkpt lat="47.33126" lon="-1.202">
        <ele>71.5</ele>
        <time>2014-06-08T07:25:01Z</time>
      </trkpt>
      <trkpt lat="47.33132" lon="-1.20233">
        <ele>68.5</ele>
        <time>2014-06-08T07:25:05Z</time>
      </trkpt>
      <trkpt lat="47.33121" lon="-1.2025">
        <ele>70.5</ele>
        <time>2014-06-08T07:25:09Z</time>
      </trkpt>
      <trkpt lat="47.33109" lon="-1.20257">
        <ele>68.5</ele>
        <time>2014-06-08T07:25:13Z</time>
      </trkpt>
      <trkpt lat="47.33095" lon="-1.20263">
        <ele>69.5</ele>
        <time>2014-06-08T07:25:17Z</time>
      </trkpt>
      <trkpt lat="47.33082" lon="-1.20269">
        <ele>69.5</ele>
        <time>2014-06-08T07:25:22Z</time>
      </trkpt>
      <trkpt lat="47.3307" lon="-1.20276">
        <ele>69.5</ele>
        <time>2014-06-08T07:25:26Z</time>
      </trkpt>
      <trkpt lat="47.33057" lon="-1.20282">
        <ele>70.5</ele>
        <time>2014-06-08T07:25:30Z</time>
      </trkpt>
      <trkpt lat="47.33043" lon="-1.20286">
        <ele>70.5</ele>
        <time>2014-06-08T07:25:34Z</time>
      </trkpt>
      <trkpt lat="47.33032" lon="-1.20288">
        <ele>69.5</ele>
        <time>2014-06-08T07:25:37Z</time>
      </trkpt>
      <trkpt lat="47.33015" lon="-1.20294">
        <ele>70.5</ele>
        <time>2014-06-08T07:25:41Z</time>
      </trkpt>
      <trkpt lat="47.33005" lon="-1.20298">
        <ele>71.5</ele>
        <time>2014-06-08T07:25:45Z</time>
      </trkpt>
      <trkpt lat="47.32991" lon="-1.20303">
        <ele>71.5</ele>
        <time>2014-06-08T07:25:49Z</time>
      </trkpt>
      <trkpt lat="47.32984" lon="-1.2029">
        <ele>70.5</ele>
        <time>2014-06-08T07:25:53Z</time>
      </trkpt>
      <trkpt lat="47.3298" lon="-1.20277">
        <ele>71.5</ele>
        <time>2014-06-08T07:25:57Z</time>
      </trkpt>
      <trkpt lat="47.32978" lon="-1.20263">
        <ele>71.5</ele>
        <time>2014-06-08T07:26:01Z</time>
      </trkpt>
      <trkpt lat="47.32974" lon="-1.20239">
        <ele>75.5</ele>
        <time>2014-06-08T07:26:10Z</time>
      </trkpt>
      <trkpt lat="47.32965" lon="-1.20219">
        <ele>78.5</ele>
        <time>2014-06-08T07:26:18Z</time>
      </trkpt>
      <trkpt lat="47.32967" lon="-1.20197">
        <ele>80.5</ele>
        <time>2014-06-08T07:26:22Z</time>
      </trkpt>
      <trkpt lat="47.32965" lon="-1.20179">
        <ele>79.5</ele>
        <time>2014-06-08T07:26:25Z</time>
      </trkpt>
      <trkpt lat="47.32964" lon="-1.20161">
        <ele>81.5</ele>
        <time>2014-06-08T07:26:29Z</time>
      </trkpt>
      <trkpt lat="47.32964" lon="-1.20142">
        <ele>80.5</ele>
        <time>2014-06-08T07:26:33Z</time>
      </trkpt>
      <trkpt lat="47.32967" lon="-1.20122">
        <ele>81.5</ele>
        <time>2014-06-08T07:26:37Z</time>
      </trkpt>
      <trkpt lat="47.32958" lon="-1.20114">
        <ele>80.5</ele>
        <time>2014-06-08T07:26:41Z</time>
      </trkpt>
      <trkpt lat="47.32946" lon="-1.20115">
        <ele>81.5</ele>
        <time>2014-06-08T07:26:45Z</time>
      </trkpt>
      <trkpt lat="47.32933" lon="-1.20116">
        <ele>81.5</ele>
        <time>2014-06-08T07:26:50Z</time>
      </trkpt>
      <trkpt lat="47.32921" lon="-1.20117">
        <ele>80.5</ele>
        <time>2014-06-08T07:26:54Z</time>
      </trkpt>
      <trkpt lat="47.32909" lon="-1.20117">
        <ele>80.5</ele>
        <time>2014-06-08T07:26:58Z</time>
      </trkpt>
      <trkpt lat="47.32897" lon="-1.20115">
        <ele>80.5</ele>
        <time>2014-06-08T07:27:02Z</time>
      </trkpt>
      <trkpt lat="47.32874" lon="-1.20114">
        <ele>81.5</ele>
        <time>2014-06-08T07:27:10Z</time>
      </trkpt>
      <trkpt lat="47.32863" lon="-1.20112">
        <ele>81.5</ele>
        <time>2014-06-08T07:27:13Z</time>
      </trkpt>
      <trkpt lat="47.32854" lon="-1.20102">
        <ele>81.5</ele>
        <time>2014-06-08T07:27:17Z</time>
      </trkpt>
      <trkpt lat="47.32847" lon="-1.20088">
        <ele>81.5</ele>
        <time>2014-06-08T07:27:21Z</time>
      </trkpt>
      <trkpt lat="47.32853" lon="-1.20069">
        <ele>81.5</ele>
        <time>2014-06-08T07:27:25Z</time>
      </trkpt>
      <trkpt lat="47.32869" lon="-1.20053">
        <ele>81.5</ele>
        <time>2014-06-08T07:27:29Z</time>
      </trkpt>
      <trkpt lat="47.32882" lon="-1.20026">
        <ele>80.5</ele>
        <time>2014-06-08T07:27:33Z</time>
      </trkpt>
      <trkpt lat="47.32896" lon="-1.20003">
        <ele>81.5</ele>
        <time>2014-06-08T07:27:38Z</time>
      </trkpt>
      <trkpt lat="47.3291" lon="-1.19997">
        <ele>82.5</ele>
        <time>2014-06-08T07:27:42Z</time>
      </trkpt>
      <trkpt lat="47.32939" lon="-1.1998">
        <ele>81.5</ele>
        <time>2014-06-08T07:27:46Z</time>
      </trkpt>
      <trkpt lat="47.32963" lon="-1.19963">
        <ele>83.5</ele>
        <time>2014-06-08T07:27:50Z</time>
      </trkpt>
      <trkpt lat="47.32971" lon="-1.19924">
        <ele>84.5</ele>
        <time>2014-06-08T07:27:54Z</time>
      </trkpt>
      <trkpt lat="47.32977" lon="-1.19886">
        <ele>80.5</ele>
        <time>2014-06-08T07:27:58Z</time>
      </trkpt>
      <trkpt lat="47.32978" lon="-1.19856">
        <ele>75.5</ele>
        <time>2014-06-08T07:28:01Z</time>
      </trkpt>
      <trkpt lat="47.32975" lon="-1.19808">
        <ele>74.5</ele>
        <time>2014-06-08T07:28:05Z</time>
      </trkpt>
      <trkpt lat="47.32975" lon="-1.19765">
        <ele>73.5</ele>
        <time>2014-06-08T07:28:09Z</time>
      </trkpt>
      <trkpt lat="47.32976" lon="-1.19722">
        <ele>72.5</ele>
        <time>2014-06-08T07:28:13Z</time>
      </trkpt>
      <trkpt lat="47.32977" lon="-1.19692">
        <ele>72.5</ele>
        <time>2014-06-08T07:28:17Z</time>
      </trkpt>
      <trkpt lat="47.32968" lon="-1.19652">
        <ele>71.5</ele>
        <time>2014-06-08T07:28:21Z</time>
      </trkpt>
      <trkpt lat="47.32951" lon="-1.19626">
        <ele>70.5</ele>
        <time>2014-06-08T07:28:25Z</time>
      </trkpt>
      <trkpt lat="47.32938" lon="-1.19599">
        <ele>69.5</ele>
        <time>2014-06-08T07:28:29Z</time>
      </trkpt>
      <trkpt lat="47.32923" lon="-1.19573">
        <ele>70.5</ele>
        <time>2014-06-08T07:28:33Z</time>
      </trkpt>
      <trkpt lat="47.32905" lon="-1.19553">
        <ele>70.5</ele>
        <time>2014-06-08T07:28:38Z</time>
      </trkpt>
      <trkpt lat="47.32881" lon="-1.19543">
        <ele>71.5</ele>
        <time>2014-06-08T07:28:42Z</time>
      </trkpt>
      <trkpt lat="47.32857" lon="-1.19522">
        <ele>70.5</ele>
        <time>2014-06-08T07:28:46Z</time>
      </trkpt>
      <trkpt lat="47.32825" lon="-1.19495">
        <ele>68.5</ele>
        <time>2014-06-08T07:28:50Z</time>
      </trkpt>
      <trkpt lat="47.32798" lon="-1.19481">
        <ele>67.5</ele>
        <time>2014-06-08T07:28:54Z</time>
      </trkpt>
      <trkpt lat="47.32797" lon="-1.19454">
        <ele>68.5</ele>
        <time>2014-06-08T07:28:58Z</time>
      </trkpt>
      <trkpt lat="47.32797" lon="-1.1943">
        <ele>67.5</ele>
        <time>2014-06-08T07:29:02Z</time>
      </trkpt>
      <trkpt lat="47.32797" lon="-1.19412">
        <ele>65.5</ele>
        <time>2014-06-08T07:29:05Z</time>
      </trkpt>
      <trkpt lat="47.32797" lon="-1.19398">
        <ele>67.5</ele>
        <time>2014-06-08T07:29:09Z</time>
      </trkpt>
      <trkpt lat="47.32795" lon="-1.19384">
        <ele>67.5</ele>
        <time>2014-06-08T07:29:13Z</time>
      </trkpt>
      <trkpt lat="47.32789" lon="-1.19374">
        <ele>67.5</ele>
        <time>2014-06-08T07:29:17Z</time>
      </trkpt>
      <trkpt lat="47.32775" lon="-1.19363">
        <ele>67.5</ele>
        <time>2014-06-08T07:29:25Z</time>
      </trkpt>
      <trkpt lat="47.32763" lon="-1.19347">
        <ele>69.5</ele>
        <time>2014-06-08T07:29:33Z</time>
      </trkpt>
      <trkpt lat="47.32751" lon="-1.19333">
        <ele>71.5</ele>
        <time>2014-06-08T07:29:42Z</time>
      </trkpt>
      <trkpt lat="47.32734" lon="-1.19329">
        <ele>70.5</ele>
        <time>2014-06-08T07:29:50Z</time>
      </trkpt>
      <trkpt lat="47.32725" lon="-1.19329">
        <ele>69.5</ele>
        <time>2014-06-08T07:29:54Z</time>
      </trkpt>
      <trkpt lat="47.32708" lon="-1.19344">
        <ele>73.5</ele>
        <time>2014-06-08T07:30:01Z</time>
      </trkpt>
      <trkpt lat="47.32704" lon="-1.1936">
        <ele>73.5</ele>
        <time>2014-06-08T07:30:05Z</time>
      </trkpt>
      <trkpt lat="47.32702" lon="-1.19376">
        <ele>75.5</ele>
        <time>2014-06-08T07:30:09Z</time>
      </trkpt>
      <trkpt lat="47.327" lon="-1.19394">
        <ele>75.5</ele>
        <time>2014-06-08T07:30:13Z</time>
      </trkpt>
      <trkpt lat="47.32695" lon="-1.19414">
        <ele>76.5</ele>
        <time>2014-06-08T07:30:17Z</time>
      </trkpt>
      <trkpt lat="47.32682" lon="-1.19427">
        <ele>76.5</ele>
        <time>2014-06-08T07:30:21Z</time>
      </trkpt>
      <trkpt lat="47.32651" lon="-1.19439">
        <ele>78.5</ele>
        <time>2014-06-08T07:30:30Z</time>
      </trkpt>
      <trkpt lat="47.32636" lon="-1.19444">
        <ele>79.5</ele>
        <time>2014-06-08T07:30:34Z</time>
      </trkpt>
      <trkpt lat="47.3262" lon="-1.19448">
        <ele>80.5</ele>
        <time>2014-06-08T07:30:38Z</time>
      </trkpt>
      <trkpt lat="47.32605" lon="-1.19454">
        <ele>80.5</ele>
        <time>2014-06-08T07:30:42Z</time>
      </trkpt>
      <trkpt lat="47.32589" lon="-1.19458">
        <ele>81.5</ele>
        <time>2014-06-08T07:30:46Z</time>
      </trkpt>
      <trkpt lat="47.32573" lon="-1.19464">
        <ele>81.5</ele>
        <time>2014-06-08T07:30:49Z</time>
      </trkpt>
      <trkpt lat="47.32557" lon="-1.19472">
        <ele>81.5</ele>
        <time>2014-06-08T07:30:53Z</time>
      </trkpt>
      <trkpt lat="47.32543" lon="-1.19482">
        <ele>82.5</ele>
        <time>2014-06-08T07:30:57Z</time>
      </trkpt>
      <trkpt lat="47.32539" lon="-1.19503">
        <ele>83.5</ele>
        <time>2014-06-08T07:31:01Z</time>
      </trkpt>
      <trkpt lat="47.32546" lon="-1.19525">
        <ele>83.5</ele>
        <time>2014-06-08T07:31:05Z</time>
      </trkpt>
      <trkpt lat="47.32552" lon="-1.19547">
        <ele>84.5</ele>
        <time>2014-06-08T07:31:09Z</time>
      </trkpt>
      <trkpt lat="47.32557" lon="-1.1957">
        <ele>84.5</ele>
        <time>2014-06-08T07:31:13Z</time>
      </trkpt>
      <trkpt lat="47.32559" lon="-1.19593">
        <ele>85.5</ele>
        <time>2014-06-08T07:31:18Z</time>
      </trkpt>
      <trkpt lat="47.3256" lon="-1.1962">
        <ele>85.5</ele>
        <time>2014-06-08T07:31:22Z</time>
      </trkpt>
      <trkpt lat="47.32564" lon="-1.19643">
        <ele>88.5</ele>
        <time>2014-06-08T07:31:26Z</time>
      </trkpt>
      <trkpt lat="47.3257" lon="-1.19675">
        <ele>88.5</ele>
        <time>2014-06-08T07:31:30Z</time>
      </trkpt>
      <trkpt lat="47.32578" lon="-1.19707">
        <ele>90.5</ele>
        <time>2014-06-08T07:31:34Z</time>
      </trkpt>
      <trkpt lat="47.32588" lon="-1.19744">
        <ele>89.5</ele>
        <time>2014-06-08T07:31:37Z</time>
      </trkpt>
      <trkpt lat="47.32594" lon="-1.19781">
        <ele>89.5</ele>
        <time>2014-06-08T07:31:41Z</time>
      </trkpt>
      <trkpt lat="47.32597" lon="-1.19807">
        <ele>91.5</ele>
        <time>2014-06-08T07:31:45Z</time>
      </trkpt>
      <trkpt lat="47.32587" lon="-1.1984">
        <ele>87.5</ele>
        <time>2014-06-08T07:31:49Z</time>
      </trkpt>
      <trkpt lat="47.32568" lon="-1.19847">
        <ele>86.5</ele>
        <time>2014-06-08T07:31:53Z</time>
      </trkpt>
      <trkpt lat="47.32547" lon="-1.19853">
        <ele>85.5</ele>
        <time>2014-06-08T07:31:57Z</time>
      </trkpt>
      <trkpt lat="47.32527" lon="-1.19858">
        <ele>86.5</ele>
        <time>2014-06-08T07:32:01Z</time>
      </trkpt>
      <trkpt lat="47.32506" lon="-1.19863">
        <ele>88.5</ele>
        <time>2014-06-08T07:32:06Z</time>
      </trkpt>
      <trkpt lat="47.32486" lon="-1.19859">
        <ele>88.5</ele>
        <time>2014-06-08T07:32:10Z</time>
      </trkpt>
      <trkpt lat="47.32467" lon="-1.19849">
        <ele>88.5</ele>
        <time>2014-06-08T07:32:14Z</time>
      </trkpt>
      <trkpt lat="47.32452" lon="-1.19829">
        <ele>89.5</ele>
        <time>2014-06-08T07:32:18Z</time>
      </trkpt>
      <trkpt lat="47.32439" lon="-1.19807">
        <ele>90.5</ele>
        <time>2014-06-08T07:32:22Z</time>
      </trkpt>
      <trkpt lat="47.32425" lon="-1.19784">
        <ele>90.5</ele>
        <time>2014-06-08T07:32:25Z</time>
      </trkpt>
      <trkpt lat="47.32409" lon="-1.19765">
        <ele>90.5</ele>
        <time>2014-06-08T07:32:29Z</time>
      </trkpt>
      <trkpt lat="47.32392" lon="-1.19745">
        <ele>91.5</ele>
        <time>2014-06-08T07:32:33Z</time>
      </trkpt>
      <trkpt lat="47.32379" lon="-1.1972">
        <ele>90.5</ele>
        <time>2014-06-08T07:32:37Z</time>
      </trkpt>
      <trkpt lat="47.32363" lon="-1.19697">
        <ele>90.5</ele>
        <time>2014-06-08T07:32:41Z</time>
      </trkpt>
      <trkpt lat="47.32345" lon="-1.19678">
        <ele>90.5</ele>
        <time>2014-06-08T07:32:45Z</time>
      </trkpt>
      <trkpt lat="47.32325" lon="-1.19661">
        <ele>90.5</ele>
        <time>2014-06-08T07:32:49Z</time>
      </trkpt>
      <trkpt lat="47.32307" lon="-1.19644">
        <ele>91.5</ele>
        <time>2014-06-08T07:32:54Z</time>
      </trkpt>
      <trkpt lat="47.32289" lon="-1.19625">
        <ele>90.5</ele>
        <time>2014-06-08T07:32:58Z</time>
      </trkpt>
      <trkpt lat="47.3227" lon="-1.19606">
        <ele>89.5</ele>
        <time>2014-06-08T07:33:02Z</time>
      </trkpt>
      <trkpt lat="47.32249" lon="-1.19586">
        <ele>89.5</ele>
        <time>2014-06-08T07:33:06Z</time>
      </trkpt>
      <trkpt lat="47.32229" lon="-1.19565">
        <ele>89.5</ele>
        <time>2014-06-08T07:33:10Z</time>
      </trkpt>
      <trkpt lat="47.32214" lon="-1.19547">
        <ele>88.5</ele>
        <time>2014-06-08T07:33:13Z</time>
      </trkpt>
      <trkpt lat="47.32188" lon="-1.19516">
        <ele>88.5</ele>
        <time>2014-06-08T07:33:17Z</time>
      </trkpt>
      <trkpt lat="47.3217" lon="-1.19491">
        <ele>90.5</ele>
        <time>2014-06-08T07:33:21Z</time>
      </trkpt>
      <trkpt lat="47.32156" lon="-1.19459">
        <ele>87.5</ele>
        <time>2014-06-08T07:33:25Z</time>
      </trkpt>
      <trkpt lat="47.3214" lon="-1.19431">
        <ele>87.5</ele>
        <time>2014-06-08T07:33:29Z</time>
      </trkpt>
      <trkpt lat="47.32124" lon="-1.19402">
        <ele>86.5</ele>
        <time>2014-06-08T07:33:33Z</time>
      </trkpt>
      <trkpt lat="47.32104" lon="-1.19372">
        <ele>82.5</ele>
        <time>2014-06-08T07:33:37Z</time>
      </trkpt>
      <trkpt lat="47.32094" lon="-1.19339">
        <ele>85.5</ele>
        <time>2014-06-08T07:33:42Z</time>
      </trkpt>
      <trkpt lat="47.3208" lon="-1.19305">
        <ele>84.5</ele>
        <time>2014-06-08T07:33:46Z</time>
      </trkpt>
      <trkpt lat="47.32048" lon="-1.19291">
        <ele>81.5</ele>
        <time>2014-06-08T07:33:50Z</time>
      </trkpt>
      <trkpt lat="47.32018" lon="-1.19276">
        <ele>82.5</ele>
        <time>2014-06-08T07:33:54Z</time>
      </trkpt>
      <trkpt lat="47.31988" lon="-1.19261">
        <ele>82.5</ele>
        <time>2014-06-08T07:33:58Z</time>
      </trkpt>
      <trkpt lat="47.31962" lon="-1.19246">
        <ele>81.5</ele>
        <time>2014-06-08T07:34:02Z</time>
      </trkpt>
      <trkpt lat="47.31937" lon="-1.19226">
        <ele>75.5</ele>
        <time>2014-06-08T07:34:05Z</time>
      </trkpt>
      <trkpt lat="47.31918" lon="-1.19192">
        <ele>75.5</ele>
        <time>2014-06-08T07:34:09Z</time>
      </trkpt>
      <trkpt lat="47.319" lon="-1.19153">
        <ele>76.5</ele>
        <time>2014-06-08T07:34:13Z</time>
      </trkpt>
      <trkpt lat="47.31881" lon="-1.19117">
        <ele>73.5</ele>
        <time>2014-06-08T07:34:17Z</time>
      </trkpt>
      <trkpt lat="47.31864" lon="-1.19086">
        <ele>75.5</ele>
        <time>2014-06-08T07:34:21Z</time>
      </trkpt>
      <trkpt lat="47.31855" lon="-1.1907">
        <ele>75.5</ele>
        <time>2014-06-08T07:34:26Z</time>
      </trkpt>
      <trkpt lat="47.3183" lon="-1.19023">
        <ele>77.5</ele>
        <time>2014-06-08T07:34:30Z</time>
      </trkpt>
      <trkpt lat="47.31814" lon="-1.18993">
        <ele>77.5</ele>
        <time>2014-06-08T07:34:34Z</time>
      </trkpt>
      <trkpt lat="47.31807" lon="-1.18967">
        <ele>78.5</ele>
        <time>2014-06-08T07:34:38Z</time>
      </trkpt>
      <trkpt lat="47.31823" lon="-1.18954">
        <ele>80.5</ele>
        <time>2014-06-08T07:34:42Z</time>
      </trkpt>
      <trkpt lat="47.31855" lon="-1.18936">
        <ele>80.5</ele>
        <time>2014-06-08T07:34:49Z</time>
      </trkpt>
      <trkpt lat="47.31871" lon="-1.18927">
        <ele>82.5</ele>
        <time>2014-06-08T07:34:53Z</time>
      </trkpt>
      <trkpt lat="47.31886" lon="-1.18917">
        <ele>83.5</ele>
        <time>2014-06-08T07:34:57Z</time>
      </trkpt>
      <trkpt lat="47.31898" lon="-1.18909">
        <ele>83.5</ele>
        <time>2014-06-08T07:35:01Z</time>
      </trkpt>
      <trkpt lat="47.31917" lon="-1.18896">
        <ele>83.5</ele>
        <time>2014-06-08T07:35:05Z</time>
      </trkpt>
      <trkpt lat="47.31916" lon="-1.18871">
        <ele>83.5</ele>
        <time>2014-06-08T07:35:09Z</time>
      </trkpt>
      <trkpt lat="47.31906" lon="-1.18844">
        <ele>83.5</ele>
        <time>2014-06-08T07:35:13Z</time>
      </trkpt>
      <trkpt lat="47.31904" lon="-1.18816">
        <ele>81.5</ele>
        <time>2014-06-08T07:35:17Z</time>
      </trkpt>
      <trkpt lat="47.31902" lon="-1.18789">
        <ele>81.5</ele>
        <time>2014-06-08T07:35:21Z</time>
      </trkpt>
      <trkpt lat="47.319" lon="-1.1876">
        <ele>81.5</ele>
        <time>2014-06-08T07:35:26Z</time>
      </trkpt>
      <trkpt lat="47.31901" lon="-1.18729">
        <ele>81.5</ele>
        <time>2014-06-08T07:35:30Z</time>
      </trkpt>
      <trkpt lat="47.31905" lon="-1.18704">
        <ele>82.5</ele>
        <time>2014-06-08T07:35:34Z</time>
      </trkpt>
      <trkpt lat="47.31911" lon="-1.18676">
        <ele>82.5</ele>
        <time>2014-06-08T07:35:38Z</time>
      </trkpt>
      <trkpt lat="47.31919" lon="-1.1865">
        <ele>81.5</ele>
        <time>2014-06-08T07:35:42Z</time>
      </trkpt>
      <trkpt lat="47.31931" lon="-1.18624">
        <ele>82.5</ele>
        <time>2014-06-08T07:35:45Z</time>
      </trkpt>
      <trkpt lat="47.31939" lon="-1.18607">
        <ele>82.5</ele>
        <time>2014-06-08T07:35:49Z</time>
      </trkpt>
      <trkpt lat="47.31932" lon="-1.18587">
        <ele>81.5</ele>
        <time>2014-06-08T07:35:53Z</time>
      </trkpt>
      <trkpt lat="47.31917" lon="-1.18591">
        <ele>81.5</ele>
        <time>2014-06-08T07:35:57Z</time>
      </trkpt>
      <trkpt lat="47.31903" lon="-1.18586">
        <ele>81.5</ele>
        <time>2014-06-08T07:36:01Z</time>
      </trkpt>
      <trkpt lat="47.31888" lon="-1.18576">
        <ele>80.5</ele>
        <time>2014-06-08T07:36:05Z</time>
      </trkpt>
      <trkpt lat="47.31871" lon="-1.18561">
        <ele>80.5</ele>
        <time>2014-06-08T07:36:10Z</time>
      </trkpt>
      <trkpt lat="47.31859" lon="-1.18547">
        <ele>80.5</ele>
        <time>2014-06-08T07:36:14Z</time>
      </trkpt>
      <trkpt lat="47.3187" lon="-1.18515">
        <ele>80.5</ele>
        <time>2014-06-08T07:36:22Z</time>
      </trkpt>
      <trkpt lat="47.31883" lon="-1.1849">
        <ele>81.5</ele>
        <time>2014-06-08T07:36:26Z</time>
      </trkpt>
      <trkpt lat="47.31895" lon="-1.18463">
        <ele>79.5</ele>
        <time>2014-06-08T07:36:29Z</time>
      </trkpt>
      <trkpt lat="47.31904" lon="-1.18444">
        <ele>77.5</ele>
        <time>2014-06-08T07:36:33Z</time>
      </trkpt>
      <trkpt lat="47.31911" lon="-1.18453">
        <ele>79.5</ele>
        <time>2014-06-08T07:36:37Z</time>
      </trkpt>
      <trkpt lat="47.31922" lon="-1.18471">
        <ele>80.5</ele>
        <time>2014-06-08T07:36:41Z</time>
      </trkpt>
      <trkpt lat="47.31933" lon="-1.18484">
        <ele>80.5</ele>
        <time>2014-06-08T07:36:45Z</time>
      </trkpt>
      <trkpt lat="47.31944" lon="-1.18499">
        <ele>82.5</ele>
        <time>2014-06-08T07:36:49Z</time>
      </trkpt>
      <trkpt lat="47.31956" lon="-1.18514">
        <ele>83.5</ele>
        <time>2014-06-08T07:36:53Z</time>
      </trkpt>
      <trkpt lat="47.31967" lon="-1.1853">
        <ele>82.5</ele>
        <time>2014-06-08T07:36:57Z</time>
      </trkpt>
      <trkpt lat="47.31978" lon="-1.18542">
        <ele>82.5</ele>
        <time>2014-06-08T07:37:02Z</time>
      </trkpt>
      <trkpt lat="47.31986" lon="-1.18525">
        <ele>81.5</ele>
        <time>2014-06-08T07:37:06Z</time>
      </trkpt>
      <trkpt lat="47.31993" lon="-1.18497">
        <ele>81.5</ele>
        <time>2014-06-08T07:37:10Z</time>
      </trkpt>
      <trkpt lat="47.32003" lon="-1.18476">
        <ele>80.5</ele>
        <time>2014-06-08T07:37:14Z</time>
      </trkpt>
      <trkpt lat="47.32013" lon="-1.18454">
        <ele>82.5</ele>
        <time>2014-06-08T07:37:18Z</time>
      </trkpt>
      <trkpt lat="47.32024" lon="-1.18435">
        <ele>82.5</ele>
        <time>2014-06-08T07:37:21Z</time>
      </trkpt>
      <trkpt lat="47.32036" lon="-1.18417">
        <ele>81.5</ele>
        <time>2014-06-08T07:37:25Z</time>
      </trkpt>
      <trkpt lat="47.32042" lon="-1.18401">
        <ele>81.5</ele>
        <time>2014-06-08T07:37:29Z</time>
      </trkpt>
      <trkpt lat="47.32028" lon="-1.1838">
        <ele>81.5</ele>
        <time>2014-06-08T07:37:33Z</time>
      </trkpt>
      <trkpt lat="47.32014" lon="-1.1836">
        <ele>81.5</ele>
        <time>2014-06-08T07:37:37Z</time>
      </trkpt>
      <trkpt lat="47.32006" lon="-1.18334">
        <ele>80.5</ele>
        <time>2014-06-08T07:37:41Z</time>
      </trkpt>
      <trkpt lat="47.32016" lon="-1.18308">
        <ele>79.5</ele>
        <time>2014-06-08T07:37:45Z</time>
      </trkpt>
      <trkpt lat="47.3203" lon="-1.18282">
        <ele>79.5</ele>
        <time>2014-06-08T07:37:50Z</time>
      </trkpt>
      <trkpt lat="47.32044" lon="-1.18255">
        <ele>77.5</ele>
        <time>2014-06-08T07:37:54Z</time>
      </trkpt>
      <trkpt lat="47.32059" lon="-1.18233">
        <ele>76.5</ele>
        <time>2014-06-08T07:37:58Z</time>
      </trkpt>
      <trkpt lat="47.32075" lon="-1.18206">
        <ele>76.5</ele>
        <time>2014-06-08T07:38:02Z</time>
      </trkpt>
      <trkpt lat="47.32091" lon="-1.18174">
        <ele>73.5</ele>
        <time>2014-06-08T07:38:06Z</time>
      </trkpt>
      <trkpt lat="47.32105" lon="-1.18165">
        <ele>73.5</ele>
        <time>2014-06-08T07:38:10Z</time>
      </trkpt>
      <trkpt lat="47.32117" lon="-1.1818">
        <ele>74.5</ele>
        <time>2014-06-08T07:38:13Z</time>
      </trkpt>
      <trkpt lat="47.32125" lon="-1.18197">
        <ele>75.5</ele>
        <time>2014-06-08T07:38:17Z</time>
      </trkpt>
      <trkpt lat="47.32131" lon="-1.18216">
        <ele>76.5</ele>
        <time>2014-06-08T07:38:21Z</time>
      </trkpt>
      <trkpt lat="47.32135" lon="-1.18229">
        <ele>76.5</ele>
        <time>2014-06-08T07:38:25Z</time>
      </trkpt>
      <trkpt lat="47.32142" lon="-1.18248">
        <ele>76.5</ele>
        <time>2014-06-08T07:38:29Z</time>
      </trkpt>
      <trkpt lat="47.32149" lon="-1.18261">
        <ele>78.5</ele>
        <time>2014-06-08T07:38:33Z</time>
      </trkpt>
      <trkpt lat="47.32159" lon="-1.18272">
        <ele>80.5</ele>
        <time>2014-06-08T07:38:37Z</time>
      </trkpt>
      <trkpt lat="47.3217" lon="-1.18282">
        <ele>80.5</ele>
        <time>2014-06-08T07:38:41Z</time>
      </trkpt>
      <trkpt lat="47.32179" lon="-1.18295">
        <ele>79.5</ele>
        <time>2014-06-08T07:38:46Z</time>
      </trkpt>
      <trkpt lat="47.32182" lon="-1.18312">
        <ele>78.5</ele>
        <time>2014-06-08T07:38:50Z</time>
      </trkpt>
      <trkpt lat="47.32173" lon="-1.18328">
        <ele>78.5</ele>
        <time>2014-06-08T07:38:54Z</time>
      </trkpt>
      <trkpt lat="47.32166" lon="-1.18342">
        <ele>78.5</ele>
        <time>2014-06-08T07:38:58Z</time>
      </trkpt>
      <trkpt lat="47.32159" lon="-1.18357">
        <ele>79.5</ele>
        <time>2014-06-08T07:39:02Z</time>
      </trkpt>
      <trkpt lat="47.32146" lon="-1.18381">
        <ele>78.5</ele>
        <time>2014-06-08T07:39:09Z</time>
      </trkpt>
      <trkpt lat="47.32137" lon="-1.18396">
        <ele>78.5</ele>
        <time>2014-06-08T07:39:13Z</time>
      </trkpt>
      <trkpt lat="47.3213" lon="-1.1841">
        <ele>77.5</ele>
        <time>2014-06-08T07:39:17Z</time>
      </trkpt>
      <trkpt lat="47.32121" lon="-1.18421">
        <ele>79.5</ele>
        <time>2014-06-08T07:39:21Z</time>
      </trkpt>
      <trkpt lat="47.32105" lon="-1.18447">
        <ele>80.5</ele>
        <time>2014-06-08T07:39:29Z</time>
      </trkpt>
      <trkpt lat="47.32098" lon="-1.18463">
        <ele>82.5</ele>
        <time>2014-06-08T07:39:33Z</time>
      </trkpt>
      <trkpt lat="47.32089" lon="-1.18479">
        <ele>84.5</ele>
        <time>2014-06-08T07:39:38Z</time>
      </trkpt>
      <trkpt lat="47.32081" lon="-1.18495">
        <ele>85.5</ele>
        <time>2014-06-08T07:39:42Z</time>
      </trkpt>
      <trkpt lat="47.32092" lon="-1.18499">
        <ele>90.5</ele>
        <time>2014-06-08T07:39:46Z</time>
      </trkpt>
      <trkpt lat="47.32107" lon="-1.18492">
        <ele>83.5</ele>
        <time>2014-06-08T07:39:50Z</time>
      </trkpt>
      <trkpt lat="47.32123" lon="-1.18487">
        <ele>82.5</ele>
        <time>2014-06-08T07:39:53Z</time>
      </trkpt>
      <trkpt lat="47.32146" lon="-1.18476">
        <ele>84.5</ele>
        <time>2014-06-08T07:39:57Z</time>
      </trkpt>
      <trkpt lat="47.32165" lon="-1.18469">
        <ele>83.5</ele>
        <time>2014-06-08T07:40:01Z</time>
      </trkpt>
      <trkpt lat="47.32184" lon="-1.18463">
        <ele>82.5</ele>
        <time>2014-06-08T07:40:05Z</time>
      </trkpt>
      <trkpt lat="47.322" lon="-1.18446">
        <ele>81.5</ele>
        <time>2014-06-08T07:40:09Z</time>
      </trkpt>
      <trkpt lat="47.32217" lon="-1.18426">
        <ele>80.5</ele>
        <time>2014-06-08T07:40:13Z</time>
      </trkpt>
      <trkpt lat="47.32238" lon="-1.18403">
        <ele>77.5</ele>
        <time>2014-06-08T07:40:17Z</time>
      </trkpt>
      <trkpt lat="47.32263" lon="-1.18385">
        <ele>74.5</ele>
        <time>2014-06-08T07:40:21Z</time>
      </trkpt>
      <trkpt lat="47.32276" lon="-1.18388">
        <ele>77.5</ele>
        <time>2014-06-08T07:40:26Z</time>
      </trkpt>
      <trkpt lat="47.32285" lon="-1.18412">
        <ele>78.5</ele>
        <time>2014-06-08T07:40:30Z</time>
      </trkpt>
      <trkpt lat="47.32293" lon="-1.18431">
        <ele>77.5</ele>
        <time>2014-06-08T07:40:34Z</time>
      </trkpt>
      <trkpt lat="47.323" lon="-1.18452">
        <ele>77.5</ele>
        <time>2014-06-08T07:40:38Z</time>
      </trkpt>
      <trkpt lat="47.32308" lon="-1.18476">
        <ele>80.5</ele>
        <time>2014-06-08T07:40:42Z</time>
      </trkpt>
      <trkpt lat="47.32315" lon="-1.18503">
        <ele>79.5</ele>
        <time>2014-06-08T07:40:45Z</time>
      </trkpt>
      <trkpt lat="47.32322" lon="-1.18521">
        <ele>80.5</ele>
        <time>2014-06-08T07:40:49Z</time>
      </trkpt>
      <trkpt lat="47.3233" lon="-1.18543">
        <ele>80.5</ele>
        <time>2014-06-08T07:40:53Z</time>
      </trkpt>
      <trkpt lat="47.32337" lon="-1.18565">
        <ele>77.5</ele>
        <time>2014-06-08T07:40:57Z</time>
      </trkpt>
      <trkpt lat="47.3234" lon="-1.18582">
        <ele>78.5</ele>
        <time>2014-06-08T07:41:01Z</time>
      </trkpt>
      <trkpt lat="47.32342" lon="-1.18604">
        <ele>73.5</ele>
        <time>2014-06-08T07:41:05Z</time>
      </trkpt>
      <trkpt lat="47.32356" lon="-1.18598">
        <ele>74.5</ele>
        <time>2014-06-08T07:41:09Z</time>
      </trkpt>
      <trkpt lat="47.32376" lon="-1.18581">
        <ele>74.5</ele>
        <time>2014-06-08T07:41:14Z</time>
      </trkpt>
      <trkpt lat="47.32393" lon="-1.18571">
        <ele>74.5</ele>
        <time>2014-06-08T07:41:18Z</time>
      </trkpt>
      <trkpt lat="47.32413" lon="-1.18552">
        <ele>76.5</ele>
        <time>2014-06-08T07:41:22Z</time>
      </trkpt>
      <trkpt lat="47.32435" lon="-1.18531">
        <ele>72.5</ele>
        <time>2014-06-08T07:41:26Z</time>
      </trkpt>
      <trkpt lat="47.3246" lon="-1.18512">
        <ele>71.5</ele>
        <time>2014-06-08T07:41:29Z</time>
      </trkpt>
      <trkpt lat="47.32491" lon="-1.18489">
        <ele>71.5</ele>
        <time>2014-06-08T07:41:33Z</time>
      </trkpt>
      <trkpt lat="47.32523" lon="-1.18468">
        <ele>70.5</ele>
        <time>2014-06-08T07:41:37Z</time>
      </trkpt>
      <trkpt lat="47.32553" lon="-1.18453">
        <ele>68.5</ele>
        <time>2014-06-08T07:41:41Z</time>
      </trkpt>
      <trkpt lat="47.32584" lon="-1.18436">
        <ele>65.5</ele>
        <time>2014-06-08T07:41:45Z</time>
      </trkpt>
      <trkpt lat="47.32612" lon="-1.18424">
        <ele>56.5</ele>
        <time>2014-06-08T07:41:49Z</time>
      </trkpt>
      <trkpt lat="47.32647" lon="-1.18401">
        <ele>53.5</ele>
        <time>2014-06-08T07:41:54Z</time>
      </trkpt>
      <trkpt lat="47.32674" lon="-1.18364">
        <ele>51.5</ele>
        <time>2014-06-08T07:41:58Z</time>
      </trkpt>
      <trkpt lat="47.32704" lon="-1.18326">
        <ele>48.5</ele>
        <time>2014-06-08T07:42:02Z</time>
      </trkpt>
      <trkpt lat="47.32731" lon="-1.1828">
        <ele>47.5</ele>
        <time>2014-06-08T07:42:06Z</time>
      </trkpt>
      <trkpt lat="47.32752" lon="-1.18232">
        <ele>45.5</ele>
        <time>2014-06-08T07:42:10Z</time>
      </trkpt>
      <trkpt lat="47.32763" lon="-1.1818">
        <ele>43.5</ele>
        <time>2014-06-08T07:42:14Z</time>
      </trkpt>
      <trkpt lat="47.32769" lon="-1.18112">
        <ele>34.5</ele>
        <time>2014-06-08T07:42:18Z</time>
      </trkpt>
      <trkpt lat="47.32779" lon="-1.18085">
        <ele>26.5</ele>
        <time>2014-06-08T07:42:21Z</time>
      </trkpt>
      <trkpt lat="47.32797" lon="-1.18081">
        <ele>25.5</ele>
        <time>2014-06-08T07:42:25Z</time>
      </trkpt>
      <trkpt lat="47.32819" lon="-1.18077">
        <ele>21.5</ele>
        <time>2014-06-08T07:42:29Z</time>
      </trkpt>
      <trkpt lat="47.32831" lon="-1.18069">
        <ele>20.5</ele>
        <time>2014-06-08T07:42:33Z</time>
      </trkpt>
      <trkpt lat="47.32844" lon="-1.18065">
        <ele>21.5</ele>
        <time>2014-06-08T07:42:37Z</time>
      </trkpt>
      <trkpt lat="47.32857" lon="-1.18067">
        <ele>21.5</ele>
        <time>2014-06-08T07:42:41Z</time>
      </trkpt>
      <trkpt lat="47.32869" lon="-1.18072">
        <ele>22.5</ele>
        <time>2014-06-08T07:42:45Z</time>
      </trkpt>
      <trkpt lat="47.32877" lon="-1.18082">
        <ele>23.5</ele>
        <time>2014-06-08T07:42:50Z</time>
      </trkpt>
      <trkpt lat="47.32885" lon="-1.18073">
        <ele>21.5</ele>
        <time>2014-06-08T07:42:58Z</time>
      </trkpt>
      <trkpt lat="47.32879" lon="-1.18061">
        <ele>21.5</ele>
        <time>2014-06-08T07:43:02Z</time>
      </trkpt>
      <trkpt lat="47.3287" lon="-1.18039">
        <ele>23.5</ele>
        <time>2014-06-08T07:43:09Z</time>
      </trkpt>
      <trkpt lat="47.32861" lon="-1.18023">
        <ele>26.5</ele>
        <time>2014-06-08T07:43:17Z</time>
      </trkpt>
      <trkpt lat="47.32872" lon="-1.18024">
        <ele>27.5</ele>
        <time>2014-06-08T07:43:25Z</time>
      </trkpt>
      <trkpt lat="47.32883" lon="-1.18035">
        <ele>34.5</ele>
        <time>2014-06-08T07:43:33Z</time>
      </trkpt>
      <trkpt lat="47.32895" lon="-1.18042">
        <ele>36.5</ele>
        <time>2014-06-08T07:43:42Z</time>
      </trkpt>
      <trkpt lat="47.32908" lon="-1.18042">
        <ele>38.5</ele>
        <time>2014-06-08T07:43:50Z</time>
      </trkpt>
      <trkpt lat="47.32922" lon="-1.18036">
        <ele>35.5</ele>
        <time>2014-06-08T07:43:58Z</time>
      </trkpt>
      <trkpt lat="47.32935" lon="-1.18029">
        <ele>35.5</ele>
        <time>2014-06-08T07:44:05Z</time>
      </trkpt>
      <trkpt lat="47.32947" lon="-1.1802">
        <ele>37.5</ele>
        <time>2014-06-08T07:44:13Z</time>
      </trkpt>
      <trkpt lat="47.32954" lon="-1.18011">
        <ele>36.5</ele>
        <time>2014-06-08T07:44:17Z</time>
      </trkpt>
      <trkpt lat="47.32962" lon="-1.17991">
        <ele>40.5</ele>
        <time>2014-06-08T07:44:25Z</time>
      </trkpt>
      <trkpt lat="47.32964" lon="-1.17969">
        <ele>40.5</ele>
        <time>2014-06-08T07:44:34Z</time>
      </trkpt>
      <trkpt lat="47.32971" lon="-1.1795">
        <ele>42.5</ele>
        <time>2014-06-08T07:44:42Z</time>
      </trkpt>
      <trkpt lat="47.32979" lon="-1.17931">
        <ele>42.5</ele>
        <time>2014-06-08T07:44:50Z</time>
      </trkpt>
      <trkpt lat="47.3299" lon="-1.17912">
        <ele>43.5</ele>
        <time>2014-06-08T07:44:58Z</time>
      </trkpt>
      <trkpt lat="47.32996" lon="-1.17902">
        <ele>43.5</ele>
        <time>2014-06-08T07:45:05Z</time>
      </trkpt>
      <trkpt lat="47.33002" lon="-1.17891">
        <ele>43.5</ele>
        <time>2014-06-08T07:45:09Z</time>
      </trkpt>
      <trkpt lat="47.33009" lon="-1.17875">
        <ele>42.5</ele>
        <time>2014-06-08T07:45:13Z</time>
      </trkpt>
      <trkpt lat="47.33015" lon="-1.17862">
        <ele>43.5</ele>
        <time>2014-06-08T07:45:17Z</time>
      </trkpt>
      <trkpt lat="47.33021" lon="-1.17848">
        <ele>44.5</ele>
        <time>2014-06-08T07:45:21Z</time>
      </trkpt>
      <trkpt lat="47.33028" lon="-1.17834">
        <ele>45.5</ele>
        <time>2014-06-08T07:45:25Z</time>
      </trkpt>
      <trkpt lat="47.33033" lon="-1.1782">
        <ele>46.5</ele>
        <time>2014-06-08T07:45:29Z</time>
      </trkpt>
      <trkpt lat="47.33042" lon="-1.17809">
        <ele>47.5</ele>
        <time>2014-06-08T07:45:34Z</time>
      </trkpt>
      <trkpt lat="47.33062" lon="-1.17797">
        <ele>47.5</ele>
        <time>2014-06-08T07:45:42Z</time>
      </trkpt>
      <trkpt lat="47.33072" lon="-1.17792">
        <ele>48.5</ele>
        <time>2014-06-08T07:45:46Z</time>
      </trkpt>
      <trkpt lat="47.33082" lon="-1.17786">
        <ele>49.5</ele>
        <time>2014-06-08T07:45:50Z</time>
      </trkpt>
      <trkpt lat="47.33088" lon="-1.17776">
        <ele>50.5</ele>
        <time>2014-06-08T07:45:54Z</time>
      </trkpt>
      <trkpt lat="47.33098" lon="-1.17765">
        <ele>51.5</ele>
        <time>2014-06-08T07:46:01Z</time>
      </trkpt>
      <trkpt lat="47.33104" lon="-1.17751">
        <ele>51.5</ele>
        <time>2014-06-08T07:46:09Z</time>
      </trkpt>
      <trkpt lat="47.33114" lon="-1.17735">
        <ele>57.5</ele>
        <time>2014-06-08T07:46:17Z</time>
      </trkpt>
      <trkpt lat="47.33125" lon="-1.17719">
        <ele>58.5</ele>
        <time>2014-06-08T07:46:25Z</time>
      </trkpt>
      <trkpt lat="47.33136" lon="-1.17702">
        <ele>64.5</ele>
        <time>2014-06-08T07:46:33Z</time>
      </trkpt>
      <trkpt lat="47.33148" lon="-1.17685">
        <ele>63.5</ele>
        <time>2014-06-08T07:46:41Z</time>
      </trkpt>
      <trkpt lat="47.33158" lon="-1.17667">
        <ele>65.5</ele>
        <time>2014-06-08T07:46:50Z</time>
      </trkpt>
      <trkpt lat="47.33167" lon="-1.1766">
        <ele>64.5</ele>
        <time>2014-06-08T07:46:58Z</time>
      </trkpt>
      <trkpt lat="47.33176" lon="-1.17654">
        <ele>61.5</ele>
        <time>2014-06-08T07:53:26Z</time>
      </trkpt>
      <trkpt lat="47.33186" lon="-1.17641">
        <ele>61.5</ele>
        <time>2014-06-08T07:53:33Z</time>
      </trkpt>
      <trkpt lat="47.33198" lon="-1.17626">
        <ele>63.5</ele>
        <time>2014-06-08T07:53:41Z</time>
      </trkpt>
      <trkpt lat="47.33206" lon="-1.17617">
        <ele>63.5</ele>
        <time>2014-06-08T07:53:45Z</time>
      </trkpt>
      <trkpt lat="47.33215" lon="-1.17608">
        <ele>64.5</ele>
        <time>2014-06-08T07:53:49Z</time>
      </trkpt>
      <trkpt lat="47.33224" lon="-1.17599">
        <ele>64.5</ele>
        <time>2014-06-08T07:53:54Z</time>
      </trkpt>
      <trkpt lat="47.33233" lon="-1.17591">
        <ele>64.5</ele>
        <time>2014-06-08T07:53:58Z</time>
      </trkpt>
      <trkpt lat="47.33243" lon="-1.17583">
        <ele>64.5</ele>
        <time>2014-06-08T07:54:02Z</time>
      </trkpt>
      <trkpt lat="47.33251" lon="-1.17575">
        <ele>65.5</ele>
        <time>2014-06-08T07:54:06Z</time>
      </trkpt>
      <trkpt lat="47.33261" lon="-1.17566">
        <ele>66.5</ele>
        <time>2014-06-08T07:54:10Z</time>
      </trkpt>
      <trkpt lat="47.33273" lon="-1.17556">
        <ele>65.5</ele>
        <time>2014-06-08T07:54:14Z</time>
      </trkpt>
      <trkpt lat="47.33283" lon="-1.17547">
        <ele>64.5</ele>
        <time>2014-06-08T07:54:18Z</time>
      </trkpt>
      <trkpt lat="47.33291" lon="-1.17539">
        <ele>63.5</ele>
        <time>2014-06-08T07:54:21Z</time>
      </trkpt>
      <trkpt lat="47.33302" lon="-1.17531">
        <ele>64.5</ele>
        <time>2014-06-08T07:54:25Z</time>
      </trkpt>
      <trkpt lat="47.33314" lon="-1.17523">
        <ele>66.5</ele>
        <time>2014-06-08T07:54:29Z</time>
      </trkpt>
      <trkpt lat="47.33326" lon="-1.17513">
        <ele>66.5</ele>
        <time>2014-06-08T07:54:33Z</time>
      </trkpt>
      <trkpt lat="47.33338" lon="-1.17504">
        <ele>68.5</ele>
        <time>2014-06-08T07:54:37Z</time>
      </trkpt>
      <trkpt lat="47.33349" lon="-1.17494">
        <ele>65.5</ele>
        <time>2014-06-08T07:54:41Z</time>
      </trkpt>
      <trkpt lat="47.33361" lon="-1.17485">
        <ele>64.5</ele>
        <time>2014-06-08T07:54:45Z</time>
      </trkpt>
      <trkpt lat="47.33372" lon="-1.17476">
        <ele>64.5</ele>
        <time>2014-06-08T07:54:49Z</time>
      </trkpt>
      <trkpt lat="47.33385" lon="-1.17467">
        <ele>65.5</ele>
        <time>2014-06-08T07:54:54Z</time>
      </trkpt>
      <trkpt lat="47.33399" lon="-1.17458">
        <ele>66.5</ele>
        <time>2014-06-08T07:54:58Z</time>
      </trkpt>
      <trkpt lat="47.33412" lon="-1.1745">
        <ele>67.5</ele>
        <time>2014-06-08T07:55:02Z</time>
      </trkpt>
      <trkpt lat="47.33428" lon="-1.1744">
        <ele>66.5</ele>
        <time>2014-06-08T07:55:06Z</time>
      </trkpt>
      <trkpt lat="47.33438" lon="-1.17435">
        <ele>64.5</ele>
        <time>2014-06-08T07:55:10Z</time>
      </trkpt>
      <trkpt lat="47.33447" lon="-1.17426">
        <ele>67.5</ele>
        <time>2014-06-08T07:55:13Z</time>
      </trkpt>
      <trkpt lat="47.33461" lon="-1.17409">
        <ele>67.5</ele>
        <time>2014-06-08T07:55:17Z</time>
      </trkpt>
      <trkpt lat="47.33458" lon="-1.17385">
        <ele>66.5</ele>
        <time>2014-06-08T07:55:21Z</time>
      </trkpt>
      <trkpt lat="47.33447" lon="-1.17364">
        <ele>66.5</ele>
        <time>2014-06-08T07:55:25Z</time>
      </trkpt>
      <trkpt lat="47.33437" lon="-1.17345">
        <ele>66.5</ele>
        <time>2014-06-08T07:55:29Z</time>
      </trkpt>
      <trkpt lat="47.33427" lon="-1.17328">
        <ele>66.5</ele>
        <time>2014-06-08T07:55:33Z</time>
      </trkpt>
      <trkpt lat="47.33417" lon="-1.17313">
        <ele>66.5</ele>
        <time>2014-06-08T07:55:37Z</time>
      </trkpt>
      <trkpt lat="47.33408" lon="-1.17293">
        <ele>65.5</ele>
        <time>2014-06-08T07:55:41Z</time>
      </trkpt>
      <trkpt lat="47.3341" lon="-1.1727">
        <ele>65.5</ele>
        <time>2014-06-08T07:55:45Z</time>
      </trkpt>
      <trkpt lat="47.33415" lon="-1.17245">
        <ele>66.5</ele>
        <time>2014-06-08T07:55:49Z</time>
      </trkpt>
      <trkpt lat="47.33422" lon="-1.17216">
        <ele>64.5</ele>
        <time>2014-06-08T07:55:54Z</time>
      </trkpt>
      <trkpt lat="47.33427" lon="-1.17187">
        <ele>63.5</ele>
        <time>2014-06-08T07:55:58Z</time>
      </trkpt>
      <trkpt lat="47.33433" lon="-1.17156">
        <ele>62.5</ele>
        <time>2014-06-08T07:56:02Z</time>
      </trkpt>
      <trkpt lat="47.33438" lon="-1.17123">
        <ele>61.5</ele>
        <time>2014-06-08T07:56:06Z</time>
      </trkpt>
      <trkpt lat="47.33444" lon="-1.1709">
        <ele>61.5</ele>
        <time>2014-06-08T07:56:10Z</time>
      </trkpt>
      <trkpt lat="47.33451" lon="-1.17047">
        <ele>60.5</ele>
        <time>2014-06-08T07:56:14Z</time>
      </trkpt>
      <trkpt lat="47.33454" lon="-1.17015">
        <ele>60.5</ele>
        <time>2014-06-08T07:56:18Z</time>
      </trkpt>
      <trkpt lat="47.33458" lon="-1.16991">
        <ele>59.5</ele>
        <time>2014-06-08T07:56:21Z</time>
      </trkpt>
      <trkpt lat="47.33463" lon="-1.16956">
        <ele>58.5</ele>
        <time>2014-06-08T07:56:25Z</time>
      </trkpt>
      <trkpt lat="47.33459" lon="-1.1692">
        <ele>57.5</ele>
        <time>2014-06-08T07:56:29Z</time>
      </trkpt>
      <trkpt lat="47.3347" lon="-1.16892">
        <ele>58.5</ele>
        <time>2014-06-08T07:56:33Z</time>
      </trkpt>
      <trkpt lat="47.3348" lon="-1.1685">
        <ele>54.5</ele>
        <time>2014-06-08T07:56:37Z</time>
      </trkpt>
      <trkpt lat="47.33483" lon="-1.16805">
        <ele>50.5</ele>
        <time>2014-06-08T07:56:41Z</time>
      </trkpt>
      <trkpt lat="47.33476" lon="-1.16779">
        <ele>49.5</ele>
        <time>2014-06-08T07:56:45Z</time>
      </trkpt>
      <trkpt lat="47.33472" lon="-1.16756">
        <ele>48.5</ele>
        <time>2014-06-08T07:56:49Z</time>
      </trkpt>
      <trkpt lat="47.33466" lon="-1.16738">
        <ele>47.5</ele>
        <time>2014-06-08T07:56:54Z</time>
      </trkpt>
      <trkpt lat="47.3346" lon="-1.16714">
        <ele>46.5</ele>
        <time>2014-06-08T07:56:58Z</time>
      </trkpt>
      <trkpt lat="47.33456" lon="-1.16695">
        <ele>47.5</ele>
        <time>2014-06-08T07:57:02Z</time>
      </trkpt>
      <trkpt lat="47.33449" lon="-1.16674">
        <ele>46.5</ele>
        <time>2014-06-08T07:57:06Z</time>
      </trkpt>
      <trkpt lat="47.33447" lon="-1.16648">
        <ele>42.5</ele>
        <time>2014-06-08T07:57:10Z</time>
      </trkpt>
      <trkpt lat="47.33433" lon="-1.16589">
        <ele>37.5</ele>
        <time>2014-06-08T07:57:17Z</time>
      </trkpt>
      <trkpt lat="47.33424" lon="-1.16563">
        <ele>35.5</ele>
        <time>2014-06-08T07:57:21Z</time>
      </trkpt>
      <trkpt lat="47.33418" lon="-1.16543">
        <ele>32.5</ele>
        <time>2014-06-08T07:57:25Z</time>
      </trkpt>
      <trkpt lat="47.33411" lon="-1.16525">
        <ele>29.5</ele>
        <time>2014-06-08T07:57:29Z</time>
      </trkpt>
      <trkpt lat="47.3341" lon="-1.16498">
        <ele>26.5</ele>
        <time>2014-06-08T07:57:33Z</time>
      </trkpt>
      <trkpt lat="47.33408" lon="-1.16452">
        <ele>24.5</ele>
        <time>2014-06-08T07:57:37Z</time>
      </trkpt>
      <trkpt lat="47.33422" lon="-1.16427">
        <ele>22.5</ele>
        <time>2014-06-08T07:57:41Z</time>
      </trkpt>
      <trkpt lat="47.33426" lon="-1.16414">
        <ele>21.5</ele>
        <time>2014-06-08T07:57:46Z</time>
      </trkpt>
      <trkpt lat="47.33434" lon="-1.16402">
        <ele>27.5</ele>
        <time>2014-06-08T07:57:54Z</time>
      </trkpt>
      <trkpt lat="47.33447" lon="-1.16391">
        <ele>26.5</ele>
        <time>2014-06-08T07:58:02Z</time>
      </trkpt>
      <trkpt lat="47.33455" lon="-1.16383">
        <ele>28.5</ele>
        <time>2014-06-08T07:58:06Z</time>
      </trkpt>
      <trkpt lat="47.33472" lon="-1.16368">
        <ele>27.5</ele>
        <time>2014-06-08T07:58:13Z</time>
      </trkpt>
      <trkpt lat="47.33502" lon="-1.16369">
        <ele>26.5</ele>
        <time>2014-06-08T07:58:17Z</time>
      </trkpt>
      <trkpt lat="47.33518" lon="-1.16364">
        <ele>28.5</ele>
        <time>2014-06-08T07:58:21Z</time>
      </trkpt>
      <trkpt lat="47.33535" lon="-1.16364">
        <ele>28.5</ele>
        <time>2014-06-08T07:58:25Z</time>
      </trkpt>
      <trkpt lat="47.33549" lon="-1.16352">
        <ele>29.5</ele>
        <time>2014-06-08T07:58:29Z</time>
      </trkpt>
      <trkpt lat="47.33559" lon="-1.1635">
        <ele>31.5</ele>
        <time>2014-06-08T07:58:33Z</time>
      </trkpt>
      <trkpt lat="47.33574" lon="-1.16343">
        <ele>31.5</ele>
        <time>2014-06-08T07:58:38Z</time>
      </trkpt>
      <trkpt lat="47.33594" lon="-1.16335">
        <ele>30.5</ele>
        <time>2014-06-08T07:58:42Z</time>
      </trkpt>
      <trkpt lat="47.33611" lon="-1.16327">
        <ele>27.5</ele>
        <time>2014-06-08T07:58:46Z</time>
      </trkpt>
      <trkpt lat="47.33623" lon="-1.1632">
        <ele>28.5</ele>
        <time>2014-06-08T07:58:50Z</time>
      </trkpt>
      <trkpt lat="47.33633" lon="-1.16328">
        <ele>30.5</ele>
        <time>2014-06-08T07:58:54Z</time>
      </trkpt>
      <trkpt lat="47.33644" lon="-1.16337">
        <ele>37.5</ele>
        <time>2014-06-08T07:58:58Z</time>
      </trkpt>
      <trkpt lat="47.33652" lon="-1.16344">
        <ele>39.5</ele>
        <time>2014-06-08T07:59:01Z</time>
      </trkpt>
      <trkpt lat="47.33664" lon="-1.16349">
        <ele>43.5</ele>
        <time>2014-06-08T07:59:05Z</time>
      </trkpt>
      <trkpt lat="47.33681" lon="-1.16356">
        <ele>39.5</ele>
        <time>2014-06-08T07:59:09Z</time>
      </trkpt>
      <trkpt lat="47.33697" lon="-1.16352">
        <ele>38.5</ele>
        <time>2014-06-08T07:59:13Z</time>
      </trkpt>
      <trkpt lat="47.33716" lon="-1.16358">
        <ele>35.5</ele>
        <time>2014-06-08T07:59:17Z</time>
      </trkpt>
      <trkpt lat="47.33741" lon="-1.16366">
        <ele>38.5</ele>
        <time>2014-06-08T07:59:21Z</time>
      </trkpt>
      <trkpt lat="47.33766" lon="-1.16361">
        <ele>34.5</ele>
        <time>2014-06-08T07:59:25Z</time>
      </trkpt>
      <trkpt lat="47.33785" lon="-1.16359">
        <ele>26.5</ele>
        <time>2014-06-08T07:59:30Z</time>
      </trkpt>
      <trkpt lat="47.33791" lon="-1.16346">
        <ele>27.5</ele>
        <time>2014-06-08T07:59:38Z</time>
      </trkpt>
      <trkpt lat="47.33789" lon="-1.16333">
        <ele>25.5</ele>
        <time>2014-06-08T07:59:57Z</time>
      </trkpt>
      <trkpt lat="47.33792" lon="-1.16309">
        <ele>28.5</ele>
        <time>2014-06-08T08:00:13Z</time>
      </trkpt>
      <trkpt lat="47.33794" lon="-1.16292">
        <ele>27.5</ele>
        <time>2014-06-08T08:00:21Z</time>
      </trkpt>
      <trkpt lat="47.33795" lon="-1.16278">
        <ele>23.5</ele>
        <time>2014-06-08T08:00:30Z</time>
      </trkpt>
      <trkpt lat="47.33797" lon="-1.16251">
        <ele>25.5</ele>
        <time>2014-06-08T08:00:49Z</time>
      </trkpt>
      <trkpt lat="47.33801" lon="-1.16234">
        <ele>31.5</ele>
        <time>2014-06-08T08:00:57Z</time>
      </trkpt>
      <trkpt lat="47.33806" lon="-1.16219">
        <ele>32.5</ele>
        <time>2014-06-08T08:01:01Z</time>
      </trkpt>
      <trkpt lat="47.33815" lon="-1.16201">
        <ele>35.5</ele>
        <time>2014-06-08T08:01:09Z</time>
      </trkpt>
      <trkpt lat="47.33823" lon="-1.1618">
        <ele>39.5</ele>
        <time>2014-06-08T08:01:18Z</time>
      </trkpt>
      <trkpt lat="47.33827" lon="-1.16155">
        <ele>40.5</ele>
        <time>2014-06-08T08:01:26Z</time>
      </trkpt>
      <trkpt lat="47.33827" lon="-1.16139">
        <ele>40.5</ele>
        <time>2014-06-08T08:01:30Z</time>
      </trkpt>
      <trkpt lat="47.33831" lon="-1.16123">
        <ele>41.5</ele>
        <time>2014-06-08T08:01:34Z</time>
      </trkpt>
      <trkpt lat="47.33833" lon="-1.16108">
        <ele>41.5</ele>
        <time>2014-06-08T08:01:38Z</time>
      </trkpt>
      <trkpt lat="47.33836" lon="-1.16091">
        <ele>42.5</ele>
        <time>2014-06-08T08:01:45Z</time>
      </trkpt>
      <trkpt lat="47.33849" lon="-1.16087">
        <ele>43.5</ele>
        <time>2014-06-08T08:01:53Z</time>
      </trkpt>
      <trkpt lat="47.33858" lon="-1.16082">
        <ele>44.5</ele>
        <time>2014-06-08T08:02:01Z</time>
      </trkpt>
      <trkpt lat="47.33868" lon="-1.16076">
        <ele>45.5</ele>
        <time>2014-06-08T08:02:10Z</time>
      </trkpt>
      <trkpt lat="47.33879" lon="-1.1607">
        <ele>49.5</ele>
        <time>2014-06-08T08:02:18Z</time>
      </trkpt>
      <trkpt lat="47.3389" lon="-1.16062">
        <ele>53.5</ele>
        <time>2014-06-08T08:02:26Z</time>
      </trkpt>
      <trkpt lat="47.33898" lon="-1.16055">
        <ele>56.5</ele>
        <time>2014-06-08T08:02:30Z</time>
      </trkpt>
      <trkpt lat="47.33908" lon="-1.16049">
        <ele>59.5</ele>
        <time>2014-06-08T08:02:37Z</time>
      </trkpt>
      <trkpt lat="47.33916" lon="-1.16045">
        <ele>59.5</ele>
        <time>2014-06-08T08:02:41Z</time>
      </trkpt>
      <trkpt lat="47.3393" lon="-1.16034">
        <ele>61.5</ele>
        <time>2014-06-08T08:02:49Z</time>
      </trkpt>
      <trkpt lat="47.33939" lon="-1.16027">
        <ele>60.5</ele>
        <time>2014-06-08T08:02:53Z</time>
      </trkpt>
      <trkpt lat="47.3395" lon="-1.16021">
        <ele>61.5</ele>
        <time>2014-06-08T08:02:57Z</time>
      </trkpt>
      <trkpt lat="47.33961" lon="-1.16016">
        <ele>61.5</ele>
        <time>2014-06-08T08:03:01Z</time>
      </trkpt>
      <trkpt lat="47.33974" lon="-1.16011">
        <ele>61.5</ele>
        <time>2014-06-08T08:03:05Z</time>
      </trkpt>
      <trkpt lat="47.33987" lon="-1.16006">
        <ele>61.5</ele>
        <time>2014-06-08T08:03:09Z</time>
      </trkpt>
      <trkpt lat="47.34006" lon="-1.15999">
        <ele>60.5</ele>
        <time>2014-06-08T08:03:14Z</time>
      </trkpt>
      <trkpt lat="47.34025" lon="-1.15993">
        <ele>59.5</ele>
        <time>2014-06-08T08:03:18Z</time>
      </trkpt>
      <trkpt lat="47.34046" lon="-1.15994">
        <ele>57.5</ele>
        <time>2014-06-08T08:03:22Z</time>
      </trkpt>
      <trkpt lat="47.34085" lon="-1.1599">
        <ele>53.5</ele>
        <time>2014-06-08T08:03:26Z</time>
      </trkpt>
      <trkpt lat="47.34117" lon="-1.1599">
        <ele>51.5</ele>
        <time>2014-06-08T08:03:30Z</time>
      </trkpt>
      <trkpt lat="47.3414" lon="-1.1599">
        <ele>51.5</ele>
        <time>2014-06-08T08:03:34Z</time>
      </trkpt>
      <trkpt lat="47.34185" lon="-1.1599">
        <ele>53.5</ele>
        <time>2014-06-08T08:03:41Z</time>
      </trkpt>
      <trkpt lat="47.34203" lon="-1.15991">
        <ele>55.5</ele>
        <time>2014-06-08T08:03:45Z</time>
      </trkpt>
      <trkpt lat="47.34219" lon="-1.15992">
        <ele>54.5</ele>
        <time>2014-06-08T08:03:49Z</time>
      </trkpt>
      <trkpt lat="47.34234" lon="-1.1599">
        <ele>52.5</ele>
        <time>2014-06-08T08:03:53Z</time>
      </trkpt>
      <trkpt lat="47.34255" lon="-1.15997">
        <ele>49.5</ele>
        <time>2014-06-08T08:03:57Z</time>
      </trkpt>
      <trkpt lat="47.34277" lon="-1.1601">
        <ele>46.5</ele>
        <time>2014-06-08T08:04:01Z</time>
      </trkpt>
      <trkpt lat="47.34301" lon="-1.16019">
        <ele>41.5</ele>
        <time>2014-06-08T08:04:05Z</time>
      </trkpt>
      <trkpt lat="47.34325" lon="-1.16028">
        <ele>39.5</ele>
        <time>2014-06-08T08:04:09Z</time>
      </trkpt>
      <trkpt lat="47.34344" lon="-1.16034">
        <ele>36.5</ele>
        <time>2014-06-08T08:04:13Z</time>
      </trkpt>
      <trkpt lat="47.34363" lon="-1.16041">
        <ele>32.5</ele>
        <time>2014-06-08T08:04:17Z</time>
      </trkpt>
      <trkpt lat="47.34379" lon="-1.16042">
        <ele>30.5</ele>
        <time>2014-06-08T08:04:22Z</time>
      </trkpt>
      <trkpt lat="47.34409" lon="-1.16041">
        <ele>24.5</ele>
        <time>2014-06-08T08:04:26Z</time>
      </trkpt>
      <trkpt lat="47.34413" lon="-1.16025">
        <ele>23.5</ele>
        <time>2014-06-08T08:04:30Z</time>
      </trkpt>
      <trkpt lat="47.34415" lon="-1.1601">
        <ele>23.5</ele>
        <time>2014-06-08T08:04:34Z</time>
      </trkpt>
      <trkpt lat="47.34415" lon="-1.15992">
        <ele>24.5</ele>
        <time>2014-06-08T08:04:38Z</time>
      </trkpt>
      <trkpt lat="47.34413" lon="-1.15978">
        <ele>23.5</ele>
        <time>2014-06-08T08:04:42Z</time>
      </trkpt>
      <trkpt lat="47.34409" lon="-1.15965">
        <ele>23.5</ele>
        <time>2014-06-08T08:04:46Z</time>
      </trkpt>
      <trkpt lat="47.34399" lon="-1.15956">
        <ele>24.5</ele>
        <time>2014-06-08T08:04:53Z</time>
      </trkpt>
      <trkpt lat="47.3439" lon="-1.1596">
        <ele>25.5</ele>
        <time>2014-06-08T08:04:57Z</time>
      </trkpt>
      <trkpt lat="47.34381" lon="-1.15959">
        <ele>26.5</ele>
        <time>2014-06-08T08:05:01Z</time>
      </trkpt>
      <trkpt lat="47.34367" lon="-1.15958">
        <ele>27.5</ele>
        <time>2014-06-08T08:05:09Z</time>
      </trkpt>
      <trkpt lat="47.34352" lon="-1.15956">
        <ele>28.5</ele>
        <time>2014-06-08T08:05:17Z</time>
      </trkpt>
      <trkpt lat="47.3434" lon="-1.15954">
        <ele>30.5</ele>
        <time>2014-06-08T08:05:26Z</time>
      </trkpt>
      <trkpt lat="47.34327" lon="-1.15952">
        <ele>32.5</ele>
        <time>2014-06-08T08:05:34Z</time>
      </trkpt>
      <trkpt lat="47.34318" lon="-1.15952">
        <ele>33.5</ele>
        <time>2014-06-08T08:05:38Z</time>
      </trkpt>
      <trkpt lat="47.34305" lon="-1.15955">
        <ele>35.5</ele>
        <time>2014-06-08T08:05:46Z</time>
      </trkpt>
      <trkpt lat="47.34296" lon="-1.15957">
        <ele>37.5</ele>
        <time>2014-06-08T08:05:53Z</time>
      </trkpt>
      <trkpt lat="47.34283" lon="-1.15959">
        <ele>38.5</ele>
        <time>2014-06-08T08:06:01Z</time>
      </trkpt>
      <trkpt lat="47.34271" lon="-1.15961">
        <ele>41.5</ele>
        <time>2014-06-08T08:06:09Z</time>
      </trkpt>
      <trkpt lat="47.34259" lon="-1.15964">
        <ele>43.5</ele>
        <time>2014-06-08T08:06:17Z</time>
      </trkpt>
      <trkpt lat="47.34249" lon="-1.15966">
        <ele>47.5</ele>
        <time>2014-06-08T08:06:26Z</time>
      </trkpt>
      <trkpt lat="47.34238" lon="-1.15959">
        <ele>48.5</ele>
        <time>2014-06-08T08:06:34Z</time>
      </trkpt>
      <trkpt lat="47.3423" lon="-1.15945">
        <ele>48.5</ele>
        <time>2014-06-08T08:06:42Z</time>
      </trkpt>
      <trkpt lat="47.34222" lon="-1.1594">
        <ele>49.5</ele>
        <time>2014-06-08T08:06:49Z</time>
      </trkpt>
      <trkpt lat="47.34208" lon="-1.15939">
        <ele>50.5</ele>
        <time>2014-06-08T08:06:57Z</time>
      </trkpt>
      <trkpt lat="47.34196" lon="-1.15939">
        <ele>51.5</ele>
        <time>2014-06-08T08:07:05Z</time>
      </trkpt>
      <trkpt lat="47.34187" lon="-1.15938">
        <ele>52.5</ele>
        <time>2014-06-08T08:07:10Z</time>
      </trkpt>
      <trkpt lat="47.34174" lon="-1.15931">
        <ele>53.5</ele>
        <time>2014-06-08T08:07:18Z</time>
      </trkpt>
      <trkpt lat="47.34164" lon="-1.15929">
        <ele>54.5</ele>
        <time>2014-06-08T08:07:22Z</time>
      </trkpt>
      <trkpt lat="47.34146" lon="-1.15927">
        <ele>54.5</ele>
        <time>2014-06-08T08:07:30Z</time>
      </trkpt>
      <trkpt lat="47.34128" lon="-1.15927">
        <ele>54.5</ele>
        <time>2014-06-08T08:07:37Z</time>
      </trkpt>
      <trkpt lat="47.34118" lon="-1.15926">
        <ele>54.5</ele>
        <time>2014-06-08T08:07:41Z</time>
      </trkpt>
      <trkpt lat="47.34107" lon="-1.15928">
        <ele>54.5</ele>
        <time>2014-06-08T08:07:45Z</time>
      </trkpt>
      <trkpt lat="47.34094" lon="-1.15934">
        <ele>53.5</ele>
        <time>2014-06-08T08:07:49Z</time>
      </trkpt>
      <trkpt lat="47.3408" lon="-1.15947">
        <ele>53.5</ele>
        <time>2014-06-08T08:07:53Z</time>
      </trkpt>
      <trkpt lat="47.34068" lon="-1.1597">
        <ele>52.5</ele>
        <time>2014-06-08T08:07:57Z</time>
      </trkpt>
      <trkpt lat="47.34052" lon="-1.15979">
        <ele>53.5</ele>
        <time>2014-06-08T08:08:02Z</time>
      </trkpt>
      <trkpt lat="47.34038" lon="-1.1598">
        <ele>53.5</ele>
        <time>2014-06-08T08:08:06Z</time>
      </trkpt>
      <trkpt lat="47.34026" lon="-1.15973">
        <ele>55.5</ele>
        <time>2014-06-08T08:08:10Z</time>
      </trkpt>
      <trkpt lat="47.34023" lon="-1.15959">
        <ele>55.5</ele>
        <time>2014-06-08T08:08:14Z</time>
      </trkpt>
      <trkpt lat="47.34023" lon="-1.15944">
        <ele>56.5</ele>
        <time>2014-06-08T08:08:18Z</time>
      </trkpt>
      <trkpt lat="47.34023" lon="-1.15928">
        <ele>56.5</ele>
        <time>2014-06-08T08:08:22Z</time>
      </trkpt>
      <trkpt lat="47.34019" lon="-1.15903">
        <ele>58.5</ele>
        <time>2014-06-08T08:08:29Z</time>
      </trkpt>
      <trkpt lat="47.34016" lon="-1.15888">
        <ele>59.5</ele>
        <time>2014-06-08T08:08:33Z</time>
      </trkpt>
      <trkpt lat="47.34014" lon="-1.15873">
        <ele>59.5</ele>
        <time>2014-06-08T08:08:37Z</time>
      </trkpt>
      <trkpt lat="47.34012" lon="-1.15859">
        <ele>60.5</ele>
        <time>2014-06-08T08:08:41Z</time>
      </trkpt>
      <trkpt lat="47.34008" lon="-1.15844">
        <ele>59.5</ele>
        <time>2014-06-08T08:08:45Z</time>
      </trkpt>
      <trkpt lat="47.34006" lon="-1.15828">
        <ele>60.5</ele>
        <time>2014-06-08T08:08:49Z</time>
      </trkpt>
      <trkpt lat="47.34004" lon="-1.15813">
        <ele>61.5</ele>
        <time>2014-06-08T08:08:54Z</time>
      </trkpt>
      <trkpt lat="47.34002" lon="-1.15797">
        <ele>60.5</ele>
        <time>2014-06-08T08:08:58Z</time>
      </trkpt>
      <trkpt lat="47.34" lon="-1.15782">
        <ele>61.5</ele>
        <time>2014-06-08T08:09:02Z</time>
      </trkpt>
      <trkpt lat="47.33998" lon="-1.15762">
        <ele>62.5</ele>
        <time>2014-06-08T08:09:06Z</time>
      </trkpt>
      <trkpt lat="47.33999" lon="-1.15733">
        <ele>62.5</ele>
        <time>2014-06-08T08:09:14Z</time>
      </trkpt>
      <trkpt lat="47.3401" lon="-1.15734">
        <ele>62.5</ele>
        <time>2014-06-08T08:09:17Z</time>
      </trkpt>
      <trkpt lat="47.34026" lon="-1.15733">
        <ele>62.5</ele>
        <time>2014-06-08T08:09:21Z</time>
      </trkpt>
      <trkpt lat="47.34043" lon="-1.15732">
        <ele>62.5</ele>
        <time>2014-06-08T08:09:25Z</time>
      </trkpt>
      <trkpt lat="47.34062" lon="-1.1573">
        <ele>62.5</ele>
        <time>2014-06-08T08:09:29Z</time>
      </trkpt>
      <trkpt lat="47.34084" lon="-1.15726">
        <ele>61.5</ele>
        <time>2014-06-08T08:09:33Z</time>
      </trkpt>
      <trkpt lat="47.34107" lon="-1.1572">
        <ele>61.5</ele>
        <time>2014-06-08T08:09:37Z</time>
      </trkpt>
      <trkpt lat="47.34129" lon="-1.15719">
        <ele>62.5</ele>
        <time>2014-06-08T08:09:42Z</time>
      </trkpt>
      <trkpt lat="47.34154" lon="-1.15723">
        <ele>60.5</ele>
        <time>2014-06-08T08:09:46Z</time>
      </trkpt>
      <trkpt lat="47.34168" lon="-1.15719">
        <ele>58.5</ele>
        <time>2014-06-08T08:09:50Z</time>
      </trkpt>
      <trkpt lat="47.34168" lon="-1.15692">
        <ele>58.5</ele>
        <time>2014-06-08T08:09:54Z</time>
      </trkpt>
      <trkpt lat="47.34167" lon="-1.15668">
        <ele>57.5</ele>
        <time>2014-06-08T08:09:58Z</time>
      </trkpt>
      <trkpt lat="47.34163" lon="-1.15628">
        <ele>55.5</ele>
        <time>2014-06-08T08:10:05Z</time>
      </trkpt>
      <trkpt lat="47.34162" lon="-1.15605">
        <ele>54.5</ele>
        <time>2014-06-08T08:10:09Z</time>
      </trkpt>
      <trkpt lat="47.34162" lon="-1.15582">
        <ele>55.5</ele>
        <time>2014-06-08T08:10:13Z</time>
      </trkpt>
      <trkpt lat="47.34159" lon="-1.1556">
        <ele>55.5</ele>
        <time>2014-06-08T08:10:17Z</time>
      </trkpt>
      <trkpt lat="47.34157" lon="-1.15541">
        <ele>53.5</ele>
        <time>2014-06-08T08:10:21Z</time>
      </trkpt>
      <trkpt lat="47.34174" lon="-1.15541">
        <ele>52.5</ele>
        <time>2014-06-08T08:10:25Z</time>
      </trkpt>
      <trkpt lat="47.34201" lon="-1.15545">
        <ele>48.5</ele>
        <time>2014-06-08T08:10:29Z</time>
      </trkpt>
      <trkpt lat="47.3423" lon="-1.15547">
        <ele>45.5</ele>
        <time>2014-06-08T08:10:33Z</time>
      </trkpt>
      <trkpt lat="47.3425" lon="-1.15545">
        <ele>43.5</ele>
        <time>2014-06-08T08:10:38Z</time>
      </trkpt>
      <trkpt lat="47.34254" lon="-1.1552">
        <ele>42.5</ele>
        <time>2014-06-08T08:10:42Z</time>
      </trkpt>
      <trkpt lat="47.34255" lon="-1.15497">
        <ele>42.5</ele>
        <time>2014-06-08T08:10:46Z</time>
      </trkpt>
      <trkpt lat="47.34245" lon="-1.1549">
        <ele>41.5</ele>
        <time>2014-06-08T08:10:50Z</time>
      </trkpt>
      <trkpt lat="47.34234" lon="-1.15492">
        <ele>42.5</ele>
        <time>2014-06-08T08:10:54Z</time>
      </trkpt>
      <trkpt lat="47.34222" lon="-1.15493">
        <ele>43.5</ele>
        <time>2014-06-08T08:11:01Z</time>
      </trkpt>
      <trkpt lat="47.34209" lon="-1.15484">
        <ele>45.5</ele>
        <time>2014-06-08T08:11:09Z</time>
      </trkpt>
      <trkpt lat="47.34204" lon="-1.15473">
        <ele>46.5</ele>
        <time>2014-06-08T08:11:13Z</time>
      </trkpt>
      <trkpt lat="47.34197" lon="-1.15458">
        <ele>45.5</ele>
        <time>2014-06-08T08:11:17Z</time>
      </trkpt>
      <trkpt lat="47.34192" lon="-1.15445">
        <ele>46.5</ele>
        <time>2014-06-08T08:11:21Z</time>
      </trkpt>
      <trkpt lat="47.34176" lon="-1.15444">
        <ele>46.5</ele>
        <time>2014-06-08T08:11:30Z</time>
      </trkpt>
      <trkpt lat="47.34164" lon="-1.15446">
        <ele>47.5</ele>
        <time>2014-06-08T08:11:38Z</time>
      </trkpt>
      <trkpt lat="47.3415" lon="-1.15456">
        <ele>49.5</ele>
        <time>2014-06-08T08:11:46Z</time>
      </trkpt>
      <trkpt lat="47.34137" lon="-1.1546">
        <ele>50.5</ele>
        <time>2014-06-08T08:11:53Z</time>
      </trkpt>
      <trkpt lat="47.34122" lon="-1.15464">
        <ele>51.5</ele>
        <time>2014-06-08T08:12:01Z</time>
      </trkpt>
      <trkpt lat="47.34104" lon="-1.15468">
        <ele>53.5</ele>
        <time>2014-06-08T08:12:09Z</time>
      </trkpt>
      <trkpt lat="47.34088" lon="-1.15472">
        <ele>53.5</ele>
        <time>2014-06-08T08:12:17Z</time>
      </trkpt>
      <trkpt lat="47.34073" lon="-1.15477">
        <ele>55.5</ele>
        <time>2014-06-08T08:12:26Z</time>
      </trkpt>
      <trkpt lat="47.34066" lon="-1.15449">
        <ele>56.5</ele>
        <time>2014-06-08T08:12:34Z</time>
      </trkpt>
      <trkpt lat="47.34064" lon="-1.15432">
        <ele>55.5</ele>
        <time>2014-06-08T08:12:38Z</time>
      </trkpt>
      <trkpt lat="47.34053" lon="-1.15437">
        <ele>58.5</ele>
        <time>2014-06-08T08:12:49Z</time>
      </trkpt>
      <trkpt lat="47.34047" lon="-1.15419">
        <ele>59.5</ele>
        <time>2014-06-08T08:12:57Z</time>
      </trkpt>
      <trkpt lat="47.34044" lon="-1.15395">
        <ele>59.5</ele>
        <time>2014-06-08T08:13:05Z</time>
      </trkpt>
      <trkpt lat="47.3403" lon="-1.15399">
        <ele>60.5</ele>
        <time>2014-06-08T08:13:14Z</time>
      </trkpt>
      <trkpt lat="47.34012" lon="-1.15408">
        <ele>63.5</ele>
        <time>2014-06-08T08:13:22Z</time>
      </trkpt>
      <trkpt lat="47.33997" lon="-1.15416">
        <ele>64.5</ele>
        <time>2014-06-08T08:13:30Z</time>
      </trkpt>
      <trkpt lat="47.33995" lon="-1.15429">
        <ele>65.5</ele>
        <time>2014-06-08T08:13:34Z</time>
      </trkpt>
      <trkpt lat="47.33997" lon="-1.15446">
        <ele>65.5</ele>
        <time>2014-06-08T08:13:38Z</time>
      </trkpt>
      <trkpt lat="47.33994" lon="-1.1547">
        <ele>66.5</ele>
        <time>2014-06-08T08:13:45Z</time>
      </trkpt>
      <trkpt lat="47.33983" lon="-1.15469">
        <ele>67.5</ele>
        <time>2014-06-08T08:13:49Z</time>
      </trkpt>
      <trkpt lat="47.33964" lon="-1.15468">
        <ele>69.5</ele>
        <time>2014-06-08T08:13:57Z</time>
      </trkpt>
      <trkpt lat="47.33954" lon="-1.15467">
        <ele>69.5</ele>
        <time>2014-06-08T08:14:01Z</time>
      </trkpt>
      <trkpt lat="47.33944" lon="-1.15467">
        <ele>70.5</ele>
        <time>2014-06-08T08:14:06Z</time>
      </trkpt>
      <trkpt lat="47.33934" lon="-1.15466">
        <ele>70.5</ele>
        <time>2014-06-08T08:14:10Z</time>
      </trkpt>
      <trkpt lat="47.33925" lon="-1.15464">
        <ele>70.5</ele>
        <time>2014-06-08T08:14:14Z</time>
      </trkpt>
      <trkpt lat="47.33913" lon="-1.1546">
        <ele>71.5</ele>
        <time>2014-06-08T08:14:18Z</time>
      </trkpt>
      <trkpt lat="47.33904" lon="-1.15458">
        <ele>72.5</ele>
        <time>2014-06-08T08:14:22Z</time>
      </trkpt>
      <trkpt lat="47.33894" lon="-1.15458">
        <ele>72.5</ele>
        <time>2014-06-08T08:14:26Z</time>
      </trkpt>
      <trkpt lat="47.33879" lon="-1.15462">
        <ele>71.5</ele>
        <time>2014-06-08T08:14:33Z</time>
      </trkpt>
      <trkpt lat="47.33867" lon="-1.15467">
        <ele>71.5</ele>
        <time>2014-06-08T08:14:37Z</time>
      </trkpt>
      <trkpt lat="47.33857" lon="-1.15471">
        <ele>71.5</ele>
        <time>2014-06-08T08:14:41Z</time>
      </trkpt>
      <trkpt lat="47.33848" lon="-1.15474">
        <ele>70.5</ele>
        <time>2014-06-08T08:14:45Z</time>
      </trkpt>
      <trkpt lat="47.33837" lon="-1.1549">
        <ele>71.5</ele>
        <time>2014-06-08T08:14:49Z</time>
      </trkpt>
      <trkpt lat="47.33829" lon="-1.15509">
        <ele>71.5</ele>
        <time>2014-06-08T08:14:53Z</time>
      </trkpt>
      <trkpt lat="47.33819" lon="-1.15526">
        <ele>72.5</ele>
        <time>2014-06-08T08:14:58Z</time>
      </trkpt>
      <trkpt lat="47.33807" lon="-1.15545">
        <ele>71.5</ele>
        <time>2014-06-08T08:15:02Z</time>
      </trkpt>
      <trkpt lat="47.33792" lon="-1.15564">
        <ele>72.5</ele>
        <time>2014-06-08T08:15:06Z</time>
      </trkpt>
      <trkpt lat="47.33778" lon="-1.15577">
        <ele>73.5</ele>
        <time>2014-06-08T08:15:10Z</time>
      </trkpt>
      <trkpt lat="47.33762" lon="-1.15585">
        <ele>73.5</ele>
        <time>2014-06-08T08:15:14Z</time>
      </trkpt>
      <trkpt lat="47.33747" lon="-1.15587">
        <ele>75.5</ele>
        <time>2014-06-08T08:15:17Z</time>
      </trkpt>
      <trkpt lat="47.3373" lon="-1.15594">
        <ele>73.5</ele>
        <time>2014-06-08T08:15:21Z</time>
      </trkpt>
      <trkpt lat="47.33714" lon="-1.15605">
        <ele>73.5</ele>
        <time>2014-06-08T08:15:25Z</time>
      </trkpt>
      <trkpt lat="47.33695" lon="-1.15616">
        <ele>74.5</ele>
        <time>2014-06-08T08:15:29Z</time>
      </trkpt>
      <trkpt lat="47.33675" lon="-1.15624">
        <ele>73.5</ele>
        <time>2014-06-08T08:15:33Z</time>
      </trkpt>
      <trkpt lat="47.33656" lon="-1.15627">
        <ele>72.5</ele>
        <time>2014-06-08T08:15:37Z</time>
      </trkpt>
      <trkpt lat="47.3364" lon="-1.15624">
        <ele>71.5</ele>
        <time>2014-06-08T08:15:42Z</time>
      </trkpt>
      <trkpt lat="47.33617" lon="-1.15616">
        <ele>69.5</ele>
        <time>2014-06-08T08:15:46Z</time>
      </trkpt>
      <trkpt lat="47.33599" lon="-1.15615">
        <ele>72.5</ele>
        <time>2014-06-08T08:15:50Z</time>
      </trkpt>
      <trkpt lat="47.33584" lon="-1.15599">
        <ele>76.5</ele>
        <time>2014-06-08T08:15:54Z</time>
      </trkpt>
      <trkpt lat="47.33577" lon="-1.1558">
        <ele>77.5</ele>
        <time>2014-06-08T08:15:58Z</time>
      </trkpt>
      <trkpt lat="47.33573" lon="-1.15563">
        <ele>78.5</ele>
        <time>2014-06-08T08:16:01Z</time>
      </trkpt>
      <trkpt lat="47.3357" lon="-1.15535">
        <ele>76.5</ele>
        <time>2014-06-08T08:16:05Z</time>
      </trkpt>
      <trkpt lat="47.33566" lon="-1.15512">
        <ele>76.5</ele>
        <time>2014-06-08T08:16:09Z</time>
      </trkpt>
      <trkpt lat="47.33559" lon="-1.1549">
        <ele>75.5</ele>
        <time>2014-06-08T08:16:13Z</time>
      </trkpt>
      <trkpt lat="47.33549" lon="-1.15473">
        <ele>76.5</ele>
        <time>2014-06-08T08:16:17Z</time>
      </trkpt>
      <trkpt lat="47.33539" lon="-1.15454">
        <ele>75.5</ele>
        <time>2014-06-08T08:16:21Z</time>
      </trkpt>
      <trkpt lat="47.33528" lon="-1.15445">
        <ele>75.5</ele>
        <time>2014-06-08T08:16:25Z</time>
      </trkpt>
      <trkpt lat="47.33512" lon="-1.15427">
        <ele>74.5</ele>
        <time>2014-06-08T08:16:29Z</time>
      </trkpt>
      <trkpt lat="47.33499" lon="-1.15414">
        <ele>74.5</ele>
        <time>2014-06-08T08:16:34Z</time>
      </trkpt>
      <trkpt lat="47.33487" lon="-1.15397">
        <ele>74.5</ele>
        <time>2014-06-08T08:16:38Z</time>
      </trkpt>
      <trkpt lat="47.33474" lon="-1.15369">
        <ele>72.5</ele>
        <time>2014-06-08T08:16:42Z</time>
      </trkpt>
      <trkpt lat="47.33465" lon="-1.15345">
        <ele>74.5</ele>
        <time>2014-06-08T08:16:46Z</time>
      </trkpt>
      <trkpt lat="47.33456" lon="-1.15322">
        <ele>74.5</ele>
        <time>2014-06-08T08:16:50Z</time>
      </trkpt>
      <trkpt lat="47.33449" lon="-1.15299">
        <ele>74.5</ele>
        <time>2014-06-08T08:16:54Z</time>
      </trkpt>
      <trkpt lat="47.33445" lon="-1.1528">
        <ele>75.5</ele>
        <time>2014-06-08T08:16:57Z</time>
      </trkpt>
      <trkpt lat="47.33441" lon="-1.15256">
        <ele>76.5</ele>
        <time>2014-06-08T08:17:01Z</time>
      </trkpt>
      <trkpt lat="47.3344" lon="-1.15232">
        <ele>78.5</ele>
        <time>2014-06-08T08:17:05Z</time>
      </trkpt>
      <trkpt lat="47.3345" lon="-1.15218">
        <ele>80.5</ele>
        <time>2014-06-08T08:17:09Z</time>
      </trkpt>
      <trkpt lat="47.33467" lon="-1.15229">
        <ele>80.5</ele>
        <time>2014-06-08T08:17:13Z</time>
      </trkpt>
      <trkpt lat="47.33485" lon="-1.15238">
        <ele>80.5</ele>
        <time>2014-06-08T08:17:17Z</time>
      </trkpt>
      <trkpt lat="47.33519" lon="-1.15251">
        <ele>80.5</ele>
        <time>2014-06-08T08:17:26Z</time>
      </trkpt>
      <trkpt lat="47.33539" lon="-1.15252">
        <ele>80.5</ele>
        <time>2014-06-08T08:17:30Z</time>
      </trkpt>
      <trkpt lat="47.33556" lon="-1.1525">
        <ele>79.5</ele>
        <time>2014-06-08T08:17:34Z</time>
      </trkpt>
      <trkpt lat="47.33571" lon="-1.15247">
        <ele>79.5</ele>
        <time>2014-06-08T08:17:38Z</time>
      </trkpt>
      <trkpt lat="47.33584" lon="-1.15246">
        <ele>79.5</ele>
        <time>2014-06-08T08:17:42Z</time>
      </trkpt>
      <trkpt lat="47.33594" lon="-1.15244">
        <ele>80.5</ele>
        <time>2014-06-08T08:17:46Z</time>
      </trkpt>
      <trkpt lat="47.33602" lon="-1.15238">
        <ele>80.5</ele>
        <time>2014-06-08T08:17:49Z</time>
      </trkpt>
      <trkpt lat="47.33616" lon="-1.15234">
        <ele>79.5</ele>
        <time>2014-06-08T08:17:53Z</time>
      </trkpt>
      <trkpt lat="47.33638" lon="-1.15235">
        <ele>78.5</ele>
        <time>2014-06-08T08:17:57Z</time>
      </trkpt>
      <trkpt lat="47.33655" lon="-1.15235">
        <ele>78.5</ele>
        <time>2014-06-08T08:18:01Z</time>
      </trkpt>
      <trkpt lat="47.33672" lon="-1.15236">
        <ele>77.5</ele>
        <time>2014-06-08T08:18:05Z</time>
      </trkpt>
      <trkpt lat="47.33689" lon="-1.15238">
        <ele>77.5</ele>
        <time>2014-06-08T08:18:09Z</time>
      </trkpt>
      <trkpt lat="47.33706" lon="-1.15238">
        <ele>79.5</ele>
        <time>2014-06-08T08:18:14Z</time>
      </trkpt>
      <trkpt lat="47.33724" lon="-1.15238">
        <ele>79.5</ele>
        <time>2014-06-08T08:18:18Z</time>
      </trkpt>
      <trkpt lat="47.33743" lon="-1.15231">
        <ele>78.5</ele>
        <time>2014-06-08T08:18:22Z</time>
      </trkpt>
      <trkpt lat="47.33743" lon="-1.15209">
        <ele>78.5</ele>
        <time>2014-06-08T08:18:26Z</time>
      </trkpt>
      <trkpt lat="47.33741" lon="-1.15182">
        <ele>78.5</ele>
        <time>2014-06-08T08:18:30Z</time>
      </trkpt>
      <trkpt lat="47.3374" lon="-1.15161">
        <ele>78.5</ele>
        <time>2014-06-08T08:18:33Z</time>
      </trkpt>
      <trkpt lat="47.33739" lon="-1.15137">
        <ele>78.5</ele>
        <time>2014-06-08T08:18:37Z</time>
      </trkpt>
      <trkpt lat="47.33755" lon="-1.15141">
        <ele>78.5</ele>
        <time>2014-06-08T08:18:41Z</time>
      </trkpt>
      <trkpt lat="47.33773" lon="-1.15148">
        <ele>78.5</ele>
        <time>2014-06-08T08:18:45Z</time>
      </trkpt>
      <trkpt lat="47.3379" lon="-1.15152">
        <ele>77.5</ele>
        <time>2014-06-08T08:18:49Z</time>
      </trkpt>
      <trkpt lat="47.33809" lon="-1.15155">
        <ele>77.5</ele>
        <time>2014-06-08T08:18:53Z</time>
      </trkpt>
      <trkpt lat="47.33829" lon="-1.15156">
        <ele>76.5</ele>
        <time>2014-06-08T08:18:57Z</time>
      </trkpt>
      <trkpt lat="47.33848" lon="-1.15153">
        <ele>76.5</ele>
        <time>2014-06-08T08:19:01Z</time>
      </trkpt>
      <trkpt lat="47.33868" lon="-1.15148">
        <ele>76.5</ele>
        <time>2014-06-08T08:19:05Z</time>
      </trkpt>
      <trkpt lat="47.33874" lon="-1.15128">
        <ele>74.5</ele>
        <time>2014-06-08T08:19:10Z</time>
      </trkpt>
      <trkpt lat="47.33872" lon="-1.15101">
        <ele>74.5</ele>
        <time>2014-06-08T08:19:14Z</time>
      </trkpt>
      <trkpt lat="47.33869" lon="-1.15062">
        <ele>74.5</ele>
        <time>2014-06-08T08:19:18Z</time>
      </trkpt>
      <trkpt lat="47.33868" lon="-1.15031">
        <ele>74.5</ele>
        <time>2014-06-08T08:19:22Z</time>
      </trkpt>
      <trkpt lat="47.33867" lon="-1.15007">
        <ele>74.5</ele>
        <time>2014-06-08T08:19:26Z</time>
      </trkpt>
      <trkpt lat="47.33864" lon="-1.14976">
        <ele>74.5</ele>
        <time>2014-06-08T08:19:29Z</time>
      </trkpt>
      <trkpt lat="47.33863" lon="-1.14945">
        <ele>73.5</ele>
        <time>2014-06-08T08:19:33Z</time>
      </trkpt>
      <trkpt lat="47.33862" lon="-1.14912">
        <ele>72.5</ele>
        <time>2014-06-08T08:19:37Z</time>
      </trkpt>
      <trkpt lat="47.3386" lon="-1.1488">
        <ele>71.5</ele>
        <time>2014-06-08T08:19:41Z</time>
      </trkpt>
      <trkpt lat="47.33858" lon="-1.14855">
        <ele>71.5</ele>
        <time>2014-06-08T08:19:45Z</time>
      </trkpt>
      <trkpt lat="47.33856" lon="-1.14836">
        <ele>70.5</ele>
        <time>2014-06-08T08:19:49Z</time>
      </trkpt>
      <trkpt lat="47.33857" lon="-1.14823">
        <ele>69.5</ele>
        <time>2014-06-08T08:19:53Z</time>
      </trkpt>
      <trkpt lat="47.33865" lon="-1.14811">
        <ele>69.5</ele>
        <time>2014-06-08T08:19:58Z</time>
      </trkpt>
      <trkpt lat="47.33864" lon="-1.14788">
        <ele>68.5</ele>
        <time>2014-06-08T08:20:02Z</time>
      </trkpt>
      <trkpt lat="47.33861" lon="-1.14753">
        <ele>67.5</ele>
        <time>2014-06-08T08:20:06Z</time>
      </trkpt>
      <trkpt lat="47.3386" lon="-1.14726">
        <ele>66.5</ele>
        <time>2014-06-08T08:20:10Z</time>
      </trkpt>
      <trkpt lat="47.3386" lon="-1.14698">
        <ele>66.5</ele>
        <time>2014-06-08T08:20:14Z</time>
      </trkpt>
      <trkpt lat="47.33879" lon="-1.14693">
        <ele>65.5</ele>
        <time>2014-06-08T08:20:18Z</time>
      </trkpt>
      <trkpt lat="47.33893" lon="-1.14691">
        <ele>64.5</ele>
        <time>2014-06-08T08:20:21Z</time>
      </trkpt>
      <trkpt lat="47.33902" lon="-1.14665">
        <ele>64.5</ele>
        <time>2014-06-08T08:20:25Z</time>
      </trkpt>
      <trkpt lat="47.339" lon="-1.14633">
        <ele>63.5</ele>
        <time>2014-06-08T08:20:29Z</time>
      </trkpt>
      <trkpt lat="47.33898" lon="-1.14602">
        <ele>62.5</ele>
        <time>2014-06-08T08:20:33Z</time>
      </trkpt>
      <trkpt lat="47.33896" lon="-1.14568">
        <ele>61.5</ele>
        <time>2014-06-08T08:20:37Z</time>
      </trkpt>
      <trkpt lat="47.33893" lon="-1.14535">
        <ele>60.5</ele>
        <time>2014-06-08T08:20:41Z</time>
      </trkpt>
      <trkpt lat="47.33889" lon="-1.14503">
        <ele>59.5</ele>
        <time>2014-06-08T08:20:45Z</time>
      </trkpt>
      <trkpt lat="47.33886" lon="-1.1446">
        <ele>56.5</ele>
        <time>2014-06-08T08:20:49Z</time>
      </trkpt>
      <trkpt lat="47.33882" lon="-1.14424">
        <ele>54.5</ele>
        <time>2014-06-08T08:20:54Z</time>
      </trkpt>
      <trkpt lat="47.33872" lon="-1.14415">
        <ele>54.5</ele>
        <time>2014-06-08T08:20:58Z</time>
      </trkpt>
      <trkpt lat="47.33853" lon="-1.1442">
        <ele>54.5</ele>
        <time>2014-06-08T08:21:02Z</time>
      </trkpt>
      <trkpt lat="47.33843" lon="-1.14405">
        <ele>55.5</ele>
        <time>2014-06-08T08:21:10Z</time>
      </trkpt>
      <trkpt lat="47.33846" lon="-1.1438">
        <ele>53.5</ele>
        <time>2014-06-08T08:21:17Z</time>
      </trkpt>
      <trkpt lat="47.33853" lon="-1.14362">
        <ele>54.5</ele>
        <time>2014-06-08T08:21:21Z</time>
      </trkpt>
      <trkpt lat="47.33865" lon="-1.14359">
        <ele>54.5</ele>
        <time>2014-06-08T08:21:25Z</time>
      </trkpt>
      <trkpt lat="47.33876" lon="-1.14366">
        <ele>54.5</ele>
        <time>2014-06-08T08:21:29Z</time>
      </trkpt>
      <trkpt lat="47.33888" lon="-1.14368">
        <ele>55.5</ele>
        <time>2014-06-08T08:21:33Z</time>
      </trkpt>
      <trkpt lat="47.33899" lon="-1.14374">
        <ele>59.5</ele>
        <time>2014-06-08T08:21:38Z</time>
      </trkpt>
      <trkpt lat="47.33915" lon="-1.14385">
        <ele>58.5</ele>
        <time>2014-06-08T08:21:42Z</time>
      </trkpt>
      <trkpt lat="47.33938" lon="-1.14407">
        <ele>59.5</ele>
        <time>2014-06-08T08:21:46Z</time>
      </trkpt>
      <trkpt lat="47.33968" lon="-1.14429">
        <ele>56.5</ele>
        <time>2014-06-08T08:21:50Z</time>
      </trkpt>
      <trkpt lat="47.33992" lon="-1.14435">
        <ele>57.5</ele>
        <time>2014-06-08T08:21:54Z</time>
      </trkpt>
      <trkpt lat="47.34016" lon="-1.14442">
        <ele>58.5</ele>
        <time>2014-06-08T08:21:58Z</time>
      </trkpt>
      <trkpt lat="47.34031" lon="-1.14445">
        <ele>58.5</ele>
        <time>2014-06-08T08:22:01Z</time>
      </trkpt>
      <trkpt lat="47.34048" lon="-1.14454">
        <ele>58.5</ele>
        <time>2014-06-08T08:22:05Z</time>
      </trkpt>
      <trkpt lat="47.34073" lon="-1.14462">
        <ele>57.5</ele>
        <time>2014-06-08T08:22:09Z</time>
      </trkpt>
      <trkpt lat="47.34109" lon="-1.14469">
        <ele>44.5</ele>
        <time>2014-06-08T08:22:13Z</time>
      </trkpt>
      <trkpt lat="47.34136" lon="-1.14471">
        <ele>42.5</ele>
        <time>2014-06-08T08:22:17Z</time>
      </trkpt>
      <trkpt lat="47.34144" lon="-1.14453">
        <ele>36.5</ele>
        <time>2014-06-08T08:22:21Z</time>
      </trkpt>
      <trkpt lat="47.34148" lon="-1.14434">
        <ele>36.5</ele>
        <time>2014-06-08T08:22:25Z</time>
      </trkpt>
      <trkpt lat="47.34143" lon="-1.14414">
        <ele>37.5</ele>
        <time>2014-06-08T08:22:29Z</time>
      </trkpt>
      <trkpt lat="47.34143" lon="-1.14374">
        <ele>38.5</ele>
        <time>2014-06-08T08:22:38Z</time>
      </trkpt>
      <trkpt lat="47.34139" lon="-1.14347">
        <ele>38.5</ele>
        <time>2014-06-08T08:22:42Z</time>
      </trkpt>
      <trkpt lat="47.34136" lon="-1.14326">
        <ele>36.5</ele>
        <time>2014-06-08T08:22:46Z</time>
      </trkpt>
      <trkpt lat="47.34142" lon="-1.14306">
        <ele>36.5</ele>
        <time>2014-06-08T08:22:50Z</time>
      </trkpt>
      <trkpt lat="47.34161" lon="-1.14294">
        <ele>33.5</ele>
        <time>2014-06-08T08:22:54Z</time>
      </trkpt>
      <trkpt lat="47.34179" lon="-1.14286">
        <ele>33.5</ele>
        <time>2014-06-08T08:22:58Z</time>
      </trkpt>
      <trkpt lat="47.34194" lon="-1.14277">
        <ele>32.5</ele>
        <time>2014-06-08T08:23:01Z</time>
      </trkpt>
      <trkpt lat="47.34213" lon="-1.14265">
        <ele>32.5</ele>
        <time>2014-06-08T08:23:05Z</time>
      </trkpt>
      <trkpt lat="47.34233" lon="-1.14252">
        <ele>32.5</ele>
        <time>2014-06-08T08:23:09Z</time>
      </trkpt>
      <trkpt lat="47.34256" lon="-1.14239">
        <ele>32.5</ele>
        <time>2014-06-08T08:23:13Z</time>
      </trkpt>
      <trkpt lat="47.34277" lon="-1.14219">
        <ele>32.5</ele>
        <time>2014-06-08T08:23:17Z</time>
      </trkpt>
      <trkpt lat="47.34294" lon="-1.14192">
        <ele>32.5</ele>
        <time>2014-06-08T08:23:21Z</time>
      </trkpt>
      <trkpt lat="47.34312" lon="-1.14162">
        <ele>33.5</ele>
        <time>2014-06-08T08:23:25Z</time>
      </trkpt>
      <trkpt lat="47.34331" lon="-1.14137">
        <ele>31.5</ele>
        <time>2014-06-08T08:23:29Z</time>
      </trkpt>
      <trkpt lat="47.34351" lon="-1.14113">
        <ele>30.5</ele>
        <time>2014-06-08T08:23:34Z</time>
      </trkpt>
      <trkpt lat="47.34375" lon="-1.14113">
        <ele>31.5</ele>
        <time>2014-06-08T08:23:38Z</time>
      </trkpt>
      <trkpt lat="47.34401" lon="-1.14127">
        <ele>31.5</ele>
        <time>2014-06-08T08:23:42Z</time>
      </trkpt>
      <trkpt lat="47.34435" lon="-1.14142">
        <ele>30.5</ele>
        <time>2014-06-08T08:23:46Z</time>
      </trkpt>
      <trkpt lat="47.34462" lon="-1.14153">
        <ele>30.5</ele>
        <time>2014-06-08T08:23:50Z</time>
      </trkpt>
      <trkpt lat="47.34483" lon="-1.14161">
        <ele>30.5</ele>
        <time>2014-06-08T08:23:53Z</time>
      </trkpt>
      <trkpt lat="47.34513" lon="-1.1417">
        <ele>30.5</ele>
        <time>2014-06-08T08:23:57Z</time>
      </trkpt>
      <trkpt lat="47.34543" lon="-1.1418">
        <ele>30.5</ele>
        <time>2014-06-08T08:24:01Z</time>
      </trkpt>
      <trkpt lat="47.34574" lon="-1.1419">
        <ele>30.5</ele>
        <time>2014-06-08T08:24:05Z</time>
      </trkpt>
      <trkpt lat="47.34605" lon="-1.14198">
        <ele>30.5</ele>
        <time>2014-06-08T08:24:09Z</time>
      </trkpt>
      <trkpt lat="47.34636" lon="-1.14207">
        <ele>29.5</ele>
        <time>2014-06-08T08:24:13Z</time>
      </trkpt>
      <trkpt lat="47.34667" lon="-1.14213">
        <ele>29.5</ele>
        <time>2014-06-08T08:24:17Z</time>
      </trkpt>
      <trkpt lat="47.34697" lon="-1.14223">
        <ele>29.5</ele>
        <time>2014-06-08T08:24:21Z</time>
      </trkpt>
      <trkpt lat="47.34728" lon="-1.14232">
        <ele>29.5</ele>
        <time>2014-06-08T08:24:25Z</time>
      </trkpt>
      <trkpt lat="47.34758" lon="-1.14239">
        <ele>28.5</ele>
        <time>2014-06-08T08:24:30Z</time>
      </trkpt>
      <trkpt lat="47.34781" lon="-1.14241">
        <ele>28.5</ele>
        <time>2014-06-08T08:24:34Z</time>
      </trkpt>
      <trkpt lat="47.34828" lon="-1.1424">
        <ele>24.5</ele>
        <time>2014-06-08T08:24:38Z</time>
      </trkpt>
      <trkpt lat="47.3485" lon="-1.14238">
        <ele>24.5</ele>
        <time>2014-06-08T08:24:42Z</time>
      </trkpt>
      <trkpt lat="47.34886" lon="-1.14238">
        <ele>23.5</ele>
        <time>2014-06-08T08:24:46Z</time>
      </trkpt>
      <trkpt lat="47.34914" lon="-1.14245">
        <ele>21.5</ele>
        <time>2014-06-08T08:24:50Z</time>
      </trkpt>
      <trkpt lat="47.34942" lon="-1.14259">
        <ele>20.5</ele>
        <time>2014-06-08T08:24:54Z</time>
      </trkpt>
      <trkpt lat="47.34964" lon="-1.1427">
        <ele>22.5</ele>
        <time>2014-06-08T08:24:57Z</time>
      </trkpt>
      <trkpt lat="47.34999" lon="-1.14287">
        <ele>19.5</ele>
        <time>2014-06-08T08:25:01Z</time>
      </trkpt>
      <trkpt lat="47.35034" lon="-1.14303">
        <ele>19.5</ele>
        <time>2014-06-08T08:25:05Z</time>
      </trkpt>
      <trkpt lat="47.35069" lon="-1.1432">
        <ele>19.5</ele>
        <time>2014-06-08T08:25:09Z</time>
      </trkpt>
      <trkpt lat="47.35105" lon="-1.14337">
        <ele>18.5</ele>
        <time>2014-06-08T08:25:13Z</time>
      </trkpt>
      <trkpt lat="47.35138" lon="-1.14352">
        <ele>18.5</ele>
        <time>2014-06-08T08:25:17Z</time>
      </trkpt>
      <trkpt lat="47.35169" lon="-1.14355">
        <ele>17.5</ele>
        <time>2014-06-08T08:25:22Z</time>
      </trkpt>
      <trkpt lat="47.35203" lon="-1.14352">
        <ele>18.5</ele>
        <time>2014-06-08T08:25:26Z</time>
      </trkpt>
      <trkpt lat="47.35231" lon="-1.14353">
        <ele>17.5</ele>
        <time>2014-06-08T08:25:30Z</time>
      </trkpt>
      <trkpt lat="47.35256" lon="-1.14385">
        <ele>9.5</ele>
        <time>2014-06-08T08:25:34Z</time>
      </trkpt>
      <trkpt lat="47.35264" lon="-1.14421">
        <ele>12.5</ele>
        <time>2014-06-08T08:25:38Z</time>
      </trkpt>
      <trkpt lat="47.35268" lon="-1.14458">
        <ele>14.5</ele>
        <time>2014-06-08T08:25:42Z</time>
      </trkpt>
      <trkpt lat="47.35264" lon="-1.14488">
        <ele>16.5</ele>
        <time>2014-06-08T08:25:45Z</time>
      </trkpt>
      <trkpt lat="47.35259" lon="-1.14527">
        <ele>16.5</ele>
        <time>2014-06-08T08:25:49Z</time>
      </trkpt>
      <trkpt lat="47.35253" lon="-1.14567">
        <ele>18.5</ele>
        <time>2014-06-08T08:25:53Z</time>
      </trkpt>
      <trkpt lat="47.35238" lon="-1.14603">
        <ele>16.5</ele>
        <time>2014-06-08T08:25:57Z</time>
      </trkpt>
      <trkpt lat="47.35225" lon="-1.14626">
        <ele>15.5</ele>
        <time>2014-06-08T08:26:01Z</time>
      </trkpt>
      <trkpt lat="47.35208" lon="-1.14669">
        <ele>15.5</ele>
        <time>2014-06-08T08:26:05Z</time>
      </trkpt>
      <trkpt lat="47.35202" lon="-1.14707">
        <ele>14.5</ele>
        <time>2014-06-08T08:26:09Z</time>
      </trkpt>
      <trkpt lat="47.35198" lon="-1.14737">
        <ele>15.5</ele>
        <time>2014-06-08T08:26:14Z</time>
      </trkpt>
      <trkpt lat="47.35183" lon="-1.14733">
        <ele>14.5</ele>
        <time>2014-06-08T08:26:18Z</time>
      </trkpt>
      <trkpt lat="47.35158" lon="-1.14725">
        <ele>13.5</ele>
        <time>2014-06-08T08:26:22Z</time>
      </trkpt>
      <trkpt lat="47.35139" lon="-1.14717">
        <ele>14.5</ele>
        <time>2014-06-08T08:26:26Z</time>
      </trkpt>
      <trkpt lat="47.35129" lon="-1.14712">
        <ele>14.5</ele>
        <time>2014-06-08T08:26:30Z</time>
      </trkpt>
      <trkpt lat="47.35095" lon="-1.14704">
        <ele>10.5</ele>
        <time>2014-06-08T08:26:34Z</time>
      </trkpt>
      <trkpt lat="47.3508" lon="-1.14701">
        <ele>12.5</ele>
        <time>2014-06-08T08:26:37Z</time>
      </trkpt>
      <trkpt lat="47.35064" lon="-1.147">
        <ele>11.5</ele>
        <time>2014-06-08T08:26:41Z</time>
      </trkpt>
      <trkpt lat="47.35057" lon="-1.14725">
        <ele>12.5</ele>
        <time>2014-06-08T08:26:45Z</time>
      </trkpt>
      <trkpt lat="47.35054" lon="-1.14755">
        <ele>12.5</ele>
        <time>2014-06-08T08:26:49Z</time>
      </trkpt>
      <trkpt lat="47.3505" lon="-1.14786">
        <ele>12.5</ele>
        <time>2014-06-08T08:26:53Z</time>
      </trkpt>
      <trkpt lat="47.35046" lon="-1.14818">
        <ele>12.5</ele>
        <time>2014-06-08T08:26:57Z</time>
      </trkpt>
      <trkpt lat="47.3504" lon="-1.14848">
        <ele>12.5</ele>
        <time>2014-06-08T08:27:01Z</time>
      </trkpt>
      <trkpt lat="47.35025" lon="-1.14867">
        <ele>12.5</ele>
        <time>2014-06-08T08:27:05Z</time>
      </trkpt>
      <trkpt lat="47.35004" lon="-1.14874">
        <ele>12.5</ele>
        <time>2014-06-08T08:27:10Z</time>
      </trkpt>
      <trkpt lat="47.34985" lon="-1.14882">
        <ele>13.5</ele>
        <time>2014-06-08T08:27:14Z</time>
      </trkpt>
      <trkpt lat="47.34963" lon="-1.14891">
        <ele>14.5</ele>
        <time>2014-06-08T08:27:18Z</time>
      </trkpt>
      <trkpt lat="47.34948" lon="-1.14898">
        <ele>16.5</ele>
        <time>2014-06-08T08:27:22Z</time>
      </trkpt>
      <trkpt lat="47.34944" lon="-1.14915">
        <ele>17.5</ele>
        <time>2014-06-08T08:27:30Z</time>
      </trkpt>
      <trkpt lat="47.34956" lon="-1.14927">
        <ele>16.5</ele>
        <time>2014-06-08T08:27:33Z</time>
      </trkpt>
      <trkpt lat="47.34969" lon="-1.14945">
        <ele>15.5</ele>
        <time>2014-06-08T08:27:37Z</time>
      </trkpt>
      <trkpt lat="47.34983" lon="-1.1497">
        <ele>14.5</ele>
        <time>2014-06-08T08:27:41Z</time>
      </trkpt>
      <trkpt lat="47.34999" lon="-1.14991">
        <ele>14.5</ele>
        <time>2014-06-08T08:27:45Z</time>
      </trkpt>
      <trkpt lat="47.3502" lon="-1.14998">
        <ele>14.5</ele>
        <time>2014-06-08T08:27:49Z</time>
      </trkpt>
      <trkpt lat="47.35029" lon="-1.15019">
        <ele>14.5</ele>
        <time>2014-06-08T08:27:53Z</time>
      </trkpt>
      <trkpt lat="47.35025" lon="-1.15047">
        <ele>12.5</ele>
        <time>2014-06-08T08:27:57Z</time>
      </trkpt>
      <trkpt lat="47.35021" lon="-1.15073">
        <ele>13.5</ele>
        <time>2014-06-08T08:28:01Z</time>
      </trkpt>
      <trkpt lat="47.35019" lon="-1.15102">
        <ele>14.5</ele>
        <time>2014-06-08T08:28:05Z</time>
      </trkpt>
      <trkpt lat="47.35014" lon="-1.15129">
        <ele>16.5</ele>
        <time>2014-06-08T08:28:10Z</time>
      </trkpt>
      <trkpt lat="47.35008" lon="-1.15166">
        <ele>14.5</ele>
        <time>2014-06-08T08:28:14Z</time>
      </trkpt>
      <trkpt lat="47.35006" lon="-1.15199">
        <ele>14.5</ele>
        <time>2014-06-08T08:28:18Z</time>
      </trkpt>
      <trkpt lat="47.35003" lon="-1.15233">
        <ele>14.5</ele>
        <time>2014-06-08T08:28:22Z</time>
      </trkpt>
      <trkpt lat="47.35001" lon="-1.15265">
        <ele>13.5</ele>
        <time>2014-06-08T08:28:26Z</time>
      </trkpt>
      <trkpt lat="47.35004" lon="-1.15297">
        <ele>12.5</ele>
        <time>2014-06-08T08:28:30Z</time>
      </trkpt>
      <trkpt lat="47.35014" lon="-1.1532">
        <ele>13.5</ele>
        <time>2014-06-08T08:28:33Z</time>
      </trkpt>
      <trkpt lat="47.35021" lon="-1.15354">
        <ele>13.5</ele>
        <time>2014-06-08T08:28:37Z</time>
      </trkpt>
      <trkpt lat="47.35022" lon="-1.15388">
        <ele>13.5</ele>
        <time>2014-06-08T08:28:41Z</time>
      </trkpt>
      <trkpt lat="47.35023" lon="-1.15423">
        <ele>13.5</ele>
        <time>2014-06-08T08:28:45Z</time>
      </trkpt>
      <trkpt lat="47.35021" lon="-1.15459">
        <ele>13.5</ele>
        <time>2014-06-08T08:28:49Z</time>
      </trkpt>
      <trkpt lat="47.35016" lon="-1.15486">
        <ele>12.5</ele>
        <time>2014-06-08T08:28:53Z</time>
      </trkpt>
      <trkpt lat="47.35001" lon="-1.15524">
        <ele>12.5</ele>
        <time>2014-06-08T08:28:57Z</time>
      </trkpt>
      <trkpt lat="47.34993" lon="-1.15556">
        <ele>13.5</ele>
        <time>2014-06-08T08:29:01Z</time>
      </trkpt>
      <trkpt lat="47.34984" lon="-1.15589">
        <ele>12.5</ele>
        <time>2014-06-08T08:29:06Z</time>
      </trkpt>
      <trkpt lat="47.34972" lon="-1.15626">
        <ele>12.5</ele>
        <time>2014-06-08T08:29:10Z</time>
      </trkpt>
      <trkpt lat="47.34963" lon="-1.15653">
        <ele>16.5</ele>
        <time>2014-06-08T08:29:14Z</time>
      </trkpt>
      <trkpt lat="47.34953" lon="-1.15679">
        <ele>19.5</ele>
        <time>2014-06-08T08:29:18Z</time>
      </trkpt>
      <trkpt lat="47.34937" lon="-1.15705">
        <ele>20.5</ele>
        <time>2014-06-08T08:29:22Z</time>
      </trkpt>
      <trkpt lat="47.3492" lon="-1.15723">
        <ele>15.5</ele>
        <time>2014-06-08T08:29:25Z</time>
      </trkpt>
      <trkpt lat="47.34911" lon="-1.15748">
        <ele>19.5</ele>
        <time>2014-06-08T08:29:29Z</time>
      </trkpt>
      <trkpt lat="47.34898" lon="-1.1577">
        <ele>21.5</ele>
        <time>2014-06-08T08:29:33Z</time>
      </trkpt>
      <trkpt lat="47.34881" lon="-1.15791">
        <ele>21.5</ele>
        <time>2014-06-08T08:29:37Z</time>
      </trkpt>
      <trkpt lat="47.34868" lon="-1.15817">
        <ele>23.5</ele>
        <time>2014-06-08T08:29:41Z</time>
      </trkpt>
      <trkpt lat="47.34857" lon="-1.15846">
        <ele>24.5</ele>
        <time>2014-06-08T08:29:45Z</time>
      </trkpt>
      <trkpt lat="47.34852" lon="-1.15859">
        <ele>23.5</ele>
        <time>2014-06-08T08:29:49Z</time>
      </trkpt>
      <trkpt lat="47.34846" lon="-1.15901">
        <ele>17.5</ele>
        <time>2014-06-08T08:29:54Z</time>
      </trkpt>
      <trkpt lat="47.34863" lon="-1.15916">
        <ele>14.5</ele>
        <time>2014-06-08T08:29:58Z</time>
      </trkpt>
      <trkpt lat="47.3489" lon="-1.15933">
        <ele>13.5</ele>
        <time>2014-06-08T08:30:02Z</time>
      </trkpt>
      <trkpt lat="47.34911" lon="-1.15947">
        <ele>13.5</ele>
        <time>2014-06-08T08:30:06Z</time>
      </trkpt>
      <trkpt lat="47.34925" lon="-1.15968">
        <ele>13.5</ele>
        <time>2014-06-08T08:30:10Z</time>
      </trkpt>
      <trkpt lat="47.3491" lon="-1.15988">
        <ele>13.5</ele>
        <time>2014-06-08T08:30:14Z</time>
      </trkpt>
      <trkpt lat="47.34894" lon="-1.16015">
        <ele>13.5</ele>
        <time>2014-06-08T08:30:18Z</time>
      </trkpt>
      <trkpt lat="47.34886" lon="-1.16037">
        <ele>14.5</ele>
        <time>2014-06-08T08:30:21Z</time>
      </trkpt>
      <trkpt lat="47.34877" lon="-1.16068">
        <ele>14.5</ele>
        <time>2014-06-08T08:30:25Z</time>
      </trkpt>
      <trkpt lat="47.3487" lon="-1.161">
        <ele>14.5</ele>
        <time>2014-06-08T08:30:29Z</time>
      </trkpt>
      <trkpt lat="47.34865" lon="-1.16132">
        <ele>15.5</ele>
        <time>2014-06-08T08:30:33Z</time>
      </trkpt>
      <trkpt lat="47.34859" lon="-1.16165">
        <ele>15.5</ele>
        <time>2014-06-08T08:30:37Z</time>
      </trkpt>
      <trkpt lat="47.34847" lon="-1.16194">
        <ele>14.5</ele>
        <time>2014-06-08T08:30:41Z</time>
      </trkpt>
      <trkpt lat="47.34832" lon="-1.16216">
        <ele>16.5</ele>
        <time>2014-06-08T08:30:45Z</time>
      </trkpt>
      <trkpt lat="47.34812" lon="-1.16228">
        <ele>22.5</ele>
        <time>2014-06-08T08:30:50Z</time>
      </trkpt>
      <trkpt lat="47.3478" lon="-1.16241">
        <ele>21.5</ele>
        <time>2014-06-08T08:30:54Z</time>
      </trkpt>
      <trkpt lat="47.34761" lon="-1.16257">
        <ele>21.5</ele>
        <time>2014-06-08T08:30:58Z</time>
      </trkpt>
      <trkpt lat="47.34762" lon="-1.16289">
        <ele>22.5</ele>
        <time>2014-06-08T08:31:02Z</time>
      </trkpt>
      <trkpt lat="47.34764" lon="-1.1632">
        <ele>21.5</ele>
        <time>2014-06-08T08:31:06Z</time>
      </trkpt>
      <trkpt lat="47.34768" lon="-1.16349">
        <ele>21.5</ele>
        <time>2014-06-08T08:31:10Z</time>
      </trkpt>
      <trkpt lat="47.3477" lon="-1.16367">
        <ele>21.5</ele>
        <time>2014-06-08T08:31:13Z</time>
      </trkpt>
      <trkpt lat="47.34768" lon="-1.16384">
        <ele>22.5</ele>
        <time>2014-06-08T08:31:17Z</time>
      </trkpt>
      <trkpt lat="47.34759" lon="-1.16385">
        <ele>19.5</ele>
        <time>2014-06-08T08:31:21Z</time>
      </trkpt>
      <trkpt lat="47.34751" lon="-1.16372">
        <ele>19.5</ele>
        <time>2014-06-08T08:31:25Z</time>
      </trkpt>
      <trkpt lat="47.34738" lon="-1.16373">
        <ele>19.5</ele>
        <time>2014-06-08T08:31:29Z</time>
      </trkpt>
      <trkpt lat="47.34727" lon="-1.16385">
        <ele>18.5</ele>
        <time>2014-06-08T08:31:33Z</time>
      </trkpt>
      <trkpt lat="47.34716" lon="-1.16379">
        <ele>17.5</ele>
        <time>2014-06-08T08:31:37Z</time>
      </trkpt>
      <trkpt lat="47.34702" lon="-1.16365">
        <ele>16.5</ele>
        <time>2014-06-08T08:31:42Z</time>
      </trkpt>
      <trkpt lat="47.34708" lon="-1.16355">
        <ele>16.5</ele>
        <time>2014-06-08T08:31:46Z</time>
      </trkpt>
      <trkpt lat="47.34716" lon="-1.16344">
        <ele>17.5</ele>
        <time>2014-06-08T08:31:50Z</time>
      </trkpt>
      <trkpt lat="47.34722" lon="-1.16331">
        <ele>20.5</ele>
        <time>2014-06-08T08:31:54Z</time>
      </trkpt>
      <trkpt lat="47.3473" lon="-1.1632">
        <ele>18.5</ele>
        <time>2014-06-08T08:31:58Z</time>
      </trkpt>
      <trkpt lat="47.34728" lon="-1.16305">
        <ele>18.5</ele>
        <time>2014-06-08T08:32:01Z</time>
      </trkpt>
      <trkpt lat="47.3472" lon="-1.16285">
        <ele>18.5</ele>
        <time>2014-06-08T08:32:05Z</time>
      </trkpt>
      <trkpt lat="47.34712" lon="-1.16266">
        <ele>20.5</ele>
        <time>2014-06-08T08:32:09Z</time>
      </trkpt>
      <trkpt lat="47.34704" lon="-1.16252">
        <ele>20.5</ele>
        <time>2014-06-08T08:32:13Z</time>
      </trkpt>
      <trkpt lat="47.34693" lon="-1.16237">
        <ele>18.5</ele>
        <time>2014-06-08T08:32:17Z</time>
      </trkpt>
      <trkpt lat="47.34681" lon="-1.1622">
        <ele>17.5</ele>
        <time>2014-06-08T08:32:21Z</time>
      </trkpt>
      <trkpt lat="47.34669" lon="-1.16203">
        <ele>19.5</ele>
        <time>2014-06-08T08:32:25Z</time>
      </trkpt>
      <trkpt lat="47.34648" lon="-1.16183">
        <ele>18.5</ele>
        <time>2014-06-08T08:32:30Z</time>
      </trkpt>
      <trkpt lat="47.34632" lon="-1.16166">
        <ele>17.5</ele>
        <time>2014-06-08T08:32:34Z</time>
      </trkpt>
      <trkpt lat="47.34615" lon="-1.16155">
        <ele>17.5</ele>
        <time>2014-06-08T08:32:38Z</time>
      </trkpt>
      <trkpt lat="47.34598" lon="-1.16142">
        <ele>18.5</ele>
        <time>2014-06-08T08:32:42Z</time>
      </trkpt>
      <trkpt lat="47.34584" lon="-1.16132">
        <ele>18.5</ele>
        <time>2014-06-08T08:32:45Z</time>
      </trkpt>
      <trkpt lat="47.34566" lon="-1.16123">
        <ele>17.5</ele>
        <time>2014-06-08T08:32:49Z</time>
      </trkpt>
      <trkpt lat="47.34545" lon="-1.16135">
        <ele>17.5</ele>
        <time>2014-06-08T08:32:53Z</time>
      </trkpt>
      <trkpt lat="47.34522" lon="-1.16139">
        <ele>18.5</ele>
        <time>2014-06-08T08:32:57Z</time>
      </trkpt>
      <trkpt lat="47.34505" lon="-1.16153">
        <ele>17.5</ele>
        <time>2014-06-08T08:33:01Z</time>
      </trkpt>
      <trkpt lat="47.34491" lon="-1.16169">
        <ele>16.5</ele>
        <time>2014-06-08T08:33:05Z</time>
      </trkpt>
      <trkpt lat="47.34476" lon="-1.16185">
        <ele>17.5</ele>
        <time>2014-06-08T08:33:09Z</time>
      </trkpt>
      <trkpt lat="47.3446" lon="-1.1619">
        <ele>16.5</ele>
        <time>2014-06-08T08:33:14Z</time>
      </trkpt>
      <trkpt lat="47.34445" lon="-1.16154">
        <ele>17.5</ele>
        <time>2014-06-08T08:33:18Z</time>
      </trkpt>
      <trkpt lat="47.3443" lon="-1.16128">
        <ele>16.5</ele>
        <time>2014-06-08T08:33:22Z</time>
      </trkpt>
      <trkpt lat="47.34421" lon="-1.16102">
        <ele>17.5</ele>
        <time>2014-06-08T08:33:26Z</time>
      </trkpt>
      <trkpt lat="47.34406" lon="-1.16099">
        <ele>17.5</ele>
        <time>2014-06-08T08:33:30Z</time>
      </trkpt>
      <trkpt lat="47.34379" lon="-1.16094">
        <ele>19.5</ele>
        <time>2014-06-08T08:33:37Z</time>
      </trkpt>
      <trkpt lat="47.34366" lon="-1.16094">
        <ele>19.5</ele>
        <time>2014-06-08T08:33:41Z</time>
      </trkpt>
      <trkpt lat="47.34347" lon="-1.16088">
        <ele>21.5</ele>
        <time>2014-06-08T08:33:49Z</time>
      </trkpt>
      <trkpt lat="47.34336" lon="-1.16086">
        <ele>23.5</ele>
        <time>2014-06-08T08:33:53Z</time>
      </trkpt>
      <trkpt lat="47.34326" lon="-1.16088">
        <ele>23.5</ele>
        <time>2014-06-08T08:33:57Z</time>
      </trkpt>
      <trkpt lat="47.34315" lon="-1.16092">
        <ele>22.5</ele>
        <time>2014-06-08T08:34:02Z</time>
      </trkpt>
      <trkpt lat="47.34301" lon="-1.16098">
        <ele>30.5</ele>
        <time>2014-06-08T08:34:06Z</time>
      </trkpt>
      <trkpt lat="47.34265" lon="-1.1611">
        <ele>24.5</ele>
        <time>2014-06-08T08:34:14Z</time>
      </trkpt>
      <trkpt lat="47.34241" lon="-1.1611">
        <ele>19.5</ele>
        <time>2014-06-08T08:34:18Z</time>
      </trkpt>
      <trkpt lat="47.34223" lon="-1.16108">
        <ele>21.5</ele>
        <time>2014-06-08T08:34:22Z</time>
      </trkpt>
      <trkpt lat="47.34196" lon="-1.16095">
        <ele>20.5</ele>
        <time>2014-06-08T08:34:26Z</time>
      </trkpt>
      <trkpt lat="47.34167" lon="-1.16088">
        <ele>23.5</ele>
        <time>2014-06-08T08:34:33Z</time>
      </trkpt>
      <trkpt lat="47.34152" lon="-1.16091">
        <ele>18.5</ele>
        <time>2014-06-08T08:34:37Z</time>
      </trkpt>
      <trkpt lat="47.34138" lon="-1.16094">
        <ele>20.5</ele>
        <time>2014-06-08T08:34:41Z</time>
      </trkpt>
      <trkpt lat="47.34126" lon="-1.16102">
        <ele>21.5</ele>
        <time>2014-06-08T08:34:45Z</time>
      </trkpt>
      <trkpt lat="47.34107" lon="-1.16119">
        <ele>20.5</ele>
        <time>2014-06-08T08:34:49Z</time>
      </trkpt>
      <trkpt lat="47.34092" lon="-1.1613">
        <ele>20.5</ele>
        <time>2014-06-08T08:34:53Z</time>
      </trkpt>
      <trkpt lat="47.34079" lon="-1.16147">
        <ele>19.5</ele>
        <time>2014-06-08T08:34:58Z</time>
      </trkpt>
      <trkpt lat="47.34067" lon="-1.16171">
        <ele>19.5</ele>
        <time>2014-06-08T08:35:02Z</time>
      </trkpt>
      <trkpt lat="47.34059" lon="-1.16194">
        <ele>20.5</ele>
        <time>2014-06-08T08:35:06Z</time>
      </trkpt>
      <trkpt lat="47.34051" lon="-1.16214">
        <ele>20.5</ele>
        <time>2014-06-08T08:35:10Z</time>
      </trkpt>
      <trkpt lat="47.34044" lon="-1.16234">
        <ele>21.5</ele>
        <time>2014-06-08T08:35:14Z</time>
      </trkpt>
      <trkpt lat="47.34037" lon="-1.16255">
        <ele>23.5</ele>
        <time>2014-06-08T08:35:18Z</time>
      </trkpt>
      <trkpt lat="47.34029" lon="-1.16267">
        <ele>22.5</ele>
        <time>2014-06-08T08:35:21Z</time>
      </trkpt>
      <trkpt lat="47.34014" lon="-1.16282">
        <ele>21.5</ele>
        <time>2014-06-08T08:35:25Z</time>
      </trkpt>
      <trkpt lat="47.33997" lon="-1.16295">
        <ele>20.5</ele>
        <time>2014-06-08T08:35:29Z</time>
      </trkpt>
      <trkpt lat="47.3399" lon="-1.16309">
        <ele>25.5</ele>
        <time>2014-06-08T08:35:33Z</time>
      </trkpt>
      <trkpt lat="47.33978" lon="-1.1631">
        <ele>26.5</ele>
        <time>2014-06-08T08:35:37Z</time>
      </trkpt>
      <trkpt lat="47.33963" lon="-1.16314">
        <ele>24.5</ele>
        <time>2014-06-08T08:35:41Z</time>
      </trkpt>
      <trkpt lat="47.33949" lon="-1.16315">
        <ele>26.5</ele>
        <time>2014-06-08T08:35:45Z</time>
      </trkpt>
      <trkpt lat="47.33925" lon="-1.16314">
        <ele>20.5</ele>
        <time>2014-06-08T08:35:50Z</time>
      </trkpt>
      <trkpt lat="47.33894" lon="-1.16315">
        <ele>12.5</ele>
        <time>2014-06-08T08:35:54Z</time>
      </trkpt>
      <trkpt lat="47.33878" lon="-1.16317">
        <ele>19.5</ele>
        <time>2014-06-08T08:36:06Z</time>
      </trkpt>
      <trkpt lat="47.33866" lon="-1.16322">
        <ele>18.5</ele>
        <time>2014-06-08T08:36:13Z</time>
      </trkpt>
      <trkpt lat="47.33854" lon="-1.16336">
        <ele>24.5</ele>
        <time>2014-06-08T08:36:21Z</time>
      </trkpt>
      <trkpt lat="47.33842" lon="-1.16344">
        <ele>25.5</ele>
        <time>2014-06-08T08:36:25Z</time>
      </trkpt>
      <trkpt lat="47.33826" lon="-1.16357">
        <ele>20.5</ele>
        <time>2014-06-08T08:36:33Z</time>
      </trkpt>
      <trkpt lat="47.33837" lon="-1.16382">
        <ele>22.5</ele>
        <time>2014-06-08T08:36:38Z</time>
      </trkpt>
      <trkpt lat="47.33849" lon="-1.16394">
        <ele>22.5</ele>
        <time>2014-06-08T08:36:42Z</time>
      </trkpt>
      <trkpt lat="47.33867" lon="-1.16386">
        <ele>21.5</ele>
        <time>2014-06-08T08:36:46Z</time>
      </trkpt>
      <trkpt lat="47.33885" lon="-1.16381">
        <ele>21.5</ele>
        <time>2014-06-08T08:36:50Z</time>
      </trkpt>
      <trkpt lat="47.33904" lon="-1.16379">
        <ele>22.5</ele>
        <time>2014-06-08T08:36:54Z</time>
      </trkpt>
      <trkpt lat="47.33921" lon="-1.16388">
        <ele>23.5</ele>
        <time>2014-06-08T08:36:58Z</time>
      </trkpt>
      <trkpt lat="47.33932" lon="-1.16395">
        <ele>24.5</ele>
        <time>2014-06-08T08:37:02Z</time>
      </trkpt>
      <trkpt lat="47.33949" lon="-1.16401">
        <ele>27.5</ele>
        <time>2014-06-08T08:37:09Z</time>
      </trkpt>
      <trkpt lat="47.33967" lon="-1.16407">
        <ele>28.5</ele>
        <time>2014-06-08T08:37:17Z</time>
      </trkpt>
      <trkpt lat="47.33981" lon="-1.16409">
        <ele>33.5</ele>
        <time>2014-06-08T08:37:25Z</time>
      </trkpt>
      <trkpt lat="47.33994" lon="-1.16415">
        <ele>35.5</ele>
        <time>2014-06-08T08:37:34Z</time>
      </trkpt>
      <trkpt lat="47.34004" lon="-1.16417">
        <ele>38.5</ele>
        <time>2014-06-08T08:37:42Z</time>
      </trkpt>
      <trkpt lat="47.34014" lon="-1.16415">
        <ele>38.5</ele>
        <time>2014-06-08T08:37:46Z</time>
      </trkpt>
      <trkpt lat="47.34024" lon="-1.16411">
        <ele>40.5</ele>
        <time>2014-06-08T08:37:53Z</time>
      </trkpt>
      <trkpt lat="47.34034" lon="-1.16408">
        <ele>42.5</ele>
        <time>2014-06-08T08:38:01Z</time>
      </trkpt>
      <trkpt lat="47.34046" lon="-1.16407">
        <ele>43.5</ele>
        <time>2014-06-08T08:38:09Z</time>
      </trkpt>
      <trkpt lat="47.34057" lon="-1.16406">
        <ele>44.5</ele>
        <time>2014-06-08T08:38:17Z</time>
      </trkpt>
      <trkpt lat="47.34068" lon="-1.16403">
        <ele>46.5</ele>
        <time>2014-06-08T08:38:26Z</time>
      </trkpt>
      <trkpt lat="47.34078" lon="-1.164">
        <ele>48.5</ele>
        <time>2014-06-08T08:38:34Z</time>
      </trkpt>
      <trkpt lat="47.34091" lon="-1.16395">
        <ele>54.5</ele>
        <time>2014-06-08T08:38:46Z</time>
      </trkpt>
      <trkpt lat="47.34101" lon="-1.16393">
        <ele>57.5</ele>
        <time>2014-06-08T08:38:57Z</time>
      </trkpt>
      <trkpt lat="47.34113" lon="-1.16402">
        <ele>51.5</ele>
        <time>2014-06-08T08:39:05Z</time>
      </trkpt>
      <trkpt lat="47.34112" lon="-1.16427">
        <ele>51.5</ele>
        <time>2014-06-08T08:39:13Z</time>
      </trkpt>
      <trkpt lat="47.34111" lon="-1.16456">
        <ele>54.5</ele>
        <time>2014-06-08T08:39:22Z</time>
      </trkpt>
      <trkpt lat="47.3411" lon="-1.16469">
        <ele>54.5</ele>
        <time>2014-06-08T08:39:26Z</time>
      </trkpt>
      <trkpt lat="47.34109" lon="-1.16482">
        <ele>56.5</ele>
        <time>2014-06-08T08:39:30Z</time>
      </trkpt>
      <trkpt lat="47.34109" lon="-1.16497">
        <ele>57.5</ele>
        <time>2014-06-08T08:39:34Z</time>
      </trkpt>
      <trkpt lat="47.34109" lon="-1.16514">
        <ele>58.5</ele>
        <time>2014-06-08T08:39:38Z</time>
      </trkpt>
      <trkpt lat="47.34107" lon="-1.16527">
        <ele>57.5</ele>
        <time>2014-06-08T08:39:41Z</time>
      </trkpt>
      <trkpt lat="47.34105" lon="-1.16544">
        <ele>58.5</ele>
        <time>2014-06-08T08:39:45Z</time>
      </trkpt>
      <trkpt lat="47.34105" lon="-1.1656">
        <ele>59.5</ele>
        <time>2014-06-08T08:39:49Z</time>
      </trkpt>
      <trkpt lat="47.34105" lon="-1.16576">
        <ele>61.5</ele>
        <time>2014-06-08T08:39:53Z</time>
      </trkpt>
      <trkpt lat="47.34104" lon="-1.16593">
        <ele>60.5</ele>
        <time>2014-06-08T08:39:57Z</time>
      </trkpt>
      <trkpt lat="47.34101" lon="-1.16609">
        <ele>62.5</ele>
        <time>2014-06-08T08:40:01Z</time>
      </trkpt>
      <trkpt lat="47.34101" lon="-1.16626">
        <ele>61.5</ele>
        <time>2014-06-08T08:40:06Z</time>
      </trkpt>
      <trkpt lat="47.34101" lon="-1.16642">
        <ele>61.5</ele>
        <time>2014-06-08T08:40:10Z</time>
      </trkpt>
      <trkpt lat="47.34099" lon="-1.16657">
        <ele>62.5</ele>
        <time>2014-06-08T08:40:33Z</time>
      </trkpt>
      <trkpt lat="47.34096" lon="-1.16671">
        <ele>59.5</ele>
        <time>2014-06-08T08:44:54Z</time>
      </trkpt>
      <trkpt lat="47.34097" lon="-1.16693">
        <ele>59.5</ele>
        <time>2014-06-08T08:45:01Z</time>
      </trkpt>
      <trkpt lat="47.34101" lon="-1.16709">
        <ele>59.5</ele>
        <time>2014-06-08T08:45:05Z</time>
      </trkpt>
      <trkpt lat="47.34104" lon="-1.16729">
        <ele>60.5</ele>
        <time>2014-06-08T08:45:09Z</time>
      </trkpt>
      <trkpt lat="47.34107" lon="-1.1675">
        <ele>62.5</ele>
        <time>2014-06-08T08:45:13Z</time>
      </trkpt>
      <trkpt lat="47.34125" lon="-1.16759">
        <ele>62.5</ele>
        <time>2014-06-08T08:45:17Z</time>
      </trkpt>
      <trkpt lat="47.34148" lon="-1.16768">
        <ele>61.5</ele>
        <time>2014-06-08T08:45:22Z</time>
      </trkpt>
      <trkpt lat="47.34171" lon="-1.16774">
        <ele>58.5</ele>
        <time>2014-06-08T08:45:26Z</time>
      </trkpt>
      <trkpt lat="47.34199" lon="-1.16773">
        <ele>55.5</ele>
        <time>2014-06-08T08:45:30Z</time>
      </trkpt>
      <trkpt lat="47.34222" lon="-1.16775">
        <ele>53.5</ele>
        <time>2014-06-08T08:45:34Z</time>
      </trkpt>
      <trkpt lat="47.34249" lon="-1.16743">
        <ele>52.5</ele>
        <time>2014-06-08T08:45:38Z</time>
      </trkpt>
      <trkpt lat="47.3426" lon="-1.16708">
        <ele>51.5</ele>
        <time>2014-06-08T08:45:42Z</time>
      </trkpt>
      <trkpt lat="47.34283" lon="-1.167">
        <ele>50.5</ele>
        <time>2014-06-08T08:45:46Z</time>
      </trkpt>
      <trkpt lat="47.34297" lon="-1.16699">
        <ele>49.5</ele>
        <time>2014-06-08T08:45:49Z</time>
      </trkpt>
      <trkpt lat="47.34336" lon="-1.16682">
        <ele>46.5</ele>
        <time>2014-06-08T08:45:53Z</time>
      </trkpt>
      <trkpt lat="47.34362" lon="-1.16661">
        <ele>42.5</ele>
        <time>2014-06-08T08:45:57Z</time>
      </trkpt>
      <trkpt lat="47.34384" lon="-1.16654">
        <ele>38.5</ele>
        <time>2014-06-08T08:46:01Z</time>
      </trkpt>
      <trkpt lat="47.34402" lon="-1.16652">
        <ele>35.5</ele>
        <time>2014-06-08T08:46:05Z</time>
      </trkpt>
      <trkpt lat="47.34416" lon="-1.16653">
        <ele>35.5</ele>
        <time>2014-06-08T08:46:09Z</time>
      </trkpt>
      <trkpt lat="47.3442" lon="-1.16671">
        <ele>42.5</ele>
        <time>2014-06-08T08:46:14Z</time>
      </trkpt>
      <trkpt lat="47.34428" lon="-1.16696">
        <ele>38.5</ele>
        <time>2014-06-08T08:46:18Z</time>
      </trkpt>
      <trkpt lat="47.34433" lon="-1.16714">
        <ele>36.5</ele>
        <time>2014-06-08T08:46:22Z</time>
      </trkpt>
      <trkpt lat="47.34441" lon="-1.16757">
        <ele>33.5</ele>
        <time>2014-06-08T08:46:26Z</time>
      </trkpt>
      <trkpt lat="47.34447" lon="-1.16792">
        <ele>30.5</ele>
        <time>2014-06-08T08:46:30Z</time>
      </trkpt>
      <trkpt lat="47.34463" lon="-1.16794">
        <ele>28.5</ele>
        <time>2014-06-08T08:46:34Z</time>
      </trkpt>
      <trkpt lat="47.34487" lon="-1.16792">
        <ele>26.5</ele>
        <time>2014-06-08T08:46:38Z</time>
      </trkpt>
      <trkpt lat="47.345" lon="-1.16785">
        <ele>26.5</ele>
        <time>2014-06-08T08:46:41Z</time>
      </trkpt>
      <trkpt lat="47.3451" lon="-1.1679">
        <ele>24.5</ele>
        <time>2014-06-08T08:46:45Z</time>
      </trkpt>
      <trkpt lat="47.34517" lon="-1.16808">
        <ele>23.5</ele>
        <time>2014-06-08T08:46:49Z</time>
      </trkpt>
      <trkpt lat="47.34515" lon="-1.16854">
        <ele>23.5</ele>
        <time>2014-06-08T08:46:57Z</time>
      </trkpt>
      <trkpt lat="47.3452" lon="-1.16885">
        <ele>21.5</ele>
        <time>2014-06-08T08:47:01Z</time>
      </trkpt>
      <trkpt lat="47.34521" lon="-1.16923">
        <ele>19.5</ele>
        <time>2014-06-08T08:47:06Z</time>
      </trkpt>
      <trkpt lat="47.34527" lon="-1.16958">
        <ele>20.5</ele>
        <time>2014-06-08T08:47:10Z</time>
      </trkpt>
      <trkpt lat="47.34528" lon="-1.16994">
        <ele>20.5</ele>
        <time>2014-06-08T08:47:14Z</time>
      </trkpt>
      <trkpt lat="47.34526" lon="-1.17029">
        <ele>21.5</ele>
        <time>2014-06-08T08:47:18Z</time>
      </trkpt>
      <trkpt lat="47.34521" lon="-1.17067">
        <ele>19.5</ele>
        <time>2014-06-08T08:47:22Z</time>
      </trkpt>
      <trkpt lat="47.3452" lon="-1.17097">
        <ele>16.5</ele>
        <time>2014-06-08T08:47:25Z</time>
      </trkpt>
      <trkpt lat="47.34519" lon="-1.17133">
        <ele>18.5</ele>
        <time>2014-06-08T08:47:29Z</time>
      </trkpt>
      <trkpt lat="47.34506" lon="-1.17141">
        <ele>19.5</ele>
        <time>2014-06-08T08:47:33Z</time>
      </trkpt>
      <trkpt lat="47.34492" lon="-1.17139">
        <ele>17.5</ele>
        <time>2014-06-08T08:47:41Z</time>
      </trkpt>
      <trkpt lat="47.34474" lon="-1.17142">
        <ele>21.5</ele>
        <time>2014-06-08T08:47:50Z</time>
      </trkpt>
      <trkpt lat="47.34465" lon="-1.17143">
        <ele>22.5</ele>
        <time>2014-06-08T08:47:54Z</time>
      </trkpt>
      <trkpt lat="47.34447" lon="-1.17148">
        <ele>24.5</ele>
        <time>2014-06-08T08:48:02Z</time>
      </trkpt>
      <trkpt lat="47.34437" lon="-1.1715">
        <ele>24.5</ele>
        <time>2014-06-08T08:48:06Z</time>
      </trkpt>
      <trkpt lat="47.34427" lon="-1.17151">
        <ele>20.5</ele>
        <time>2014-06-08T08:48:10Z</time>
      </trkpt>
      <trkpt lat="47.34416" lon="-1.17152">
        <ele>20.5</ele>
        <time>2014-06-08T08:48:14Z</time>
      </trkpt>
      <trkpt lat="47.34403" lon="-1.17152">
        <ele>26.5</ele>
        <time>2014-06-08T08:48:21Z</time>
      </trkpt>
      <trkpt lat="47.34394" lon="-1.17154">
        <ele>26.5</ele>
        <time>2014-06-08T08:48:25Z</time>
      </trkpt>
      <trkpt lat="47.34378" lon="-1.17159">
        <ele>29.5</ele>
        <time>2014-06-08T08:48:33Z</time>
      </trkpt>
      <trkpt lat="47.34361" lon="-1.17164">
        <ele>31.5</ele>
        <time>2014-06-08T08:48:41Z</time>
      </trkpt>
      <trkpt lat="47.34351" lon="-1.17154">
        <ele>34.5</ele>
        <time>2014-06-08T08:48:50Z</time>
      </trkpt>
      <trkpt lat="47.3434" lon="-1.17144">
        <ele>34.5</ele>
        <time>2014-06-08T08:49:02Z</time>
      </trkpt>
      <trkpt lat="47.34327" lon="-1.17142">
        <ele>35.5</ele>
        <time>2014-06-08T08:49:09Z</time>
      </trkpt>
      <trkpt lat="47.34316" lon="-1.17143">
        <ele>35.5</ele>
        <time>2014-06-08T08:49:17Z</time>
      </trkpt>
      <trkpt lat="47.34301" lon="-1.17148">
        <ele>36.5</ele>
        <time>2014-06-08T08:49:25Z</time>
      </trkpt>
      <trkpt lat="47.34284" lon="-1.17151">
        <ele>39.5</ele>
        <time>2014-06-08T08:49:34Z</time>
      </trkpt>
      <trkpt lat="47.34265" lon="-1.17164">
        <ele>40.5</ele>
        <time>2014-06-08T08:49:42Z</time>
      </trkpt>
      <trkpt lat="47.34256" lon="-1.17176">
        <ele>39.5</ele>
        <time>2014-06-08T08:49:46Z</time>
      </trkpt>
      <trkpt lat="47.3425" lon="-1.17187">
        <ele>42.5</ele>
        <time>2014-06-08T08:49:50Z</time>
      </trkpt>
      <trkpt lat="47.34244" lon="-1.17198">
        <ele>43.5</ele>
        <time>2014-06-08T08:49:54Z</time>
      </trkpt>
      <trkpt lat="47.3423" lon="-1.17211">
        <ele>47.5</ele>
        <time>2014-06-08T08:50:01Z</time>
      </trkpt>
      <trkpt lat="47.34223" lon="-1.1722">
        <ele>48.5</ele>
        <time>2014-06-08T08:50:05Z</time>
      </trkpt>
      <trkpt lat="47.3422" lon="-1.17234">
        <ele>50.5</ele>
        <time>2014-06-08T08:50:09Z</time>
      </trkpt>
      <trkpt lat="47.34216" lon="-1.17247">
        <ele>51.5</ele>
        <time>2014-06-08T08:50:13Z</time>
      </trkpt>
      <trkpt lat="47.34206" lon="-1.17266">
        <ele>52.5</ele>
        <time>2014-06-08T08:50:21Z</time>
      </trkpt>
      <trkpt lat="47.34198" lon="-1.17274">
        <ele>53.5</ele>
        <time>2014-06-08T08:50:26Z</time>
      </trkpt>
      <trkpt lat="47.34188" lon="-1.17286">
        <ele>54.5</ele>
        <time>2014-06-08T08:50:34Z</time>
      </trkpt>
      <trkpt lat="47.34177" lon="-1.17291">
        <ele>56.5</ele>
        <time>2014-06-08T08:50:42Z</time>
      </trkpt>
      <trkpt lat="47.34167" lon="-1.1729">
        <ele>56.5</ele>
        <time>2014-06-08T08:50:49Z</time>
      </trkpt>
      <trkpt lat="47.34154" lon="-1.17285">
        <ele>55.5</ele>
        <time>2014-06-08T08:50:57Z</time>
      </trkpt>
      <trkpt lat="47.34141" lon="-1.17277">
        <ele>54.5</ele>
        <time>2014-06-08T08:51:05Z</time>
      </trkpt>
      <trkpt lat="47.34126" lon="-1.1728">
        <ele>56.5</ele>
        <time>2014-06-08T08:51:14Z</time>
      </trkpt>
      <trkpt lat="47.34128" lon="-1.17294">
        <ele>57.5</ele>
        <time>2014-06-08T08:51:18Z</time>
      </trkpt>
      <trkpt lat="47.34131" lon="-1.1731">
        <ele>59.5</ele>
        <time>2014-06-08T08:51:22Z</time>
      </trkpt>
      <trkpt lat="47.34135" lon="-1.17326">
        <ele>61.5</ele>
        <time>2014-06-08T08:51:26Z</time>
      </trkpt>
      <trkpt lat="47.3414" lon="-1.17341">
        <ele>62.5</ele>
        <time>2014-06-08T08:51:30Z</time>
      </trkpt>
      <trkpt lat="47.34152" lon="-1.17366">
        <ele>63.5</ele>
        <time>2014-06-08T08:51:37Z</time>
      </trkpt>
      <trkpt lat="47.34158" lon="-1.17383">
        <ele>64.5</ele>
        <time>2014-06-08T08:51:41Z</time>
      </trkpt>
      <trkpt lat="47.34165" lon="-1.17398">
        <ele>64.5</ele>
        <time>2014-06-08T08:51:45Z</time>
      </trkpt>
      <trkpt lat="47.34172" lon="-1.17415">
        <ele>64.5</ele>
        <time>2014-06-08T08:51:49Z</time>
      </trkpt>
      <trkpt lat="47.34176" lon="-1.17433">
        <ele>64.5</ele>
        <time>2014-06-08T08:51:53Z</time>
      </trkpt>
      <trkpt lat="47.34181" lon="-1.1746">
        <ele>64.5</ele>
        <time>2014-06-08T08:51:58Z</time>
      </trkpt>
      <trkpt lat="47.34182" lon="-1.17485">
        <ele>65.5</ele>
        <time>2014-06-08T08:52:02Z</time>
      </trkpt>
      <trkpt lat="47.34179" lon="-1.17513">
        <ele>64.5</ele>
        <time>2014-06-08T08:52:06Z</time>
      </trkpt>
      <trkpt lat="47.34175" lon="-1.17546">
        <ele>63.5</ele>
        <time>2014-06-08T08:52:10Z</time>
      </trkpt>
      <trkpt lat="47.3417" lon="-1.17579">
        <ele>62.5</ele>
        <time>2014-06-08T08:52:14Z</time>
      </trkpt>
      <trkpt lat="47.34164" lon="-1.17615">
        <ele>61.5</ele>
        <time>2014-06-08T08:52:18Z</time>
      </trkpt>
      <trkpt lat="47.34159" lon="-1.17643">
        <ele>61.5</ele>
        <time>2014-06-08T08:52:21Z</time>
      </trkpt>
      <trkpt lat="47.34156" lon="-1.17683">
        <ele>61.5</ele>
        <time>2014-06-08T08:52:25Z</time>
      </trkpt>
      <trkpt lat="47.34169" lon="-1.17694">
        <ele>60.5</ele>
        <time>2014-06-08T08:52:29Z</time>
      </trkpt>
      <trkpt lat="47.34192" lon="-1.17683">
        <ele>59.5</ele>
        <time>2014-06-08T08:52:33Z</time>
      </trkpt>
      <trkpt lat="47.34233" lon="-1.17695">
        <ele>56.5</ele>
        <time>2014-06-08T08:52:37Z</time>
      </trkpt>
      <trkpt lat="47.34265" lon="-1.17706">
        <ele>53.5</ele>
        <time>2014-06-08T08:52:41Z</time>
      </trkpt>
      <trkpt lat="47.343" lon="-1.17694">
        <ele>46.5</ele>
        <time>2014-06-08T08:52:46Z</time>
      </trkpt>
      <trkpt lat="47.34339" lon="-1.17684">
        <ele>42.5</ele>
        <time>2014-06-08T08:52:50Z</time>
      </trkpt>
      <trkpt lat="47.34375" lon="-1.17678">
        <ele>41.5</ele>
        <time>2014-06-08T08:52:54Z</time>
      </trkpt>
      <trkpt lat="47.34412" lon="-1.17659">
        <ele>35.5</ele>
        <time>2014-06-08T08:52:58Z</time>
      </trkpt>
      <trkpt lat="47.34453" lon="-1.17645">
        <ele>29.5</ele>
        <time>2014-06-08T08:53:02Z</time>
      </trkpt>
      <trkpt lat="47.34485" lon="-1.17636">
        <ele>26.5</ele>
        <time>2014-06-08T08:53:06Z</time>
      </trkpt>
      <trkpt lat="47.34495" lon="-1.17633">
        <ele>24.5</ele>
        <time>2014-06-08T08:53:14Z</time>
      </trkpt>
      <trkpt lat="47.34501" lon="-1.17659">
        <ele>22.5</ele>
        <time>2014-06-08T08:53:25Z</time>
      </trkpt>
      <trkpt lat="47.34502" lon="-1.17693">
        <ele>20.5</ele>
        <time>2014-06-08T08:53:29Z</time>
      </trkpt>
      <trkpt lat="47.34501" lon="-1.17726">
        <ele>18.5</ele>
        <time>2014-06-08T08:53:33Z</time>
      </trkpt>
      <trkpt lat="47.345" lon="-1.17769">
        <ele>18.5</ele>
        <time>2014-06-08T08:53:37Z</time>
      </trkpt>
      <trkpt lat="47.34499" lon="-1.17804">
        <ele>17.5</ele>
        <time>2014-06-08T08:53:42Z</time>
      </trkpt>
      <trkpt lat="47.34492" lon="-1.17828">
        <ele>17.5</ele>
        <time>2014-06-08T08:53:46Z</time>
      </trkpt>
      <trkpt lat="47.34484" lon="-1.17846">
        <ele>17.5</ele>
        <time>2014-06-08T08:53:50Z</time>
      </trkpt>
      <trkpt lat="47.34477" lon="-1.17858">
        <ele>16.5</ele>
        <time>2014-06-08T08:53:54Z</time>
      </trkpt>
      <trkpt lat="47.3447" lon="-1.17871">
        <ele>18.5</ele>
        <time>2014-06-08T08:54:02Z</time>
      </trkpt>
      <trkpt lat="47.34463" lon="-1.17888">
        <ele>22.5</ele>
        <time>2014-06-08T08:54:09Z</time>
      </trkpt>
      <trkpt lat="47.34456" lon="-1.17901">
        <ele>26.5</ele>
        <time>2014-06-08T08:54:17Z</time>
      </trkpt>
      <trkpt lat="47.34446" lon="-1.17913">
        <ele>23.5</ele>
        <time>2014-06-08T08:54:29Z</time>
      </trkpt>
      <trkpt lat="47.34437" lon="-1.17921">
        <ele>35.5</ele>
        <time>2014-06-08T08:55:01Z</time>
      </trkpt>
      <trkpt lat="47.34427" lon="-1.1792">
        <ele>36.5</ele>
        <time>2014-06-08T08:55:09Z</time>
      </trkpt>
      <trkpt lat="47.34416" lon="-1.17914">
        <ele>37.5</ele>
        <time>2014-06-08T08:55:21Z</time>
      </trkpt>
      <trkpt lat="47.34407" lon="-1.17907">
        <ele>39.5</ele>
        <time>2014-06-08T08:55:34Z</time>
      </trkpt>
      <trkpt lat="47.34396" lon="-1.17898">
        <ele>42.5</ele>
        <time>2014-06-08T08:55:46Z</time>
      </trkpt>
      <trkpt lat="47.34387" lon="-1.17891">
        <ele>44.5</ele>
        <time>2014-06-08T08:55:57Z</time>
      </trkpt>
      <trkpt lat="47.34377" lon="-1.17885">
        <ele>46.5</ele>
        <time>2014-06-08T08:56:09Z</time>
      </trkpt>
      <trkpt lat="47.34367" lon="-1.17881">
        <ele>46.5</ele>
        <time>2014-06-08T08:56:26Z</time>
      </trkpt>
      <trkpt lat="47.34354" lon="-1.17877">
        <ele>48.5</ele>
        <time>2014-06-08T08:56:38Z</time>
      </trkpt>
      <trkpt lat="47.34341" lon="-1.17876">
        <ele>49.5</ele>
        <time>2014-06-08T08:57:01Z</time>
      </trkpt>
      <trkpt lat="47.34329" lon="-1.17876">
        <ele>51.5</ele>
        <time>2014-06-08T08:57:10Z</time>
      </trkpt>
      <trkpt lat="47.34318" lon="-1.17879">
        <ele>53.5</ele>
        <time>2014-06-08T08:57:18Z</time>
      </trkpt>
      <trkpt lat="47.34307" lon="-1.17879">
        <ele>55.5</ele>
        <time>2014-06-08T08:57:26Z</time>
      </trkpt>
      <trkpt lat="47.34298" lon="-1.17878">
        <ele>55.5</ele>
        <time>2014-06-08T08:57:33Z</time>
      </trkpt>
      <trkpt lat="47.34286" lon="-1.17872">
        <ele>56.5</ele>
        <time>2014-06-08T08:57:41Z</time>
      </trkpt>
      <trkpt lat="47.34274" lon="-1.1787">
        <ele>58.5</ele>
        <time>2014-06-08T08:57:49Z</time>
      </trkpt>
      <trkpt lat="47.3426" lon="-1.17868">
        <ele>58.5</ele>
        <time>2014-06-08T08:57:57Z</time>
      </trkpt>
      <trkpt lat="47.34248" lon="-1.17868">
        <ele>60.5</ele>
        <time>2014-06-08T08:58:06Z</time>
      </trkpt>
      <trkpt lat="47.34235" lon="-1.17869">
        <ele>61.5</ele>
        <time>2014-06-08T08:58:14Z</time>
      </trkpt>
      <trkpt lat="47.34226" lon="-1.17869">
        <ele>62.5</ele>
        <time>2014-06-08T08:58:18Z</time>
      </trkpt>
      <trkpt lat="47.34205" lon="-1.1787">
        <ele>63.5</ele>
        <time>2014-06-08T08:58:29Z</time>
      </trkpt>
      <trkpt lat="47.34189" lon="-1.17876">
        <ele>65.5</ele>
        <time>2014-06-08T08:58:37Z</time>
      </trkpt>
      <trkpt lat="47.34174" lon="-1.17885">
        <ele>67.5</ele>
        <time>2014-06-08T08:58:45Z</time>
      </trkpt>
      <trkpt lat="47.34163" lon="-1.17892">
        <ele>67.5</ele>
        <time>2014-06-08T08:58:49Z</time>
      </trkpt>
      <trkpt lat="47.34154" lon="-1.17897">
        <ele>68.5</ele>
        <time>2014-06-08T08:58:54Z</time>
      </trkpt>
      <trkpt lat="47.34145" lon="-1.17907">
        <ele>69.5</ele>
        <time>2014-06-08T08:58:58Z</time>
      </trkpt>
      <trkpt lat="47.34136" lon="-1.17923">
        <ele>69.5</ele>
        <time>2014-06-08T08:59:02Z</time>
      </trkpt>
      <trkpt lat="47.34127" lon="-1.1794">
        <ele>70.5</ele>
        <time>2014-06-08T08:59:06Z</time>
      </trkpt>
      <trkpt lat="47.34118" lon="-1.17958">
        <ele>70.5</ele>
        <time>2014-06-08T08:59:10Z</time>
      </trkpt>
      <trkpt lat="47.34108" lon="-1.17977">
        <ele>69.5</ele>
        <time>2014-06-08T08:59:14Z</time>
      </trkpt>
      <trkpt lat="47.34098" lon="-1.18">
        <ele>69.5</ele>
        <time>2014-06-08T08:59:18Z</time>
      </trkpt>
      <trkpt lat="47.34091" lon="-1.18014">
        <ele>70.5</ele>
        <time>2014-06-08T08:59:21Z</time>
      </trkpt>
      <trkpt lat="47.3408" lon="-1.18034">
        <ele>70.5</ele>
        <time>2014-06-08T08:59:25Z</time>
      </trkpt>
      <trkpt lat="47.34069" lon="-1.18056">
        <ele>70.5</ele>
        <time>2014-06-08T08:59:29Z</time>
      </trkpt>
      <trkpt lat="47.34058" lon="-1.18075">
        <ele>69.5</ele>
        <time>2014-06-08T08:59:33Z</time>
      </trkpt>
      <trkpt lat="47.34047" lon="-1.18098">
        <ele>70.5</ele>
        <time>2014-06-08T08:59:37Z</time>
      </trkpt>
      <trkpt lat="47.34038" lon="-1.18121">
        <ele>70.5</ele>
        <time>2014-06-08T08:59:41Z</time>
      </trkpt>
      <trkpt lat="47.34018" lon="-1.18135">
        <ele>68.5</ele>
        <time>2014-06-08T08:59:46Z</time>
      </trkpt>
      <trkpt lat="47.34003" lon="-1.18133">
        <ele>68.5</ele>
        <time>2014-06-08T08:59:50Z</time>
      </trkpt>
      <trkpt lat="47.33993" lon="-1.18126">
        <ele>72.5</ele>
        <time>2014-06-08T08:59:54Z</time>
      </trkpt>
      <trkpt lat="47.33983" lon="-1.18124">
        <ele>77.5</ele>
        <time>2014-06-08T08:59:58Z</time>
      </trkpt>
      <trkpt lat="47.33968" lon="-1.1812">
        <ele>78.5</ele>
        <time>2014-06-08T09:00:02Z</time>
      </trkpt>
      <trkpt lat="47.3395" lon="-1.18116">
        <ele>74.5</ele>
        <time>2014-06-08T09:00:06Z</time>
      </trkpt>
      <trkpt lat="47.33933" lon="-1.18113">
        <ele>75.5</ele>
        <time>2014-06-08T09:00:09Z</time>
      </trkpt>
      <trkpt lat="47.3391" lon="-1.18097">
        <ele>75.5</ele>
        <time>2014-06-08T09:00:17Z</time>
      </trkpt>
      <trkpt lat="47.33892" lon="-1.1809">
        <ele>76.5</ele>
        <time>2014-06-08T09:00:21Z</time>
      </trkpt>
      <trkpt lat="47.33879" lon="-1.18091">
        <ele>79.5</ele>
        <time>2014-06-08T09:00:25Z</time>
      </trkpt>
      <trkpt lat="47.33863" lon="-1.18095">
        <ele>75.5</ele>
        <time>2014-06-08T09:00:29Z</time>
      </trkpt>
      <trkpt lat="47.33839" lon="-1.18085">
        <ele>74.5</ele>
        <time>2014-06-08T09:00:34Z</time>
      </trkpt>
      <trkpt lat="47.33827" lon="-1.18083">
        <ele>72.5</ele>
        <time>2014-06-08T09:00:38Z</time>
      </trkpt>
      <trkpt lat="47.33798" lon="-1.18076">
        <ele>74.5</ele>
        <time>2014-06-08T09:00:46Z</time>
      </trkpt>
      <trkpt lat="47.33778" lon="-1.18068">
        <ele>74.5</ele>
        <time>2014-06-08T09:00:50Z</time>
      </trkpt>
      <trkpt lat="47.3376" lon="-1.18066">
        <ele>75.5</ele>
        <time>2014-06-08T09:00:54Z</time>
      </trkpt>
      <trkpt lat="47.33745" lon="-1.18062">
        <ele>73.5</ele>
        <time>2014-06-08T09:00:58Z</time>
      </trkpt>
      <trkpt lat="47.33731" lon="-1.18056">
        <ele>74.5</ele>
        <time>2014-06-08T09:01:01Z</time>
      </trkpt>
      <trkpt lat="47.33707" lon="-1.18049">
        <ele>73.5</ele>
        <time>2014-06-08T09:01:05Z</time>
      </trkpt>
      <trkpt lat="47.33686" lon="-1.18043">
        <ele>72.5</ele>
        <time>2014-06-08T09:01:09Z</time>
      </trkpt>
      <trkpt lat="47.33665" lon="-1.18041">
        <ele>75.5</ele>
        <time>2014-06-08T09:01:13Z</time>
      </trkpt>
      <trkpt lat="47.33646" lon="-1.18035">
        <ele>74.5</ele>
        <time>2014-06-08T09:01:17Z</time>
      </trkpt>
      <trkpt lat="47.3363" lon="-1.18033">
        <ele>72.5</ele>
        <time>2014-06-08T09:01:21Z</time>
      </trkpt>
      <trkpt lat="47.33604" lon="-1.18025">
        <ele>71.5</ele>
        <time>2014-06-08T09:01:25Z</time>
      </trkpt>
      <trkpt lat="47.3358" lon="-1.18018">
        <ele>70.5</ele>
        <time>2014-06-08T09:01:29Z</time>
      </trkpt>
      <trkpt lat="47.33563" lon="-1.18013">
        <ele>71.5</ele>
        <time>2014-06-08T09:01:34Z</time>
      </trkpt>
      <trkpt lat="47.33542" lon="-1.18008">
        <ele>70.5</ele>
        <time>2014-06-08T09:01:38Z</time>
      </trkpt>
      <trkpt lat="47.33515" lon="-1.18004">
        <ele>68.5</ele>
        <time>2014-06-08T09:01:42Z</time>
      </trkpt>
      <trkpt lat="47.33495" lon="-1.17994">
        <ele>67.5</ele>
        <time>2014-06-08T09:01:46Z</time>
      </trkpt>
      <trkpt lat="47.33478" lon="-1.17988">
        <ele>66.5</ele>
        <time>2014-06-08T09:01:50Z</time>
      </trkpt>
      <trkpt lat="47.3347" lon="-1.17996">
        <ele>65.5</ele>
        <time>2014-06-08T09:02:05Z</time>
      </trkpt>
      <trkpt lat="47.33463" lon="-1.18014">
        <ele>63.5</ele>
        <time>2014-06-08T09:02:21Z</time>
      </trkpt>
      <trkpt lat="47.33457" lon="-1.18032">
        <ele>65.5</ele>
        <time>2014-06-08T09:02:25Z</time>
      </trkpt>
      <trkpt lat="47.33454" lon="-1.18045">
        <ele>65.5</ele>
        <time>2014-06-08T09:02:29Z</time>
      </trkpt>
      <trkpt lat="47.33458" lon="-1.18071">
        <ele>64.5</ele>
        <time>2014-06-08T09:02:34Z</time>
      </trkpt>
      <trkpt lat="47.33463" lon="-1.18089">
        <ele>62.5</ele>
        <time>2014-06-08T09:02:38Z</time>
      </trkpt>
      <trkpt lat="47.33469" lon="-1.18105">
        <ele>64.5</ele>
        <time>2014-06-08T09:02:42Z</time>
      </trkpt>
      <trkpt lat="47.33473" lon="-1.18118">
        <ele>64.5</ele>
        <time>2014-06-08T09:02:46Z</time>
      </trkpt>
      <trkpt lat="47.33483" lon="-1.18143">
        <ele>66.5</ele>
        <time>2014-06-08T09:02:50Z</time>
      </trkpt>
      <trkpt lat="47.33492" lon="-1.18163">
        <ele>67.5</ele>
        <time>2014-06-08T09:02:54Z</time>
      </trkpt>
      <trkpt lat="47.33509" lon="-1.18204">
        <ele>67.5</ele>
        <time>2014-06-08T09:03:01Z</time>
      </trkpt>
      <trkpt lat="47.33519" lon="-1.18228">
        <ele>66.5</ele>
        <time>2014-06-08T09:03:05Z</time>
      </trkpt>
      <trkpt lat="47.33529" lon="-1.18254">
        <ele>65.5</ele>
        <time>2014-06-08T09:03:09Z</time>
      </trkpt>
      <trkpt lat="47.33538" lon="-1.18279">
        <ele>65.5</ele>
        <time>2014-06-08T09:03:13Z</time>
      </trkpt>
      <trkpt lat="47.33548" lon="-1.18303">
        <ele>65.5</ele>
        <time>2014-06-08T09:03:17Z</time>
      </trkpt>
      <trkpt lat="47.33564" lon="-1.18332">
        <ele>65.5</ele>
        <time>2014-06-08T09:03:21Z</time>
      </trkpt>
      <trkpt lat="47.33577" lon="-1.18343">
        <ele>62.5</ele>
        <time>2014-06-08T09:03:25Z</time>
      </trkpt>
      <trkpt lat="47.33599" lon="-1.18334">
        <ele>70.5</ele>
        <time>2014-06-08T09:03:34Z</time>
      </trkpt>
      <trkpt lat="47.33612" lon="-1.18341">
        <ele>72.5</ele>
        <time>2014-06-08T09:03:38Z</time>
      </trkpt>
      <trkpt lat="47.33617" lon="-1.18364">
        <ele>71.5</ele>
        <time>2014-06-08T09:03:42Z</time>
      </trkpt>
      <trkpt lat="47.33622" lon="-1.18388">
        <ele>71.5</ele>
        <time>2014-06-08T09:03:46Z</time>
      </trkpt>
      <trkpt lat="47.33629" lon="-1.18409">
        <ele>70.5</ele>
        <time>2014-06-08T09:03:50Z</time>
      </trkpt>
      <trkpt lat="47.33637" lon="-1.18429">
        <ele>70.5</ele>
        <time>2014-06-08T09:03:54Z</time>
      </trkpt>
      <trkpt lat="47.33653" lon="-1.18463">
        <ele>69.5</ele>
        <time>2014-06-08T09:04:01Z</time>
      </trkpt>
      <trkpt lat="47.33663" lon="-1.18483">
        <ele>70.5</ele>
        <time>2014-06-08T09:04:05Z</time>
      </trkpt>
      <trkpt lat="47.33676" lon="-1.185">
        <ele>70.5</ele>
        <time>2014-06-08T09:04:09Z</time>
      </trkpt>
      <trkpt lat="47.33696" lon="-1.18498">
        <ele>71.5</ele>
        <time>2014-06-08T09:04:13Z</time>
      </trkpt>
      <trkpt lat="47.33717" lon="-1.18488">
        <ele>70.5</ele>
        <time>2014-06-08T09:04:17Z</time>
      </trkpt>
      <trkpt lat="47.33732" lon="-1.18479">
        <ele>71.5</ele>
        <time>2014-06-08T09:04:21Z</time>
      </trkpt>
      <trkpt lat="47.33743" lon="-1.18463">
        <ele>73.5</ele>
        <time>2014-06-08T09:04:26Z</time>
      </trkpt>
      <trkpt lat="47.33753" lon="-1.18464">
        <ele>74.5</ele>
        <time>2014-06-08T09:04:30Z</time>
      </trkpt>
      <trkpt lat="47.33747" lon="-1.1849">
        <ele>71.5</ele>
        <time>2014-06-08T09:04:34Z</time>
      </trkpt>
      <trkpt lat="47.33725" lon="-1.18519">
        <ele>71.5</ele>
        <time>2014-06-08T09:04:38Z</time>
      </trkpt>
      <trkpt lat="47.3371" lon="-1.18543">
        <ele>70.5</ele>
        <time>2014-06-08T09:04:42Z</time>
      </trkpt>
      <trkpt lat="47.33695" lon="-1.18567">
        <ele>68.5</ele>
        <time>2014-06-08T09:04:46Z</time>
      </trkpt>
      <trkpt lat="47.33681" lon="-1.18588">
        <ele>66.5</ele>
        <time>2014-06-08T09:04:49Z</time>
      </trkpt>
      <trkpt lat="47.33677" lon="-1.1863">
        <ele>64.5</ele>
        <time>2014-06-08T09:04:53Z</time>
      </trkpt>
      <trkpt lat="47.33671" lon="-1.1868">
        <ele>60.5</ele>
        <time>2014-06-08T09:04:57Z</time>
      </trkpt>
      <trkpt lat="47.3365" lon="-1.18716">
        <ele>58.5</ele>
        <time>2014-06-08T09:05:01Z</time>
      </trkpt>
      <trkpt lat="47.33618" lon="-1.18726">
        <ele>56.5</ele>
        <time>2014-06-08T09:05:05Z</time>
      </trkpt>
      <trkpt lat="47.33592" lon="-1.1873">
        <ele>53.5</ele>
        <time>2014-06-08T09:05:09Z</time>
      </trkpt>
      <trkpt lat="47.33561" lon="-1.18766">
        <ele>49.5</ele>
        <time>2014-06-08T09:05:13Z</time>
      </trkpt>
      <trkpt lat="47.33538" lon="-1.18803">
        <ele>50.5</ele>
        <time>2014-06-08T09:05:18Z</time>
      </trkpt>
      <trkpt lat="47.33511" lon="-1.18838">
        <ele>48.5</ele>
        <time>2014-06-08T09:05:22Z</time>
      </trkpt>
      <trkpt lat="47.3349" lon="-1.18869">
        <ele>47.5</ele>
        <time>2014-06-08T09:05:26Z</time>
      </trkpt>
      <trkpt lat="47.33491" lon="-1.18898">
        <ele>40.5</ele>
        <time>2014-06-08T09:05:30Z</time>
      </trkpt>
      <trkpt lat="47.33515" lon="-1.18912">
        <ele>40.5</ele>
        <time>2014-06-08T09:05:34Z</time>
      </trkpt>
      <trkpt lat="47.33538" lon="-1.18921">
        <ele>37.5</ele>
        <time>2014-06-08T09:05:38Z</time>
      </trkpt>
      <trkpt lat="47.33553" lon="-1.1892">
        <ele>34.5</ele>
        <time>2014-06-08T09:05:41Z</time>
      </trkpt>
      <trkpt lat="47.33573" lon="-1.18926">
        <ele>34.5</ele>
        <time>2014-06-08T09:05:45Z</time>
      </trkpt>
      <trkpt lat="47.33596" lon="-1.18927">
        <ele>31.5</ele>
        <time>2014-06-08T09:05:49Z</time>
      </trkpt>
      <trkpt lat="47.33609" lon="-1.18922">
        <ele>29.5</ele>
        <time>2014-06-08T09:05:53Z</time>
      </trkpt>
      <trkpt lat="47.33621" lon="-1.18917">
        <ele>30.5</ele>
        <time>2014-06-08T09:05:57Z</time>
      </trkpt>
      <trkpt lat="47.33636" lon="-1.18924">
        <ele>27.5</ele>
        <time>2014-06-08T09:06:01Z</time>
      </trkpt>
      <trkpt lat="47.33666" lon="-1.18933">
        <ele>26.5</ele>
        <time>2014-06-08T09:06:05Z</time>
      </trkpt>
      <trkpt lat="47.3369" lon="-1.1894">
        <ele>27.5</ele>
        <time>2014-06-08T09:06:09Z</time>
      </trkpt>
      <trkpt lat="47.33707" lon="-1.18944">
        <ele>28.5</ele>
        <time>2014-06-08T09:06:14Z</time>
      </trkpt>
      <trkpt lat="47.33731" lon="-1.1895">
        <ele>25.5</ele>
        <time>2014-06-08T09:06:18Z</time>
      </trkpt>
      <trkpt lat="47.33757" lon="-1.18962">
        <ele>22.5</ele>
        <time>2014-06-08T09:06:22Z</time>
      </trkpt>
      <trkpt lat="47.33771" lon="-1.18968">
        <ele>22.5</ele>
        <time>2014-06-08T09:06:26Z</time>
      </trkpt>
      <trkpt lat="47.33781" lon="-1.18987">
        <ele>22.5</ele>
        <time>2014-06-08T09:06:41Z</time>
      </trkpt>
      <trkpt lat="47.33774" lon="-1.19009">
        <ele>26.5</ele>
        <time>2014-06-08T09:06:49Z</time>
      </trkpt>
      <trkpt lat="47.3377" lon="-1.19027">
        <ele>20.5</ele>
        <time>2014-06-08T09:06:53Z</time>
      </trkpt>
      <trkpt lat="47.33764" lon="-1.19048">
        <ele>18.5</ele>
        <time>2014-06-08T09:07:01Z</time>
      </trkpt>
      <trkpt lat="47.33761" lon="-1.19061">
        <ele>18.5</ele>
        <time>2014-06-08T09:07:10Z</time>
      </trkpt>
      <trkpt lat="47.33762" lon="-1.19078">
        <ele>21.5</ele>
        <time>2014-06-08T09:07:14Z</time>
      </trkpt>
      <trkpt lat="47.33764" lon="-1.19097">
        <ele>22.5</ele>
        <time>2014-06-08T09:07:22Z</time>
      </trkpt>
      <trkpt lat="47.33761" lon="-1.19116">
        <ele>24.5</ele>
        <time>2014-06-08T09:07:30Z</time>
      </trkpt>
      <trkpt lat="47.33757" lon="-1.1913">
        <ele>27.5</ele>
        <time>2014-06-08T09:07:37Z</time>
      </trkpt>
      <trkpt lat="47.33751" lon="-1.19148">
        <ele>27.5</ele>
        <time>2014-06-08T09:07:45Z</time>
      </trkpt>
      <trkpt lat="47.33744" lon="-1.19165">
        <ele>28.5</ele>
        <time>2014-06-08T09:07:53Z</time>
      </trkpt>
      <trkpt lat="47.3374" lon="-1.19179">
        <ele>29.5</ele>
        <time>2014-06-08T09:08:02Z</time>
      </trkpt>
      <trkpt lat="47.33738" lon="-1.19199">
        <ele>30.5</ele>
        <time>2014-06-08T09:08:14Z</time>
      </trkpt>
      <trkpt lat="47.33741" lon="-1.19214">
        <ele>34.5</ele>
        <time>2014-06-08T09:08:29Z</time>
      </trkpt>
      <trkpt lat="47.33745" lon="-1.1923">
        <ele>39.5</ele>
        <time>2014-06-08T09:08:46Z</time>
      </trkpt>
      <trkpt lat="47.3375" lon="-1.19246">
        <ele>40.5</ele>
        <time>2014-06-08T09:08:58Z</time>
      </trkpt>
      <trkpt lat="47.33756" lon="-1.19258">
        <ele>42.5</ele>
        <time>2014-06-08T09:09:05Z</time>
      </trkpt>
      <trkpt lat="47.33768" lon="-1.19267">
        <ele>45.5</ele>
        <time>2014-06-08T09:09:17Z</time>
      </trkpt>
      <trkpt lat="47.33778" lon="-1.19281">
        <ele>44.5</ele>
        <time>2014-06-08T09:09:30Z</time>
      </trkpt>
      <trkpt lat="47.33781" lon="-1.19299">
        <ele>45.5</ele>
        <time>2014-06-08T09:09:42Z</time>
      </trkpt>
      <trkpt lat="47.33782" lon="-1.19321">
        <ele>45.5</ele>
        <time>2014-06-08T09:09:49Z</time>
      </trkpt>
      <trkpt lat="47.33784" lon="-1.19345">
        <ele>46.5</ele>
        <time>2014-06-08T09:09:57Z</time>
      </trkpt>
      <trkpt lat="47.33784" lon="-1.19367">
        <ele>46.5</ele>
        <time>2014-06-08T09:10:05Z</time>
      </trkpt>
      <trkpt lat="47.33783" lon="-1.1938">
        <ele>47.5</ele>
        <time>2014-06-08T09:10:09Z</time>
      </trkpt>
      <trkpt lat="47.33782" lon="-1.19402">
        <ele>48.5</ele>
        <time>2014-06-08T09:10:18Z</time>
      </trkpt>
      <trkpt lat="47.33783" lon="-1.19423">
        <ele>50.5</ele>
        <time>2014-06-08T09:10:26Z</time>
      </trkpt>
      <trkpt lat="47.33784" lon="-1.19447">
        <ele>51.5</ele>
        <time>2014-06-08T09:10:34Z</time>
      </trkpt>
      <trkpt lat="47.33784" lon="-1.19474">
        <ele>53.5</ele>
        <time>2014-06-08T09:10:45Z</time>
      </trkpt>
      <trkpt lat="47.33787" lon="-1.19495">
        <ele>53.5</ele>
        <time>2014-06-08T09:10:53Z</time>
      </trkpt>
      <trkpt lat="47.33788" lon="-1.19515">
        <ele>57.5</ele>
        <time>2014-06-08T09:11:01Z</time>
      </trkpt>
      <trkpt lat="47.33797" lon="-1.1952">
        <ele>57.5</ele>
        <time>2014-06-08T09:11:05Z</time>
      </trkpt>
      <trkpt lat="47.33809" lon="-1.19519">
        <ele>57.5</ele>
        <time>2014-06-08T09:11:09Z</time>
      </trkpt>
      <trkpt lat="47.33821" lon="-1.19519">
        <ele>57.5</ele>
        <time>2014-06-08T09:11:14Z</time>
      </trkpt>
      <trkpt lat="47.33833" lon="-1.1952">
        <ele>56.5</ele>
        <time>2014-06-08T09:11:18Z</time>
      </trkpt>
      <trkpt lat="47.33846" lon="-1.19521">
        <ele>56.5</ele>
        <time>2014-06-08T09:11:22Z</time>
      </trkpt>
      <trkpt lat="47.33861" lon="-1.19522">
        <ele>56.5</ele>
        <time>2014-06-08T09:11:26Z</time>
      </trkpt>
      <trkpt lat="47.33877" lon="-1.19522">
        <ele>56.5</ele>
        <time>2014-06-08T09:11:30Z</time>
      </trkpt>
      <trkpt lat="47.33895" lon="-1.19524">
        <ele>55.5</ele>
        <time>2014-06-08T09:11:34Z</time>
      </trkpt>
      <trkpt lat="47.33909" lon="-1.19525">
        <ele>55.5</ele>
        <time>2014-06-08T09:11:37Z</time>
      </trkpt>
      <trkpt lat="47.33926" lon="-1.19527">
        <ele>55.5</ele>
        <time>2014-06-08T09:11:41Z</time>
      </trkpt>
      <trkpt lat="47.33942" lon="-1.1953">
        <ele>54.5</ele>
        <time>2014-06-08T09:11:45Z</time>
      </trkpt>
      <trkpt lat="47.33958" lon="-1.19535">
        <ele>55.5</ele>
        <time>2014-06-08T09:11:49Z</time>
      </trkpt>
      <trkpt lat="47.33973" lon="-1.19545">
        <ele>56.5</ele>
        <time>2014-06-08T09:11:53Z</time>
      </trkpt>
      <trkpt lat="47.33992" lon="-1.19556">
        <ele>56.5</ele>
        <time>2014-06-08T09:11:57Z</time>
      </trkpt>
      <trkpt lat="47.34025" lon="-1.19572">
        <ele>56.5</ele>
        <time>2014-06-08T09:12:06Z</time>
      </trkpt>
      <trkpt lat="47.34044" lon="-1.19582">
        <ele>53.5</ele>
        <time>2014-06-08T09:12:10Z</time>
      </trkpt>
      <trkpt lat="47.34058" lon="-1.19575">
        <ele>54.5</ele>
        <time>2014-06-08T09:12:14Z</time>
      </trkpt>
      <trkpt lat="47.34073" lon="-1.19562">
        <ele>54.5</ele>
        <time>2014-06-08T09:12:18Z</time>
      </trkpt>
      <trkpt lat="47.34088" lon="-1.19544">
        <ele>54.5</ele>
        <time>2014-06-08T09:12:22Z</time>
      </trkpt>
      <trkpt lat="47.34097" lon="-1.19533">
        <ele>49.5</ele>
        <time>2014-06-08T09:12:25Z</time>
      </trkpt>
      <trkpt lat="47.34112" lon="-1.19501">
        <ele>50.5</ele>
        <time>2014-06-08T09:12:29Z</time>
      </trkpt>
      <trkpt lat="47.34128" lon="-1.1948">
        <ele>49.5</ele>
        <time>2014-06-08T09:12:33Z</time>
      </trkpt>
      <trkpt lat="47.34145" lon="-1.19464">
        <ele>49.5</ele>
        <time>2014-06-08T09:12:37Z</time>
      </trkpt>
      <trkpt lat="47.34154" lon="-1.1943">
        <ele>50.5</ele>
        <time>2014-06-08T09:12:41Z</time>
      </trkpt>
      <trkpt lat="47.34155" lon="-1.19404">
        <ele>50.5</ele>
        <time>2014-06-08T09:12:45Z</time>
      </trkpt>
      <trkpt lat="47.34152" lon="-1.1935">
        <ele>48.5</ele>
        <time>2014-06-08T09:12:49Z</time>
      </trkpt>
      <trkpt lat="47.34144" lon="-1.19304">
        <ele>48.5</ele>
        <time>2014-06-08T09:12:54Z</time>
      </trkpt>
      <trkpt lat="47.34136" lon="-1.1926">
        <ele>48.5</ele>
        <time>2014-06-08T09:12:58Z</time>
      </trkpt>
      <trkpt lat="47.34134" lon="-1.1922">
        <ele>48.5</ele>
        <time>2014-06-08T09:13:02Z</time>
      </trkpt>
      <trkpt lat="47.34135" lon="-1.19188">
        <ele>49.5</ele>
        <time>2014-06-08T09:13:06Z</time>
      </trkpt>
      <trkpt lat="47.34143" lon="-1.19161">
        <ele>50.5</ele>
        <time>2014-06-08T09:13:10Z</time>
      </trkpt>
      <trkpt lat="47.34155" lon="-1.19139">
        <ele>52.5</ele>
        <time>2014-06-08T09:13:14Z</time>
      </trkpt>
      <trkpt lat="47.34169" lon="-1.19116">
        <ele>51.5</ele>
        <time>2014-06-08T09:13:18Z</time>
      </trkpt>
      <trkpt lat="47.34185" lon="-1.19096">
        <ele>50.5</ele>
        <time>2014-06-08T09:13:21Z</time>
      </trkpt>
      <trkpt lat="47.34209" lon="-1.19068">
        <ele>48.5</ele>
        <time>2014-06-08T09:13:25Z</time>
      </trkpt>
      <trkpt lat="47.34235" lon="-1.19039">
        <ele>47.5</ele>
        <time>2014-06-08T09:13:29Z</time>
      </trkpt>
      <trkpt lat="47.34245" lon="-1.19024">
        <ele>46.5</ele>
        <time>2014-06-08T09:13:33Z</time>
      </trkpt>
      <trkpt lat="47.34277" lon="-1.18976">
        <ele>45.5</ele>
        <time>2014-06-08T09:13:37Z</time>
      </trkpt>
      <trkpt lat="47.34302" lon="-1.1894">
        <ele>45.5</ele>
        <time>2014-06-08T09:13:41Z</time>
      </trkpt>
      <trkpt lat="47.34326" lon="-1.18918">
        <ele>44.5</ele>
        <time>2014-06-08T09:13:45Z</time>
      </trkpt>
      <trkpt lat="47.34356" lon="-1.18903">
        <ele>41.5</ele>
        <time>2014-06-08T09:13:50Z</time>
      </trkpt>
      <trkpt lat="47.3439" lon="-1.18902">
        <ele>39.5</ele>
        <time>2014-06-08T09:13:54Z</time>
      </trkpt>
      <trkpt lat="47.34432" lon="-1.18909">
        <ele>35.5</ele>
        <time>2014-06-08T09:13:58Z</time>
      </trkpt>
      <trkpt lat="47.34463" lon="-1.18912">
        <ele>32.5</ele>
        <time>2014-06-08T09:14:02Z</time>
      </trkpt>
      <trkpt lat="47.34478" lon="-1.18916">
        <ele>30.5</ele>
        <time>2014-06-08T09:14:06Z</time>
      </trkpt>
      <trkpt lat="47.3448" lon="-1.18935">
        <ele>27.5</ele>
        <time>2014-06-08T09:14:10Z</time>
      </trkpt>
      <trkpt lat="47.34477" lon="-1.18949">
        <ele>27.5</ele>
        <time>2014-06-08T09:14:13Z</time>
      </trkpt>
      <trkpt lat="47.34472" lon="-1.18986">
        <ele>27.5</ele>
        <time>2014-06-08T09:14:21Z</time>
      </trkpt>
      <trkpt lat="47.34469" lon="-1.19005">
        <ele>26.5</ele>
        <time>2014-06-08T09:14:25Z</time>
      </trkpt>
      <trkpt lat="47.34465" lon="-1.19023">
        <ele>24.5</ele>
        <time>2014-06-08T09:14:29Z</time>
      </trkpt>
      <trkpt lat="47.34461" lon="-1.19047">
        <ele>23.5</ele>
        <time>2014-06-08T09:14:33Z</time>
      </trkpt>
      <trkpt lat="47.34461" lon="-1.1907">
        <ele>24.5</ele>
        <time>2014-06-08T09:14:37Z</time>
      </trkpt>
      <trkpt lat="47.34463" lon="-1.19094">
        <ele>23.5</ele>
        <time>2014-06-08T09:14:42Z</time>
      </trkpt>
      <trkpt lat="47.34464" lon="-1.19117">
        <ele>24.5</ele>
        <time>2014-06-08T09:14:46Z</time>
      </trkpt>
      <trkpt lat="47.34461" lon="-1.19139">
        <ele>25.5</ele>
        <time>2014-06-08T09:14:50Z</time>
      </trkpt>
      <trkpt lat="47.34457" lon="-1.19155">
        <ele>26.5</ele>
        <time>2014-06-08T09:14:54Z</time>
      </trkpt>
      <trkpt lat="47.34453" lon="-1.19169">
        <ele>27.5</ele>
        <time>2014-06-08T09:14:58Z</time>
      </trkpt>
      <trkpt lat="47.34446" lon="-1.19192">
        <ele>31.5</ele>
        <time>2014-06-08T09:15:05Z</time>
      </trkpt>
      <trkpt lat="47.34445" lon="-1.19208">
        <ele>29.5</ele>
        <time>2014-06-08T09:15:09Z</time>
      </trkpt>
      <trkpt lat="47.34444" lon="-1.19225">
        <ele>30.5</ele>
        <time>2014-06-08T09:15:13Z</time>
      </trkpt>
      <trkpt lat="47.34444" lon="-1.1924">
        <ele>31.5</ele>
        <time>2014-06-08T09:15:17Z</time>
      </trkpt>
      <trkpt lat="47.34436" lon="-1.19246">
        <ele>31.5</ele>
        <time>2014-06-08T09:15:21Z</time>
      </trkpt>
      <trkpt lat="47.34425" lon="-1.1924">
        <ele>33.5</ele>
        <time>2014-06-08T09:15:30Z</time>
      </trkpt>
      <trkpt lat="47.34415" lon="-1.19241">
        <ele>34.5</ele>
        <time>2014-06-08T09:15:38Z</time>
      </trkpt>
      <trkpt lat="47.34405" lon="-1.19239">
        <ele>37.5</ele>
        <time>2014-06-08T09:15:46Z</time>
      </trkpt>
      <trkpt lat="47.3439" lon="-1.19236">
        <ele>42.5</ele>
        <time>2014-06-08T09:15:57Z</time>
      </trkpt>
      <trkpt lat="47.34377" lon="-1.19241">
        <ele>43.5</ele>
        <time>2014-06-08T09:16:05Z</time>
      </trkpt>
      <trkpt lat="47.34372" lon="-1.1926">
        <ele>44.5</ele>
        <time>2014-06-08T09:16:13Z</time>
      </trkpt>
      <trkpt lat="47.34369" lon="-1.19292">
        <ele>44.5</ele>
        <time>2014-06-08T09:16:22Z</time>
      </trkpt>
      <trkpt lat="47.34369" lon="-1.19317">
        <ele>44.5</ele>
        <time>2014-06-08T09:16:26Z</time>
      </trkpt>
      <trkpt lat="47.34366" lon="-1.19346">
        <ele>44.5</ele>
        <time>2014-06-08T09:16:30Z</time>
      </trkpt>
      <trkpt lat="47.34359" lon="-1.19362">
        <ele>46.5</ele>
        <time>2014-06-08T09:16:34Z</time>
      </trkpt>
      <trkpt lat="47.34349" lon="-1.19371">
        <ele>47.5</ele>
        <time>2014-06-08T09:16:38Z</time>
      </trkpt>
      <trkpt lat="47.34341" lon="-1.19379">
        <ele>46.5</ele>
        <time>2014-06-08T09:16:42Z</time>
      </trkpt>
      <trkpt lat="47.34337" lon="-1.19423">
        <ele>43.5</ele>
        <time>2014-06-08T09:16:49Z</time>
      </trkpt>
      <trkpt lat="47.34333" lon="-1.19463">
        <ele>43.5</ele>
        <time>2014-06-08T09:16:53Z</time>
      </trkpt>
      <trkpt lat="47.34332" lon="-1.19488">
        <ele>44.5</ele>
        <time>2014-06-08T09:16:57Z</time>
      </trkpt>
      <trkpt lat="47.34333" lon="-1.19511">
        <ele>44.5</ele>
        <time>2014-06-08T09:17:01Z</time>
      </trkpt>
      <trkpt lat="47.34334" lon="-1.1954">
        <ele>44.5</ele>
        <time>2014-06-08T09:17:05Z</time>
      </trkpt>
      <trkpt lat="47.34333" lon="-1.19563">
        <ele>44.5</ele>
        <time>2014-06-08T09:17:09Z</time>
      </trkpt>
      <trkpt lat="47.34329" lon="-1.19585">
        <ele>45.5</ele>
        <time>2014-06-08T09:17:14Z</time>
      </trkpt>
      <trkpt lat="47.34324" lon="-1.19606">
        <ele>45.5</ele>
        <time>2014-06-08T09:17:18Z</time>
      </trkpt>
      <trkpt lat="47.34319" lon="-1.19626">
        <ele>46.5</ele>
        <time>2014-06-08T09:17:22Z</time>
      </trkpt>
      <trkpt lat="47.34313" lon="-1.19647">
        <ele>47.5</ele>
        <time>2014-06-08T09:17:26Z</time>
      </trkpt>
      <trkpt lat="47.34307" lon="-1.19665">
        <ele>48.5</ele>
        <time>2014-06-08T09:17:30Z</time>
      </trkpt>
      <trkpt lat="47.34303" lon="-1.19678">
        <ele>48.5</ele>
        <time>2014-06-08T09:17:33Z</time>
      </trkpt>
      <trkpt lat="47.34297" lon="-1.19696">
        <ele>48.5</ele>
        <time>2014-06-08T09:17:37Z</time>
      </trkpt>
      <trkpt lat="47.34289" lon="-1.19713">
        <ele>47.5</ele>
        <time>2014-06-08T09:17:41Z</time>
      </trkpt>
      <trkpt lat="47.34282" lon="-1.19727">
        <ele>48.5</ele>
        <time>2014-06-08T09:17:45Z</time>
      </trkpt>
      <trkpt lat="47.34274" lon="-1.19743">
        <ele>47.5</ele>
        <time>2014-06-08T09:17:49Z</time>
      </trkpt>
      <trkpt lat="47.34268" lon="-1.19756">
        <ele>49.5</ele>
        <time>2014-06-08T09:17:53Z</time>
      </trkpt>
      <trkpt lat="47.34263" lon="-1.1977">
        <ele>50.5</ele>
        <time>2014-06-08T09:17:58Z</time>
      </trkpt>
      <trkpt lat="47.34261" lon="-1.19786">
        <ele>50.5</ele>
        <time>2014-06-08T09:18:02Z</time>
      </trkpt>
      <trkpt lat="47.3426" lon="-1.19807">
        <ele>50.5</ele>
        <time>2014-06-08T09:18:06Z</time>
      </trkpt>
      <trkpt lat="47.34258" lon="-1.19832">
        <ele>49.5</ele>
        <time>2014-06-08T09:18:10Z</time>
      </trkpt>
      <trkpt lat="47.34253" lon="-1.19865">
        <ele>48.5</ele>
        <time>2014-06-08T09:18:14Z</time>
      </trkpt>
      <trkpt lat="47.34247" lon="-1.199">
        <ele>46.5</ele>
        <time>2014-06-08T09:18:18Z</time>
      </trkpt>
      <trkpt lat="47.34243" lon="-1.19932">
        <ele>44.5</ele>
        <time>2014-06-08T09:18:21Z</time>
      </trkpt>
      <trkpt lat="47.34241" lon="-1.19963">
        <ele>44.5</ele>
        <time>2014-06-08T09:18:25Z</time>
      </trkpt>
      <trkpt lat="47.34237" lon="-1.19993">
        <ele>40.5</ele>
        <time>2014-06-08T09:18:29Z</time>
      </trkpt>
      <trkpt lat="47.34226" lon="-1.19999">
        <ele>41.5</ele>
        <time>2014-06-08T09:18:33Z</time>
      </trkpt>
      <trkpt lat="47.34216" lon="-1.19999">
        <ele>42.5</ele>
        <time>2014-06-08T09:18:37Z</time>
      </trkpt>
      <trkpt lat="47.34206" lon="-1.20002">
        <ele>43.5</ele>
        <time>2014-06-08T09:18:41Z</time>
      </trkpt>
      <trkpt lat="47.34198" lon="-1.20008">
        <ele>44.5</ele>
        <time>2014-06-08T09:18:46Z</time>
      </trkpt>
      <trkpt lat="47.34189" lon="-1.20013">
        <ele>44.5</ele>
        <time>2014-06-08T09:18:50Z</time>
      </trkpt>
      <trkpt lat="47.34176" lon="-1.20022">
        <ele>45.5</ele>
        <time>2014-06-08T09:18:58Z</time>
      </trkpt>
      <trkpt lat="47.34169" lon="-1.2004">
        <ele>48.5</ele>
        <time>2014-06-08T09:19:06Z</time>
      </trkpt>
      <trkpt lat="47.34175" lon="-1.20088">
        <ele>46.5</ele>
        <time>2014-06-08T09:19:10Z</time>
      </trkpt>
      <trkpt lat="47.3418" lon="-1.20114">
        <ele>47.5</ele>
        <time>2014-06-08T09:19:14Z</time>
      </trkpt>
      <trkpt lat="47.34181" lon="-1.20134">
        <ele>47.5</ele>
        <time>2014-06-08T09:19:21Z</time>
      </trkpt>
      <trkpt lat="47.34183" lon="-1.20148">
        <ele>47.5</ele>
        <time>2014-06-08T09:19:25Z</time>
      </trkpt>
      <trkpt lat="47.34184" lon="-1.20164">
        <ele>47.5</ele>
        <time>2014-06-08T09:19:29Z</time>
      </trkpt>
      <trkpt lat="47.34186" lon="-1.20177">
        <ele>48.5</ele>
        <time>2014-06-08T09:19:33Z</time>
      </trkpt>
      <trkpt lat="47.34188" lon="-1.20191">
        <ele>49.5</ele>
        <time>2014-06-08T09:19:37Z</time>
      </trkpt>
      <trkpt lat="47.34188" lon="-1.20205">
        <ele>49.5</ele>
        <time>2014-06-08T09:19:42Z</time>
      </trkpt>
      <trkpt lat="47.34189" lon="-1.2022">
        <ele>49.5</ele>
        <time>2014-06-08T09:19:46Z</time>
      </trkpt>
      <trkpt lat="47.3419" lon="-1.20234">
        <ele>50.5</ele>
        <time>2014-06-08T09:19:50Z</time>
      </trkpt>
      <trkpt lat="47.3419" lon="-1.20249">
        <ele>50.5</ele>
        <time>2014-06-08T09:19:54Z</time>
      </trkpt>
      <trkpt lat="47.3419" lon="-1.20266">
        <ele>50.5</ele>
        <time>2014-06-08T09:19:58Z</time>
      </trkpt>
      <trkpt lat="47.34192" lon="-1.20285">
        <ele>48.5</ele>
        <time>2014-06-08T09:20:02Z</time>
      </trkpt>
      <trkpt lat="47.34212" lon="-1.20292">
        <ele>46.5</ele>
        <time>2014-06-08T09:20:06Z</time>
      </trkpt>
      <trkpt lat="47.34217" lon="-1.20309">
        <ele>46.5</ele>
        <time>2014-06-08T09:20:09Z</time>
      </trkpt>
      <trkpt lat="47.34215" lon="-1.20332">
        <ele>46.5</ele>
        <time>2014-06-08T09:20:13Z</time>
      </trkpt>
      <trkpt lat="47.34213" lon="-1.2035">
        <ele>46.5</ele>
        <time>2014-06-08T09:20:17Z</time>
      </trkpt>
      <trkpt lat="47.34211" lon="-1.20367">
        <ele>47.5</ele>
        <time>2014-06-08T09:20:21Z</time>
      </trkpt>
      <trkpt lat="47.34209" lon="-1.20387">
        <ele>46.5</ele>
        <time>2014-06-08T09:20:25Z</time>
      </trkpt>
      <trkpt lat="47.34203" lon="-1.20403">
        <ele>46.5</ele>
        <time>2014-06-08T09:20:29Z</time>
      </trkpt>
      <trkpt lat="47.34195" lon="-1.20415">
        <ele>46.5</ele>
        <time>2014-06-08T09:20:33Z</time>
      </trkpt>
      <trkpt lat="47.34186" lon="-1.20424">
        <ele>46.5</ele>
        <time>2014-06-08T09:20:38Z</time>
      </trkpt>
      <trkpt lat="47.34176" lon="-1.20433">
        <ele>44.5</ele>
        <time>2014-06-08T09:20:42Z</time>
      </trkpt>
      <trkpt lat="47.34165" lon="-1.20444">
        <ele>44.5</ele>
        <time>2014-06-08T09:20:46Z</time>
      </trkpt>
      <trkpt lat="47.34154" lon="-1.2046">
        <ele>44.5</ele>
        <time>2014-06-08T09:20:50Z</time>
      </trkpt>
      <trkpt lat="47.34145" lon="-1.20479">
        <ele>45.5</ele>
        <time>2014-06-08T09:20:54Z</time>
      </trkpt>
      <trkpt lat="47.34135" lon="-1.20495">
        <ele>45.5</ele>
        <time>2014-06-08T09:20:58Z</time>
      </trkpt>
      <trkpt lat="47.34127" lon="-1.20507">
        <ele>45.5</ele>
        <time>2014-06-08T09:21:01Z</time>
      </trkpt>
      <trkpt lat="47.34123" lon="-1.20539">
        <ele>43.5</ele>
        <time>2014-06-08T09:21:05Z</time>
      </trkpt>
      <trkpt lat="47.34119" lon="-1.20577">
        <ele>42.5</ele>
        <time>2014-06-08T09:21:09Z</time>
      </trkpt>
      <trkpt lat="47.34119" lon="-1.20606">
        <ele>43.5</ele>
        <time>2014-06-08T09:21:13Z</time>
      </trkpt>
      <trkpt lat="47.34123" lon="-1.20627">
        <ele>43.5</ele>
        <time>2014-06-08T09:21:17Z</time>
      </trkpt>
      <trkpt lat="47.34145" lon="-1.20627">
        <ele>44.5</ele>
        <time>2014-06-08T09:21:21Z</time>
      </trkpt>
      <trkpt lat="47.34189" lon="-1.20639">
        <ele>41.5</ele>
        <time>2014-06-08T09:21:25Z</time>
      </trkpt>
      <trkpt lat="47.34233" lon="-1.20647">
        <ele>35.5</ele>
        <time>2014-06-08T09:21:30Z</time>
      </trkpt>
      <trkpt lat="47.34268" lon="-1.2065">
        <ele>31.5</ele>
        <time>2014-06-08T09:21:34Z</time>
      </trkpt>
      <trkpt lat="47.34283" lon="-1.20652">
        <ele>29.5</ele>
        <time>2014-06-08T09:21:38Z</time>
      </trkpt>
      <trkpt lat="47.34302" lon="-1.20658">
        <ele>25.5</ele>
        <time>2014-06-08T09:21:42Z</time>
      </trkpt>
      <trkpt lat="47.3433" lon="-1.20667">
        <ele>22.5</ele>
        <time>2014-06-08T09:21:46Z</time>
      </trkpt>
      <trkpt lat="47.34355" lon="-1.20675">
        <ele>22.5</ele>
        <time>2014-06-08T09:21:49Z</time>
      </trkpt>
      <trkpt lat="47.34372" lon="-1.20679">
        <ele>22.5</ele>
        <time>2014-06-08T09:21:53Z</time>
      </trkpt>
      <trkpt lat="47.344" lon="-1.20682">
        <ele>18.5</ele>
        <time>2014-06-08T09:21:57Z</time>
      </trkpt>
      <trkpt lat="47.34412" lon="-1.2068">
        <ele>16.5</ele>
        <time>2014-06-08T09:22:01Z</time>
      </trkpt>
      <trkpt lat="47.34422" lon="-1.20699">
        <ele>15.5</ele>
        <time>2014-06-08T09:22:05Z</time>
      </trkpt>
      <trkpt lat="47.34425" lon="-1.20718">
        <ele>13.5</ele>
        <time>2014-06-08T09:22:09Z</time>
      </trkpt>
      <trkpt lat="47.3442" lon="-1.2074">
        <ele>12.5</ele>
        <time>2014-06-08T09:22:14Z</time>
      </trkpt>
      <trkpt lat="47.34416" lon="-1.2077">
        <ele>11.5</ele>
        <time>2014-06-08T09:22:18Z</time>
      </trkpt>
      <trkpt lat="47.34413" lon="-1.20797">
        <ele>12.5</ele>
        <time>2014-06-08T09:22:22Z</time>
      </trkpt>
      <trkpt lat="47.34409" lon="-1.20826">
        <ele>12.5</ele>
        <time>2014-06-08T09:22:26Z</time>
      </trkpt>
      <trkpt lat="47.34408" lon="-1.20856">
        <ele>11.5</ele>
        <time>2014-06-08T09:22:30Z</time>
      </trkpt>
      <trkpt lat="47.34405" lon="-1.20892">
        <ele>11.5</ele>
        <time>2014-06-08T09:22:34Z</time>
      </trkpt>
      <trkpt lat="47.34408" lon="-1.2093">
        <ele>13.5</ele>
        <time>2014-06-08T09:22:38Z</time>
      </trkpt>
      <trkpt lat="47.34409" lon="-1.20963">
        <ele>16.5</ele>
        <time>2014-06-08T09:22:42Z</time>
      </trkpt>
      <trkpt lat="47.34407" lon="-1.20991">
        <ele>15.5</ele>
        <time>2014-06-08T09:22:45Z</time>
      </trkpt>
      <trkpt lat="47.34407" lon="-1.2102">
        <ele>20.5</ele>
        <time>2014-06-08T09:22:49Z</time>
      </trkpt>
      <trkpt lat="47.34409" lon="-1.21039">
        <ele>22.5</ele>
        <time>2014-06-08T09:22:53Z</time>
      </trkpt>
      <trkpt lat="47.34398" lon="-1.21099">
        <ele>15.5</ele>
        <time>2014-06-08T09:22:57Z</time>
      </trkpt>
      <trkpt lat="47.34391" lon="-1.21148">
        <ele>14.5</ele>
        <time>2014-06-08T09:23:01Z</time>
      </trkpt>
      <trkpt lat="47.34385" lon="-1.21186">
        <ele>13.5</ele>
        <time>2014-06-08T09:23:05Z</time>
      </trkpt>
      <trkpt lat="47.34379" lon="-1.21224">
        <ele>14.5</ele>
        <time>2014-06-08T09:23:09Z</time>
      </trkpt>
      <trkpt lat="47.34372" lon="-1.2126">
        <ele>13.5</ele>
        <time>2014-06-08T09:23:13Z</time>
      </trkpt>
      <trkpt lat="47.34367" lon="-1.21297">
        <ele>12.5</ele>
        <time>2014-06-08T09:23:18Z</time>
      </trkpt>
      <trkpt lat="47.34361" lon="-1.21335">
        <ele>12.5</ele>
        <time>2014-06-08T09:23:22Z</time>
      </trkpt>
      <trkpt lat="47.34355" lon="-1.21374">
        <ele>12.5</ele>
        <time>2014-06-08T09:23:26Z</time>
      </trkpt>
      <trkpt lat="47.34348" lon="-1.21412">
        <ele>11.5</ele>
        <time>2014-06-08T09:23:30Z</time>
      </trkpt>
      <trkpt lat="47.34343" lon="-1.21449">
        <ele>10.5</ele>
        <time>2014-06-08T09:23:34Z</time>
      </trkpt>
      <trkpt lat="47.34338" lon="-1.21486">
        <ele>10.5</ele>
        <time>2014-06-08T09:23:38Z</time>
      </trkpt>
      <trkpt lat="47.34334" lon="-1.21524">
        <ele>9.5</ele>
        <time>2014-06-08T09:23:42Z</time>
      </trkpt>
      <trkpt lat="47.3433" lon="-1.21552">
        <ele>10.5</ele>
        <time>2014-06-08T09:23:45Z</time>
      </trkpt>
      <trkpt lat="47.34325" lon="-1.21588">
        <ele>9.5</ele>
        <time>2014-06-08T09:23:49Z</time>
      </trkpt>
      <trkpt lat="47.3432" lon="-1.21623">
        <ele>10.5</ele>
        <time>2014-06-08T09:23:53Z</time>
      </trkpt>
      <trkpt lat="47.34315" lon="-1.21665">
        <ele>8.5</ele>
        <time>2014-06-08T09:23:57Z</time>
      </trkpt>
      <trkpt lat="47.34312" lon="-1.21691">
        <ele>8.5</ele>
        <time>2014-06-08T09:24:01Z</time>
      </trkpt>
      <trkpt lat="47.34309" lon="-1.21733">
        <ele>9.5</ele>
        <time>2014-06-08T09:24:05Z</time>
      </trkpt>
      <trkpt lat="47.34307" lon="-1.21768">
        <ele>9.5</ele>
        <time>2014-06-08T09:24:09Z</time>
      </trkpt>
      <trkpt lat="47.34306" lon="-1.21803">
        <ele>10.5</ele>
        <time>2014-06-08T09:24:14Z</time>
      </trkpt>
      <trkpt lat="47.34305" lon="-1.21839">
        <ele>8.5</ele>
        <time>2014-06-08T09:24:18Z</time>
      </trkpt>
      <trkpt lat="47.34302" lon="-1.21874">
        <ele>8.5</ele>
        <time>2014-06-08T09:24:22Z</time>
      </trkpt>
      <trkpt lat="47.34299" lon="-1.21908">
        <ele>9.5</ele>
        <time>2014-06-08T09:24:26Z</time>
      </trkpt>
      <trkpt lat="47.34297" lon="-1.21942">
        <ele>10.5</ele>
        <time>2014-06-08T09:24:30Z</time>
      </trkpt>
      <trkpt lat="47.34296" lon="-1.21965">
        <ele>10.5</ele>
        <time>2014-06-08T09:24:33Z</time>
      </trkpt>
      <trkpt lat="47.34293" lon="-1.21996">
        <ele>9.5</ele>
        <time>2014-06-08T09:24:37Z</time>
      </trkpt>
      <trkpt lat="47.34287" lon="-1.22027">
        <ele>10.5</ele>
        <time>2014-06-08T09:24:41Z</time>
      </trkpt>
      <trkpt lat="47.34275" lon="-1.22052">
        <ele>12.5</ele>
        <time>2014-06-08T09:24:45Z</time>
      </trkpt>
      <trkpt lat="47.34269" lon="-1.22074">
        <ele>12.5</ele>
        <time>2014-06-08T09:24:49Z</time>
      </trkpt>
      <trkpt lat="47.34263" lon="-1.22121">
        <ele>11.5</ele>
        <time>2014-06-08T09:24:53Z</time>
      </trkpt>
      <trkpt lat="47.34259" lon="-1.22153">
        <ele>11.5</ele>
        <time>2014-06-08T09:24:57Z</time>
      </trkpt>
      <trkpt lat="47.34256" lon="-1.22183">
        <ele>12.5</ele>
        <time>2014-06-08T09:25:02Z</time>
      </trkpt>
      <trkpt lat="47.34253" lon="-1.22215">
        <ele>12.5</ele>
        <time>2014-06-08T09:25:06Z</time>
      </trkpt>
      <trkpt lat="47.34248" lon="-1.22246">
        <ele>12.5</ele>
        <time>2014-06-08T09:25:10Z</time>
      </trkpt>
      <trkpt lat="47.34244" lon="-1.22279">
        <ele>12.5</ele>
        <time>2014-06-08T09:25:14Z</time>
      </trkpt>
      <trkpt lat="47.3424" lon="-1.22311">
        <ele>12.5</ele>
        <time>2014-06-08T09:25:18Z</time>
      </trkpt>
      <trkpt lat="47.34236" lon="-1.22344">
        <ele>11.5</ele>
        <time>2014-06-08T09:25:22Z</time>
      </trkpt>
      <trkpt lat="47.34233" lon="-1.22376">
        <ele>10.5</ele>
        <time>2014-06-08T09:25:26Z</time>
      </trkpt>
      <trkpt lat="47.3423" lon="-1.22402">
        <ele>10.5</ele>
        <time>2014-06-08T09:25:29Z</time>
      </trkpt>
      <trkpt lat="47.34227" lon="-1.22436">
        <ele>10.5</ele>
        <time>2014-06-08T09:25:33Z</time>
      </trkpt>
      <trkpt lat="47.34224" lon="-1.22469">
        <ele>10.5</ele>
        <time>2014-06-08T09:25:37Z</time>
      </trkpt>
      <trkpt lat="47.34222" lon="-1.22503">
        <ele>10.5</ele>
        <time>2014-06-08T09:25:41Z</time>
      </trkpt>
      <trkpt lat="47.34217" lon="-1.22544">
        <ele>10.5</ele>
        <time>2014-06-08T09:25:45Z</time>
      </trkpt>
      <trkpt lat="47.34216" lon="-1.22577">
        <ele>11.5</ele>
        <time>2014-06-08T09:25:49Z</time>
      </trkpt>
      <trkpt lat="47.34213" lon="-1.22611">
        <ele>11.5</ele>
        <time>2014-06-08T09:25:53Z</time>
      </trkpt>
      <trkpt lat="47.34213" lon="-1.22642">
        <ele>11.5</ele>
        <time>2014-06-08T09:25:58Z</time>
      </trkpt>
      <trkpt lat="47.3422" lon="-1.22668">
        <ele>11.5</ele>
        <time>2014-06-08T09:26:02Z</time>
      </trkpt>
      <trkpt lat="47.34219" lon="-1.22686">
        <ele>12.5</ele>
        <time>2014-06-08T09:26:06Z</time>
      </trkpt>
      <trkpt lat="47.34226" lon="-1.22674">
        <ele>13.5</ele>
        <time>2014-06-08T09:31:14Z</time>
      </trkpt>
      <trkpt lat="47.34243" lon="-1.2266">
        <ele>12.5</ele>
        <time>2014-06-08T09:31:22Z</time>
      </trkpt>
      <trkpt lat="47.34255" lon="-1.22647">
        <ele>12.5</ele>
        <time>2014-06-08T09:31:26Z</time>
      </trkpt>
      <trkpt lat="47.34265" lon="-1.22641">
        <ele>13.5</ele>
        <time>2014-06-08T09:31:29Z</time>
      </trkpt>
      <trkpt lat="47.34279" lon="-1.22636">
        <ele>12.5</ele>
        <time>2014-06-08T09:31:33Z</time>
      </trkpt>
      <trkpt lat="47.34295" lon="-1.22637">
        <ele>11.5</ele>
        <time>2014-06-08T09:31:37Z</time>
      </trkpt>
      <trkpt lat="47.34313" lon="-1.22649">
        <ele>14.5</ele>
        <time>2014-06-08T09:31:41Z</time>
      </trkpt>
      <trkpt lat="47.34326" lon="-1.22662">
        <ele>11.5</ele>
        <time>2014-06-08T09:31:45Z</time>
      </trkpt>
      <trkpt lat="47.34339" lon="-1.22675">
        <ele>10.5</ele>
        <time>2014-06-08T09:31:49Z</time>
      </trkpt>
      <trkpt lat="47.34355" lon="-1.22691">
        <ele>10.5</ele>
        <time>2014-06-08T09:31:54Z</time>
      </trkpt>
      <trkpt lat="47.34367" lon="-1.22698">
        <ele>10.5</ele>
        <time>2014-06-08T09:31:58Z</time>
      </trkpt>
      <trkpt lat="47.34378" lon="-1.22706">
        <ele>13.5</ele>
        <time>2014-06-08T09:32:02Z</time>
      </trkpt>
      <trkpt lat="47.34391" lon="-1.22722">
        <ele>16.5</ele>
        <time>2014-06-08T09:32:06Z</time>
      </trkpt>
      <trkpt lat="47.34405" lon="-1.22737">
        <ele>16.5</ele>
        <time>2014-06-08T09:32:10Z</time>
      </trkpt>
      <trkpt lat="47.34417" lon="-1.22753">
        <ele>17.5</ele>
        <time>2014-06-08T09:32:14Z</time>
      </trkpt>
      <trkpt lat="47.34433" lon="-1.22772">
        <ele>16.5</ele>
        <time>2014-06-08T09:32:18Z</time>
      </trkpt>
      <trkpt lat="47.3445" lon="-1.22787">
        <ele>16.5</ele>
        <time>2014-06-08T09:32:22Z</time>
      </trkpt>
      <trkpt lat="47.34459" lon="-1.22798">
        <ele>22.5</ele>
        <time>2014-06-08T09:32:25Z</time>
      </trkpt>
      <trkpt lat="47.34473" lon="-1.2281">
        <ele>25.5</ele>
        <time>2014-06-08T09:32:29Z</time>
      </trkpt>
      <trkpt lat="47.34493" lon="-1.22835">
        <ele>25.5</ele>
        <time>2014-06-08T09:32:33Z</time>
      </trkpt>
      <trkpt lat="47.34508" lon="-1.22857">
        <ele>25.5</ele>
        <time>2014-06-08T09:32:37Z</time>
      </trkpt>
      <trkpt lat="47.34525" lon="-1.22881">
        <ele>20.5</ele>
        <time>2014-06-08T09:32:41Z</time>
      </trkpt>
      <trkpt lat="47.34541" lon="-1.22897">
        <ele>22.5</ele>
        <time>2014-06-08T09:32:45Z</time>
      </trkpt>
      <trkpt lat="47.34558" lon="-1.22911">
        <ele>21.5</ele>
        <time>2014-06-08T09:32:50Z</time>
      </trkpt>
      <trkpt lat="47.34575" lon="-1.22925">
        <ele>24.5</ele>
        <time>2014-06-08T09:32:54Z</time>
      </trkpt>
      <trkpt lat="47.34589" lon="-1.22944">
        <ele>24.5</ele>
        <time>2014-06-08T09:32:58Z</time>
      </trkpt>
      <trkpt lat="47.34604" lon="-1.22962">
        <ele>22.5</ele>
        <time>2014-06-08T09:33:02Z</time>
      </trkpt>
      <trkpt lat="47.3461" lon="-1.2299">
        <ele>19.5</ele>
        <time>2014-06-08T09:33:06Z</time>
      </trkpt>
      <trkpt lat="47.34613" lon="-1.23025">
        <ele>15.5</ele>
        <time>2014-06-08T09:33:10Z</time>
      </trkpt>
      <trkpt lat="47.34618" lon="-1.23073">
        <ele>15.5</ele>
        <time>2014-06-08T09:33:17Z</time>
      </trkpt>
      <trkpt lat="47.3461" lon="-1.23094">
        <ele>20.5</ele>
        <time>2014-06-08T09:33:21Z</time>
      </trkpt>
      <trkpt lat="47.34609" lon="-1.23113">
        <ele>23.5</ele>
        <time>2014-06-08T09:33:25Z</time>
      </trkpt>
      <trkpt lat="47.34596" lon="-1.23144">
        <ele>19.5</ele>
        <time>2014-06-08T09:33:29Z</time>
      </trkpt>
      <trkpt lat="47.34578" lon="-1.23178">
        <ele>17.5</ele>
        <time>2014-06-08T09:33:33Z</time>
      </trkpt>
      <trkpt lat="47.34575" lon="-1.23208">
        <ele>23.5</ele>
        <time>2014-06-08T09:33:37Z</time>
      </trkpt>
      <trkpt lat="47.34559" lon="-1.23233">
        <ele>24.5</ele>
        <time>2014-06-08T09:33:41Z</time>
      </trkpt>
      <trkpt lat="47.3455" lon="-1.23246">
        <ele>24.5</ele>
        <time>2014-06-08T09:33:46Z</time>
      </trkpt>
      <trkpt lat="47.34541" lon="-1.23255">
        <ele>18.5</ele>
        <time>2014-06-08T09:34:13Z</time>
      </trkpt>
      <trkpt lat="47.34536" lon="-1.23284">
        <ele>16.5</ele>
        <time>2014-06-08T09:34:25Z</time>
      </trkpt>
      <trkpt lat="47.34538" lon="-1.23308">
        <ele>15.5</ele>
        <time>2014-06-08T09:34:29Z</time>
      </trkpt>
      <trkpt lat="47.34548" lon="-1.23327">
        <ele>14.5</ele>
        <time>2014-06-08T09:34:33Z</time>
      </trkpt>
      <trkpt lat="47.34558" lon="-1.23345">
        <ele>15.5</ele>
        <time>2014-06-08T09:34:38Z</time>
      </trkpt>
      <trkpt lat="47.34565" lon="-1.23365">
        <ele>14.5</ele>
        <time>2014-06-08T09:34:42Z</time>
      </trkpt>
      <trkpt lat="47.34566" lon="-1.23388">
        <ele>14.5</ele>
        <time>2014-06-08T09:34:46Z</time>
      </trkpt>
      <trkpt lat="47.34563" lon="-1.23412">
        <ele>13.5</ele>
        <time>2014-06-08T09:34:50Z</time>
      </trkpt>
      <trkpt lat="47.34563" lon="-1.23438">
        <ele>12.5</ele>
        <time>2014-06-08T09:34:54Z</time>
      </trkpt>
      <trkpt lat="47.34561" lon="-1.23458">
        <ele>10.5</ele>
        <time>2014-06-08T09:34:57Z</time>
      </trkpt>
      <trkpt lat="47.34557" lon="-1.23483">
        <ele>9.5</ele>
        <time>2014-06-08T09:35:01Z</time>
      </trkpt>
      <trkpt lat="47.34553" lon="-1.23507">
        <ele>9.5</ele>
        <time>2014-06-08T09:35:05Z</time>
      </trkpt>
      <trkpt lat="47.34546" lon="-1.2353">
        <ele>9.5</ele>
        <time>2014-06-08T09:35:09Z</time>
      </trkpt>
      <trkpt lat="47.3454" lon="-1.23559">
        <ele>9.5</ele>
        <time>2014-06-08T09:35:13Z</time>
      </trkpt>
      <trkpt lat="47.34535" lon="-1.23582">
        <ele>10.5</ele>
        <time>2014-06-08T09:35:17Z</time>
      </trkpt>
      <trkpt lat="47.34531" lon="-1.23606">
        <ele>9.5</ele>
        <time>2014-06-08T09:35:22Z</time>
      </trkpt>
      <trkpt lat="47.34525" lon="-1.2363">
        <ele>9.5</ele>
        <time>2014-06-08T09:35:26Z</time>
      </trkpt>
      <trkpt lat="47.34518" lon="-1.23657">
        <ele>10.5</ele>
        <time>2014-06-08T09:35:30Z</time>
      </trkpt>
      <trkpt lat="47.34511" lon="-1.23683">
        <ele>10.5</ele>
        <time>2014-06-08T09:35:34Z</time>
      </trkpt>
      <trkpt lat="47.34505" lon="-1.23709">
        <ele>10.5</ele>
        <time>2014-06-08T09:35:38Z</time>
      </trkpt>
      <trkpt lat="47.34505" lon="-1.23728">
        <ele>9.5</ele>
        <time>2014-06-08T09:35:42Z</time>
      </trkpt>
      <trkpt lat="47.34495" lon="-1.23759">
        <ele>11.5</ele>
        <time>2014-06-08T09:35:49Z</time>
      </trkpt>
      <trkpt lat="47.34491" lon="-1.23782">
        <ele>10.5</ele>
        <time>2014-06-08T09:35:53Z</time>
      </trkpt>
      <trkpt lat="47.34489" lon="-1.23797">
        <ele>9.5</ele>
        <time>2014-06-08T09:36:05Z</time>
      </trkpt>
      <trkpt lat="47.34485" lon="-1.23821">
        <ele>11.5</ele>
        <time>2014-06-08T09:36:13Z</time>
      </trkpt>
      <trkpt lat="47.34479" lon="-1.23841">
        <ele>11.5</ele>
        <time>2014-06-08T09:36:18Z</time>
      </trkpt>
      <trkpt lat="47.34475" lon="-1.23861">
        <ele>11.5</ele>
        <time>2014-06-08T09:36:22Z</time>
      </trkpt>
      <trkpt lat="47.34472" lon="-1.23879">
        <ele>12.5</ele>
        <time>2014-06-08T09:36:26Z</time>
      </trkpt>
      <trkpt lat="47.34467" lon="-1.23898">
        <ele>11.5</ele>
        <time>2014-06-08T09:36:30Z</time>
      </trkpt>
      <trkpt lat="47.34464" lon="-1.23913">
        <ele>10.5</ele>
        <time>2014-06-08T09:36:34Z</time>
      </trkpt>
      <trkpt lat="47.34457" lon="-1.23942">
        <ele>7.5</ele>
        <time>2014-06-08T09:36:38Z</time>
      </trkpt>
      <trkpt lat="47.34454" lon="-1.2396">
        <ele>8.5</ele>
        <time>2014-06-08T09:36:41Z</time>
      </trkpt>
      <trkpt lat="47.34448" lon="-1.23988">
        <ele>10.5</ele>
        <time>2014-06-08T09:36:45Z</time>
      </trkpt>
      <trkpt lat="47.34442" lon="-1.24015">
        <ele>10.5</ele>
        <time>2014-06-08T09:36:49Z</time>
      </trkpt>
      <trkpt lat="47.34435" lon="-1.2405">
        <ele>11.5</ele>
        <time>2014-06-08T09:36:53Z</time>
      </trkpt>
      <trkpt lat="47.34429" lon="-1.24078">
        <ele>12.5</ele>
        <time>2014-06-08T09:36:57Z</time>
      </trkpt>
      <trkpt lat="47.34423" lon="-1.24106">
        <ele>13.5</ele>
        <time>2014-06-08T09:37:01Z</time>
      </trkpt>
      <trkpt lat="47.34418" lon="-1.24134">
        <ele>14.5</ele>
        <time>2014-06-08T09:37:05Z</time>
      </trkpt>
      <trkpt lat="47.3441" lon="-1.2416">
        <ele>14.5</ele>
        <time>2014-06-08T09:37:10Z</time>
      </trkpt>
      <trkpt lat="47.34402" lon="-1.24187">
        <ele>13.5</ele>
        <time>2014-06-08T09:37:14Z</time>
      </trkpt>
      <trkpt lat="47.34393" lon="-1.24216">
        <ele>13.5</ele>
        <time>2014-06-08T09:37:18Z</time>
      </trkpt>
      <trkpt lat="47.34385" lon="-1.24242">
        <ele>11.5</ele>
        <time>2014-06-08T09:37:22Z</time>
      </trkpt>
      <trkpt lat="47.34377" lon="-1.24268">
        <ele>12.5</ele>
        <time>2014-06-08T09:37:26Z</time>
      </trkpt>
      <trkpt lat="47.34369" lon="-1.24296">
        <ele>11.5</ele>
        <time>2014-06-08T09:37:30Z</time>
      </trkpt>
      <trkpt lat="47.34364" lon="-1.24314">
        <ele>12.5</ele>
        <time>2014-06-08T09:37:33Z</time>
      </trkpt>
      <trkpt lat="47.34355" lon="-1.24338">
        <ele>11.5</ele>
        <time>2014-06-08T09:37:37Z</time>
      </trkpt>
      <trkpt lat="47.34345" lon="-1.24366">
        <ele>10.5</ele>
        <time>2014-06-08T09:37:41Z</time>
      </trkpt>
      <trkpt lat="47.34338" lon="-1.24403">
        <ele>9.5</ele>
        <time>2014-06-08T09:37:45Z</time>
      </trkpt>
      <trkpt lat="47.34329" lon="-1.24428">
        <ele>10.5</ele>
        <time>2014-06-08T09:37:49Z</time>
      </trkpt>
      <trkpt lat="47.34321" lon="-1.24456">
        <ele>9.5</ele>
        <time>2014-06-08T09:37:53Z</time>
      </trkpt>
      <trkpt lat="47.34314" lon="-1.24484">
        <ele>9.5</ele>
        <time>2014-06-08T09:37:57Z</time>
      </trkpt>
      <trkpt lat="47.34304" lon="-1.2451">
        <ele>10.5</ele>
        <time>2014-06-08T09:38:01Z</time>
      </trkpt>
      <trkpt lat="47.34296" lon="-1.24535">
        <ele>8.5</ele>
        <time>2014-06-08T09:38:06Z</time>
      </trkpt>
      <trkpt lat="47.34288" lon="-1.2456">
        <ele>9.5</ele>
        <time>2014-06-08T09:38:10Z</time>
      </trkpt>
      <trkpt lat="47.34283" lon="-1.24585">
        <ele>8.5</ele>
        <time>2014-06-08T09:38:14Z</time>
      </trkpt>
      <trkpt lat="47.34281" lon="-1.24607">
        <ele>9.5</ele>
        <time>2014-06-08T09:38:18Z</time>
      </trkpt>
      <trkpt lat="47.34275" lon="-1.24635">
        <ele>14.5</ele>
        <time>2014-06-08T09:38:54Z</time>
      </trkpt>
      <trkpt lat="47.34272" lon="-1.24653">
        <ele>15.5</ele>
        <time>2014-06-08T09:38:58Z</time>
      </trkpt>
      <trkpt lat="47.34269" lon="-1.24671">
        <ele>13.5</ele>
        <time>2014-06-08T09:39:02Z</time>
      </trkpt>
      <trkpt lat="47.34264" lon="-1.24692">
        <ele>18.5</ele>
        <time>2014-06-08T09:39:09Z</time>
      </trkpt>
      <trkpt lat="47.34261" lon="-1.24705">
        <ele>16.5</ele>
        <time>2014-06-08T09:39:13Z</time>
      </trkpt>
      <trkpt lat="47.34253" lon="-1.24728">
        <ele>18.5</ele>
        <time>2014-06-08T09:39:21Z</time>
      </trkpt>
      <trkpt lat="47.34247" lon="-1.24745">
        <ele>23.5</ele>
        <time>2014-06-08T09:39:29Z</time>
      </trkpt>
      <trkpt lat="47.34243" lon="-1.24759">
        <ele>21.5</ele>
        <time>2014-06-08T09:39:33Z</time>
      </trkpt>
      <trkpt lat="47.34235" lon="-1.24783">
        <ele>20.5</ele>
        <time>2014-06-08T09:39:42Z</time>
      </trkpt>
      <trkpt lat="47.34231" lon="-1.24796">
        <ele>19.5</ele>
        <time>2014-06-08T09:39:46Z</time>
      </trkpt>
      <trkpt lat="47.34228" lon="-1.24811">
        <ele>17.5</ele>
        <time>2014-06-08T09:39:50Z</time>
      </trkpt>
      <trkpt lat="47.34221" lon="-1.24829">
        <ele>20.5</ele>
        <time>2014-06-08T09:39:54Z</time>
      </trkpt>
      <trkpt lat="47.34216" lon="-1.24845">
        <ele>23.5</ele>
        <time>2014-06-08T09:39:58Z</time>
      </trkpt>
      <trkpt lat="47.3421" lon="-1.24855">
        <ele>23.5</ele>
        <time>2014-06-08T09:40:02Z</time>
      </trkpt>
      <trkpt lat="47.34198" lon="-1.24854">
        <ele>18.5</ele>
        <time>2014-06-08T09:40:21Z</time>
      </trkpt>
      <trkpt lat="47.34188" lon="-1.24841">
        <ele>21.5</ele>
        <time>2014-06-08T09:40:30Z</time>
      </trkpt>
      <trkpt lat="47.34166" lon="-1.24819">
        <ele>20.5</ele>
        <time>2014-06-08T09:40:38Z</time>
      </trkpt>
      <trkpt lat="47.34147" lon="-1.24827">
        <ele>20.5</ele>
        <time>2014-06-08T09:40:46Z</time>
      </trkpt>
      <trkpt lat="47.34137" lon="-1.24834">
        <ele>19.5</ele>
        <time>2014-06-08T09:40:50Z</time>
      </trkpt>
      <trkpt lat="47.34117" lon="-1.24848">
        <ele>20.5</ele>
        <time>2014-06-08T09:40:57Z</time>
      </trkpt>
      <trkpt lat="47.34101" lon="-1.24859">
        <ele>20.5</ele>
        <time>2014-06-08T09:41:01Z</time>
      </trkpt>
      <trkpt lat="47.34088" lon="-1.24868">
        <ele>19.5</ele>
        <time>2014-06-08T09:41:05Z</time>
      </trkpt>
      <trkpt lat="47.34075" lon="-1.24875">
        <ele>19.5</ele>
        <time>2014-06-08T09:41:09Z</time>
      </trkpt>
      <trkpt lat="47.34062" lon="-1.24883">
        <ele>19.5</ele>
        <time>2014-06-08T09:41:13Z</time>
      </trkpt>
      <trkpt lat="47.34051" lon="-1.24876">
        <ele>18.5</ele>
        <time>2014-06-08T09:41:26Z</time>
      </trkpt>
      <trkpt lat="47.34041" lon="-1.2488">
        <ele>22.5</ele>
        <time>2014-06-08T09:41:38Z</time>
      </trkpt>
      <trkpt lat="47.34026" lon="-1.24891">
        <ele>29.5</ele>
        <time>2014-06-08T09:41:46Z</time>
      </trkpt>
      <trkpt lat="47.34018" lon="-1.24899">
        <ele>35.5</ele>
        <time>2014-06-08T09:41:53Z</time>
      </trkpt>
      <trkpt lat="47.3401" lon="-1.24906">
        <ele>35.5</ele>
        <time>2014-06-08T09:41:57Z</time>
      </trkpt>
      <trkpt lat="47.33998" lon="-1.24912">
        <ele>32.5</ele>
        <time>2014-06-08T09:42:01Z</time>
      </trkpt>
      <trkpt lat="47.33983" lon="-1.2492">
        <ele>33.5</ele>
        <time>2014-06-08T09:42:09Z</time>
      </trkpt>
      <trkpt lat="47.33975" lon="-1.24925">
        <ele>33.5</ele>
        <time>2014-06-08T09:42:13Z</time>
      </trkpt>
      <trkpt lat="47.33966" lon="-1.24929">
        <ele>34.5</ele>
        <time>2014-06-08T09:42:18Z</time>
      </trkpt>
      <trkpt lat="47.33953" lon="-1.24931">
        <ele>26.5</ele>
        <time>2014-06-08T09:42:26Z</time>
      </trkpt>
      <trkpt lat="47.33937" lon="-1.24945">
        <ele>25.5</ele>
        <time>2014-06-08T09:42:34Z</time>
      </trkpt>
      <trkpt lat="47.33926" lon="-1.24952">
        <ele>26.5</ele>
        <time>2014-06-08T09:42:38Z</time>
      </trkpt>
      <trkpt lat="47.33916" lon="-1.24958">
        <ele>27.5</ele>
        <time>2014-06-08T09:42:42Z</time>
      </trkpt>
      <trkpt lat="47.33896" lon="-1.24958">
        <ele>24.5</ele>
        <time>2014-06-08T09:42:49Z</time>
      </trkpt>
      <trkpt lat="47.33887" lon="-1.24956">
        <ele>28.5</ele>
        <time>2014-06-08T09:42:53Z</time>
      </trkpt>
      <trkpt lat="47.33872" lon="-1.2495">
        <ele>32.5</ele>
        <time>2014-06-08T09:43:01Z</time>
      </trkpt>
      <trkpt lat="47.33852" lon="-1.24942">
        <ele>29.5</ele>
        <time>2014-06-08T09:43:09Z</time>
      </trkpt>
      <trkpt lat="47.33837" lon="-1.24936">
        <ele>33.5</ele>
        <time>2014-06-08T09:43:17Z</time>
      </trkpt>
      <trkpt lat="47.33826" lon="-1.24917">
        <ele>33.5</ele>
        <time>2014-06-08T09:43:26Z</time>
      </trkpt>
      <trkpt lat="47.33823" lon="-1.24903">
        <ele>31.5</ele>
        <time>2014-06-08T09:43:34Z</time>
      </trkpt>
      <trkpt lat="47.33813" lon="-1.24898">
        <ele>32.5</ele>
        <time>2014-06-08T09:43:42Z</time>
      </trkpt>
      <trkpt lat="47.33802" lon="-1.24902">
        <ele>34.5</ele>
        <time>2014-06-08T09:43:53Z</time>
      </trkpt>
      <trkpt lat="47.33788" lon="-1.24906">
        <ele>36.5</ele>
        <time>2014-06-08T09:44:01Z</time>
      </trkpt>
      <trkpt lat="47.33779" lon="-1.2491">
        <ele>36.5</ele>
        <time>2014-06-08T09:44:09Z</time>
      </trkpt>
      <trkpt lat="47.33767" lon="-1.24912">
        <ele>35.5</ele>
        <time>2014-06-08T09:44:17Z</time>
      </trkpt>
      <trkpt lat="47.33757" lon="-1.24916">
        <ele>40.5</ele>
        <time>2014-06-08T09:44:26Z</time>
      </trkpt>
      <trkpt lat="47.33748" lon="-1.2492">
        <ele>48.5</ele>
        <time>2014-06-08T09:44:34Z</time>
      </trkpt>
      <trkpt lat="47.33738" lon="-1.24925">
        <ele>47.5</ele>
        <time>2014-06-08T09:44:46Z</time>
      </trkpt>
      <trkpt lat="47.33725" lon="-1.24927">
        <ele>50.5</ele>
        <time>2014-06-08T09:44:57Z</time>
      </trkpt>
      <trkpt lat="47.33716" lon="-1.24928">
        <ele>50.5</ele>
        <time>2014-06-08T09:45:05Z</time>
      </trkpt>
      <trkpt lat="47.33703" lon="-1.24927">
        <ele>53.5</ele>
        <time>2014-06-08T09:45:18Z</time>
      </trkpt>
      <trkpt lat="47.33693" lon="-1.24928">
        <ele>55.5</ele>
        <time>2014-06-08T09:45:30Z</time>
      </trkpt>
      <trkpt lat="47.33683" lon="-1.24928">
        <ele>58.5</ele>
        <time>2014-06-08T09:45:41Z</time>
      </trkpt>
      <trkpt lat="47.33673" lon="-1.24929">
        <ele>58.5</ele>
        <time>2014-06-08T09:45:49Z</time>
      </trkpt>
      <trkpt lat="47.3366" lon="-1.24929">
        <ele>61.5</ele>
        <time>2014-06-08T09:46:01Z</time>
      </trkpt>
      <trkpt lat="47.33651" lon="-1.24928">
        <ele>63.5</ele>
        <time>2014-06-08T09:46:10Z</time>
      </trkpt>
      <trkpt lat="47.33642" lon="-1.24928">
        <ele>66.5</ele>
        <time>2014-06-08T09:46:18Z</time>
      </trkpt>
      <trkpt lat="47.33628" lon="-1.24923">
        <ele>66.5</ele>
        <time>2014-06-08T09:46:33Z</time>
      </trkpt>
      <trkpt lat="47.33618" lon="-1.24922">
        <ele>63.5</ele>
        <time>2014-06-08T09:46:41Z</time>
      </trkpt>
      <trkpt lat="47.33604" lon="-1.24922">
        <ele>63.5</ele>
        <time>2014-06-08T09:46:53Z</time>
      </trkpt>
      <trkpt lat="47.33595" lon="-1.24923">
        <ele>65.5</ele>
        <time>2014-06-08T09:47:06Z</time>
      </trkpt>
      <trkpt lat="47.33586" lon="-1.24928">
        <ele>67.5</ele>
        <time>2014-06-08T09:47:18Z</time>
      </trkpt>
      <trkpt lat="47.33574" lon="-1.24929">
        <ele>68.5</ele>
        <time>2014-06-08T09:47:29Z</time>
      </trkpt>
      <trkpt lat="47.3356" lon="-1.2493">
        <ele>68.5</ele>
        <time>2014-06-08T09:47:41Z</time>
      </trkpt>
      <trkpt lat="47.33547" lon="-1.24927">
        <ele>67.5</ele>
        <time>2014-06-08T09:47:57Z</time>
      </trkpt>
      <trkpt lat="47.33536" lon="-1.24927">
        <ele>70.5</ele>
        <time>2014-06-08T09:48:25Z</time>
      </trkpt>
      <trkpt lat="47.33524" lon="-1.24919">
        <ele>75.5</ele>
        <time>2014-06-08T09:48:49Z</time>
      </trkpt>
      <trkpt lat="47.33513" lon="-1.24909">
        <ele>78.5</ele>
        <time>2014-06-08T09:49:02Z</time>
      </trkpt>
      <trkpt lat="47.33502" lon="-1.24902">
        <ele>77.5</ele>
        <time>2014-06-08T09:49:10Z</time>
      </trkpt>
      <trkpt lat="47.33494" lon="-1.24896">
        <ele>78.5</ele>
        <time>2014-06-08T09:49:18Z</time>
      </trkpt>
      <trkpt lat="47.33484" lon="-1.24895">
        <ele>78.5</ele>
        <time>2014-06-08T09:50:06Z</time>
      </trkpt>
      <trkpt lat="47.3347" lon="-1.24894">
        <ele>80.5</ele>
        <time>2014-06-08T09:50:13Z</time>
      </trkpt>
      <trkpt lat="47.33461" lon="-1.24896">
        <ele>80.5</ele>
        <time>2014-06-08T09:50:17Z</time>
      </trkpt>
      <trkpt lat="47.33449" lon="-1.24897">
        <ele>80.5</ele>
        <time>2014-06-08T09:50:21Z</time>
      </trkpt>
      <trkpt lat="47.33429" lon="-1.24899">
        <ele>79.5</ele>
        <time>2014-06-08T09:50:29Z</time>
      </trkpt>
      <trkpt lat="47.33417" lon="-1.249">
        <ele>74.5</ele>
        <time>2014-06-08T09:50:33Z</time>
      </trkpt>
      <trkpt lat="47.33407" lon="-1.24904">
        <ele>72.5</ele>
        <time>2014-06-08T09:50:37Z</time>
      </trkpt>
      <trkpt lat="47.33397" lon="-1.24908">
        <ele>73.5</ele>
        <time>2014-06-08T09:50:42Z</time>
      </trkpt>
      <trkpt lat="47.33388" lon="-1.24911">
        <ele>73.5</ele>
        <time>2014-06-08T09:50:46Z</time>
      </trkpt>
      <trkpt lat="47.33379" lon="-1.24915">
        <ele>74.5</ele>
        <time>2014-06-08T09:50:50Z</time>
      </trkpt>
      <trkpt lat="47.3337" lon="-1.2492">
        <ele>73.5</ele>
        <time>2014-06-08T09:50:54Z</time>
      </trkpt>
      <trkpt lat="47.3336" lon="-1.24926">
        <ele>73.5</ele>
        <time>2014-06-08T09:50:58Z</time>
      </trkpt>
      <trkpt lat="47.33354" lon="-1.24936">
        <ele>73.5</ele>
        <time>2014-06-08T09:51:02Z</time>
      </trkpt>
      <trkpt lat="47.33353" lon="-1.24951">
        <ele>74.5</ele>
        <time>2014-06-08T09:51:06Z</time>
      </trkpt>
      <trkpt lat="47.3336" lon="-1.24988">
        <ele>76.5</ele>
        <time>2014-06-08T09:51:13Z</time>
      </trkpt>
      <trkpt lat="47.33364" lon="-1.25011">
        <ele>76.5</ele>
        <time>2014-06-08T09:51:17Z</time>
      </trkpt>
      <trkpt lat="47.33368" lon="-1.25036">
        <ele>75.5</ele>
        <time>2014-06-08T09:51:21Z</time>
      </trkpt>
      <trkpt lat="47.33373" lon="-1.25066">
        <ele>74.5</ele>
        <time>2014-06-08T09:51:25Z</time>
      </trkpt>
      <trkpt lat="47.33384" lon="-1.25093">
        <ele>73.5</ele>
        <time>2014-06-08T09:51:29Z</time>
      </trkpt>
      <trkpt lat="47.33399" lon="-1.25119">
        <ele>74.5</ele>
        <time>2014-06-08T09:51:34Z</time>
      </trkpt>
      <trkpt lat="47.33417" lon="-1.25142">
        <ele>74.5</ele>
        <time>2014-06-08T09:51:38Z</time>
      </trkpt>
      <trkpt lat="47.33434" lon="-1.25164">
        <ele>76.5</ele>
        <time>2014-06-08T09:51:42Z</time>
      </trkpt>
      <trkpt lat="47.33447" lon="-1.2518">
        <ele>76.5</ele>
        <time>2014-06-08T09:51:46Z</time>
      </trkpt>
      <trkpt lat="47.33461" lon="-1.25199">
        <ele>77.5</ele>
        <time>2014-06-08T09:51:50Z</time>
      </trkpt>
      <trkpt lat="47.33471" lon="-1.25211">
        <ele>77.5</ele>
        <time>2014-06-08T09:51:53Z</time>
      </trkpt>
      <trkpt lat="47.33484" lon="-1.25229">
        <ele>77.5</ele>
        <time>2014-06-08T09:51:57Z</time>
      </trkpt>
      <trkpt lat="47.33498" lon="-1.2525">
        <ele>79.5</ele>
        <time>2014-06-08T09:52:01Z</time>
      </trkpt>
      <trkpt lat="47.3351" lon="-1.25267">
        <ele>80.5</ele>
        <time>2014-06-08T09:52:05Z</time>
      </trkpt>
      <trkpt lat="47.3352" lon="-1.25288">
        <ele>81.5</ele>
        <time>2014-06-08T09:52:09Z</time>
      </trkpt>
      <trkpt lat="47.33529" lon="-1.2531">
        <ele>80.5</ele>
        <time>2014-06-08T09:52:13Z</time>
      </trkpt>
      <trkpt lat="47.33537" lon="-1.25335">
        <ele>80.5</ele>
        <time>2014-06-08T09:52:17Z</time>
      </trkpt>
      <trkpt lat="47.33544" lon="-1.25362">
        <ele>80.5</ele>
        <time>2014-06-08T09:52:21Z</time>
      </trkpt>
      <trkpt lat="47.33554" lon="-1.25382">
        <ele>79.5</ele>
        <time>2014-06-08T09:52:26Z</time>
      </trkpt>
      <trkpt lat="47.33578" lon="-1.25373">
        <ele>78.5</ele>
        <time>2014-06-08T09:52:30Z</time>
      </trkpt>
      <trkpt lat="47.33602" lon="-1.25368">
        <ele>77.5</ele>
        <time>2014-06-08T09:52:34Z</time>
      </trkpt>
      <trkpt lat="47.33627" lon="-1.25367">
        <ele>75.5</ele>
        <time>2014-06-08T09:52:38Z</time>
      </trkpt>
      <trkpt lat="47.33653" lon="-1.25363">
        <ele>74.5</ele>
        <time>2014-06-08T09:52:42Z</time>
      </trkpt>
      <trkpt lat="47.33677" lon="-1.25361">
        <ele>74.5</ele>
        <time>2014-06-08T09:52:46Z</time>
      </trkpt>
      <trkpt lat="47.33695" lon="-1.2536">
        <ele>72.5</ele>
        <time>2014-06-08T09:52:49Z</time>
      </trkpt>
      <trkpt lat="47.3372" lon="-1.2536">
        <ele>71.5</ele>
        <time>2014-06-08T09:52:53Z</time>
      </trkpt>
      <trkpt lat="47.33753" lon="-1.25358">
        <ele>68.5</ele>
        <time>2014-06-08T09:52:57Z</time>
      </trkpt>
      <trkpt lat="47.33776" lon="-1.25359">
        <ele>67.5</ele>
        <time>2014-06-08T09:53:01Z</time>
      </trkpt>
      <trkpt lat="47.33799" lon="-1.25351">
        <ele>63.5</ele>
        <time>2014-06-08T09:53:05Z</time>
      </trkpt>
      <trkpt lat="47.33817" lon="-1.25351">
        <ele>61.5</ele>
        <time>2014-06-08T09:53:09Z</time>
      </trkpt>
      <trkpt lat="47.33839" lon="-1.25346">
        <ele>52.5</ele>
        <time>2014-06-08T09:53:13Z</time>
      </trkpt>
      <trkpt lat="47.33857" lon="-1.25346">
        <ele>52.5</ele>
        <time>2014-06-08T09:53:17Z</time>
      </trkpt>
      <trkpt lat="47.33881" lon="-1.25351">
        <ele>49.5</ele>
        <time>2014-06-08T09:53:22Z</time>
      </trkpt>
      <trkpt lat="47.33902" lon="-1.25356">
        <ele>45.5</ele>
        <time>2014-06-08T09:53:26Z</time>
      </trkpt>
      <trkpt lat="47.33912" lon="-1.25359">
        <ele>42.5</ele>
        <time>2014-06-08T09:53:30Z</time>
      </trkpt>
      <trkpt lat="47.33925" lon="-1.25356">
        <ele>40.5</ele>
        <time>2014-06-08T09:53:34Z</time>
      </trkpt>
      <trkpt lat="47.33936" lon="-1.25355">
        <ele>42.5</ele>
        <time>2014-06-08T09:53:38Z</time>
      </trkpt>
      <trkpt lat="47.3396" lon="-1.25355">
        <ele>35.5</ele>
        <time>2014-06-08T09:53:42Z</time>
      </trkpt>
      <trkpt lat="47.33982" lon="-1.25383">
        <ele>32.5</ele>
        <time>2014-06-08T09:53:49Z</time>
      </trkpt>
      <trkpt lat="47.33988" lon="-1.25397">
        <ele>30.5</ele>
        <time>2014-06-08T09:53:53Z</time>
      </trkpt>
      <trkpt lat="47.33984" lon="-1.25418">
        <ele>27.5</ele>
        <time>2014-06-08T09:53:57Z</time>
      </trkpt>
      <trkpt lat="47.33977" lon="-1.25432">
        <ele>25.5</ele>
        <time>2014-06-08T09:54:01Z</time>
      </trkpt>
      <trkpt lat="47.33974" lon="-1.25459">
        <ele>26.5</ele>
        <time>2014-06-08T09:54:05Z</time>
      </trkpt>
      <trkpt lat="47.3399" lon="-1.2547">
        <ele>21.5</ele>
        <time>2014-06-08T09:54:09Z</time>
      </trkpt>
      <trkpt lat="47.34006" lon="-1.25483">
        <ele>20.5</ele>
        <time>2014-06-08T09:54:14Z</time>
      </trkpt>
      <trkpt lat="47.34007" lon="-1.25509">
        <ele>18.5</ele>
        <time>2014-06-08T09:54:18Z</time>
      </trkpt>
      <trkpt lat="47.34006" lon="-1.25539">
        <ele>15.5</ele>
        <time>2014-06-08T09:54:22Z</time>
      </trkpt>
      <trkpt lat="47.34005" lon="-1.25569">
        <ele>12.5</ele>
        <time>2014-06-08T09:54:26Z</time>
      </trkpt>
      <trkpt lat="47.34007" lon="-1.25598">
        <ele>13.5</ele>
        <time>2014-06-08T09:54:30Z</time>
      </trkpt>
      <trkpt lat="47.34009" lon="-1.25628">
        <ele>14.5</ele>
        <time>2014-06-08T09:54:34Z</time>
      </trkpt>
      <trkpt lat="47.3401" lon="-1.2565">
        <ele>14.5</ele>
        <time>2014-06-08T09:54:37Z</time>
      </trkpt>
      <trkpt lat="47.34011" lon="-1.2567">
        <ele>16.5</ele>
        <time>2014-06-08T09:54:41Z</time>
      </trkpt>
      <trkpt lat="47.34005" lon="-1.25687">
        <ele>17.5</ele>
        <time>2014-06-08T09:54:45Z</time>
      </trkpt>
      <trkpt lat="47.33988" lon="-1.2569">
        <ele>18.5</ele>
        <time>2014-06-08T09:54:53Z</time>
      </trkpt>
      <trkpt lat="47.33974" lon="-1.25694">
        <ele>20.5</ele>
        <time>2014-06-08T09:55:01Z</time>
      </trkpt>
      <trkpt lat="47.33961" lon="-1.25695">
        <ele>24.5</ele>
        <time>2014-06-08T09:55:10Z</time>
      </trkpt>
      <trkpt lat="47.33949" lon="-1.25697">
        <ele>31.5</ele>
        <time>2014-06-08T09:55:18Z</time>
      </trkpt>
      <trkpt lat="47.33938" lon="-1.25696">
        <ele>33.5</ele>
        <time>2014-06-08T09:55:26Z</time>
      </trkpt>
      <trkpt lat="47.33924" lon="-1.25691">
        <ele>32.5</ele>
        <time>2014-06-08T09:55:34Z</time>
      </trkpt>
      <trkpt lat="47.3391" lon="-1.25681">
        <ele>31.5</ele>
        <time>2014-06-08T09:55:41Z</time>
      </trkpt>
      <trkpt lat="47.33898" lon="-1.25675">
        <ele>33.5</ele>
        <time>2014-06-08T09:55:49Z</time>
      </trkpt>
      <trkpt lat="47.339" lon="-1.25694">
        <ele>32.5</ele>
        <time>2014-06-08T09:56:06Z</time>
      </trkpt>
      <trkpt lat="47.3389" lon="-1.25705">
        <ele>40.5</ele>
        <time>2014-06-08T09:56:25Z</time>
      </trkpt>
      <trkpt lat="47.33881" lon="-1.25709">
        <ele>42.5</ele>
        <time>2014-06-08T09:56:33Z</time>
      </trkpt>
      <trkpt lat="47.33873" lon="-1.25715">
        <ele>42.5</ele>
        <time>2014-06-08T09:56:41Z</time>
      </trkpt>
      <trkpt lat="47.33863" lon="-1.25726">
        <ele>47.5</ele>
        <time>2014-06-08T09:56:54Z</time>
      </trkpt>
      <trkpt lat="47.33854" lon="-1.25733">
        <ele>52.5</ele>
        <time>2014-06-08T09:57:06Z</time>
      </trkpt>
      <trkpt lat="47.33845" lon="-1.2574">
        <ele>53.5</ele>
        <time>2014-06-08T09:57:17Z</time>
      </trkpt>
      <trkpt lat="47.33834" lon="-1.25754">
        <ele>57.5</ele>
        <time>2014-06-08T09:57:29Z</time>
      </trkpt>
      <trkpt lat="47.33827" lon="-1.25768">
        <ele>52.5</ele>
        <time>2014-06-08T09:57:41Z</time>
      </trkpt>
      <trkpt lat="47.33821" lon="-1.25783">
        <ele>55.5</ele>
        <time>2014-06-08T09:58:10Z</time>
      </trkpt>
      <trkpt lat="47.33816" lon="-1.25798">
        <ele>55.5</ele>
        <time>2014-06-08T09:58:17Z</time>
      </trkpt>
      <trkpt lat="47.33812" lon="-1.25812">
        <ele>55.5</ele>
        <time>2014-06-08T09:58:25Z</time>
      </trkpt>
      <trkpt lat="47.33808" lon="-1.25827">
        <ele>56.5</ele>
        <time>2014-06-08T09:58:33Z</time>
      </trkpt>
      <trkpt lat="47.33805" lon="-1.25842">
        <ele>56.5</ele>
        <time>2014-06-08T09:58:42Z</time>
      </trkpt>
      <trkpt lat="47.33802" lon="-1.25859">
        <ele>57.5</ele>
        <time>2014-06-08T09:58:50Z</time>
      </trkpt>
      <trkpt lat="47.33798" lon="-1.25876">
        <ele>59.5</ele>
        <time>2014-06-08T09:58:58Z</time>
      </trkpt>
      <trkpt lat="47.33793" lon="-1.25894">
        <ele>60.5</ele>
        <time>2014-06-08T09:59:05Z</time>
      </trkpt>
      <trkpt lat="47.33791" lon="-1.25914">
        <ele>61.5</ele>
        <time>2014-06-08T09:59:13Z</time>
      </trkpt>
      <trkpt lat="47.3379" lon="-1.25935">
        <ele>62.5</ele>
        <time>2014-06-08T09:59:21Z</time>
      </trkpt>
      <trkpt lat="47.33789" lon="-1.25958">
        <ele>63.5</ele>
        <time>2014-06-08T09:59:30Z</time>
      </trkpt>
      <trkpt lat="47.33788" lon="-1.25978">
        <ele>61.5</ele>
        <time>2014-06-08T09:59:38Z</time>
      </trkpt>
      <trkpt lat="47.33787" lon="-1.25992">
        <ele>62.5</ele>
        <time>2014-06-08T09:59:42Z</time>
      </trkpt>
      <trkpt lat="47.33785" lon="-1.2601">
        <ele>66.5</ele>
        <time>2014-06-08T09:59:49Z</time>
      </trkpt>
      <trkpt lat="47.33785" lon="-1.26024">
        <ele>66.5</ele>
        <time>2014-06-08T09:59:53Z</time>
      </trkpt>
      <trkpt lat="47.33783" lon="-1.2605">
        <ele>68.5</ele>
        <time>2014-06-08T10:00:01Z</time>
      </trkpt>
      <trkpt lat="47.33782" lon="-1.26064">
        <ele>69.5</ele>
        <time>2014-06-08T10:00:05Z</time>
      </trkpt>
      <trkpt lat="47.33781" lon="-1.26079">
        <ele>70.5</ele>
        <time>2014-06-08T10:00:09Z</time>
      </trkpt>
      <trkpt lat="47.3378" lon="-1.26094">
        <ele>70.5</ele>
        <time>2014-06-08T10:00:13Z</time>
      </trkpt>
      <trkpt lat="47.33779" lon="-1.26109">
        <ele>71.5</ele>
        <time>2014-06-08T10:00:17Z</time>
      </trkpt>
      <trkpt lat="47.33778" lon="-1.26123">
        <ele>72.5</ele>
        <time>2014-06-08T10:00:22Z</time>
      </trkpt>
      <trkpt lat="47.33777" lon="-1.26137">
        <ele>71.5</ele>
        <time>2014-06-08T10:00:26Z</time>
      </trkpt>
      <trkpt lat="47.33773" lon="-1.26152">
        <ele>73.5</ele>
        <time>2014-06-08T10:00:30Z</time>
      </trkpt>
      <trkpt lat="47.3377" lon="-1.26164">
        <ele>79.5</ele>
        <time>2014-06-08T10:00:34Z</time>
      </trkpt>
      <trkpt lat="47.33767" lon="-1.26178">
        <ele>78.5</ele>
        <time>2014-06-08T10:00:38Z</time>
      </trkpt>
      <trkpt lat="47.33762" lon="-1.26192">
        <ele>77.5</ele>
        <time>2014-06-08T10:00:42Z</time>
      </trkpt>
      <trkpt lat="47.33756" lon="-1.26204">
        <ele>79.5</ele>
        <time>2014-06-08T10:00:46Z</time>
      </trkpt>
      <trkpt lat="47.3375" lon="-1.26215">
        <ele>82.5</ele>
        <time>2014-06-08T10:00:50Z</time>
      </trkpt>
      <trkpt lat="47.33742" lon="-1.2624">
        <ele>84.5</ele>
        <time>2014-06-08T10:00:58Z</time>
      </trkpt>
      <trkpt lat="47.33745" lon="-1.26273">
        <ele>82.5</ele>
        <time>2014-06-08T10:01:05Z</time>
      </trkpt>
      <trkpt lat="47.33746" lon="-1.26288">
        <ele>83.5</ele>
        <time>2014-06-08T10:01:09Z</time>
      </trkpt>
      <trkpt lat="47.33747" lon="-1.26305">
        <ele>82.5</ele>
        <time>2014-06-08T10:01:13Z</time>
      </trkpt>
      <trkpt lat="47.33748" lon="-1.26321">
        <ele>82.5</ele>
        <time>2014-06-08T10:01:17Z</time>
      </trkpt>
      <trkpt lat="47.33748" lon="-1.26335">
        <ele>82.5</ele>
        <time>2014-06-08T10:01:21Z</time>
      </trkpt>
      <trkpt lat="47.33754" lon="-1.26356">
        <ele>84.5</ele>
        <time>2014-06-08T10:01:30Z</time>
      </trkpt>
      <trkpt lat="47.3377" lon="-1.2636">
        <ele>84.5</ele>
        <time>2014-06-08T10:01:34Z</time>
      </trkpt>
      <trkpt lat="47.33784" lon="-1.26356">
        <ele>85.5</ele>
        <time>2014-06-08T10:01:38Z</time>
      </trkpt>
      <trkpt lat="47.3381" lon="-1.26356">
        <ele>80.5</ele>
        <time>2014-06-08T10:01:42Z</time>
      </trkpt>
      <trkpt lat="47.33828" lon="-1.26357">
        <ele>78.5</ele>
        <time>2014-06-08T10:01:46Z</time>
      </trkpt>
      <trkpt lat="47.33851" lon="-1.26362">
        <ele>74.5</ele>
        <time>2014-06-08T10:01:53Z</time>
      </trkpt>
      <trkpt lat="47.33859" lon="-1.26366">
        <ele>76.5</ele>
        <time>2014-06-08T10:01:57Z</time>
      </trkpt>
      <trkpt lat="47.33874" lon="-1.26384">
        <ele>79.5</ele>
        <time>2014-06-08T10:02:05Z</time>
      </trkpt>
      <trkpt lat="47.33881" lon="-1.26406">
        <ele>82.5</ele>
        <time>2014-06-08T10:02:13Z</time>
      </trkpt>
      <trkpt lat="47.33886" lon="-1.26432">
        <ele>80.5</ele>
        <time>2014-06-08T10:02:22Z</time>
      </trkpt>
      <trkpt lat="47.3389" lon="-1.26447">
        <ele>84.5</ele>
        <time>2014-06-08T10:02:30Z</time>
      </trkpt>
      <trkpt lat="47.33893" lon="-1.26465">
        <ele>91.5</ele>
        <time>2014-06-08T10:02:38Z</time>
      </trkpt>
      <trkpt lat="47.33894" lon="-1.26486">
        <ele>87.5</ele>
        <time>2014-06-08T10:02:45Z</time>
      </trkpt>
      <trkpt lat="47.33895" lon="-1.26513">
        <ele>86.5</ele>
        <time>2014-06-08T10:02:53Z</time>
      </trkpt>
      <trkpt lat="47.33887" lon="-1.26529">
        <ele>86.5</ele>
        <time>2014-06-08T10:03:01Z</time>
      </trkpt>
      <trkpt lat="47.33879" lon="-1.26539">
        <ele>85.5</ele>
        <time>2014-06-08T10:03:09Z</time>
      </trkpt>
      <trkpt lat="47.33866" lon="-1.26543">
        <ele>91.5</ele>
        <time>2014-06-08T10:03:22Z</time>
      </trkpt>
      <trkpt lat="47.33858" lon="-1.26552">
        <ele>85.5</ele>
        <time>2014-06-08T10:05:54Z</time>
      </trkpt>
      <trkpt lat="47.33858" lon="-1.26555">
        <ele>84.5</ele>
        <time>2014-06-08T10:05:58Z</time>
      </trkpt>
      <trkpt lat="47.33858" lon="-1.26555">
        <ele>84.5</ele>
        <time>2014-06-08T10:06:00Z</time>
      </trkpt>
    </trkseg>
  </trk>
</gpx>